<?xml version="1.0" encoding="UTF-8" standalone="no" ?>
<gpx xmlns="http://www.topografix.com/GPX/1/1" xmlns:xsi="http://www.w3.org/2001/XMLSchema-instance" xsi:schemaLocation="http://www.topografix.com/GPX/1/1 http://www.topografix.com/GPX/1/1/gpx.xsd" version="1.1" creator="VisuGPX - https://www.visugpx.com">
  <metadata>
    <name>Rando pédestre Jarzé 2017</name>
    <desc><![CDATA[Rando de 15 km environ. Effectuée le 16 septembre 2017.]]></desc>
  </metadata>
  <trk>
    <name><![CDATA[2017-09-16T06:35:07Z]]></name>
    <trkseg>
      <trkpt lat="47.55892" lon="-0.23288">
        <ele>60.3</ele>
        <time>2017-09-16T06:35:07Z</time>
      </trkpt>
      <trkpt lat="47.55895" lon="-0.23284">
        <ele>60.7</ele>
        <time>2017-09-16T06:35:12Z</time>
      </trkpt>
      <trkpt lat="47.559" lon="-0.23286">
        <ele>61.1</ele>
        <time>2017-09-16T06:35:17Z</time>
      </trkpt>
      <trkpt lat="47.55903" lon="-0.23293">
        <ele>61.3</ele>
        <time>2017-09-16T06:35:22Z</time>
      </trkpt>
      <trkpt lat="47.55905" lon="-0.233">
        <ele>61.3</ele>
        <time>2017-09-16T06:35:27Z</time>
      </trkpt>
      <trkpt lat="47.55855" lon="-0.23306">
        <ele>60</ele>
        <time>2017-09-16T06:35:32Z</time>
      </trkpt>
      <trkpt lat="47.55859" lon="-0.23312">
        <ele>59.8</ele>
        <time>2017-09-16T06:35:37Z</time>
      </trkpt>
      <trkpt lat="47.55863" lon="-0.23319">
        <ele>59.5</ele>
        <time>2017-09-16T06:35:42Z</time>
      </trkpt>
      <trkpt lat="47.55869" lon="-0.23324">
        <ele>59.3</ele>
        <time>2017-09-16T06:35:47Z</time>
      </trkpt>
      <trkpt lat="47.55874" lon="-0.23327">
        <ele>59.2</ele>
        <time>2017-09-16T06:35:52Z</time>
      </trkpt>
      <trkpt lat="47.55879" lon="-0.23323">
        <ele>59.4</ele>
        <time>2017-09-16T06:35:57Z</time>
      </trkpt>
      <trkpt lat="47.55883" lon="-0.23317">
        <ele>59.6</ele>
        <time>2017-09-16T06:36:02Z</time>
      </trkpt>
      <trkpt lat="47.55888" lon="-0.23313">
        <ele>59.7</ele>
        <time>2017-09-16T06:36:07Z</time>
      </trkpt>
      <trkpt lat="47.55893" lon="-0.23308">
        <ele>60.2</ele>
        <time>2017-09-16T06:36:12Z</time>
      </trkpt>
      <trkpt lat="47.55898" lon="-0.23303">
        <ele>60.6</ele>
        <time>2017-09-16T06:36:17Z</time>
      </trkpt>
      <trkpt lat="47.55902" lon="-0.23301">
        <ele>61</ele>
        <time>2017-09-16T06:36:22Z</time>
      </trkpt>
      <trkpt lat="47.55906" lon="-0.23307">
        <ele>61.1</ele>
        <time>2017-09-16T06:36:27Z</time>
      </trkpt>
      <trkpt lat="47.55909" lon="-0.23314">
        <ele>60.7</ele>
        <time>2017-09-16T06:36:32Z</time>
      </trkpt>
      <trkpt lat="47.55913" lon="-0.23321">
        <ele>60.2</ele>
        <time>2017-09-16T06:36:37Z</time>
      </trkpt>
      <trkpt lat="47.55916" lon="-0.23328">
        <ele>59.6</ele>
        <time>2017-09-16T06:36:42Z</time>
      </trkpt>
      <trkpt lat="47.5592" lon="-0.23336">
        <ele>58.7</ele>
        <time>2017-09-16T06:36:47Z</time>
      </trkpt>
      <trkpt lat="47.55925" lon="-0.23344">
        <ele>58.3</ele>
        <time>2017-09-16T06:36:52Z</time>
      </trkpt>
      <trkpt lat="47.55929" lon="-0.23353">
        <ele>57.8</ele>
        <time>2017-09-16T06:36:57Z</time>
      </trkpt>
      <trkpt lat="47.55932" lon="-0.23362">
        <ele>57.3</ele>
        <time>2017-09-16T06:37:02Z</time>
      </trkpt>
      <trkpt lat="47.55933" lon="-0.23373">
        <ele>57.1</ele>
        <time>2017-09-16T06:37:07Z</time>
      </trkpt>
      <trkpt lat="47.55934" lon="-0.23383">
        <ele>56.9</ele>
        <time>2017-09-16T06:37:12Z</time>
      </trkpt>
      <trkpt lat="47.55935" lon="-0.23392">
        <ele>56.8</ele>
        <time>2017-09-16T06:37:17Z</time>
      </trkpt>
      <trkpt lat="47.55938" lon="-0.23399">
        <ele>57</ele>
        <time>2017-09-16T06:37:22Z</time>
      </trkpt>
      <trkpt lat="47.55943" lon="-0.23405">
        <ele>57.2</ele>
        <time>2017-09-16T06:37:27Z</time>
      </trkpt>
      <trkpt lat="47.55947" lon="-0.23412">
        <ele>57.5</ele>
        <time>2017-09-16T06:37:32Z</time>
      </trkpt>
      <trkpt lat="47.55951" lon="-0.23419">
        <ele>57.5</ele>
        <time>2017-09-16T06:37:37Z</time>
      </trkpt>
      <trkpt lat="47.55956" lon="-0.23425">
        <ele>57.3</ele>
        <time>2017-09-16T06:37:42Z</time>
      </trkpt>
      <trkpt lat="47.5596" lon="-0.23431">
        <ele>57.2</ele>
        <time>2017-09-16T06:37:47Z</time>
      </trkpt>
      <trkpt lat="47.55964" lon="-0.23437">
        <ele>57.1</ele>
        <time>2017-09-16T06:37:52Z</time>
      </trkpt>
      <trkpt lat="47.55969" lon="-0.23443">
        <ele>57.1</ele>
        <time>2017-09-16T06:37:57Z</time>
      </trkpt>
      <trkpt lat="47.55972" lon="-0.23451">
        <ele>57.5</ele>
        <time>2017-09-16T06:38:02Z</time>
      </trkpt>
      <trkpt lat="47.55972" lon="-0.23459">
        <ele>58</ele>
        <time>2017-09-16T06:38:07Z</time>
      </trkpt>
      <trkpt lat="47.55969" lon="-0.23465">
        <ele>58.5</ele>
        <time>2017-09-16T06:38:12Z</time>
      </trkpt>
      <trkpt lat="47.55966" lon="-0.23472">
        <ele>59</ele>
        <time>2017-09-16T06:38:17Z</time>
      </trkpt>
      <trkpt lat="47.55962" lon="-0.23479">
        <ele>59</ele>
        <time>2017-09-16T06:38:22Z</time>
      </trkpt>
      <trkpt lat="47.5596" lon="-0.23486">
        <ele>59</ele>
        <time>2017-09-16T06:38:27Z</time>
      </trkpt>
      <trkpt lat="47.55957" lon="-0.23493">
        <ele>59</ele>
        <time>2017-09-16T06:38:32Z</time>
      </trkpt>
      <trkpt lat="47.55954" lon="-0.235">
        <ele>59</ele>
        <time>2017-09-16T06:38:37Z</time>
      </trkpt>
      <trkpt lat="47.55951" lon="-0.23507">
        <ele>59</ele>
        <time>2017-09-16T06:38:42Z</time>
      </trkpt>
      <trkpt lat="47.55948" lon="-0.23515">
        <ele>59</ele>
        <time>2017-09-16T06:38:47Z</time>
      </trkpt>
      <trkpt lat="47.55944" lon="-0.23522">
        <ele>59</ele>
        <time>2017-09-16T06:38:52Z</time>
      </trkpt>
      <trkpt lat="47.55941" lon="-0.23529">
        <ele>59</ele>
        <time>2017-09-16T06:38:57Z</time>
      </trkpt>
      <trkpt lat="47.55937" lon="-0.23536">
        <ele>59</ele>
        <time>2017-09-16T06:39:02Z</time>
      </trkpt>
      <trkpt lat="47.55934" lon="-0.23544">
        <ele>59</ele>
        <time>2017-09-16T06:39:07Z</time>
      </trkpt>
      <trkpt lat="47.5593" lon="-0.23552">
        <ele>59</ele>
        <time>2017-09-16T06:39:12Z</time>
      </trkpt>
      <trkpt lat="47.55927" lon="-0.2356">
        <ele>58.9</ele>
        <time>2017-09-16T06:39:17Z</time>
      </trkpt>
      <trkpt lat="47.55924" lon="-0.23567">
        <ele>58.7</ele>
        <time>2017-09-16T06:39:22Z</time>
      </trkpt>
      <trkpt lat="47.5592" lon="-0.23575">
        <ele>58.4</ele>
        <time>2017-09-16T06:39:27Z</time>
      </trkpt>
      <trkpt lat="47.55918" lon="-0.23583">
        <ele>58</ele>
        <time>2017-09-16T06:39:32Z</time>
      </trkpt>
      <trkpt lat="47.55914" lon="-0.23591">
        <ele>58.2</ele>
        <time>2017-09-16T06:39:37Z</time>
      </trkpt>
      <trkpt lat="47.55911" lon="-0.23598">
        <ele>58.4</ele>
        <time>2017-09-16T06:39:42Z</time>
      </trkpt>
      <trkpt lat="47.55907" lon="-0.23605">
        <ele>58.5</ele>
        <time>2017-09-16T06:39:47Z</time>
      </trkpt>
      <trkpt lat="47.55904" lon="-0.23614">
        <ele>58.5</ele>
        <time>2017-09-16T06:39:52Z</time>
      </trkpt>
      <trkpt lat="47.559" lon="-0.23621">
        <ele>58.4</ele>
        <time>2017-09-16T06:39:57Z</time>
      </trkpt>
      <trkpt lat="47.55897" lon="-0.23629">
        <ele>58.3</ele>
        <time>2017-09-16T06:40:02Z</time>
      </trkpt>
      <trkpt lat="47.55893" lon="-0.23636">
        <ele>58.2</ele>
        <time>2017-09-16T06:40:07Z</time>
      </trkpt>
      <trkpt lat="47.5589" lon="-0.23643">
        <ele>58.2</ele>
        <time>2017-09-16T06:40:12Z</time>
      </trkpt>
      <trkpt lat="47.55887" lon="-0.23651">
        <ele>58.5</ele>
        <time>2017-09-16T06:40:17Z</time>
      </trkpt>
      <trkpt lat="47.55883" lon="-0.23658">
        <ele>58.8</ele>
        <time>2017-09-16T06:40:22Z</time>
      </trkpt>
      <trkpt lat="47.5588" lon="-0.23666">
        <ele>59</ele>
        <time>2017-09-16T06:40:27Z</time>
      </trkpt>
      <trkpt lat="47.55877" lon="-0.23673">
        <ele>59</ele>
        <time>2017-09-16T06:40:32Z</time>
      </trkpt>
      <trkpt lat="47.55873" lon="-0.23681">
        <ele>59</ele>
        <time>2017-09-16T06:40:37Z</time>
      </trkpt>
      <trkpt lat="47.55871" lon="-0.23689">
        <ele>59</ele>
        <time>2017-09-16T06:40:42Z</time>
      </trkpt>
      <trkpt lat="47.55867" lon="-0.23697">
        <ele>59</ele>
        <time>2017-09-16T06:40:47Z</time>
      </trkpt>
      <trkpt lat="47.55864" lon="-0.23705">
        <ele>59</ele>
        <time>2017-09-16T06:40:52Z</time>
      </trkpt>
      <trkpt lat="47.55861" lon="-0.23713">
        <ele>59</ele>
        <time>2017-09-16T06:40:57Z</time>
      </trkpt>
      <trkpt lat="47.55859" lon="-0.23721">
        <ele>59.1</ele>
        <time>2017-09-16T06:41:02Z</time>
      </trkpt>
      <trkpt lat="47.55855" lon="-0.23728">
        <ele>59.4</ele>
        <time>2017-09-16T06:41:07Z</time>
      </trkpt>
      <trkpt lat="47.55853" lon="-0.23735">
        <ele>59.6</ele>
        <time>2017-09-16T06:41:12Z</time>
      </trkpt>
      <trkpt lat="47.55851" lon="-0.23743">
        <ele>59.8</ele>
        <time>2017-09-16T06:41:17Z</time>
      </trkpt>
      <trkpt lat="47.55847" lon="-0.23751">
        <ele>60</ele>
        <time>2017-09-16T06:41:22Z</time>
      </trkpt>
      <trkpt lat="47.55844" lon="-0.23758">
        <ele>60.3</ele>
        <time>2017-09-16T06:41:27Z</time>
      </trkpt>
      <trkpt lat="47.5584" lon="-0.23762">
        <ele>60.4</ele>
        <time>2017-09-16T06:41:32Z</time>
      </trkpt>
      <trkpt lat="47.55839" lon="-0.23766">
        <ele>60.6</ele>
        <time>2017-09-16T06:41:37Z</time>
      </trkpt>
      <trkpt lat="47.5584" lon="-0.23771">
        <ele>60.8</ele>
        <time>2017-09-16T06:41:42Z</time>
      </trkpt>
      <trkpt lat="47.55844" lon="-0.23775">
        <ele>60.9</ele>
        <time>2017-09-16T06:41:47Z</time>
      </trkpt>
      <trkpt lat="47.55848" lon="-0.23779">
        <ele>61</ele>
        <time>2017-09-16T06:41:52Z</time>
      </trkpt>
      <trkpt lat="47.55854" lon="-0.23781">
        <ele>61.1</ele>
        <time>2017-09-16T06:41:57Z</time>
      </trkpt>
      <trkpt lat="47.55859" lon="-0.23784">
        <ele>61.2</ele>
        <time>2017-09-16T06:42:02Z</time>
      </trkpt>
      <trkpt lat="47.55865" lon="-0.23788">
        <ele>61.2</ele>
        <time>2017-09-16T06:42:07Z</time>
      </trkpt>
      <trkpt lat="47.55871" lon="-0.23791">
        <ele>61.1</ele>
        <time>2017-09-16T06:42:12Z</time>
      </trkpt>
      <trkpt lat="47.55876" lon="-0.23794">
        <ele>61.1</ele>
        <time>2017-09-16T06:42:17Z</time>
      </trkpt>
      <trkpt lat="47.55882" lon="-0.23798">
        <ele>61</ele>
        <time>2017-09-16T06:42:22Z</time>
      </trkpt>
      <trkpt lat="47.55887" lon="-0.23801">
        <ele>60.9</ele>
        <time>2017-09-16T06:42:27Z</time>
      </trkpt>
      <trkpt lat="47.55893" lon="-0.23804">
        <ele>61</ele>
        <time>2017-09-16T06:42:32Z</time>
      </trkpt>
      <trkpt lat="47.55899" lon="-0.23809">
        <ele>61.1</ele>
        <time>2017-09-16T06:42:37Z</time>
      </trkpt>
      <trkpt lat="47.55904" lon="-0.23812">
        <ele>61.2</ele>
        <time>2017-09-16T06:42:42Z</time>
      </trkpt>
      <trkpt lat="47.55909" lon="-0.23817">
        <ele>61.4</ele>
        <time>2017-09-16T06:42:47Z</time>
      </trkpt>
      <trkpt lat="47.55915" lon="-0.23821">
        <ele>61.6</ele>
        <time>2017-09-16T06:42:52Z</time>
      </trkpt>
      <trkpt lat="47.5592" lon="-0.23826">
        <ele>61.7</ele>
        <time>2017-09-16T06:42:57Z</time>
      </trkpt>
      <trkpt lat="47.55926" lon="-0.2383">
        <ele>61.9</ele>
        <time>2017-09-16T06:43:02Z</time>
      </trkpt>
      <trkpt lat="47.55931" lon="-0.23835">
        <ele>62.1</ele>
        <time>2017-09-16T06:43:07Z</time>
      </trkpt>
      <trkpt lat="47.55936" lon="-0.2384">
        <ele>62.5</ele>
        <time>2017-09-16T06:43:12Z</time>
      </trkpt>
      <trkpt lat="47.55941" lon="-0.23845">
        <ele>62.8</ele>
        <time>2017-09-16T06:43:17Z</time>
      </trkpt>
      <trkpt lat="47.55947" lon="-0.23849">
        <ele>63.1</ele>
        <time>2017-09-16T06:43:22Z</time>
      </trkpt>
      <trkpt lat="47.55953" lon="-0.23853">
        <ele>63.2</ele>
        <time>2017-09-16T06:43:27Z</time>
      </trkpt>
      <trkpt lat="47.55958" lon="-0.23857">
        <ele>63.3</ele>
        <time>2017-09-16T06:43:32Z</time>
      </trkpt>
      <trkpt lat="47.55963" lon="-0.23861">
        <ele>63.3</ele>
        <time>2017-09-16T06:43:37Z</time>
      </trkpt>
      <trkpt lat="47.55968" lon="-0.23865">
        <ele>63.4</ele>
        <time>2017-09-16T06:43:42Z</time>
      </trkpt>
      <trkpt lat="47.5597" lon="-0.23866">
        <ele>63.4</ele>
        <time>2017-09-16T06:43:47Z</time>
      </trkpt>
      <trkpt lat="47.55972" lon="-0.23868">
        <ele>63.5</ele>
        <time>2017-09-16T06:43:52Z</time>
      </trkpt>
      <trkpt lat="47.55976" lon="-0.2387">
        <ele>63.6</ele>
        <time>2017-09-16T06:43:57Z</time>
      </trkpt>
      <trkpt lat="47.55981" lon="-0.23873">
        <ele>63.7</ele>
        <time>2017-09-16T06:44:02Z</time>
      </trkpt>
      <trkpt lat="47.55987" lon="-0.23876">
        <ele>63.8</ele>
        <time>2017-09-16T06:44:07Z</time>
      </trkpt>
      <trkpt lat="47.55993" lon="-0.2388">
        <ele>63.8</ele>
        <time>2017-09-16T06:44:12Z</time>
      </trkpt>
      <trkpt lat="47.55998" lon="-0.23883">
        <ele>63.8</ele>
        <time>2017-09-16T06:44:17Z</time>
      </trkpt>
      <trkpt lat="47.56004" lon="-0.23886">
        <ele>63.9</ele>
        <time>2017-09-16T06:44:22Z</time>
      </trkpt>
      <trkpt lat="47.56009" lon="-0.23889">
        <ele>64</ele>
        <time>2017-09-16T06:44:27Z</time>
      </trkpt>
      <trkpt lat="47.56015" lon="-0.23895">
        <ele>64.3</ele>
        <time>2017-09-16T06:44:32Z</time>
      </trkpt>
      <trkpt lat="47.5602" lon="-0.239">
        <ele>64.5</ele>
        <time>2017-09-16T06:44:37Z</time>
      </trkpt>
      <trkpt lat="47.56026" lon="-0.23903">
        <ele>64.5</ele>
        <time>2017-09-16T06:44:42Z</time>
      </trkpt>
      <trkpt lat="47.56032" lon="-0.23906">
        <ele>64.6</ele>
        <time>2017-09-16T06:44:47Z</time>
      </trkpt>
      <trkpt lat="47.56037" lon="-0.23909">
        <ele>64.7</ele>
        <time>2017-09-16T06:44:52Z</time>
      </trkpt>
      <trkpt lat="47.56042" lon="-0.23913">
        <ele>64.9</ele>
        <time>2017-09-16T06:44:57Z</time>
      </trkpt>
      <trkpt lat="47.56048" lon="-0.23917">
        <ele>65</ele>
        <time>2017-09-16T06:45:02Z</time>
      </trkpt>
      <trkpt lat="47.56053" lon="-0.23921">
        <ele>65.2</ele>
        <time>2017-09-16T06:45:07Z</time>
      </trkpt>
      <trkpt lat="47.56058" lon="-0.23925">
        <ele>65.2</ele>
        <time>2017-09-16T06:45:12Z</time>
      </trkpt>
      <trkpt lat="47.56064" lon="-0.2393">
        <ele>65.3</ele>
        <time>2017-09-16T06:45:17Z</time>
      </trkpt>
      <trkpt lat="47.5607" lon="-0.23934">
        <ele>65.4</ele>
        <time>2017-09-16T06:45:22Z</time>
      </trkpt>
      <trkpt lat="47.56076" lon="-0.23938">
        <ele>65.6</ele>
        <time>2017-09-16T06:45:27Z</time>
      </trkpt>
      <trkpt lat="47.56081" lon="-0.23942">
        <ele>65.8</ele>
        <time>2017-09-16T06:45:32Z</time>
      </trkpt>
      <trkpt lat="47.56086" lon="-0.23946">
        <ele>66</ele>
        <time>2017-09-16T06:45:37Z</time>
      </trkpt>
      <trkpt lat="47.56092" lon="-0.2395">
        <ele>65.9</ele>
        <time>2017-09-16T06:45:42Z</time>
      </trkpt>
      <trkpt lat="47.56097" lon="-0.23955">
        <ele>65.9</ele>
        <time>2017-09-16T06:45:47Z</time>
      </trkpt>
      <trkpt lat="47.56103" lon="-0.2396">
        <ele>65.9</ele>
        <time>2017-09-16T06:45:52Z</time>
      </trkpt>
      <trkpt lat="47.56108" lon="-0.23965">
        <ele>65.9</ele>
        <time>2017-09-16T06:45:57Z</time>
      </trkpt>
      <trkpt lat="47.5611" lon="-0.23968">
        <ele>65.9</ele>
        <time>2017-09-16T06:46:02Z</time>
      </trkpt>
      <trkpt lat="47.5611" lon="-0.23968">
        <ele>65.9</ele>
        <time>2017-09-16T06:46:07Z</time>
      </trkpt>
      <trkpt lat="47.56117" lon="-0.23973">
        <ele>67.2</ele>
        <time>2017-09-16T06:46:12Z</time>
      </trkpt>
      <trkpt lat="47.56121" lon="-0.2398">
        <ele>68.2</ele>
        <time>2017-09-16T06:46:17Z</time>
      </trkpt>
      <trkpt lat="47.56124" lon="-0.23987">
        <ele>69.2</ele>
        <time>2017-09-16T06:46:22Z</time>
      </trkpt>
      <trkpt lat="47.56125" lon="-0.23996">
        <ele>69.8</ele>
        <time>2017-09-16T06:46:27Z</time>
      </trkpt>
      <trkpt lat="47.56127" lon="-0.24004">
        <ele>70.4</ele>
        <time>2017-09-16T06:46:32Z</time>
      </trkpt>
      <trkpt lat="47.56128" lon="-0.24011">
        <ele>71</ele>
        <time>2017-09-16T06:46:37Z</time>
      </trkpt>
      <trkpt lat="47.56129" lon="-0.24019">
        <ele>71.6</ele>
        <time>2017-09-16T06:46:42Z</time>
      </trkpt>
      <trkpt lat="47.56131" lon="-0.24026">
        <ele>72.1</ele>
        <time>2017-09-16T06:46:47Z</time>
      </trkpt>
      <trkpt lat="47.56132" lon="-0.24034">
        <ele>72.3</ele>
        <time>2017-09-16T06:46:52Z</time>
      </trkpt>
      <trkpt lat="47.56133" lon="-0.24042">
        <ele>72.5</ele>
        <time>2017-09-16T06:46:57Z</time>
      </trkpt>
      <trkpt lat="47.56134" lon="-0.24051">
        <ele>72.6</ele>
        <time>2017-09-16T06:47:02Z</time>
      </trkpt>
      <trkpt lat="47.56134" lon="-0.24059">
        <ele>72.6</ele>
        <time>2017-09-16T06:47:07Z</time>
      </trkpt>
      <trkpt lat="47.56133" lon="-0.24069">
        <ele>72.3</ele>
        <time>2017-09-16T06:47:12Z</time>
      </trkpt>
      <trkpt lat="47.56131" lon="-0.24077">
        <ele>72.1</ele>
        <time>2017-09-16T06:47:17Z</time>
      </trkpt>
      <trkpt lat="47.56131" lon="-0.24086">
        <ele>72</ele>
        <time>2017-09-16T06:47:22Z</time>
      </trkpt>
      <trkpt lat="47.56126" lon="-0.2409">
        <ele>72</ele>
        <time>2017-09-16T06:47:27Z</time>
      </trkpt>
      <trkpt lat="47.56123" lon="-0.24097">
        <ele>72</ele>
        <time>2017-09-16T06:47:32Z</time>
      </trkpt>
      <trkpt lat="47.5612" lon="-0.24105">
        <ele>72</ele>
        <time>2017-09-16T06:47:37Z</time>
      </trkpt>
      <trkpt lat="47.56117" lon="-0.24113">
        <ele>72.1</ele>
        <time>2017-09-16T06:47:42Z</time>
      </trkpt>
      <trkpt lat="47.56114" lon="-0.24119">
        <ele>72.3</ele>
        <time>2017-09-16T06:47:47Z</time>
      </trkpt>
      <trkpt lat="47.56111" lon="-0.24126">
        <ele>72.5</ele>
        <time>2017-09-16T06:47:52Z</time>
      </trkpt>
      <trkpt lat="47.56108" lon="-0.24133">
        <ele>72.9</ele>
        <time>2017-09-16T06:47:57Z</time>
      </trkpt>
      <trkpt lat="47.56105" lon="-0.2414">
        <ele>73.3</ele>
        <time>2017-09-16T06:48:02Z</time>
      </trkpt>
      <trkpt lat="47.56103" lon="-0.24147">
        <ele>73.8</ele>
        <time>2017-09-16T06:48:07Z</time>
      </trkpt>
      <trkpt lat="47.56099" lon="-0.24154">
        <ele>74.3</ele>
        <time>2017-09-16T06:48:12Z</time>
      </trkpt>
      <trkpt lat="47.56096" lon="-0.24161">
        <ele>74.7</ele>
        <time>2017-09-16T06:48:17Z</time>
      </trkpt>
      <trkpt lat="47.56093" lon="-0.24168">
        <ele>75</ele>
        <time>2017-09-16T06:48:22Z</time>
      </trkpt>
      <trkpt lat="47.56092" lon="-0.24176">
        <ele>75.3</ele>
        <time>2017-09-16T06:48:27Z</time>
      </trkpt>
      <trkpt lat="47.56092" lon="-0.24182">
        <ele>75.6</ele>
        <time>2017-09-16T06:48:32Z</time>
      </trkpt>
      <trkpt lat="47.56096" lon="-0.24187">
        <ele>75.7</ele>
        <time>2017-09-16T06:48:37Z</time>
      </trkpt>
      <trkpt lat="47.56102" lon="-0.24193">
        <ele>75.9</ele>
        <time>2017-09-16T06:48:42Z</time>
      </trkpt>
      <trkpt lat="47.56107" lon="-0.24197">
        <ele>76</ele>
        <time>2017-09-16T06:48:47Z</time>
      </trkpt>
      <trkpt lat="47.56112" lon="-0.24201">
        <ele>76</ele>
        <time>2017-09-16T06:48:52Z</time>
      </trkpt>
      <trkpt lat="47.56116" lon="-0.24204">
        <ele>76.1</ele>
        <time>2017-09-16T06:48:57Z</time>
      </trkpt>
      <trkpt lat="47.56119" lon="-0.24207">
        <ele>76.1</ele>
        <time>2017-09-16T06:49:02Z</time>
      </trkpt>
      <trkpt lat="47.56125" lon="-0.24209">
        <ele>76.3</ele>
        <time>2017-09-16T06:49:07Z</time>
      </trkpt>
      <trkpt lat="47.56131" lon="-0.24213">
        <ele>76.5</ele>
        <time>2017-09-16T06:49:12Z</time>
      </trkpt>
      <trkpt lat="47.56136" lon="-0.24216">
        <ele>76.7</ele>
        <time>2017-09-16T06:49:17Z</time>
      </trkpt>
      <trkpt lat="47.56142" lon="-0.24216">
        <ele>76.8</ele>
        <time>2017-09-16T06:49:22Z</time>
      </trkpt>
      <trkpt lat="47.56147" lon="-0.24211">
        <ele>76.6</ele>
        <time>2017-09-16T06:49:27Z</time>
      </trkpt>
      <trkpt lat="47.56151" lon="-0.24205">
        <ele>76.4</ele>
        <time>2017-09-16T06:49:32Z</time>
      </trkpt>
      <trkpt lat="47.56156" lon="-0.24203">
        <ele>76.3</ele>
        <time>2017-09-16T06:49:37Z</time>
      </trkpt>
      <trkpt lat="47.5616" lon="-0.24207">
        <ele>76.4</ele>
        <time>2017-09-16T06:49:42Z</time>
      </trkpt>
      <trkpt lat="47.56166" lon="-0.2421">
        <ele>76.6</ele>
        <time>2017-09-16T06:49:47Z</time>
      </trkpt>
      <trkpt lat="47.5617" lon="-0.24218">
        <ele>76.8</ele>
        <time>2017-09-16T06:49:52Z</time>
      </trkpt>
      <trkpt lat="47.56175" lon="-0.24224">
        <ele>77.1</ele>
        <time>2017-09-16T06:49:57Z</time>
      </trkpt>
      <trkpt lat="47.56179" lon="-0.2423">
        <ele>77.3</ele>
        <time>2017-09-16T06:50:02Z</time>
      </trkpt>
      <trkpt lat="47.56184" lon="-0.24236">
        <ele>77.5</ele>
        <time>2017-09-16T06:50:07Z</time>
      </trkpt>
      <trkpt lat="47.56188" lon="-0.24242">
        <ele>77.7</ele>
        <time>2017-09-16T06:50:12Z</time>
      </trkpt>
      <trkpt lat="47.56193" lon="-0.24247">
        <ele>77.9</ele>
        <time>2017-09-16T06:50:17Z</time>
      </trkpt>
      <trkpt lat="47.56197" lon="-0.24253">
        <ele>78</ele>
        <time>2017-09-16T06:50:22Z</time>
      </trkpt>
      <trkpt lat="47.56201" lon="-0.24259">
        <ele>78.2</ele>
        <time>2017-09-16T06:50:27Z</time>
      </trkpt>
      <trkpt lat="47.56206" lon="-0.24263">
        <ele>78.3</ele>
        <time>2017-09-16T06:50:32Z</time>
      </trkpt>
      <trkpt lat="47.56211" lon="-0.24268">
        <ele>78.5</ele>
        <time>2017-09-16T06:50:37Z</time>
      </trkpt>
      <trkpt lat="47.56216" lon="-0.24273">
        <ele>78.7</ele>
        <time>2017-09-16T06:50:42Z</time>
      </trkpt>
      <trkpt lat="47.56222" lon="-0.24277">
        <ele>78.9</ele>
        <time>2017-09-16T06:50:47Z</time>
      </trkpt>
      <trkpt lat="47.56227" lon="-0.24281">
        <ele>78.8</ele>
        <time>2017-09-16T06:50:52Z</time>
      </trkpt>
      <trkpt lat="47.56233" lon="-0.24285">
        <ele>78.6</ele>
        <time>2017-09-16T06:50:57Z</time>
      </trkpt>
      <trkpt lat="47.56238" lon="-0.24289">
        <ele>78.5</ele>
        <time>2017-09-16T06:51:02Z</time>
      </trkpt>
      <trkpt lat="47.56244" lon="-0.24292">
        <ele>78.4</ele>
        <time>2017-09-16T06:51:07Z</time>
      </trkpt>
      <trkpt lat="47.56249" lon="-0.24296">
        <ele>78.4</ele>
        <time>2017-09-16T06:51:12Z</time>
      </trkpt>
      <trkpt lat="47.56254" lon="-0.243">
        <ele>78.4</ele>
        <time>2017-09-16T06:51:17Z</time>
      </trkpt>
      <trkpt lat="47.5626" lon="-0.24304">
        <ele>78.5</ele>
        <time>2017-09-16T06:51:22Z</time>
      </trkpt>
      <trkpt lat="47.56266" lon="-0.24308">
        <ele>78.6</ele>
        <time>2017-09-16T06:51:27Z</time>
      </trkpt>
      <trkpt lat="47.56271" lon="-0.24312">
        <ele>78.7</ele>
        <time>2017-09-16T06:51:32Z</time>
      </trkpt>
      <trkpt lat="47.56276" lon="-0.24316">
        <ele>78.8</ele>
        <time>2017-09-16T06:51:37Z</time>
      </trkpt>
      <trkpt lat="47.56282" lon="-0.2432">
        <ele>78.9</ele>
        <time>2017-09-16T06:51:42Z</time>
      </trkpt>
      <trkpt lat="47.56287" lon="-0.24324">
        <ele>79</ele>
        <time>2017-09-16T06:51:47Z</time>
      </trkpt>
      <trkpt lat="47.56293" lon="-0.24328">
        <ele>79.1</ele>
        <time>2017-09-16T06:51:52Z</time>
      </trkpt>
      <trkpt lat="47.56298" lon="-0.24333">
        <ele>79.2</ele>
        <time>2017-09-16T06:51:57Z</time>
      </trkpt>
      <trkpt lat="47.56303" lon="-0.24336">
        <ele>79.3</ele>
        <time>2017-09-16T06:52:02Z</time>
      </trkpt>
      <trkpt lat="47.56308" lon="-0.2434">
        <ele>79.4</ele>
        <time>2017-09-16T06:52:07Z</time>
      </trkpt>
      <trkpt lat="47.56313" lon="-0.24344">
        <ele>79.5</ele>
        <time>2017-09-16T06:52:12Z</time>
      </trkpt>
      <trkpt lat="47.56318" lon="-0.24348">
        <ele>79.6</ele>
        <time>2017-09-16T06:52:17Z</time>
      </trkpt>
      <trkpt lat="47.56324" lon="-0.24351">
        <ele>79.6</ele>
        <time>2017-09-16T06:52:22Z</time>
      </trkpt>
      <trkpt lat="47.56329" lon="-0.24356">
        <ele>79.8</ele>
        <time>2017-09-16T06:52:27Z</time>
      </trkpt>
      <trkpt lat="47.56334" lon="-0.24359">
        <ele>79.8</ele>
        <time>2017-09-16T06:52:32Z</time>
      </trkpt>
      <trkpt lat="47.5634" lon="-0.24363">
        <ele>79.7</ele>
        <time>2017-09-16T06:52:37Z</time>
      </trkpt>
      <trkpt lat="47.56344" lon="-0.24366">
        <ele>79.6</ele>
        <time>2017-09-16T06:52:42Z</time>
      </trkpt>
      <trkpt lat="47.5635" lon="-0.24371">
        <ele>79.5</ele>
        <time>2017-09-16T06:52:47Z</time>
      </trkpt>
      <trkpt lat="47.56355" lon="-0.24375">
        <ele>79.4</ele>
        <time>2017-09-16T06:52:52Z</time>
      </trkpt>
      <trkpt lat="47.56361" lon="-0.24379">
        <ele>79.3</ele>
        <time>2017-09-16T06:52:57Z</time>
      </trkpt>
      <trkpt lat="47.56367" lon="-0.24383">
        <ele>79.4</ele>
        <time>2017-09-16T06:53:02Z</time>
      </trkpt>
      <trkpt lat="47.56372" lon="-0.24385">
        <ele>79.4</ele>
        <time>2017-09-16T06:53:07Z</time>
      </trkpt>
      <trkpt lat="47.56377" lon="-0.24388">
        <ele>79.4</ele>
        <time>2017-09-16T06:53:12Z</time>
      </trkpt>
      <trkpt lat="47.5638" lon="-0.2439">
        <ele>79.5</ele>
        <time>2017-09-16T06:53:17Z</time>
      </trkpt>
      <trkpt lat="47.56385" lon="-0.24394">
        <ele>79.6</ele>
        <time>2017-09-16T06:53:22Z</time>
      </trkpt>
      <trkpt lat="47.56391" lon="-0.24396">
        <ele>79.7</ele>
        <time>2017-09-16T06:53:27Z</time>
      </trkpt>
      <trkpt lat="47.56396" lon="-0.24399">
        <ele>79.8</ele>
        <time>2017-09-16T06:53:32Z</time>
      </trkpt>
      <trkpt lat="47.56401" lon="-0.24403">
        <ele>79.8</ele>
        <time>2017-09-16T06:53:37Z</time>
      </trkpt>
      <trkpt lat="47.56407" lon="-0.24405">
        <ele>79.7</ele>
        <time>2017-09-16T06:53:42Z</time>
      </trkpt>
      <trkpt lat="47.56413" lon="-0.2441">
        <ele>79.8</ele>
        <time>2017-09-16T06:53:47Z</time>
      </trkpt>
      <trkpt lat="47.56415" lon="-0.24412">
        <ele>79.8</ele>
        <time>2017-09-16T06:53:52Z</time>
      </trkpt>
      <trkpt lat="47.56418" lon="-0.24416">
        <ele>80</ele>
        <time>2017-09-16T06:53:57Z</time>
      </trkpt>
      <trkpt lat="47.56421" lon="-0.24423">
        <ele>80.4</ele>
        <time>2017-09-16T06:54:02Z</time>
      </trkpt>
      <trkpt lat="47.56426" lon="-0.24428">
        <ele>80.7</ele>
        <time>2017-09-16T06:54:07Z</time>
      </trkpt>
      <trkpt lat="47.56431" lon="-0.24435">
        <ele>81</ele>
        <time>2017-09-16T06:54:12Z</time>
      </trkpt>
      <trkpt lat="47.56433" lon="-0.24443">
        <ele>81.4</ele>
        <time>2017-09-16T06:54:17Z</time>
      </trkpt>
      <trkpt lat="47.56436" lon="-0.2445">
        <ele>81.4</ele>
        <time>2017-09-16T06:54:22Z</time>
      </trkpt>
      <trkpt lat="47.5644" lon="-0.24458">
        <ele>81.3</ele>
        <time>2017-09-16T06:54:27Z</time>
      </trkpt>
      <trkpt lat="47.56442" lon="-0.24465">
        <ele>81.1</ele>
        <time>2017-09-16T06:54:32Z</time>
      </trkpt>
      <trkpt lat="47.56446" lon="-0.24472">
        <ele>81</ele>
        <time>2017-09-16T06:54:37Z</time>
      </trkpt>
      <trkpt lat="47.56449" lon="-0.24479">
        <ele>81.5</ele>
        <time>2017-09-16T06:54:42Z</time>
      </trkpt>
      <trkpt lat="47.56452" lon="-0.24487">
        <ele>81.9</ele>
        <time>2017-09-16T06:54:47Z</time>
      </trkpt>
      <trkpt lat="47.56455" lon="-0.24495">
        <ele>82.3</ele>
        <time>2017-09-16T06:54:52Z</time>
      </trkpt>
      <trkpt lat="47.56458" lon="-0.24502">
        <ele>82.6</ele>
        <time>2017-09-16T06:54:57Z</time>
      </trkpt>
      <trkpt lat="47.5646" lon="-0.2451">
        <ele>82.6</ele>
        <time>2017-09-16T06:55:02Z</time>
      </trkpt>
      <trkpt lat="47.56463" lon="-0.24517">
        <ele>82.5</ele>
        <time>2017-09-16T06:55:07Z</time>
      </trkpt>
      <trkpt lat="47.56466" lon="-0.24524">
        <ele>82.4</ele>
        <time>2017-09-16T06:55:12Z</time>
      </trkpt>
      <trkpt lat="47.56469" lon="-0.24531">
        <ele>82.5</ele>
        <time>2017-09-16T06:55:17Z</time>
      </trkpt>
      <trkpt lat="47.56472" lon="-0.24538">
        <ele>82.7</ele>
        <time>2017-09-16T06:55:22Z</time>
      </trkpt>
      <trkpt lat="47.56475" lon="-0.24544">
        <ele>83.2</ele>
        <time>2017-09-16T06:55:27Z</time>
      </trkpt>
      <trkpt lat="47.56479" lon="-0.2455">
        <ele>83.6</ele>
        <time>2017-09-16T06:55:32Z</time>
      </trkpt>
      <trkpt lat="47.56484" lon="-0.24556">
        <ele>84</ele>
        <time>2017-09-16T06:55:37Z</time>
      </trkpt>
      <trkpt lat="47.56489" lon="-0.24565">
        <ele>84</ele>
        <time>2017-09-16T06:55:42Z</time>
      </trkpt>
      <trkpt lat="47.56494" lon="-0.24572">
        <ele>84</ele>
        <time>2017-09-16T06:55:47Z</time>
      </trkpt>
      <trkpt lat="47.56498" lon="-0.24578">
        <ele>84</ele>
        <time>2017-09-16T06:55:52Z</time>
      </trkpt>
      <trkpt lat="47.56503" lon="-0.24585">
        <ele>84.1</ele>
        <time>2017-09-16T06:55:57Z</time>
      </trkpt>
      <trkpt lat="47.56507" lon="-0.24592">
        <ele>84.3</ele>
        <time>2017-09-16T06:56:02Z</time>
      </trkpt>
      <trkpt lat="47.56512" lon="-0.24599">
        <ele>84.6</ele>
        <time>2017-09-16T06:56:07Z</time>
      </trkpt>
      <trkpt lat="47.56516" lon="-0.24602">
        <ele>84.7</ele>
        <time>2017-09-16T06:56:12Z</time>
      </trkpt>
      <trkpt lat="47.5652" lon="-0.24605">
        <ele>84.8</ele>
        <time>2017-09-16T06:56:17Z</time>
      </trkpt>
      <trkpt lat="47.56525" lon="-0.24609">
        <ele>84.9</ele>
        <time>2017-09-16T06:56:22Z</time>
      </trkpt>
      <trkpt lat="47.5653" lon="-0.24616">
        <ele>85</ele>
        <time>2017-09-16T06:56:27Z</time>
      </trkpt>
      <trkpt lat="47.56534" lon="-0.24622">
        <ele>85.1</ele>
        <time>2017-09-16T06:56:32Z</time>
      </trkpt>
      <trkpt lat="47.5654" lon="-0.24628">
        <ele>85.3</ele>
        <time>2017-09-16T06:56:37Z</time>
      </trkpt>
      <trkpt lat="47.56546" lon="-0.24633">
        <ele>85.5</ele>
        <time>2017-09-16T06:56:42Z</time>
      </trkpt>
      <trkpt lat="47.56551" lon="-0.24639">
        <ele>85.8</ele>
        <time>2017-09-16T06:56:47Z</time>
      </trkpt>
      <trkpt lat="47.56556" lon="-0.24644">
        <ele>86</ele>
        <time>2017-09-16T06:56:52Z</time>
      </trkpt>
      <trkpt lat="47.5656" lon="-0.24649">
        <ele>86.1</ele>
        <time>2017-09-16T06:56:57Z</time>
      </trkpt>
      <trkpt lat="47.56565" lon="-0.24655">
        <ele>86.2</ele>
        <time>2017-09-16T06:57:02Z</time>
      </trkpt>
      <trkpt lat="47.5657" lon="-0.24661">
        <ele>86.4</ele>
        <time>2017-09-16T06:57:07Z</time>
      </trkpt>
      <trkpt lat="47.56575" lon="-0.24667">
        <ele>86.7</ele>
        <time>2017-09-16T06:57:12Z</time>
      </trkpt>
      <trkpt lat="47.5658" lon="-0.24673">
        <ele>86.9</ele>
        <time>2017-09-16T06:57:17Z</time>
      </trkpt>
      <trkpt lat="47.56585" lon="-0.24679">
        <ele>87</ele>
        <time>2017-09-16T06:57:22Z</time>
      </trkpt>
      <trkpt lat="47.5659" lon="-0.24685">
        <ele>87</ele>
        <time>2017-09-16T06:57:27Z</time>
      </trkpt>
      <trkpt lat="47.56594" lon="-0.2469">
        <ele>87</ele>
        <time>2017-09-16T06:57:32Z</time>
      </trkpt>
      <trkpt lat="47.56599" lon="-0.24696">
        <ele>87</ele>
        <time>2017-09-16T06:57:37Z</time>
      </trkpt>
      <trkpt lat="47.56603" lon="-0.24701">
        <ele>87</ele>
        <time>2017-09-16T06:57:42Z</time>
      </trkpt>
      <trkpt lat="47.56608" lon="-0.24707">
        <ele>87</ele>
        <time>2017-09-16T06:57:47Z</time>
      </trkpt>
      <trkpt lat="47.56612" lon="-0.24713">
        <ele>87</ele>
        <time>2017-09-16T06:57:52Z</time>
      </trkpt>
      <trkpt lat="47.56617" lon="-0.24717">
        <ele>87.2</ele>
        <time>2017-09-16T06:57:57Z</time>
      </trkpt>
      <trkpt lat="47.56622" lon="-0.24721">
        <ele>87.4</ele>
        <time>2017-09-16T06:58:02Z</time>
      </trkpt>
      <trkpt lat="47.56627" lon="-0.24728">
        <ele>87.4</ele>
        <time>2017-09-16T06:58:07Z</time>
      </trkpt>
      <trkpt lat="47.56631" lon="-0.24735">
        <ele>87.4</ele>
        <time>2017-09-16T06:58:12Z</time>
      </trkpt>
      <trkpt lat="47.56635" lon="-0.24741">
        <ele>87.3</ele>
        <time>2017-09-16T06:58:17Z</time>
      </trkpt>
      <trkpt lat="47.5664" lon="-0.24744">
        <ele>87.2</ele>
        <time>2017-09-16T06:58:22Z</time>
      </trkpt>
      <trkpt lat="47.56644" lon="-0.2475">
        <ele>87</ele>
        <time>2017-09-16T06:58:27Z</time>
      </trkpt>
      <trkpt lat="47.56648" lon="-0.24755">
        <ele>87</ele>
        <time>2017-09-16T06:58:32Z</time>
      </trkpt>
      <trkpt lat="47.56652" lon="-0.24759">
        <ele>87</ele>
        <time>2017-09-16T06:58:37Z</time>
      </trkpt>
      <trkpt lat="47.56655" lon="-0.24765">
        <ele>87</ele>
        <time>2017-09-16T06:58:42Z</time>
      </trkpt>
      <trkpt lat="47.56659" lon="-0.24769">
        <ele>87</ele>
        <time>2017-09-16T06:58:47Z</time>
      </trkpt>
      <trkpt lat="47.56664" lon="-0.24774">
        <ele>87</ele>
        <time>2017-09-16T06:58:52Z</time>
      </trkpt>
      <trkpt lat="47.56666" lon="-0.24779">
        <ele>87</ele>
        <time>2017-09-16T06:58:57Z</time>
      </trkpt>
      <trkpt lat="47.5667" lon="-0.24785">
        <ele>86.7</ele>
        <time>2017-09-16T06:59:02Z</time>
      </trkpt>
      <trkpt lat="47.56675" lon="-0.24789">
        <ele>86.6</ele>
        <time>2017-09-16T06:59:07Z</time>
      </trkpt>
      <trkpt lat="47.56682" lon="-0.24791">
        <ele>86.5</ele>
        <time>2017-09-16T06:59:12Z</time>
      </trkpt>
      <trkpt lat="47.56687" lon="-0.24796">
        <ele>86.4</ele>
        <time>2017-09-16T06:59:17Z</time>
      </trkpt>
      <trkpt lat="47.56691" lon="-0.24801">
        <ele>86.2</ele>
        <time>2017-09-16T06:59:22Z</time>
      </trkpt>
      <trkpt lat="47.56696" lon="-0.24806">
        <ele>86</ele>
        <time>2017-09-16T06:59:27Z</time>
      </trkpt>
      <trkpt lat="47.56701" lon="-0.24813">
        <ele>85.7</ele>
        <time>2017-09-16T06:59:32Z</time>
      </trkpt>
      <trkpt lat="47.56707" lon="-0.2482">
        <ele>85.5</ele>
        <time>2017-09-16T06:59:37Z</time>
      </trkpt>
      <trkpt lat="47.56711" lon="-0.24827">
        <ele>85.2</ele>
        <time>2017-09-16T06:59:42Z</time>
      </trkpt>
      <trkpt lat="47.56715" lon="-0.24838">
        <ele>84.9</ele>
        <time>2017-09-16T06:59:47Z</time>
      </trkpt>
      <trkpt lat="47.56718" lon="-0.24844">
        <ele>84.7</ele>
        <time>2017-09-16T06:59:52Z</time>
      </trkpt>
      <trkpt lat="47.56721" lon="-0.24851">
        <ele>84.4</ele>
        <time>2017-09-16T06:59:57Z</time>
      </trkpt>
      <trkpt lat="47.56725" lon="-0.24857">
        <ele>84.1</ele>
        <time>2017-09-16T07:00:02Z</time>
      </trkpt>
      <trkpt lat="47.56728" lon="-0.24864">
        <ele>84</ele>
        <time>2017-09-16T07:00:07Z</time>
      </trkpt>
      <trkpt lat="47.56733" lon="-0.24875">
        <ele>83.8</ele>
        <time>2017-09-16T07:00:12Z</time>
      </trkpt>
      <trkpt lat="47.56739" lon="-0.24884">
        <ele>83.5</ele>
        <time>2017-09-16T07:00:17Z</time>
      </trkpt>
      <trkpt lat="47.56743" lon="-0.24891">
        <ele>83.2</ele>
        <time>2017-09-16T07:00:22Z</time>
      </trkpt>
      <trkpt lat="47.56748" lon="-0.24896">
        <ele>82.8</ele>
        <time>2017-09-16T07:00:27Z</time>
      </trkpt>
      <trkpt lat="47.56752" lon="-0.249">
        <ele>82.7</ele>
        <time>2017-09-16T07:00:32Z</time>
      </trkpt>
      <trkpt lat="47.56755" lon="-0.24905">
        <ele>82.6</ele>
        <time>2017-09-16T07:00:37Z</time>
      </trkpt>
      <trkpt lat="47.56761" lon="-0.24909">
        <ele>82.7</ele>
        <time>2017-09-16T07:00:42Z</time>
      </trkpt>
      <trkpt lat="47.56766" lon="-0.24914">
        <ele>82.7</ele>
        <time>2017-09-16T07:00:47Z</time>
      </trkpt>
      <trkpt lat="47.56772" lon="-0.24922">
        <ele>82.4</ele>
        <time>2017-09-16T07:00:52Z</time>
      </trkpt>
      <trkpt lat="47.56778" lon="-0.24927">
        <ele>82.3</ele>
        <time>2017-09-16T07:00:57Z</time>
      </trkpt>
      <trkpt lat="47.56783" lon="-0.24924">
        <ele>82.5</ele>
        <time>2017-09-16T07:01:02Z</time>
      </trkpt>
      <trkpt lat="47.56786" lon="-0.24919">
        <ele>82.9</ele>
        <time>2017-09-16T07:01:07Z</time>
      </trkpt>
      <trkpt lat="47.56787" lon="-0.2491">
        <ele>83.2</ele>
        <time>2017-09-16T07:01:12Z</time>
      </trkpt>
      <trkpt lat="47.56791" lon="-0.24903">
        <ele>83.3</ele>
        <time>2017-09-16T07:01:17Z</time>
      </trkpt>
      <trkpt lat="47.56794" lon="-0.24898">
        <ele>83.3</ele>
        <time>2017-09-16T07:01:22Z</time>
      </trkpt>
      <trkpt lat="47.56799" lon="-0.24893">
        <ele>83.2</ele>
        <time>2017-09-16T07:01:27Z</time>
      </trkpt>
      <trkpt lat="47.56804" lon="-0.24887">
        <ele>83.1</ele>
        <time>2017-09-16T07:01:32Z</time>
      </trkpt>
      <trkpt lat="47.56805" lon="-0.2488">
        <ele>83.3</ele>
        <time>2017-09-16T07:01:37Z</time>
      </trkpt>
      <trkpt lat="47.56807" lon="-0.24871">
        <ele>83.7</ele>
        <time>2017-09-16T07:01:42Z</time>
      </trkpt>
      <trkpt lat="47.56808" lon="-0.24862">
        <ele>84</ele>
        <time>2017-09-16T07:01:47Z</time>
      </trkpt>
      <trkpt lat="47.56809" lon="-0.24854">
        <ele>84.3</ele>
        <time>2017-09-16T07:01:52Z</time>
      </trkpt>
      <trkpt lat="47.56811" lon="-0.24846">
        <ele>84.5</ele>
        <time>2017-09-16T07:01:57Z</time>
      </trkpt>
      <trkpt lat="47.56813" lon="-0.2484">
        <ele>84.8</ele>
        <time>2017-09-16T07:02:02Z</time>
      </trkpt>
      <trkpt lat="47.56814" lon="-0.24833">
        <ele>85</ele>
        <time>2017-09-16T07:02:07Z</time>
      </trkpt>
      <trkpt lat="47.56819" lon="-0.24828">
        <ele>85</ele>
        <time>2017-09-16T07:02:12Z</time>
      </trkpt>
      <trkpt lat="47.56826" lon="-0.24824">
        <ele>85</ele>
        <time>2017-09-16T07:02:17Z</time>
      </trkpt>
      <trkpt lat="47.56834" lon="-0.2482">
        <ele>85</ele>
        <time>2017-09-16T07:02:22Z</time>
      </trkpt>
      <trkpt lat="47.56841" lon="-0.24817">
        <ele>85.3</ele>
        <time>2017-09-16T07:02:27Z</time>
      </trkpt>
      <trkpt lat="47.56849" lon="-0.24814">
        <ele>85.6</ele>
        <time>2017-09-16T07:02:32Z</time>
      </trkpt>
      <trkpt lat="47.56856" lon="-0.2481">
        <ele>85.8</ele>
        <time>2017-09-16T07:02:37Z</time>
      </trkpt>
      <trkpt lat="47.56862" lon="-0.24807">
        <ele>86</ele>
        <time>2017-09-16T07:02:42Z</time>
      </trkpt>
      <trkpt lat="47.56867" lon="-0.24804">
        <ele>86.2</ele>
        <time>2017-09-16T07:02:47Z</time>
      </trkpt>
      <trkpt lat="47.56873" lon="-0.24802">
        <ele>86.5</ele>
        <time>2017-09-16T07:02:52Z</time>
      </trkpt>
      <trkpt lat="47.56879" lon="-0.24803">
        <ele>86.7</ele>
        <time>2017-09-16T07:02:57Z</time>
      </trkpt>
      <trkpt lat="47.56886" lon="-0.24802">
        <ele>87</ele>
        <time>2017-09-16T07:03:02Z</time>
      </trkpt>
      <trkpt lat="47.56892" lon="-0.24804">
        <ele>87.2</ele>
        <time>2017-09-16T07:03:07Z</time>
      </trkpt>
      <trkpt lat="47.56897" lon="-0.24806">
        <ele>87.3</ele>
        <time>2017-09-16T07:03:12Z</time>
      </trkpt>
      <trkpt lat="47.56904" lon="-0.24806">
        <ele>87.5</ele>
        <time>2017-09-16T07:03:17Z</time>
      </trkpt>
      <trkpt lat="47.5691" lon="-0.24807">
        <ele>87.7</ele>
        <time>2017-09-16T07:03:22Z</time>
      </trkpt>
      <trkpt lat="47.56915" lon="-0.24809">
        <ele>87.9</ele>
        <time>2017-09-16T07:03:27Z</time>
      </trkpt>
      <trkpt lat="47.56921" lon="-0.2481">
        <ele>88</ele>
        <time>2017-09-16T07:03:32Z</time>
      </trkpt>
      <trkpt lat="47.56927" lon="-0.24811">
        <ele>88</ele>
        <time>2017-09-16T07:03:37Z</time>
      </trkpt>
      <trkpt lat="47.56933" lon="-0.24811">
        <ele>88</ele>
        <time>2017-09-16T07:03:42Z</time>
      </trkpt>
      <trkpt lat="47.56938" lon="-0.24807">
        <ele>88</ele>
        <time>2017-09-16T07:03:47Z</time>
      </trkpt>
      <trkpt lat="47.56942" lon="-0.24804">
        <ele>88</ele>
        <time>2017-09-16T07:03:52Z</time>
      </trkpt>
      <trkpt lat="47.56949" lon="-0.24805">
        <ele>88</ele>
        <time>2017-09-16T07:03:57Z</time>
      </trkpt>
      <trkpt lat="47.56955" lon="-0.24808">
        <ele>88</ele>
        <time>2017-09-16T07:04:02Z</time>
      </trkpt>
      <trkpt lat="47.56961" lon="-0.24809">
        <ele>88.1</ele>
        <time>2017-09-16T07:04:07Z</time>
      </trkpt>
      <trkpt lat="47.56968" lon="-0.24809">
        <ele>88.1</ele>
        <time>2017-09-16T07:04:12Z</time>
      </trkpt>
      <trkpt lat="47.56975" lon="-0.24808">
        <ele>88.2</ele>
        <time>2017-09-16T07:04:17Z</time>
      </trkpt>
      <trkpt lat="47.5698" lon="-0.24806">
        <ele>88.3</ele>
        <time>2017-09-16T07:04:22Z</time>
      </trkpt>
      <trkpt lat="47.56986" lon="-0.24803">
        <ele>88.5</ele>
        <time>2017-09-16T07:04:27Z</time>
      </trkpt>
      <trkpt lat="47.56992" lon="-0.24801">
        <ele>88.8</ele>
        <time>2017-09-16T07:04:32Z</time>
      </trkpt>
      <trkpt lat="47.56996" lon="-0.24799">
        <ele>88.9</ele>
        <time>2017-09-16T07:04:37Z</time>
      </trkpt>
      <trkpt lat="47.57" lon="-0.24798">
        <ele>89</ele>
        <time>2017-09-16T07:04:42Z</time>
      </trkpt>
      <trkpt lat="47.57005" lon="-0.24797">
        <ele>89</ele>
        <time>2017-09-16T07:04:47Z</time>
      </trkpt>
      <trkpt lat="47.5701" lon="-0.24795">
        <ele>89</ele>
        <time>2017-09-16T07:04:52Z</time>
      </trkpt>
      <trkpt lat="47.57016" lon="-0.24794">
        <ele>89</ele>
        <time>2017-09-16T07:04:57Z</time>
      </trkpt>
      <trkpt lat="47.57022" lon="-0.24792">
        <ele>89</ele>
        <time>2017-09-16T07:05:02Z</time>
      </trkpt>
      <trkpt lat="47.57028" lon="-0.2479">
        <ele>89</ele>
        <time>2017-09-16T07:05:07Z</time>
      </trkpt>
      <trkpt lat="47.57032" lon="-0.24786">
        <ele>89.2</ele>
        <time>2017-09-16T07:05:12Z</time>
      </trkpt>
      <trkpt lat="47.57032" lon="-0.24778">
        <ele>89.2</ele>
        <time>2017-09-16T07:05:17Z</time>
      </trkpt>
      <trkpt lat="47.57032" lon="-0.2477">
        <ele>89.1</ele>
        <time>2017-09-16T07:05:22Z</time>
      </trkpt>
      <trkpt lat="47.57029" lon="-0.24765">
        <ele>89.1</ele>
        <time>2017-09-16T07:05:27Z</time>
      </trkpt>
      <trkpt lat="47.57028" lon="-0.24758">
        <ele>89</ele>
        <time>2017-09-16T07:05:32Z</time>
      </trkpt>
      <trkpt lat="47.57028" lon="-0.24749">
        <ele>89</ele>
        <time>2017-09-16T07:05:37Z</time>
      </trkpt>
      <trkpt lat="47.57028" lon="-0.24739">
        <ele>89</ele>
        <time>2017-09-16T07:05:42Z</time>
      </trkpt>
      <trkpt lat="47.57028" lon="-0.24731">
        <ele>89</ele>
        <time>2017-09-16T07:05:47Z</time>
      </trkpt>
      <trkpt lat="47.57026" lon="-0.2472">
        <ele>89</ele>
        <time>2017-09-16T07:05:52Z</time>
      </trkpt>
      <trkpt lat="47.57026" lon="-0.24711">
        <ele>89</ele>
        <time>2017-09-16T07:05:57Z</time>
      </trkpt>
      <trkpt lat="47.57026" lon="-0.24702">
        <ele>88.9</ele>
        <time>2017-09-16T07:06:02Z</time>
      </trkpt>
      <trkpt lat="47.57025" lon="-0.24693">
        <ele>88.9</ele>
        <time>2017-09-16T07:06:07Z</time>
      </trkpt>
      <trkpt lat="47.57024" lon="-0.24687">
        <ele>88.9</ele>
        <time>2017-09-16T07:06:12Z</time>
      </trkpt>
      <trkpt lat="47.57022" lon="-0.2468">
        <ele>88.8</ele>
        <time>2017-09-16T07:06:17Z</time>
      </trkpt>
      <trkpt lat="47.57021" lon="-0.24673">
        <ele>88.7</ele>
        <time>2017-09-16T07:06:22Z</time>
      </trkpt>
      <trkpt lat="47.57019" lon="-0.24665">
        <ele>88.7</ele>
        <time>2017-09-16T07:06:27Z</time>
      </trkpt>
      <trkpt lat="47.57018" lon="-0.24656">
        <ele>88.7</ele>
        <time>2017-09-16T07:06:32Z</time>
      </trkpt>
      <trkpt lat="47.57017" lon="-0.24646">
        <ele>88.6</ele>
        <time>2017-09-16T07:06:37Z</time>
      </trkpt>
      <trkpt lat="47.57016" lon="-0.24638">
        <ele>88.6</ele>
        <time>2017-09-16T07:06:42Z</time>
      </trkpt>
      <trkpt lat="47.57015" lon="-0.2463">
        <ele>88.5</ele>
        <time>2017-09-16T07:06:47Z</time>
      </trkpt>
      <trkpt lat="47.57013" lon="-0.24621">
        <ele>88.5</ele>
        <time>2017-09-16T07:06:52Z</time>
      </trkpt>
      <trkpt lat="47.57013" lon="-0.2461">
        <ele>88.5</ele>
        <time>2017-09-16T07:06:57Z</time>
      </trkpt>
      <trkpt lat="47.57014" lon="-0.246">
        <ele>88.5</ele>
        <time>2017-09-16T07:07:02Z</time>
      </trkpt>
      <trkpt lat="47.57018" lon="-0.24589">
        <ele>88.6</ele>
        <time>2017-09-16T07:07:07Z</time>
      </trkpt>
      <trkpt lat="47.57022" lon="-0.24582">
        <ele>88.8</ele>
        <time>2017-09-16T07:07:12Z</time>
      </trkpt>
      <trkpt lat="47.57026" lon="-0.24578">
        <ele>89</ele>
        <time>2017-09-16T07:07:17Z</time>
      </trkpt>
      <trkpt lat="47.57032" lon="-0.24574">
        <ele>89.1</ele>
        <time>2017-09-16T07:07:22Z</time>
      </trkpt>
      <trkpt lat="47.57038" lon="-0.2457">
        <ele>89.4</ele>
        <time>2017-09-16T07:07:27Z</time>
      </trkpt>
      <trkpt lat="47.57043" lon="-0.24566">
        <ele>89.5</ele>
        <time>2017-09-16T07:07:32Z</time>
      </trkpt>
      <trkpt lat="47.57048" lon="-0.24563">
        <ele>89.7</ele>
        <time>2017-09-16T07:07:37Z</time>
      </trkpt>
      <trkpt lat="47.57052" lon="-0.24561">
        <ele>89.9</ele>
        <time>2017-09-16T07:07:42Z</time>
      </trkpt>
      <trkpt lat="47.57055" lon="-0.24558">
        <ele>90</ele>
        <time>2017-09-16T07:07:47Z</time>
      </trkpt>
      <trkpt lat="47.57059" lon="-0.24555">
        <ele>90.1</ele>
        <time>2017-09-16T07:07:52Z</time>
      </trkpt>
      <trkpt lat="47.57061" lon="-0.2455">
        <ele>90.2</ele>
        <time>2017-09-16T07:07:57Z</time>
      </trkpt>
      <trkpt lat="47.57062" lon="-0.24547">
        <ele>90.2</ele>
        <time>2017-09-16T07:08:02Z</time>
      </trkpt>
      <trkpt lat="47.57064" lon="-0.24546">
        <ele>90.3</ele>
        <time>2017-09-16T07:08:07Z</time>
      </trkpt>
      <trkpt lat="47.57065" lon="-0.24546">
        <ele>90.3</ele>
        <time>2017-09-16T07:08:12Z</time>
      </trkpt>
      <trkpt lat="47.57066" lon="-0.24545">
        <ele>90.4</ele>
        <time>2017-09-16T07:08:17Z</time>
      </trkpt>
      <trkpt lat="47.57067" lon="-0.24541">
        <ele>90.4</ele>
        <time>2017-09-16T07:08:22Z</time>
      </trkpt>
      <trkpt lat="47.5707" lon="-0.24538">
        <ele>90.5</ele>
        <time>2017-09-16T07:08:27Z</time>
      </trkpt>
      <trkpt lat="47.57074" lon="-0.24534">
        <ele>90.7</ele>
        <time>2017-09-16T07:08:32Z</time>
      </trkpt>
      <trkpt lat="47.57077" lon="-0.2453">
        <ele>90.8</ele>
        <time>2017-09-16T07:08:37Z</time>
      </trkpt>
      <trkpt lat="47.57082" lon="-0.24526">
        <ele>91</ele>
        <time>2017-09-16T07:08:42Z</time>
      </trkpt>
      <trkpt lat="47.57094" lon="-0.24522">
        <ele>91.4</ele>
        <time>2017-09-16T07:08:47Z</time>
      </trkpt>
      <trkpt lat="47.57105" lon="-0.24518">
        <ele>91.8</ele>
        <time>2017-09-16T07:08:52Z</time>
      </trkpt>
      <trkpt lat="47.57113" lon="-0.24514">
        <ele>92.1</ele>
        <time>2017-09-16T07:08:57Z</time>
      </trkpt>
      <trkpt lat="47.5712" lon="-0.24513">
        <ele>92.3</ele>
        <time>2017-09-16T07:09:02Z</time>
      </trkpt>
      <trkpt lat="47.57126" lon="-0.24509">
        <ele>92.5</ele>
        <time>2017-09-16T07:09:07Z</time>
      </trkpt>
      <trkpt lat="47.57133" lon="-0.24502">
        <ele>92.8</ele>
        <time>2017-09-16T07:09:12Z</time>
      </trkpt>
      <trkpt lat="47.57141" lon="-0.24498">
        <ele>93.1</ele>
        <time>2017-09-16T07:09:17Z</time>
      </trkpt>
      <trkpt lat="47.57146" lon="-0.24496">
        <ele>93.3</ele>
        <time>2017-09-16T07:09:22Z</time>
      </trkpt>
      <trkpt lat="47.57151" lon="-0.24492">
        <ele>93.5</ele>
        <time>2017-09-16T07:09:27Z</time>
      </trkpt>
      <trkpt lat="47.57157" lon="-0.24489">
        <ele>93.6</ele>
        <time>2017-09-16T07:09:32Z</time>
      </trkpt>
      <trkpt lat="47.57162" lon="-0.24484">
        <ele>93.8</ele>
        <time>2017-09-16T07:09:37Z</time>
      </trkpt>
      <trkpt lat="47.57167" lon="-0.24481">
        <ele>94</ele>
        <time>2017-09-16T07:09:42Z</time>
      </trkpt>
      <trkpt lat="47.57173" lon="-0.24476">
        <ele>94.2</ele>
        <time>2017-09-16T07:09:47Z</time>
      </trkpt>
      <trkpt lat="47.57178" lon="-0.24472">
        <ele>94.4</ele>
        <time>2017-09-16T07:09:52Z</time>
      </trkpt>
      <trkpt lat="47.57184" lon="-0.24467">
        <ele>94.6</ele>
        <time>2017-09-16T07:09:57Z</time>
      </trkpt>
      <trkpt lat="47.5719" lon="-0.24464">
        <ele>94.8</ele>
        <time>2017-09-16T07:10:02Z</time>
      </trkpt>
      <trkpt lat="47.57194" lon="-0.24463">
        <ele>95</ele>
        <time>2017-09-16T07:10:07Z</time>
      </trkpt>
      <trkpt lat="47.57193" lon="-0.24463">
        <ele>95</ele>
        <time>2017-09-16T07:10:12Z</time>
      </trkpt>
      <trkpt lat="47.57193" lon="-0.24463">
        <ele>95</ele>
        <time>2017-09-16T07:10:17Z</time>
      </trkpt>
      <trkpt lat="47.57193" lon="-0.24463">
        <ele>94.9</ele>
        <time>2017-09-16T07:10:22Z</time>
      </trkpt>
      <trkpt lat="47.57191" lon="-0.24463">
        <ele>94.9</ele>
        <time>2017-09-16T07:10:27Z</time>
      </trkpt>
      <trkpt lat="47.57193" lon="-0.24464">
        <ele>94.9</ele>
        <time>2017-09-16T07:10:32Z</time>
      </trkpt>
      <trkpt lat="47.57192" lon="-0.24465">
        <ele>94.9</ele>
        <time>2017-09-16T07:10:37Z</time>
      </trkpt>
      <trkpt lat="47.57192" lon="-0.24464">
        <ele>94.9</ele>
        <time>2017-09-16T07:10:42Z</time>
      </trkpt>
      <trkpt lat="47.57194" lon="-0.24466">
        <ele>95</ele>
        <time>2017-09-16T07:10:47Z</time>
      </trkpt>
      <trkpt lat="47.57197" lon="-0.24472">
        <ele>95</ele>
        <time>2017-09-16T07:10:52Z</time>
      </trkpt>
      <trkpt lat="47.572" lon="-0.24478">
        <ele>95</ele>
        <time>2017-09-16T07:10:57Z</time>
      </trkpt>
      <trkpt lat="47.57202" lon="-0.24487">
        <ele>95.1</ele>
        <time>2017-09-16T07:11:02Z</time>
      </trkpt>
      <trkpt lat="47.57205" lon="-0.24494">
        <ele>95.3</ele>
        <time>2017-09-16T07:11:07Z</time>
      </trkpt>
      <trkpt lat="47.57206" lon="-0.24499">
        <ele>95.4</ele>
        <time>2017-09-16T07:11:12Z</time>
      </trkpt>
      <trkpt lat="47.57208" lon="-0.24508">
        <ele>95.5</ele>
        <time>2017-09-16T07:11:17Z</time>
      </trkpt>
      <trkpt lat="47.57212" lon="-0.24516">
        <ele>95.6</ele>
        <time>2017-09-16T07:11:22Z</time>
      </trkpt>
      <trkpt lat="47.57216" lon="-0.24524">
        <ele>95.8</ele>
        <time>2017-09-16T07:11:27Z</time>
      </trkpt>
      <trkpt lat="47.57219" lon="-0.24532">
        <ele>95.9</ele>
        <time>2017-09-16T07:11:32Z</time>
      </trkpt>
      <trkpt lat="47.57222" lon="-0.24539">
        <ele>96</ele>
        <time>2017-09-16T07:11:37Z</time>
      </trkpt>
      <trkpt lat="47.57225" lon="-0.24546">
        <ele>96</ele>
        <time>2017-09-16T07:11:42Z</time>
      </trkpt>
      <trkpt lat="47.57227" lon="-0.24554">
        <ele>96</ele>
        <time>2017-09-16T07:11:47Z</time>
      </trkpt>
      <trkpt lat="47.5723" lon="-0.24563">
        <ele>96</ele>
        <time>2017-09-16T07:11:52Z</time>
      </trkpt>
      <trkpt lat="47.57234" lon="-0.24571">
        <ele>96</ele>
        <time>2017-09-16T07:11:57Z</time>
      </trkpt>
      <trkpt lat="47.57236" lon="-0.24579">
        <ele>96</ele>
        <time>2017-09-16T07:12:02Z</time>
      </trkpt>
      <trkpt lat="47.57238" lon="-0.24587">
        <ele>95.9</ele>
        <time>2017-09-16T07:12:07Z</time>
      </trkpt>
      <trkpt lat="47.5724" lon="-0.24597">
        <ele>95.8</ele>
        <time>2017-09-16T07:12:12Z</time>
      </trkpt>
      <trkpt lat="47.57243" lon="-0.24605">
        <ele>95.8</ele>
        <time>2017-09-16T07:12:17Z</time>
      </trkpt>
      <trkpt lat="47.57245" lon="-0.24613">
        <ele>95.8</ele>
        <time>2017-09-16T07:12:22Z</time>
      </trkpt>
      <trkpt lat="47.57248" lon="-0.2462">
        <ele>95.6</ele>
        <time>2017-09-16T07:12:27Z</time>
      </trkpt>
      <trkpt lat="47.5725" lon="-0.24625">
        <ele>95.5</ele>
        <time>2017-09-16T07:12:32Z</time>
      </trkpt>
      <trkpt lat="47.57252" lon="-0.24632">
        <ele>95.2</ele>
        <time>2017-09-16T07:12:37Z</time>
      </trkpt>
      <trkpt lat="47.57253" lon="-0.24637">
        <ele>95.1</ele>
        <time>2017-09-16T07:12:42Z</time>
      </trkpt>
      <trkpt lat="47.57254" lon="-0.24643">
        <ele>94.9</ele>
        <time>2017-09-16T07:12:47Z</time>
      </trkpt>
      <trkpt lat="47.57255" lon="-0.24648">
        <ele>94.7</ele>
        <time>2017-09-16T07:12:52Z</time>
      </trkpt>
      <trkpt lat="47.57258" lon="-0.24655">
        <ele>94.6</ele>
        <time>2017-09-16T07:12:57Z</time>
      </trkpt>
      <trkpt lat="47.57259" lon="-0.24661">
        <ele>94.5</ele>
        <time>2017-09-16T07:13:02Z</time>
      </trkpt>
      <trkpt lat="47.57264" lon="-0.24667">
        <ele>94.5</ele>
        <time>2017-09-16T07:13:07Z</time>
      </trkpt>
      <trkpt lat="47.57266" lon="-0.24673">
        <ele>94.4</ele>
        <time>2017-09-16T07:13:12Z</time>
      </trkpt>
      <trkpt lat="47.57267" lon="-0.24682">
        <ele>94.3</ele>
        <time>2017-09-16T07:13:17Z</time>
      </trkpt>
      <trkpt lat="47.57269" lon="-0.2469">
        <ele>94.1</ele>
        <time>2017-09-16T07:13:22Z</time>
      </trkpt>
      <trkpt lat="47.57273" lon="-0.24695">
        <ele>94</ele>
        <time>2017-09-16T07:13:27Z</time>
      </trkpt>
      <trkpt lat="47.57274" lon="-0.24702">
        <ele>93.7</ele>
        <time>2017-09-16T07:13:32Z</time>
      </trkpt>
      <trkpt lat="47.57273" lon="-0.24706">
        <ele>93.5</ele>
        <time>2017-09-16T07:13:37Z</time>
      </trkpt>
      <trkpt lat="47.57269" lon="-0.2471">
        <ele>93.3</ele>
        <time>2017-09-16T07:13:42Z</time>
      </trkpt>
      <trkpt lat="47.57268" lon="-0.24714">
        <ele>93</ele>
        <time>2017-09-16T07:13:47Z</time>
      </trkpt>
      <trkpt lat="47.57265" lon="-0.24716">
        <ele>92.9</ele>
        <time>2017-09-16T07:13:52Z</time>
      </trkpt>
      <trkpt lat="47.57263" lon="-0.24719">
        <ele>92.6</ele>
        <time>2017-09-16T07:13:57Z</time>
      </trkpt>
      <trkpt lat="47.57262" lon="-0.24726">
        <ele>92.3</ele>
        <time>2017-09-16T07:14:02Z</time>
      </trkpt>
      <trkpt lat="47.57262" lon="-0.24732">
        <ele>92.1</ele>
        <time>2017-09-16T07:14:07Z</time>
      </trkpt>
      <trkpt lat="47.57263" lon="-0.24743">
        <ele>91.7</ele>
        <time>2017-09-16T07:14:12Z</time>
      </trkpt>
      <trkpt lat="47.57264" lon="-0.24752">
        <ele>91.5</ele>
        <time>2017-09-16T07:14:17Z</time>
      </trkpt>
      <trkpt lat="47.57265" lon="-0.24757">
        <ele>91.4</ele>
        <time>2017-09-16T07:14:22Z</time>
      </trkpt>
      <trkpt lat="47.57264" lon="-0.24766">
        <ele>91.2</ele>
        <time>2017-09-16T07:14:27Z</time>
      </trkpt>
      <trkpt lat="47.57264" lon="-0.24773">
        <ele>91.1</ele>
        <time>2017-09-16T07:14:32Z</time>
      </trkpt>
      <trkpt lat="47.57264" lon="-0.24781">
        <ele>90.9</ele>
        <time>2017-09-16T07:14:37Z</time>
      </trkpt>
      <trkpt lat="47.57266" lon="-0.24786">
        <ele>90.7</ele>
        <time>2017-09-16T07:14:42Z</time>
      </trkpt>
      <trkpt lat="47.57266" lon="-0.24794">
        <ele>90.4</ele>
        <time>2017-09-16T07:14:47Z</time>
      </trkpt>
      <trkpt lat="47.57268" lon="-0.24803">
        <ele>90.1</ele>
        <time>2017-09-16T07:14:52Z</time>
      </trkpt>
      <trkpt lat="47.5727" lon="-0.24811">
        <ele>89.9</ele>
        <time>2017-09-16T07:14:57Z</time>
      </trkpt>
      <trkpt lat="47.57272" lon="-0.24818">
        <ele>89.9</ele>
        <time>2017-09-16T07:15:02Z</time>
      </trkpt>
      <trkpt lat="47.57273" lon="-0.24823">
        <ele>89.9</ele>
        <time>2017-09-16T07:15:07Z</time>
      </trkpt>
      <trkpt lat="47.57275" lon="-0.2483">
        <ele>89.9</ele>
        <time>2017-09-16T07:15:12Z</time>
      </trkpt>
      <trkpt lat="47.57278" lon="-0.24841">
        <ele>90</ele>
        <time>2017-09-16T07:15:17Z</time>
      </trkpt>
      <trkpt lat="47.57279" lon="-0.24846">
        <ele>90</ele>
        <time>2017-09-16T07:15:22Z</time>
      </trkpt>
      <trkpt lat="47.57281" lon="-0.24853">
        <ele>90</ele>
        <time>2017-09-16T07:15:27Z</time>
      </trkpt>
      <trkpt lat="47.57285" lon="-0.2486">
        <ele>90</ele>
        <time>2017-09-16T07:15:32Z</time>
      </trkpt>
      <trkpt lat="47.57289" lon="-0.24864">
        <ele>90</ele>
        <time>2017-09-16T07:15:37Z</time>
      </trkpt>
      <trkpt lat="47.57293" lon="-0.24867">
        <ele>90</ele>
        <time>2017-09-16T07:15:42Z</time>
      </trkpt>
      <trkpt lat="47.57294" lon="-0.2487">
        <ele>90</ele>
        <time>2017-09-16T07:15:47Z</time>
      </trkpt>
      <trkpt lat="47.57296" lon="-0.24874">
        <ele>90</ele>
        <time>2017-09-16T07:15:52Z</time>
      </trkpt>
      <trkpt lat="47.57296" lon="-0.24876">
        <ele>90</ele>
        <time>2017-09-16T07:15:57Z</time>
      </trkpt>
      <trkpt lat="47.57297" lon="-0.24881">
        <ele>90</ele>
        <time>2017-09-16T07:16:02Z</time>
      </trkpt>
      <trkpt lat="47.57298" lon="-0.24888">
        <ele>90</ele>
        <time>2017-09-16T07:16:07Z</time>
      </trkpt>
      <trkpt lat="47.57301" lon="-0.24893">
        <ele>90</ele>
        <time>2017-09-16T07:16:12Z</time>
      </trkpt>
      <trkpt lat="47.57305" lon="-0.24897">
        <ele>90</ele>
        <time>2017-09-16T07:16:17Z</time>
      </trkpt>
      <trkpt lat="47.57306" lon="-0.249">
        <ele>90</ele>
        <time>2017-09-16T07:16:22Z</time>
      </trkpt>
      <trkpt lat="47.57306" lon="-0.24906">
        <ele>90</ele>
        <time>2017-09-16T07:16:27Z</time>
      </trkpt>
      <trkpt lat="47.57308" lon="-0.24915">
        <ele>90.1</ele>
        <time>2017-09-16T07:16:32Z</time>
      </trkpt>
      <trkpt lat="47.57312" lon="-0.24921">
        <ele>90.2</ele>
        <time>2017-09-16T07:16:37Z</time>
      </trkpt>
      <trkpt lat="47.57317" lon="-0.24923">
        <ele>90.4</ele>
        <time>2017-09-16T07:16:42Z</time>
      </trkpt>
      <trkpt lat="47.57321" lon="-0.24923">
        <ele>90.6</ele>
        <time>2017-09-16T07:16:47Z</time>
      </trkpt>
      <trkpt lat="47.57326" lon="-0.24922">
        <ele>90.7</ele>
        <time>2017-09-16T07:16:52Z</time>
      </trkpt>
      <trkpt lat="47.5733" lon="-0.2492">
        <ele>90.9</ele>
        <time>2017-09-16T07:16:57Z</time>
      </trkpt>
      <trkpt lat="47.57333" lon="-0.24918">
        <ele>91</ele>
        <time>2017-09-16T07:17:02Z</time>
      </trkpt>
      <trkpt lat="47.57334" lon="-0.24918">
        <ele>91</ele>
        <time>2017-09-16T07:17:07Z</time>
      </trkpt>
      <trkpt lat="47.57336" lon="-0.2492">
        <ele>91</ele>
        <time>2017-09-16T07:17:12Z</time>
      </trkpt>
      <trkpt lat="47.57338" lon="-0.24926">
        <ele>91</ele>
        <time>2017-09-16T07:17:17Z</time>
      </trkpt>
      <trkpt lat="47.57339" lon="-0.24934">
        <ele>91</ele>
        <time>2017-09-16T07:17:22Z</time>
      </trkpt>
      <trkpt lat="47.57339" lon="-0.24942">
        <ele>91</ele>
        <time>2017-09-16T07:17:27Z</time>
      </trkpt>
      <trkpt lat="47.57339" lon="-0.2495">
        <ele>91</ele>
        <time>2017-09-16T07:17:32Z</time>
      </trkpt>
      <trkpt lat="47.57339" lon="-0.24959">
        <ele>91</ele>
        <time>2017-09-16T07:17:37Z</time>
      </trkpt>
      <trkpt lat="47.5734" lon="-0.24968">
        <ele>91</ele>
        <time>2017-09-16T07:17:42Z</time>
      </trkpt>
      <trkpt lat="47.5734" lon="-0.24976">
        <ele>90.9</ele>
        <time>2017-09-16T07:17:47Z</time>
      </trkpt>
      <trkpt lat="47.5734" lon="-0.24985">
        <ele>90.6</ele>
        <time>2017-09-16T07:17:52Z</time>
      </trkpt>
      <trkpt lat="47.5734" lon="-0.24994">
        <ele>90.4</ele>
        <time>2017-09-16T07:17:57Z</time>
      </trkpt>
      <trkpt lat="47.57339" lon="-0.25003">
        <ele>90.1</ele>
        <time>2017-09-16T07:18:02Z</time>
      </trkpt>
      <trkpt lat="47.57337" lon="-0.25011">
        <ele>89.8</ele>
        <time>2017-09-16T07:18:07Z</time>
      </trkpt>
      <trkpt lat="47.57335" lon="-0.25019">
        <ele>89.4</ele>
        <time>2017-09-16T07:18:12Z</time>
      </trkpt>
      <trkpt lat="47.57334" lon="-0.25026">
        <ele>89.1</ele>
        <time>2017-09-16T07:18:17Z</time>
      </trkpt>
      <trkpt lat="47.57332" lon="-0.25034">
        <ele>89</ele>
        <time>2017-09-16T07:18:22Z</time>
      </trkpt>
      <trkpt lat="47.57331" lon="-0.25043">
        <ele>89</ele>
        <time>2017-09-16T07:18:27Z</time>
      </trkpt>
      <trkpt lat="47.5733" lon="-0.25051">
        <ele>88.9</ele>
        <time>2017-09-16T07:18:32Z</time>
      </trkpt>
      <trkpt lat="47.57328" lon="-0.25061">
        <ele>88.8</ele>
        <time>2017-09-16T07:18:37Z</time>
      </trkpt>
      <trkpt lat="47.57326" lon="-0.25069">
        <ele>88.6</ele>
        <time>2017-09-16T07:18:42Z</time>
      </trkpt>
      <trkpt lat="47.57324" lon="-0.25076">
        <ele>88.4</ele>
        <time>2017-09-16T07:18:47Z</time>
      </trkpt>
      <trkpt lat="47.57323" lon="-0.25086">
        <ele>88.2</ele>
        <time>2017-09-16T07:18:52Z</time>
      </trkpt>
      <trkpt lat="47.57322" lon="-0.25095">
        <ele>87.9</ele>
        <time>2017-09-16T07:18:57Z</time>
      </trkpt>
      <trkpt lat="47.57321" lon="-0.25103">
        <ele>87.7</ele>
        <time>2017-09-16T07:19:02Z</time>
      </trkpt>
      <trkpt lat="47.5732" lon="-0.25112">
        <ele>87.5</ele>
        <time>2017-09-16T07:19:07Z</time>
      </trkpt>
      <trkpt lat="47.57319" lon="-0.25121">
        <ele>87.1</ele>
        <time>2017-09-16T07:19:12Z</time>
      </trkpt>
      <trkpt lat="47.57318" lon="-0.2513">
        <ele>86.8</ele>
        <time>2017-09-16T07:19:17Z</time>
      </trkpt>
      <trkpt lat="47.57318" lon="-0.25139">
        <ele>86.4</ele>
        <time>2017-09-16T07:19:22Z</time>
      </trkpt>
      <trkpt lat="47.57318" lon="-0.25148">
        <ele>86.4</ele>
        <time>2017-09-16T07:19:27Z</time>
      </trkpt>
      <trkpt lat="47.57319" lon="-0.25158">
        <ele>86.5</ele>
        <time>2017-09-16T07:19:32Z</time>
      </trkpt>
      <trkpt lat="47.57321" lon="-0.25167">
        <ele>86.6</ele>
        <time>2017-09-16T07:19:37Z</time>
      </trkpt>
      <trkpt lat="47.57323" lon="-0.25176">
        <ele>86.3</ele>
        <time>2017-09-16T07:19:42Z</time>
      </trkpt>
      <trkpt lat="47.57325" lon="-0.25185">
        <ele>86</ele>
        <time>2017-09-16T07:19:47Z</time>
      </trkpt>
      <trkpt lat="47.57327" lon="-0.25193">
        <ele>85.8</ele>
        <time>2017-09-16T07:19:52Z</time>
      </trkpt>
      <trkpt lat="47.57328" lon="-0.25201">
        <ele>85.6</ele>
        <time>2017-09-16T07:19:57Z</time>
      </trkpt>
      <trkpt lat="47.57328" lon="-0.25209">
        <ele>85.3</ele>
        <time>2017-09-16T07:20:02Z</time>
      </trkpt>
      <trkpt lat="47.57327" lon="-0.25218">
        <ele>84.9</ele>
        <time>2017-09-16T07:20:07Z</time>
      </trkpt>
      <trkpt lat="47.57325" lon="-0.25227">
        <ele>84.3</ele>
        <time>2017-09-16T07:20:12Z</time>
      </trkpt>
      <trkpt lat="47.57323" lon="-0.25236">
        <ele>83.6</ele>
        <time>2017-09-16T07:20:17Z</time>
      </trkpt>
      <trkpt lat="47.5732" lon="-0.25244">
        <ele>83</ele>
        <time>2017-09-16T07:20:22Z</time>
      </trkpt>
      <trkpt lat="47.57317" lon="-0.25251">
        <ele>82.4</ele>
        <time>2017-09-16T07:20:27Z</time>
      </trkpt>
      <trkpt lat="47.57314" lon="-0.25261">
        <ele>81.9</ele>
        <time>2017-09-16T07:20:32Z</time>
      </trkpt>
      <trkpt lat="47.57312" lon="-0.25269">
        <ele>81.5</ele>
        <time>2017-09-16T07:20:37Z</time>
      </trkpt>
      <trkpt lat="47.57309" lon="-0.25278">
        <ele>81.1</ele>
        <time>2017-09-16T07:20:42Z</time>
      </trkpt>
      <trkpt lat="47.57307" lon="-0.25287">
        <ele>80.7</ele>
        <time>2017-09-16T07:20:47Z</time>
      </trkpt>
      <trkpt lat="47.57305" lon="-0.25296">
        <ele>80.3</ele>
        <time>2017-09-16T07:20:52Z</time>
      </trkpt>
      <trkpt lat="47.57305" lon="-0.25306">
        <ele>79.9</ele>
        <time>2017-09-16T07:20:57Z</time>
      </trkpt>
      <trkpt lat="47.57305" lon="-0.25315">
        <ele>79.9</ele>
        <time>2017-09-16T07:21:02Z</time>
      </trkpt>
      <trkpt lat="47.57305" lon="-0.25324">
        <ele>80</ele>
        <time>2017-09-16T07:21:07Z</time>
      </trkpt>
      <trkpt lat="47.57306" lon="-0.25333">
        <ele>80</ele>
        <time>2017-09-16T07:21:12Z</time>
      </trkpt>
      <trkpt lat="47.57307" lon="-0.25342">
        <ele>79.8</ele>
        <time>2017-09-16T07:21:17Z</time>
      </trkpt>
      <trkpt lat="47.57309" lon="-0.25351">
        <ele>79.6</ele>
        <time>2017-09-16T07:21:22Z</time>
      </trkpt>
      <trkpt lat="47.57312" lon="-0.25361">
        <ele>79.5</ele>
        <time>2017-09-16T07:21:27Z</time>
      </trkpt>
      <trkpt lat="47.57315" lon="-0.2537">
        <ele>79.5</ele>
        <time>2017-09-16T07:21:32Z</time>
      </trkpt>
      <trkpt lat="47.57318" lon="-0.25379">
        <ele>79.6</ele>
        <time>2017-09-16T07:21:37Z</time>
      </trkpt>
      <trkpt lat="47.57321" lon="-0.25389">
        <ele>79.6</ele>
        <time>2017-09-16T07:21:42Z</time>
      </trkpt>
      <trkpt lat="47.57324" lon="-0.25397">
        <ele>79.4</ele>
        <time>2017-09-16T07:21:47Z</time>
      </trkpt>
      <trkpt lat="47.57326" lon="-0.25406">
        <ele>79.1</ele>
        <time>2017-09-16T07:21:52Z</time>
      </trkpt>
      <trkpt lat="47.57329" lon="-0.25414">
        <ele>78.9</ele>
        <time>2017-09-16T07:21:57Z</time>
      </trkpt>
      <trkpt lat="47.57332" lon="-0.25423">
        <ele>78.7</ele>
        <time>2017-09-16T07:22:02Z</time>
      </trkpt>
      <trkpt lat="47.57335" lon="-0.25432">
        <ele>78.6</ele>
        <time>2017-09-16T07:22:07Z</time>
      </trkpt>
      <trkpt lat="47.57338" lon="-0.2544">
        <ele>78.6</ele>
        <time>2017-09-16T07:22:12Z</time>
      </trkpt>
      <trkpt lat="47.5734" lon="-0.25448">
        <ele>78.6</ele>
        <time>2017-09-16T07:22:17Z</time>
      </trkpt>
      <trkpt lat="47.57343" lon="-0.25456">
        <ele>78.6</ele>
        <time>2017-09-16T07:22:22Z</time>
      </trkpt>
      <trkpt lat="47.57345" lon="-0.25465">
        <ele>78.5</ele>
        <time>2017-09-16T07:22:27Z</time>
      </trkpt>
      <trkpt lat="47.57347" lon="-0.25472">
        <ele>78.5</ele>
        <time>2017-09-16T07:22:32Z</time>
      </trkpt>
      <trkpt lat="47.57349" lon="-0.25481">
        <ele>78.6</ele>
        <time>2017-09-16T07:22:37Z</time>
      </trkpt>
      <trkpt lat="47.57352" lon="-0.25489">
        <ele>78.8</ele>
        <time>2017-09-16T07:22:42Z</time>
      </trkpt>
      <trkpt lat="47.57355" lon="-0.25497">
        <ele>79.1</ele>
        <time>2017-09-16T07:22:47Z</time>
      </trkpt>
      <trkpt lat="47.57358" lon="-0.25505">
        <ele>79.2</ele>
        <time>2017-09-16T07:22:52Z</time>
      </trkpt>
      <trkpt lat="47.5736" lon="-0.25514">
        <ele>78.9</ele>
        <time>2017-09-16T07:22:57Z</time>
      </trkpt>
      <trkpt lat="47.57363" lon="-0.25521">
        <ele>78.6</ele>
        <time>2017-09-16T07:23:02Z</time>
      </trkpt>
      <trkpt lat="47.57365" lon="-0.25529">
        <ele>78.4</ele>
        <time>2017-09-16T07:23:07Z</time>
      </trkpt>
      <trkpt lat="47.57368" lon="-0.25537">
        <ele>78.4</ele>
        <time>2017-09-16T07:23:12Z</time>
      </trkpt>
      <trkpt lat="47.5737" lon="-0.25546">
        <ele>78.3</ele>
        <time>2017-09-16T07:23:17Z</time>
      </trkpt>
      <trkpt lat="47.57372" lon="-0.25555">
        <ele>78.3</ele>
        <time>2017-09-16T07:23:22Z</time>
      </trkpt>
      <trkpt lat="47.57375" lon="-0.25563">
        <ele>78.5</ele>
        <time>2017-09-16T07:23:27Z</time>
      </trkpt>
      <trkpt lat="47.57379" lon="-0.25571">
        <ele>78.9</ele>
        <time>2017-09-16T07:23:32Z</time>
      </trkpt>
      <trkpt lat="47.57381" lon="-0.25579">
        <ele>79.2</ele>
        <time>2017-09-16T07:23:37Z</time>
      </trkpt>
      <trkpt lat="47.57384" lon="-0.25586">
        <ele>79.4</ele>
        <time>2017-09-16T07:23:42Z</time>
      </trkpt>
      <trkpt lat="47.57385" lon="-0.25594">
        <ele>79.3</ele>
        <time>2017-09-16T07:23:47Z</time>
      </trkpt>
      <trkpt lat="47.57387" lon="-0.25601">
        <ele>79.2</ele>
        <time>2017-09-16T07:23:52Z</time>
      </trkpt>
      <trkpt lat="47.57387" lon="-0.2561">
        <ele>78.9</ele>
        <time>2017-09-16T07:23:57Z</time>
      </trkpt>
      <trkpt lat="47.57388" lon="-0.25616">
        <ele>78.9</ele>
        <time>2017-09-16T07:24:02Z</time>
      </trkpt>
      <trkpt lat="47.57387" lon="-0.25622">
        <ele>78.9</ele>
        <time>2017-09-16T07:24:07Z</time>
      </trkpt>
      <trkpt lat="47.57389" lon="-0.25629">
        <ele>79</ele>
        <time>2017-09-16T07:24:12Z</time>
      </trkpt>
      <trkpt lat="47.57391" lon="-0.25637">
        <ele>79.1</ele>
        <time>2017-09-16T07:24:17Z</time>
      </trkpt>
      <trkpt lat="47.57392" lon="-0.25643">
        <ele>79.3</ele>
        <time>2017-09-16T07:24:22Z</time>
      </trkpt>
      <trkpt lat="47.57394" lon="-0.25654">
        <ele>79.4</ele>
        <time>2017-09-16T07:24:27Z</time>
      </trkpt>
      <trkpt lat="47.57395" lon="-0.25669">
        <ele>79.4</ele>
        <time>2017-09-16T07:24:32Z</time>
      </trkpt>
      <trkpt lat="47.57396" lon="-0.25681">
        <ele>79.5</ele>
        <time>2017-09-16T07:24:37Z</time>
      </trkpt>
      <trkpt lat="47.57395" lon="-0.25691">
        <ele>79.4</ele>
        <time>2017-09-16T07:24:42Z</time>
      </trkpt>
      <trkpt lat="47.57397" lon="-0.257">
        <ele>79.5</ele>
        <time>2017-09-16T07:24:47Z</time>
      </trkpt>
      <trkpt lat="47.57397" lon="-0.2571">
        <ele>79.6</ele>
        <time>2017-09-16T07:24:52Z</time>
      </trkpt>
      <trkpt lat="47.57397" lon="-0.2572">
        <ele>79.6</ele>
        <time>2017-09-16T07:24:57Z</time>
      </trkpt>
      <trkpt lat="47.57397" lon="-0.25729">
        <ele>79.3</ele>
        <time>2017-09-16T07:25:02Z</time>
      </trkpt>
      <trkpt lat="47.57396" lon="-0.2574">
        <ele>78.9</ele>
        <time>2017-09-16T07:25:07Z</time>
      </trkpt>
      <trkpt lat="47.57393" lon="-0.25743">
        <ele>78.5</ele>
        <time>2017-09-16T07:25:12Z</time>
      </trkpt>
      <trkpt lat="47.57394" lon="-0.25751">
        <ele>78.4</ele>
        <time>2017-09-16T07:25:17Z</time>
      </trkpt>
      <trkpt lat="47.57395" lon="-0.25762">
        <ele>77.9</ele>
        <time>2017-09-16T07:25:22Z</time>
      </trkpt>
      <trkpt lat="47.57395" lon="-0.25771">
        <ele>77.5</ele>
        <time>2017-09-16T07:25:27Z</time>
      </trkpt>
      <trkpt lat="47.57394" lon="-0.2578">
        <ele>77.1</ele>
        <time>2017-09-16T07:25:32Z</time>
      </trkpt>
      <trkpt lat="47.57395" lon="-0.25789">
        <ele>76.8</ele>
        <time>2017-09-16T07:25:37Z</time>
      </trkpt>
      <trkpt lat="47.57395" lon="-0.25795">
        <ele>76.6</ele>
        <time>2017-09-16T07:25:42Z</time>
      </trkpt>
      <trkpt lat="47.57397" lon="-0.25805">
        <ele>76.3</ele>
        <time>2017-09-16T07:25:47Z</time>
      </trkpt>
      <trkpt lat="47.57397" lon="-0.25814">
        <ele>76</ele>
        <time>2017-09-16T07:25:52Z</time>
      </trkpt>
      <trkpt lat="47.57397" lon="-0.25824">
        <ele>75.6</ele>
        <time>2017-09-16T07:25:57Z</time>
      </trkpt>
      <trkpt lat="47.57397" lon="-0.25834">
        <ele>75.3</ele>
        <time>2017-09-16T07:26:02Z</time>
      </trkpt>
      <trkpt lat="47.57396" lon="-0.25843">
        <ele>75</ele>
        <time>2017-09-16T07:26:07Z</time>
      </trkpt>
      <trkpt lat="47.57396" lon="-0.25854">
        <ele>74.7</ele>
        <time>2017-09-16T07:26:12Z</time>
      </trkpt>
      <trkpt lat="47.57396" lon="-0.25864">
        <ele>74.4</ele>
        <time>2017-09-16T07:26:17Z</time>
      </trkpt>
      <trkpt lat="47.57397" lon="-0.25874">
        <ele>74.1</ele>
        <time>2017-09-16T07:26:22Z</time>
      </trkpt>
      <trkpt lat="47.57397" lon="-0.25883">
        <ele>73.8</ele>
        <time>2017-09-16T07:26:27Z</time>
      </trkpt>
      <trkpt lat="47.57397" lon="-0.25892">
        <ele>73.4</ele>
        <time>2017-09-16T07:26:32Z</time>
      </trkpt>
      <trkpt lat="47.57397" lon="-0.25899">
        <ele>73.2</ele>
        <time>2017-09-16T07:26:37Z</time>
      </trkpt>
      <trkpt lat="47.57398" lon="-0.25907">
        <ele>73</ele>
        <time>2017-09-16T07:26:42Z</time>
      </trkpt>
      <trkpt lat="47.57399" lon="-0.25914">
        <ele>72.8</ele>
        <time>2017-09-16T07:26:47Z</time>
      </trkpt>
      <trkpt lat="47.57398" lon="-0.25921">
        <ele>72.5</ele>
        <time>2017-09-16T07:26:52Z</time>
      </trkpt>
      <trkpt lat="47.57399" lon="-0.25927">
        <ele>72.3</ele>
        <time>2017-09-16T07:26:57Z</time>
      </trkpt>
      <trkpt lat="47.574" lon="-0.25935">
        <ele>72.1</ele>
        <time>2017-09-16T07:27:02Z</time>
      </trkpt>
      <trkpt lat="47.57402" lon="-0.25942">
        <ele>72</ele>
        <time>2017-09-16T07:27:07Z</time>
      </trkpt>
      <trkpt lat="47.57402" lon="-0.25949">
        <ele>71.9</ele>
        <time>2017-09-16T07:27:12Z</time>
      </trkpt>
      <trkpt lat="47.57404" lon="-0.25957">
        <ele>72.1</ele>
        <time>2017-09-16T07:27:17Z</time>
      </trkpt>
      <trkpt lat="47.57406" lon="-0.25965">
        <ele>72.2</ele>
        <time>2017-09-16T07:27:22Z</time>
      </trkpt>
      <trkpt lat="47.57408" lon="-0.25973">
        <ele>72.4</ele>
        <time>2017-09-16T07:27:27Z</time>
      </trkpt>
      <trkpt lat="47.57409" lon="-0.2598">
        <ele>72.1</ele>
        <time>2017-09-16T07:27:32Z</time>
      </trkpt>
      <trkpt lat="47.57409" lon="-0.2599">
        <ele>71.8</ele>
        <time>2017-09-16T07:27:37Z</time>
      </trkpt>
      <trkpt lat="47.57409" lon="-0.26002">
        <ele>71.5</ele>
        <time>2017-09-16T07:27:42Z</time>
      </trkpt>
      <trkpt lat="47.57408" lon="-0.26014">
        <ele>71.4</ele>
        <time>2017-09-16T07:27:47Z</time>
      </trkpt>
      <trkpt lat="47.57409" lon="-0.26026">
        <ele>71.5</ele>
        <time>2017-09-16T07:27:52Z</time>
      </trkpt>
      <trkpt lat="47.57413" lon="-0.26037">
        <ele>71.4</ele>
        <time>2017-09-16T07:27:57Z</time>
      </trkpt>
      <trkpt lat="47.57415" lon="-0.26045">
        <ele>71.2</ele>
        <time>2017-09-16T07:28:02Z</time>
      </trkpt>
      <trkpt lat="47.57414" lon="-0.26055">
        <ele>70.8</ele>
        <time>2017-09-16T07:28:07Z</time>
      </trkpt>
      <trkpt lat="47.57412" lon="-0.26066">
        <ele>70.3</ele>
        <time>2017-09-16T07:28:12Z</time>
      </trkpt>
      <trkpt lat="47.5741" lon="-0.26076">
        <ele>69.9</ele>
        <time>2017-09-16T07:28:17Z</time>
      </trkpt>
      <trkpt lat="47.57409" lon="-0.26086">
        <ele>69.7</ele>
        <time>2017-09-16T07:28:22Z</time>
      </trkpt>
      <trkpt lat="47.57408" lon="-0.26095">
        <ele>69.7</ele>
        <time>2017-09-16T07:28:27Z</time>
      </trkpt>
      <trkpt lat="47.57407" lon="-0.26104">
        <ele>69.7</ele>
        <time>2017-09-16T07:28:32Z</time>
      </trkpt>
      <trkpt lat="47.57408" lon="-0.26116">
        <ele>69.6</ele>
        <time>2017-09-16T07:28:37Z</time>
      </trkpt>
      <trkpt lat="47.57407" lon="-0.26128">
        <ele>69.5</ele>
        <time>2017-09-16T07:28:42Z</time>
      </trkpt>
      <trkpt lat="47.57407" lon="-0.26136">
        <ele>69.3</ele>
        <time>2017-09-16T07:28:47Z</time>
      </trkpt>
      <trkpt lat="47.57406" lon="-0.26146">
        <ele>69.2</ele>
        <time>2017-09-16T07:28:52Z</time>
      </trkpt>
      <trkpt lat="47.57406" lon="-0.26155">
        <ele>69.2</ele>
        <time>2017-09-16T07:28:57Z</time>
      </trkpt>
      <trkpt lat="47.57405" lon="-0.26165">
        <ele>69.1</ele>
        <time>2017-09-16T07:29:02Z</time>
      </trkpt>
      <trkpt lat="47.57405" lon="-0.26174">
        <ele>69</ele>
        <time>2017-09-16T07:29:07Z</time>
      </trkpt>
      <trkpt lat="47.57404" lon="-0.26184">
        <ele>68.8</ele>
        <time>2017-09-16T07:29:12Z</time>
      </trkpt>
      <trkpt lat="47.57403" lon="-0.26193">
        <ele>68.5</ele>
        <time>2017-09-16T07:29:17Z</time>
      </trkpt>
      <trkpt lat="47.57402" lon="-0.26201">
        <ele>68.5</ele>
        <time>2017-09-16T07:29:22Z</time>
      </trkpt>
      <trkpt lat="47.57401" lon="-0.26211">
        <ele>68.4</ele>
        <time>2017-09-16T07:29:27Z</time>
      </trkpt>
      <trkpt lat="47.574" lon="-0.26219">
        <ele>68.4</ele>
        <time>2017-09-16T07:29:32Z</time>
      </trkpt>
      <trkpt lat="47.57398" lon="-0.26229">
        <ele>68.2</ele>
        <time>2017-09-16T07:29:37Z</time>
      </trkpt>
      <trkpt lat="47.57396" lon="-0.26238">
        <ele>67.8</ele>
        <time>2017-09-16T07:29:42Z</time>
      </trkpt>
      <trkpt lat="47.57394" lon="-0.26246">
        <ele>67.5</ele>
        <time>2017-09-16T07:29:47Z</time>
      </trkpt>
      <trkpt lat="47.57393" lon="-0.26255">
        <ele>67.3</ele>
        <time>2017-09-16T07:29:52Z</time>
      </trkpt>
      <trkpt lat="47.57392" lon="-0.26262">
        <ele>67.3</ele>
        <time>2017-09-16T07:29:57Z</time>
      </trkpt>
      <trkpt lat="47.57394" lon="-0.26272">
        <ele>67.4</ele>
        <time>2017-09-16T07:30:02Z</time>
      </trkpt>
      <trkpt lat="47.57392" lon="-0.26279">
        <ele>67.2</ele>
        <time>2017-09-16T07:30:07Z</time>
      </trkpt>
      <trkpt lat="47.5739" lon="-0.26289">
        <ele>66.7</ele>
        <time>2017-09-16T07:30:12Z</time>
      </trkpt>
      <trkpt lat="47.57385" lon="-0.26297">
        <ele>66.2</ele>
        <time>2017-09-16T07:30:17Z</time>
      </trkpt>
      <trkpt lat="47.57383" lon="-0.26309">
        <ele>65.8</ele>
        <time>2017-09-16T07:30:22Z</time>
      </trkpt>
      <trkpt lat="47.57383" lon="-0.26318">
        <ele>65.7</ele>
        <time>2017-09-16T07:30:27Z</time>
      </trkpt>
      <trkpt lat="47.5738" lon="-0.26327">
        <ele>65.4</ele>
        <time>2017-09-16T07:30:32Z</time>
      </trkpt>
      <trkpt lat="47.57379" lon="-0.26336">
        <ele>65.2</ele>
        <time>2017-09-16T07:30:37Z</time>
      </trkpt>
      <trkpt lat="47.57376" lon="-0.2634">
        <ele>64.9</ele>
        <time>2017-09-16T07:30:42Z</time>
      </trkpt>
      <trkpt lat="47.57374" lon="-0.26348">
        <ele>64.7</ele>
        <time>2017-09-16T07:30:47Z</time>
      </trkpt>
      <trkpt lat="47.57373" lon="-0.26353">
        <ele>64.5</ele>
        <time>2017-09-16T07:30:52Z</time>
      </trkpt>
      <trkpt lat="47.57375" lon="-0.26367">
        <ele>64.5</ele>
        <time>2017-09-16T07:30:57Z</time>
      </trkpt>
      <trkpt lat="47.57375" lon="-0.26374">
        <ele>64.5</ele>
        <time>2017-09-16T07:31:02Z</time>
      </trkpt>
      <trkpt lat="47.57374" lon="-0.26381">
        <ele>64.5</ele>
        <time>2017-09-16T07:31:07Z</time>
      </trkpt>
      <trkpt lat="47.5737" lon="-0.26387">
        <ele>64.3</ele>
        <time>2017-09-16T07:31:12Z</time>
      </trkpt>
      <trkpt lat="47.57367" lon="-0.26394">
        <ele>64.1</ele>
        <time>2017-09-16T07:31:17Z</time>
      </trkpt>
      <trkpt lat="47.57364" lon="-0.26402">
        <ele>63.7</ele>
        <time>2017-09-16T07:31:22Z</time>
      </trkpt>
      <trkpt lat="47.57363" lon="-0.26412">
        <ele>63.3</ele>
        <time>2017-09-16T07:31:27Z</time>
      </trkpt>
      <trkpt lat="47.57362" lon="-0.26417">
        <ele>63</ele>
        <time>2017-09-16T07:31:32Z</time>
      </trkpt>
      <trkpt lat="47.57359" lon="-0.26425">
        <ele>62.9</ele>
        <time>2017-09-16T07:31:37Z</time>
      </trkpt>
      <trkpt lat="47.57356" lon="-0.26433">
        <ele>62.8</ele>
        <time>2017-09-16T07:31:42Z</time>
      </trkpt>
      <trkpt lat="47.57353" lon="-0.26441">
        <ele>62.7</ele>
        <time>2017-09-16T07:31:47Z</time>
      </trkpt>
      <trkpt lat="47.57353" lon="-0.26447">
        <ele>62.7</ele>
        <time>2017-09-16T07:31:52Z</time>
      </trkpt>
      <trkpt lat="47.57352" lon="-0.26456">
        <ele>62.7</ele>
        <time>2017-09-16T07:31:57Z</time>
      </trkpt>
      <trkpt lat="47.5735" lon="-0.26463">
        <ele>62.6</ele>
        <time>2017-09-16T07:32:02Z</time>
      </trkpt>
      <trkpt lat="47.57349" lon="-0.26472">
        <ele>62.6</ele>
        <time>2017-09-16T07:32:07Z</time>
      </trkpt>
      <trkpt lat="47.57348" lon="-0.26481">
        <ele>62.5</ele>
        <time>2017-09-16T07:32:12Z</time>
      </trkpt>
      <trkpt lat="47.57341" lon="-0.26482">
        <ele>62.3</ele>
        <time>2017-09-16T07:32:17Z</time>
      </trkpt>
      <trkpt lat="47.57339" lon="-0.26493">
        <ele>62.2</ele>
        <time>2017-09-16T07:32:22Z</time>
      </trkpt>
      <trkpt lat="47.57338" lon="-0.26504">
        <ele>62.2</ele>
        <time>2017-09-16T07:32:27Z</time>
      </trkpt>
      <trkpt lat="47.57334" lon="-0.26513">
        <ele>62</ele>
        <time>2017-09-16T07:32:32Z</time>
      </trkpt>
      <trkpt lat="47.57332" lon="-0.26521">
        <ele>62</ele>
        <time>2017-09-16T07:32:37Z</time>
      </trkpt>
      <trkpt lat="47.57332" lon="-0.2653">
        <ele>61.9</ele>
        <time>2017-09-16T07:32:42Z</time>
      </trkpt>
      <trkpt lat="47.57328" lon="-0.26541">
        <ele>61.3</ele>
        <time>2017-09-16T07:32:47Z</time>
      </trkpt>
      <trkpt lat="47.57326" lon="-0.2655">
        <ele>60.9</ele>
        <time>2017-09-16T07:32:52Z</time>
      </trkpt>
      <trkpt lat="47.57323" lon="-0.26564">
        <ele>60.6</ele>
        <time>2017-09-16T07:32:57Z</time>
      </trkpt>
      <trkpt lat="47.57329" lon="-0.26567">
        <ele>60.9</ele>
        <time>2017-09-16T07:33:02Z</time>
      </trkpt>
      <trkpt lat="47.57334" lon="-0.26564">
        <ele>61</ele>
        <time>2017-09-16T07:33:07Z</time>
      </trkpt>
      <trkpt lat="47.5734" lon="-0.26561">
        <ele>61.5</ele>
        <time>2017-09-16T07:33:12Z</time>
      </trkpt>
      <trkpt lat="47.57345" lon="-0.26557">
        <ele>61.8</ele>
        <time>2017-09-16T07:33:17Z</time>
      </trkpt>
      <trkpt lat="47.5735" lon="-0.26557">
        <ele>62.2</ele>
        <time>2017-09-16T07:33:22Z</time>
      </trkpt>
      <trkpt lat="47.57355" lon="-0.26557">
        <ele>62.6</ele>
        <time>2017-09-16T07:33:27Z</time>
      </trkpt>
      <trkpt lat="47.5736" lon="-0.26555">
        <ele>62.9</ele>
        <time>2017-09-16T07:33:32Z</time>
      </trkpt>
      <trkpt lat="47.57365" lon="-0.26553">
        <ele>63.3</ele>
        <time>2017-09-16T07:33:37Z</time>
      </trkpt>
      <trkpt lat="47.57371" lon="-0.26551">
        <ele>63.6</ele>
        <time>2017-09-16T07:33:42Z</time>
      </trkpt>
      <trkpt lat="47.57376" lon="-0.26549">
        <ele>64</ele>
        <time>2017-09-16T07:33:47Z</time>
      </trkpt>
      <trkpt lat="47.57381" lon="-0.26546">
        <ele>64.2</ele>
        <time>2017-09-16T07:33:52Z</time>
      </trkpt>
      <trkpt lat="47.57387" lon="-0.26544">
        <ele>64.5</ele>
        <time>2017-09-16T07:33:57Z</time>
      </trkpt>
      <trkpt lat="47.57392" lon="-0.26541">
        <ele>64.7</ele>
        <time>2017-09-16T07:34:02Z</time>
      </trkpt>
      <trkpt lat="47.57398" lon="-0.26539">
        <ele>64.9</ele>
        <time>2017-09-16T07:34:07Z</time>
      </trkpt>
      <trkpt lat="47.57403" lon="-0.26537">
        <ele>65.1</ele>
        <time>2017-09-16T07:34:12Z</time>
      </trkpt>
      <trkpt lat="47.57407" lon="-0.26534">
        <ele>65.4</ele>
        <time>2017-09-16T07:34:17Z</time>
      </trkpt>
      <trkpt lat="47.57412" lon="-0.26531">
        <ele>65.7</ele>
        <time>2017-09-16T07:34:22Z</time>
      </trkpt>
      <trkpt lat="47.57417" lon="-0.26528">
        <ele>66</ele>
        <time>2017-09-16T07:34:27Z</time>
      </trkpt>
      <trkpt lat="47.57422" lon="-0.26525">
        <ele>66.4</ele>
        <time>2017-09-16T07:34:32Z</time>
      </trkpt>
      <trkpt lat="47.57427" lon="-0.26522">
        <ele>66.8</ele>
        <time>2017-09-16T07:34:37Z</time>
      </trkpt>
      <trkpt lat="47.57432" lon="-0.26519">
        <ele>67.1</ele>
        <time>2017-09-16T07:34:42Z</time>
      </trkpt>
      <trkpt lat="47.57437" lon="-0.26516">
        <ele>67.4</ele>
        <time>2017-09-16T07:34:47Z</time>
      </trkpt>
      <trkpt lat="47.57441" lon="-0.26512">
        <ele>67.8</ele>
        <time>2017-09-16T07:34:52Z</time>
      </trkpt>
      <trkpt lat="47.57446" lon="-0.26509">
        <ele>68.1</ele>
        <time>2017-09-16T07:34:57Z</time>
      </trkpt>
      <trkpt lat="47.57451" lon="-0.26507">
        <ele>68.5</ele>
        <time>2017-09-16T07:35:02Z</time>
      </trkpt>
      <trkpt lat="47.57456" lon="-0.26504">
        <ele>68.8</ele>
        <time>2017-09-16T07:35:07Z</time>
      </trkpt>
      <trkpt lat="47.5746" lon="-0.26502">
        <ele>69.2</ele>
        <time>2017-09-16T07:35:12Z</time>
      </trkpt>
      <trkpt lat="47.57465" lon="-0.26499">
        <ele>69.5</ele>
        <time>2017-09-16T07:35:17Z</time>
      </trkpt>
      <trkpt lat="47.5747" lon="-0.26495">
        <ele>69.9</ele>
        <time>2017-09-16T07:35:22Z</time>
      </trkpt>
      <trkpt lat="47.57475" lon="-0.26493">
        <ele>70.1</ele>
        <time>2017-09-16T07:35:27Z</time>
      </trkpt>
      <trkpt lat="47.5748" lon="-0.26491">
        <ele>70.3</ele>
        <time>2017-09-16T07:35:32Z</time>
      </trkpt>
      <trkpt lat="47.57486" lon="-0.2649">
        <ele>70.5</ele>
        <time>2017-09-16T07:35:37Z</time>
      </trkpt>
      <trkpt lat="47.5749" lon="-0.26487">
        <ele>70.7</ele>
        <time>2017-09-16T07:35:42Z</time>
      </trkpt>
      <trkpt lat="47.57496" lon="-0.26486">
        <ele>70.8</ele>
        <time>2017-09-16T07:35:47Z</time>
      </trkpt>
      <trkpt lat="47.575" lon="-0.26485">
        <ele>71</ele>
        <time>2017-09-16T07:35:52Z</time>
      </trkpt>
      <trkpt lat="47.57505" lon="-0.26482">
        <ele>71.2</ele>
        <time>2017-09-16T07:35:57Z</time>
      </trkpt>
      <trkpt lat="47.57511" lon="-0.2648">
        <ele>71.4</ele>
        <time>2017-09-16T07:36:02Z</time>
      </trkpt>
      <trkpt lat="47.57517" lon="-0.26478">
        <ele>71.6</ele>
        <time>2017-09-16T07:36:07Z</time>
      </trkpt>
      <trkpt lat="47.57522" lon="-0.26478">
        <ele>71.8</ele>
        <time>2017-09-16T07:36:12Z</time>
      </trkpt>
      <trkpt lat="47.57526" lon="-0.26478">
        <ele>71.9</ele>
        <time>2017-09-16T07:36:17Z</time>
      </trkpt>
      <trkpt lat="47.57527" lon="-0.26478">
        <ele>72</ele>
        <time>2017-09-16T07:36:22Z</time>
      </trkpt>
      <trkpt lat="47.57527" lon="-0.26478">
        <ele>72</ele>
        <time>2017-09-16T07:36:27Z</time>
      </trkpt>
      <trkpt lat="47.57527" lon="-0.26478">
        <ele>72</ele>
        <time>2017-09-16T07:36:32Z</time>
      </trkpt>
      <trkpt lat="47.57527" lon="-0.26478">
        <ele>72</ele>
        <time>2017-09-16T07:36:37Z</time>
      </trkpt>
      <trkpt lat="47.57527" lon="-0.26478">
        <ele>72</ele>
        <time>2017-09-16T07:36:42Z</time>
      </trkpt>
      <trkpt lat="47.57531" lon="-0.26476">
        <ele>72</ele>
        <time>2017-09-16T07:36:47Z</time>
      </trkpt>
      <trkpt lat="47.57536" lon="-0.26474">
        <ele>72</ele>
        <time>2017-09-16T07:36:52Z</time>
      </trkpt>
      <trkpt lat="47.5754" lon="-0.26473">
        <ele>72</ele>
        <time>2017-09-16T07:36:57Z</time>
      </trkpt>
      <trkpt lat="47.57545" lon="-0.26471">
        <ele>72</ele>
        <time>2017-09-16T07:37:02Z</time>
      </trkpt>
      <trkpt lat="47.5755" lon="-0.2647">
        <ele>72.1</ele>
        <time>2017-09-16T07:37:07Z</time>
      </trkpt>
      <trkpt lat="47.57556" lon="-0.26469">
        <ele>72.1</ele>
        <time>2017-09-16T07:37:12Z</time>
      </trkpt>
      <trkpt lat="47.57561" lon="-0.26469">
        <ele>72.1</ele>
        <time>2017-09-16T07:37:17Z</time>
      </trkpt>
      <trkpt lat="47.57566" lon="-0.26468">
        <ele>72.2</ele>
        <time>2017-09-16T07:37:22Z</time>
      </trkpt>
      <trkpt lat="47.57571" lon="-0.26467">
        <ele>72.2</ele>
        <time>2017-09-16T07:37:27Z</time>
      </trkpt>
      <trkpt lat="47.57577" lon="-0.26464">
        <ele>72.3</ele>
        <time>2017-09-16T07:37:32Z</time>
      </trkpt>
      <trkpt lat="47.57583" lon="-0.26464">
        <ele>72.3</ele>
        <time>2017-09-16T07:37:37Z</time>
      </trkpt>
      <trkpt lat="47.57588" lon="-0.26463">
        <ele>72.3</ele>
        <time>2017-09-16T07:37:42Z</time>
      </trkpt>
      <trkpt lat="47.57594" lon="-0.26461">
        <ele>72.4</ele>
        <time>2017-09-16T07:37:47Z</time>
      </trkpt>
      <trkpt lat="47.576" lon="-0.26459">
        <ele>72.5</ele>
        <time>2017-09-16T07:37:52Z</time>
      </trkpt>
      <trkpt lat="47.57605" lon="-0.26458">
        <ele>72.5</ele>
        <time>2017-09-16T07:37:57Z</time>
      </trkpt>
      <trkpt lat="47.5761" lon="-0.26455">
        <ele>72.6</ele>
        <time>2017-09-16T07:38:02Z</time>
      </trkpt>
      <trkpt lat="47.57615" lon="-0.2645">
        <ele>72.8</ele>
        <time>2017-09-16T07:38:07Z</time>
      </trkpt>
      <trkpt lat="47.5762" lon="-0.26445">
        <ele>73</ele>
        <time>2017-09-16T07:38:12Z</time>
      </trkpt>
      <trkpt lat="47.57625" lon="-0.2644">
        <ele>73.1</ele>
        <time>2017-09-16T07:38:17Z</time>
      </trkpt>
      <trkpt lat="47.57628" lon="-0.26435">
        <ele>73.3</ele>
        <time>2017-09-16T07:38:22Z</time>
      </trkpt>
      <trkpt lat="47.57631" lon="-0.26431">
        <ele>73.5</ele>
        <time>2017-09-16T07:38:27Z</time>
      </trkpt>
      <trkpt lat="47.57633" lon="-0.26424">
        <ele>73.7</ele>
        <time>2017-09-16T07:38:32Z</time>
      </trkpt>
      <trkpt lat="47.57635" lon="-0.2642">
        <ele>73.9</ele>
        <time>2017-09-16T07:38:37Z</time>
      </trkpt>
      <trkpt lat="47.57636" lon="-0.26418">
        <ele>74</ele>
        <time>2017-09-16T07:38:42Z</time>
      </trkpt>
      <trkpt lat="47.57637" lon="-0.26413">
        <ele>74</ele>
        <time>2017-09-16T07:38:47Z</time>
      </trkpt>
      <trkpt lat="47.57639" lon="-0.26405">
        <ele>74</ele>
        <time>2017-09-16T07:38:52Z</time>
      </trkpt>
      <trkpt lat="47.57641" lon="-0.26398">
        <ele>74</ele>
        <time>2017-09-16T07:38:57Z</time>
      </trkpt>
      <trkpt lat="47.57644" lon="-0.26391">
        <ele>74</ele>
        <time>2017-09-16T07:39:02Z</time>
      </trkpt>
      <trkpt lat="47.57647" lon="-0.26384">
        <ele>74.1</ele>
        <time>2017-09-16T07:39:07Z</time>
      </trkpt>
      <trkpt lat="47.57649" lon="-0.26379">
        <ele>74.2</ele>
        <time>2017-09-16T07:39:12Z</time>
      </trkpt>
      <trkpt lat="47.57652" lon="-0.26373">
        <ele>74.3</ele>
        <time>2017-09-16T07:39:17Z</time>
      </trkpt>
      <trkpt lat="47.57655" lon="-0.26367">
        <ele>74.3</ele>
        <time>2017-09-16T07:39:22Z</time>
      </trkpt>
      <trkpt lat="47.57657" lon="-0.26358">
        <ele>74.5</ele>
        <time>2017-09-16T07:39:27Z</time>
      </trkpt>
      <trkpt lat="47.5766" lon="-0.26351">
        <ele>74.6</ele>
        <time>2017-09-16T07:39:32Z</time>
      </trkpt>
      <trkpt lat="47.57665" lon="-0.26346">
        <ele>74.6</ele>
        <time>2017-09-16T07:39:37Z</time>
      </trkpt>
      <trkpt lat="47.57669" lon="-0.26342">
        <ele>74.6</ele>
        <time>2017-09-16T07:39:42Z</time>
      </trkpt>
      <trkpt lat="47.57674" lon="-0.2634">
        <ele>74.6</ele>
        <time>2017-09-16T07:39:47Z</time>
      </trkpt>
      <trkpt lat="47.57679" lon="-0.26338">
        <ele>74.5</ele>
        <time>2017-09-16T07:39:52Z</time>
      </trkpt>
      <trkpt lat="47.57685" lon="-0.26334">
        <ele>74.3</ele>
        <time>2017-09-16T07:39:57Z</time>
      </trkpt>
      <trkpt lat="47.57689" lon="-0.26329">
        <ele>74.2</ele>
        <time>2017-09-16T07:40:02Z</time>
      </trkpt>
      <trkpt lat="47.57693" lon="-0.26323">
        <ele>74.1</ele>
        <time>2017-09-16T07:40:07Z</time>
      </trkpt>
      <trkpt lat="47.57695" lon="-0.26319">
        <ele>74</ele>
        <time>2017-09-16T07:40:12Z</time>
      </trkpt>
      <trkpt lat="47.57698" lon="-0.26315">
        <ele>73.9</ele>
        <time>2017-09-16T07:40:17Z</time>
      </trkpt>
      <trkpt lat="47.57702" lon="-0.26308">
        <ele>73.7</ele>
        <time>2017-09-16T07:40:22Z</time>
      </trkpt>
      <trkpt lat="47.57703" lon="-0.263">
        <ele>73.8</ele>
        <time>2017-09-16T07:40:27Z</time>
      </trkpt>
      <trkpt lat="47.57705" lon="-0.26295">
        <ele>73.9</ele>
        <time>2017-09-16T07:40:32Z</time>
      </trkpt>
      <trkpt lat="47.57706" lon="-0.26293">
        <ele>73.8</ele>
        <time>2017-09-16T07:40:37Z</time>
      </trkpt>
      <trkpt lat="47.57712" lon="-0.26287">
        <ele>73.6</ele>
        <time>2017-09-16T07:40:42Z</time>
      </trkpt>
      <trkpt lat="47.57716" lon="-0.26284">
        <ele>73.4</ele>
        <time>2017-09-16T07:40:47Z</time>
      </trkpt>
      <trkpt lat="47.5772" lon="-0.26281">
        <ele>73.1</ele>
        <time>2017-09-16T07:40:52Z</time>
      </trkpt>
      <trkpt lat="47.57723" lon="-0.26277">
        <ele>72.9</ele>
        <time>2017-09-16T07:40:57Z</time>
      </trkpt>
      <trkpt lat="47.57727" lon="-0.26276">
        <ele>72.4</ele>
        <time>2017-09-16T07:41:02Z</time>
      </trkpt>
      <trkpt lat="47.57731" lon="-0.26273">
        <ele>71.9</ele>
        <time>2017-09-16T07:41:07Z</time>
      </trkpt>
      <trkpt lat="47.57736" lon="-0.2627">
        <ele>71.4</ele>
        <time>2017-09-16T07:41:12Z</time>
      </trkpt>
      <trkpt lat="47.57742" lon="-0.26269">
        <ele>70.8</ele>
        <time>2017-09-16T07:41:17Z</time>
      </trkpt>
      <trkpt lat="47.57747" lon="-0.26263">
        <ele>70.2</ele>
        <time>2017-09-16T07:41:22Z</time>
      </trkpt>
      <trkpt lat="47.57752" lon="-0.26259">
        <ele>69.8</ele>
        <time>2017-09-16T07:41:27Z</time>
      </trkpt>
      <trkpt lat="47.57757" lon="-0.26255">
        <ele>69.3</ele>
        <time>2017-09-16T07:41:32Z</time>
      </trkpt>
      <trkpt lat="47.57762" lon="-0.26254">
        <ele>68.8</ele>
        <time>2017-09-16T07:41:37Z</time>
      </trkpt>
      <trkpt lat="47.57769" lon="-0.26252">
        <ele>68</ele>
        <time>2017-09-16T07:41:42Z</time>
      </trkpt>
      <trkpt lat="47.57773" lon="-0.26247">
        <ele>67.4</ele>
        <time>2017-09-16T07:41:47Z</time>
      </trkpt>
      <trkpt lat="47.57777" lon="-0.26244">
        <ele>66.9</ele>
        <time>2017-09-16T07:41:52Z</time>
      </trkpt>
      <trkpt lat="47.57779" lon="-0.26241">
        <ele>66.6</ele>
        <time>2017-09-16T07:41:57Z</time>
      </trkpt>
      <trkpt lat="47.57783" lon="-0.26236">
        <ele>66.1</ele>
        <time>2017-09-16T07:42:02Z</time>
      </trkpt>
      <trkpt lat="47.57787" lon="-0.26229">
        <ele>65.6</ele>
        <time>2017-09-16T07:42:07Z</time>
      </trkpt>
      <trkpt lat="47.57793" lon="-0.26232">
        <ele>65.2</ele>
        <time>2017-09-16T07:42:12Z</time>
      </trkpt>
      <trkpt lat="47.57798" lon="-0.26231">
        <ele>64.9</ele>
        <time>2017-09-16T07:42:17Z</time>
      </trkpt>
      <trkpt lat="47.57801" lon="-0.26227">
        <ele>64.5</ele>
        <time>2017-09-16T07:42:22Z</time>
      </trkpt>
      <trkpt lat="47.57803" lon="-0.2622">
        <ele>64.1</ele>
        <time>2017-09-16T07:42:27Z</time>
      </trkpt>
      <trkpt lat="47.57806" lon="-0.26213">
        <ele>63.6</ele>
        <time>2017-09-16T07:42:32Z</time>
      </trkpt>
      <trkpt lat="47.57808" lon="-0.26209">
        <ele>63.3</ele>
        <time>2017-09-16T07:42:37Z</time>
      </trkpt>
      <trkpt lat="47.57813" lon="-0.2621">
        <ele>63</ele>
        <time>2017-09-16T07:42:42Z</time>
      </trkpt>
      <trkpt lat="47.57815" lon="-0.26204">
        <ele>62.7</ele>
        <time>2017-09-16T07:42:47Z</time>
      </trkpt>
      <trkpt lat="47.57817" lon="-0.26202">
        <ele>62.5</ele>
        <time>2017-09-16T07:42:52Z</time>
      </trkpt>
      <trkpt lat="47.57822" lon="-0.26195">
        <ele>61.8</ele>
        <time>2017-09-16T07:42:57Z</time>
      </trkpt>
      <trkpt lat="47.57825" lon="-0.26189">
        <ele>61.5</ele>
        <time>2017-09-16T07:43:02Z</time>
      </trkpt>
      <trkpt lat="47.57829" lon="-0.26185">
        <ele>61</ele>
        <time>2017-09-16T07:43:07Z</time>
      </trkpt>
      <trkpt lat="47.57832" lon="-0.26173">
        <ele>60.4</ele>
        <time>2017-09-16T07:43:12Z</time>
      </trkpt>
      <trkpt lat="47.57832" lon="-0.26164">
        <ele>60.2</ele>
        <time>2017-09-16T07:43:17Z</time>
      </trkpt>
      <trkpt lat="47.57833" lon="-0.26158">
        <ele>60</ele>
        <time>2017-09-16T07:43:22Z</time>
      </trkpt>
      <trkpt lat="47.57835" lon="-0.26153">
        <ele>59.9</ele>
        <time>2017-09-16T07:43:27Z</time>
      </trkpt>
      <trkpt lat="47.57835" lon="-0.26155">
        <ele>59.8</ele>
        <time>2017-09-16T07:43:32Z</time>
      </trkpt>
      <trkpt lat="47.57835" lon="-0.26151">
        <ele>59.8</ele>
        <time>2017-09-16T07:43:37Z</time>
      </trkpt>
      <trkpt lat="47.57838" lon="-0.26148">
        <ele>59.5</ele>
        <time>2017-09-16T07:43:42Z</time>
      </trkpt>
      <trkpt lat="47.57839" lon="-0.26143">
        <ele>59.4</ele>
        <time>2017-09-16T07:43:47Z</time>
      </trkpt>
      <trkpt lat="47.57839" lon="-0.26139">
        <ele>59.4</ele>
        <time>2017-09-16T07:43:52Z</time>
      </trkpt>
      <trkpt lat="47.57842" lon="-0.26134">
        <ele>59.1</ele>
        <time>2017-09-16T07:43:57Z</time>
      </trkpt>
      <trkpt lat="47.57847" lon="-0.26127">
        <ele>58.6</ele>
        <time>2017-09-16T07:44:02Z</time>
      </trkpt>
      <trkpt lat="47.5785" lon="-0.26121">
        <ele>58.2</ele>
        <time>2017-09-16T07:44:07Z</time>
      </trkpt>
      <trkpt lat="47.57852" lon="-0.26117">
        <ele>57.9</ele>
        <time>2017-09-16T07:44:12Z</time>
      </trkpt>
      <trkpt lat="47.57854" lon="-0.26107">
        <ele>57.7</ele>
        <time>2017-09-16T07:44:17Z</time>
      </trkpt>
      <trkpt lat="47.57857" lon="-0.26101">
        <ele>57.5</ele>
        <time>2017-09-16T07:44:22Z</time>
      </trkpt>
      <trkpt lat="47.5786" lon="-0.26097">
        <ele>57.1</ele>
        <time>2017-09-16T07:44:27Z</time>
      </trkpt>
      <trkpt lat="47.57863" lon="-0.26091">
        <ele>56.9</ele>
        <time>2017-09-16T07:44:32Z</time>
      </trkpt>
      <trkpt lat="47.57864" lon="-0.26088">
        <ele>56.9</ele>
        <time>2017-09-16T07:44:37Z</time>
      </trkpt>
      <trkpt lat="47.57866" lon="-0.26082">
        <ele>56.9</ele>
        <time>2017-09-16T07:44:42Z</time>
      </trkpt>
      <trkpt lat="47.57868" lon="-0.26074">
        <ele>57</ele>
        <time>2017-09-16T07:44:47Z</time>
      </trkpt>
      <trkpt lat="47.5787" lon="-0.26066">
        <ele>57.1</ele>
        <time>2017-09-16T07:44:52Z</time>
      </trkpt>
      <trkpt lat="47.57872" lon="-0.2606">
        <ele>57.1</ele>
        <time>2017-09-16T07:44:57Z</time>
      </trkpt>
      <trkpt lat="47.57873" lon="-0.26055">
        <ele>57.1</ele>
        <time>2017-09-16T07:45:02Z</time>
      </trkpt>
      <trkpt lat="47.57876" lon="-0.26049">
        <ele>57</ele>
        <time>2017-09-16T07:45:07Z</time>
      </trkpt>
      <trkpt lat="47.57877" lon="-0.26048">
        <ele>57</ele>
        <time>2017-09-16T07:45:12Z</time>
      </trkpt>
      <trkpt lat="47.57877" lon="-0.26048">
        <ele>57</ele>
        <time>2017-09-16T07:45:17Z</time>
      </trkpt>
      <trkpt lat="47.57878" lon="-0.26047">
        <ele>56.9</ele>
        <time>2017-09-16T07:45:22Z</time>
      </trkpt>
      <trkpt lat="47.57879" lon="-0.26042">
        <ele>56.9</ele>
        <time>2017-09-16T07:45:27Z</time>
      </trkpt>
      <trkpt lat="47.57879" lon="-0.26041">
        <ele>56.9</ele>
        <time>2017-09-16T07:45:32Z</time>
      </trkpt>
      <trkpt lat="47.57882" lon="-0.26034">
        <ele>56.7</ele>
        <time>2017-09-16T07:45:37Z</time>
      </trkpt>
      <trkpt lat="47.57887" lon="-0.26026">
        <ele>56.3</ele>
        <time>2017-09-16T07:45:42Z</time>
      </trkpt>
      <trkpt lat="47.5789" lon="-0.26019">
        <ele>56.3</ele>
        <time>2017-09-16T07:45:47Z</time>
      </trkpt>
      <trkpt lat="47.57893" lon="-0.26013">
        <ele>56.3</ele>
        <time>2017-09-16T07:45:52Z</time>
      </trkpt>
      <trkpt lat="47.57896" lon="-0.26006">
        <ele>56.3</ele>
        <time>2017-09-16T07:45:57Z</time>
      </trkpt>
      <trkpt lat="47.57901" lon="-0.25998">
        <ele>56.1</ele>
        <time>2017-09-16T07:46:02Z</time>
      </trkpt>
      <trkpt lat="47.57905" lon="-0.2599">
        <ele>55.9</ele>
        <time>2017-09-16T07:46:07Z</time>
      </trkpt>
      <trkpt lat="47.57909" lon="-0.25986">
        <ele>55.5</ele>
        <time>2017-09-16T07:46:12Z</time>
      </trkpt>
      <trkpt lat="47.57917" lon="-0.25979">
        <ele>55</ele>
        <time>2017-09-16T07:46:17Z</time>
      </trkpt>
      <trkpt lat="47.57923" lon="-0.2597">
        <ele>54.5</ele>
        <time>2017-09-16T07:46:22Z</time>
      </trkpt>
      <trkpt lat="47.57928" lon="-0.25967">
        <ele>54.2</ele>
        <time>2017-09-16T07:46:27Z</time>
      </trkpt>
      <trkpt lat="47.57934" lon="-0.25965">
        <ele>53.8</ele>
        <time>2017-09-16T07:46:32Z</time>
      </trkpt>
      <trkpt lat="47.57939" lon="-0.25965">
        <ele>53.4</ele>
        <time>2017-09-16T07:46:37Z</time>
      </trkpt>
      <trkpt lat="47.57945" lon="-0.25965">
        <ele>53</ele>
        <time>2017-09-16T07:46:42Z</time>
      </trkpt>
      <trkpt lat="47.57951" lon="-0.25965">
        <ele>52.9</ele>
        <time>2017-09-16T07:46:47Z</time>
      </trkpt>
      <trkpt lat="47.57957" lon="-0.25964">
        <ele>52.9</ele>
        <time>2017-09-16T07:46:52Z</time>
      </trkpt>
      <trkpt lat="47.57964" lon="-0.25963">
        <ele>52.8</ele>
        <time>2017-09-16T07:46:57Z</time>
      </trkpt>
      <trkpt lat="47.5797" lon="-0.25962">
        <ele>52.7</ele>
        <time>2017-09-16T07:47:02Z</time>
      </trkpt>
      <trkpt lat="47.57976" lon="-0.25962">
        <ele>52.4</ele>
        <time>2017-09-16T07:47:07Z</time>
      </trkpt>
      <trkpt lat="47.57982" lon="-0.25962">
        <ele>52</ele>
        <time>2017-09-16T07:47:12Z</time>
      </trkpt>
      <trkpt lat="47.57986" lon="-0.25969">
        <ele>51.9</ele>
        <time>2017-09-16T07:47:17Z</time>
      </trkpt>
      <trkpt lat="47.57989" lon="-0.25978">
        <ele>51.8</ele>
        <time>2017-09-16T07:47:22Z</time>
      </trkpt>
      <trkpt lat="47.5799" lon="-0.25988">
        <ele>51.7</ele>
        <time>2017-09-16T07:47:27Z</time>
      </trkpt>
      <trkpt lat="47.57992" lon="-0.25997">
        <ele>51.6</ele>
        <time>2017-09-16T07:47:32Z</time>
      </trkpt>
      <trkpt lat="47.57994" lon="-0.26006">
        <ele>51.5</ele>
        <time>2017-09-16T07:47:37Z</time>
      </trkpt>
      <trkpt lat="47.57995" lon="-0.26015">
        <ele>51.4</ele>
        <time>2017-09-16T07:47:42Z</time>
      </trkpt>
      <trkpt lat="47.57999" lon="-0.26022">
        <ele>51.1</ele>
        <time>2017-09-16T07:47:47Z</time>
      </trkpt>
      <trkpt lat="47.58" lon="-0.2603">
        <ele>50.9</ele>
        <time>2017-09-16T07:47:52Z</time>
      </trkpt>
      <trkpt lat="47.58" lon="-0.26039">
        <ele>50.6</ele>
        <time>2017-09-16T07:47:57Z</time>
      </trkpt>
      <trkpt lat="47.58002" lon="-0.26048">
        <ele>50.3</ele>
        <time>2017-09-16T07:48:02Z</time>
      </trkpt>
      <trkpt lat="47.58004" lon="-0.26056">
        <ele>50</ele>
        <time>2017-09-16T07:48:07Z</time>
      </trkpt>
      <trkpt lat="47.58006" lon="-0.26066">
        <ele>50</ele>
        <time>2017-09-16T07:48:12Z</time>
      </trkpt>
      <trkpt lat="47.58008" lon="-0.26074">
        <ele>50</ele>
        <time>2017-09-16T07:48:17Z</time>
      </trkpt>
      <trkpt lat="47.58011" lon="-0.26084">
        <ele>50</ele>
        <time>2017-09-16T07:48:22Z</time>
      </trkpt>
      <trkpt lat="47.58013" lon="-0.26093">
        <ele>49.8</ele>
        <time>2017-09-16T07:48:27Z</time>
      </trkpt>
      <trkpt lat="47.58016" lon="-0.261">
        <ele>49.7</ele>
        <time>2017-09-16T07:48:32Z</time>
      </trkpt>
      <trkpt lat="47.58017" lon="-0.26109">
        <ele>49.4</ele>
        <time>2017-09-16T07:48:37Z</time>
      </trkpt>
      <trkpt lat="47.58017" lon="-0.26118">
        <ele>49.4</ele>
        <time>2017-09-16T07:48:42Z</time>
      </trkpt>
      <trkpt lat="47.58018" lon="-0.26126">
        <ele>49.3</ele>
        <time>2017-09-16T07:48:47Z</time>
      </trkpt>
      <trkpt lat="47.58019" lon="-0.26134">
        <ele>49.3</ele>
        <time>2017-09-16T07:48:52Z</time>
      </trkpt>
      <trkpt lat="47.58019" lon="-0.26133">
        <ele>49.3</ele>
        <time>2017-09-16T07:48:57Z</time>
      </trkpt>
      <trkpt lat="47.5802" lon="-0.2614">
        <ele>49.3</ele>
        <time>2017-09-16T07:49:02Z</time>
      </trkpt>
      <trkpt lat="47.58021" lon="-0.26148">
        <ele>49.6</ele>
        <time>2017-09-16T07:49:07Z</time>
      </trkpt>
      <trkpt lat="47.58022" lon="-0.26157">
        <ele>49.9</ele>
        <time>2017-09-16T07:49:12Z</time>
      </trkpt>
      <trkpt lat="47.58023" lon="-0.26165">
        <ele>50.1</ele>
        <time>2017-09-16T07:49:17Z</time>
      </trkpt>
      <trkpt lat="47.58024" lon="-0.26167">
        <ele>50.1</ele>
        <time>2017-09-16T07:49:22Z</time>
      </trkpt>
      <trkpt lat="47.58024" lon="-0.26176">
        <ele>50.1</ele>
        <time>2017-09-16T07:49:27Z</time>
      </trkpt>
      <trkpt lat="47.58024" lon="-0.26185">
        <ele>50.1</ele>
        <time>2017-09-16T07:49:32Z</time>
      </trkpt>
      <trkpt lat="47.58024" lon="-0.26194">
        <ele>50.2</ele>
        <time>2017-09-16T07:49:37Z</time>
      </trkpt>
      <trkpt lat="47.58023" lon="-0.26202">
        <ele>50.4</ele>
        <time>2017-09-16T07:49:42Z</time>
      </trkpt>
      <trkpt lat="47.58022" lon="-0.26209">
        <ele>50.6</ele>
        <time>2017-09-16T07:49:47Z</time>
      </trkpt>
      <trkpt lat="47.58021" lon="-0.26218">
        <ele>50.9</ele>
        <time>2017-09-16T07:49:52Z</time>
      </trkpt>
      <trkpt lat="47.58021" lon="-0.26226">
        <ele>51</ele>
        <time>2017-09-16T07:49:57Z</time>
      </trkpt>
      <trkpt lat="47.5802" lon="-0.26236">
        <ele>51.1</ele>
        <time>2017-09-16T07:50:02Z</time>
      </trkpt>
      <trkpt lat="47.58019" lon="-0.26244">
        <ele>51.2</ele>
        <time>2017-09-16T07:50:07Z</time>
      </trkpt>
      <trkpt lat="47.58019" lon="-0.26254">
        <ele>51.3</ele>
        <time>2017-09-16T07:50:12Z</time>
      </trkpt>
      <trkpt lat="47.58019" lon="-0.26263">
        <ele>51.3</ele>
        <time>2017-09-16T07:50:17Z</time>
      </trkpt>
      <trkpt lat="47.58019" lon="-0.26272">
        <ele>51.3</ele>
        <time>2017-09-16T07:50:22Z</time>
      </trkpt>
      <trkpt lat="47.58023" lon="-0.26274">
        <ele>51.2</ele>
        <time>2017-09-16T07:50:27Z</time>
      </trkpt>
      <trkpt lat="47.58028" lon="-0.26275">
        <ele>51</ele>
        <time>2017-09-16T07:50:32Z</time>
      </trkpt>
      <trkpt lat="47.5803" lon="-0.26274">
        <ele>50.9</ele>
        <time>2017-09-16T07:50:37Z</time>
      </trkpt>
      <trkpt lat="47.58034" lon="-0.26268">
        <ele>50.8</ele>
        <time>2017-09-16T07:50:42Z</time>
      </trkpt>
      <trkpt lat="47.58037" lon="-0.26263">
        <ele>50.7</ele>
        <time>2017-09-16T07:50:47Z</time>
      </trkpt>
      <trkpt lat="47.58041" lon="-0.26257">
        <ele>50.5</ele>
        <time>2017-09-16T07:50:52Z</time>
      </trkpt>
      <trkpt lat="47.58046" lon="-0.26252">
        <ele>50.4</ele>
        <time>2017-09-16T07:50:57Z</time>
      </trkpt>
      <trkpt lat="47.5805" lon="-0.26245">
        <ele>50.2</ele>
        <time>2017-09-16T07:51:02Z</time>
      </trkpt>
      <trkpt lat="47.58055" lon="-0.26242">
        <ele>50</ele>
        <time>2017-09-16T07:51:07Z</time>
      </trkpt>
      <trkpt lat="47.5806" lon="-0.26237">
        <ele>49.8</ele>
        <time>2017-09-16T07:51:12Z</time>
      </trkpt>
      <trkpt lat="47.58065" lon="-0.26233">
        <ele>49.7</ele>
        <time>2017-09-16T07:51:17Z</time>
      </trkpt>
      <trkpt lat="47.5807" lon="-0.26229">
        <ele>49.5</ele>
        <time>2017-09-16T07:51:22Z</time>
      </trkpt>
      <trkpt lat="47.58075" lon="-0.26223">
        <ele>49.3</ele>
        <time>2017-09-16T07:51:27Z</time>
      </trkpt>
      <trkpt lat="47.5808" lon="-0.26219">
        <ele>49.1</ele>
        <time>2017-09-16T07:51:32Z</time>
      </trkpt>
      <trkpt lat="47.58085" lon="-0.26213">
        <ele>48.9</ele>
        <time>2017-09-16T07:51:37Z</time>
      </trkpt>
      <trkpt lat="47.5809" lon="-0.2621">
        <ele>48.8</ele>
        <time>2017-09-16T07:51:42Z</time>
      </trkpt>
      <trkpt lat="47.58096" lon="-0.26207">
        <ele>48.5</ele>
        <time>2017-09-16T07:51:47Z</time>
      </trkpt>
      <trkpt lat="47.58102" lon="-0.26202">
        <ele>48.3</ele>
        <time>2017-09-16T07:51:52Z</time>
      </trkpt>
      <trkpt lat="47.58108" lon="-0.26197">
        <ele>48.1</ele>
        <time>2017-09-16T07:51:57Z</time>
      </trkpt>
      <trkpt lat="47.58113" lon="-0.26194">
        <ele>47.9</ele>
        <time>2017-09-16T07:52:02Z</time>
      </trkpt>
      <trkpt lat="47.58119" lon="-0.26191">
        <ele>47.8</ele>
        <time>2017-09-16T07:52:07Z</time>
      </trkpt>
      <trkpt lat="47.58124" lon="-0.26187">
        <ele>47.7</ele>
        <time>2017-09-16T07:52:12Z</time>
      </trkpt>
      <trkpt lat="47.58129" lon="-0.26184">
        <ele>47.6</ele>
        <time>2017-09-16T07:52:17Z</time>
      </trkpt>
      <trkpt lat="47.58135" lon="-0.26179">
        <ele>47.6</ele>
        <time>2017-09-16T07:52:22Z</time>
      </trkpt>
      <trkpt lat="47.58141" lon="-0.26177">
        <ele>47.6</ele>
        <time>2017-09-16T07:52:27Z</time>
      </trkpt>
      <trkpt lat="47.58146" lon="-0.26174">
        <ele>47.5</ele>
        <time>2017-09-16T07:52:32Z</time>
      </trkpt>
      <trkpt lat="47.58152" lon="-0.26173">
        <ele>47.4</ele>
        <time>2017-09-16T07:52:37Z</time>
      </trkpt>
      <trkpt lat="47.58159" lon="-0.26174">
        <ele>47.2</ele>
        <time>2017-09-16T07:52:42Z</time>
      </trkpt>
      <trkpt lat="47.58165" lon="-0.26179">
        <ele>47</ele>
        <time>2017-09-16T07:52:47Z</time>
      </trkpt>
      <trkpt lat="47.5817" lon="-0.26184">
        <ele>46.9</ele>
        <time>2017-09-16T07:52:52Z</time>
      </trkpt>
      <trkpt lat="47.58174" lon="-0.2619">
        <ele>47</ele>
        <time>2017-09-16T07:52:57Z</time>
      </trkpt>
      <trkpt lat="47.58178" lon="-0.26197">
        <ele>47</ele>
        <time>2017-09-16T07:53:02Z</time>
      </trkpt>
      <trkpt lat="47.58182" lon="-0.26204">
        <ele>47</ele>
        <time>2017-09-16T07:53:07Z</time>
      </trkpt>
      <trkpt lat="47.58186" lon="-0.26212">
        <ele>47</ele>
        <time>2017-09-16T07:53:12Z</time>
      </trkpt>
      <trkpt lat="47.5819" lon="-0.26222">
        <ele>47</ele>
        <time>2017-09-16T07:53:17Z</time>
      </trkpt>
      <trkpt lat="47.58193" lon="-0.2623">
        <ele>47</ele>
        <time>2017-09-16T07:53:22Z</time>
      </trkpt>
      <trkpt lat="47.58195" lon="-0.26239">
        <ele>47</ele>
        <time>2017-09-16T07:53:27Z</time>
      </trkpt>
      <trkpt lat="47.58198" lon="-0.26248">
        <ele>46.9</ele>
        <time>2017-09-16T07:53:32Z</time>
      </trkpt>
      <trkpt lat="47.58202" lon="-0.26255">
        <ele>46.7</ele>
        <time>2017-09-16T07:53:37Z</time>
      </trkpt>
      <trkpt lat="47.58205" lon="-0.26263">
        <ele>46.6</ele>
        <time>2017-09-16T07:53:42Z</time>
      </trkpt>
      <trkpt lat="47.58208" lon="-0.26271">
        <ele>46.5</ele>
        <time>2017-09-16T07:53:47Z</time>
      </trkpt>
      <trkpt lat="47.58212" lon="-0.26279">
        <ele>46.4</ele>
        <time>2017-09-16T07:53:52Z</time>
      </trkpt>
      <trkpt lat="47.58215" lon="-0.26285">
        <ele>46.2</ele>
        <time>2017-09-16T07:53:57Z</time>
      </trkpt>
      <trkpt lat="47.58221" lon="-0.26292">
        <ele>46</ele>
        <time>2017-09-16T07:54:02Z</time>
      </trkpt>
      <trkpt lat="47.58226" lon="-0.26295">
        <ele>46</ele>
        <time>2017-09-16T07:54:07Z</time>
      </trkpt>
      <trkpt lat="47.58232" lon="-0.26297">
        <ele>46</ele>
        <time>2017-09-16T07:54:12Z</time>
      </trkpt>
      <trkpt lat="47.58238" lon="-0.26298">
        <ele>46</ele>
        <time>2017-09-16T07:54:17Z</time>
      </trkpt>
      <trkpt lat="47.58243" lon="-0.26299">
        <ele>46</ele>
        <time>2017-09-16T07:54:22Z</time>
      </trkpt>
      <trkpt lat="47.58249" lon="-0.263">
        <ele>46</ele>
        <time>2017-09-16T07:54:27Z</time>
      </trkpt>
      <trkpt lat="47.58255" lon="-0.263">
        <ele>46</ele>
        <time>2017-09-16T07:54:32Z</time>
      </trkpt>
      <trkpt lat="47.58261" lon="-0.26303">
        <ele>46</ele>
        <time>2017-09-16T07:54:37Z</time>
      </trkpt>
      <trkpt lat="47.58267" lon="-0.26304">
        <ele>46</ele>
        <time>2017-09-16T07:54:42Z</time>
      </trkpt>
      <trkpt lat="47.58274" lon="-0.26304">
        <ele>46</ele>
        <time>2017-09-16T07:54:47Z</time>
      </trkpt>
      <trkpt lat="47.5828" lon="-0.26305">
        <ele>46</ele>
        <time>2017-09-16T07:54:52Z</time>
      </trkpt>
      <trkpt lat="47.58286" lon="-0.26306">
        <ele>46</ele>
        <time>2017-09-16T07:54:57Z</time>
      </trkpt>
      <trkpt lat="47.58293" lon="-0.26307">
        <ele>46</ele>
        <time>2017-09-16T07:55:02Z</time>
      </trkpt>
      <trkpt lat="47.58299" lon="-0.26308">
        <ele>46</ele>
        <time>2017-09-16T07:55:07Z</time>
      </trkpt>
      <trkpt lat="47.58304" lon="-0.26307">
        <ele>46</ele>
        <time>2017-09-16T07:55:12Z</time>
      </trkpt>
      <trkpt lat="47.58309" lon="-0.26305">
        <ele>46</ele>
        <time>2017-09-16T07:55:17Z</time>
      </trkpt>
      <trkpt lat="47.58313" lon="-0.26303">
        <ele>45.9</ele>
        <time>2017-09-16T07:55:22Z</time>
      </trkpt>
      <trkpt lat="47.5832" lon="-0.26301">
        <ele>45.9</ele>
        <time>2017-09-16T07:55:27Z</time>
      </trkpt>
      <trkpt lat="47.58326" lon="-0.26296">
        <ele>45.9</ele>
        <time>2017-09-16T07:55:32Z</time>
      </trkpt>
      <trkpt lat="47.58333" lon="-0.26294">
        <ele>46</ele>
        <time>2017-09-16T07:55:37Z</time>
      </trkpt>
      <trkpt lat="47.58338" lon="-0.26295">
        <ele>46.1</ele>
        <time>2017-09-16T07:55:42Z</time>
      </trkpt>
      <trkpt lat="47.58347" lon="-0.26293">
        <ele>46.3</ele>
        <time>2017-09-16T07:55:47Z</time>
      </trkpt>
      <trkpt lat="47.58354" lon="-0.26288">
        <ele>46.3</ele>
        <time>2017-09-16T07:55:52Z</time>
      </trkpt>
      <trkpt lat="47.58358" lon="-0.26288">
        <ele>46.3</ele>
        <time>2017-09-16T07:55:57Z</time>
      </trkpt>
      <trkpt lat="47.58364" lon="-0.26284">
        <ele>46.3</ele>
        <time>2017-09-16T07:56:02Z</time>
      </trkpt>
      <trkpt lat="47.58371" lon="-0.26282">
        <ele>46.4</ele>
        <time>2017-09-16T07:56:07Z</time>
      </trkpt>
      <trkpt lat="47.58377" lon="-0.26281">
        <ele>46.6</ele>
        <time>2017-09-16T07:56:12Z</time>
      </trkpt>
      <trkpt lat="47.58382" lon="-0.26279">
        <ele>46.8</ele>
        <time>2017-09-16T07:56:17Z</time>
      </trkpt>
      <trkpt lat="47.58387" lon="-0.26276">
        <ele>46.9</ele>
        <time>2017-09-16T07:56:22Z</time>
      </trkpt>
      <trkpt lat="47.58394" lon="-0.26275">
        <ele>46.9</ele>
        <time>2017-09-16T07:56:27Z</time>
      </trkpt>
      <trkpt lat="47.58399" lon="-0.26274">
        <ele>46.9</ele>
        <time>2017-09-16T07:56:32Z</time>
      </trkpt>
      <trkpt lat="47.58403" lon="-0.26271">
        <ele>46.9</ele>
        <time>2017-09-16T07:56:37Z</time>
      </trkpt>
      <trkpt lat="47.58408" lon="-0.2627">
        <ele>46.9</ele>
        <time>2017-09-16T07:56:42Z</time>
      </trkpt>
      <trkpt lat="47.58414" lon="-0.26266">
        <ele>47</ele>
        <time>2017-09-16T07:56:47Z</time>
      </trkpt>
      <trkpt lat="47.58419" lon="-0.26265">
        <ele>47</ele>
        <time>2017-09-16T07:56:52Z</time>
      </trkpt>
      <trkpt lat="47.58426" lon="-0.26262">
        <ele>47.1</ele>
        <time>2017-09-16T07:56:57Z</time>
      </trkpt>
      <trkpt lat="47.58432" lon="-0.2626">
        <ele>47.2</ele>
        <time>2017-09-16T07:57:02Z</time>
      </trkpt>
      <trkpt lat="47.58439" lon="-0.26256">
        <ele>47.2</ele>
        <time>2017-09-16T07:57:07Z</time>
      </trkpt>
      <trkpt lat="47.58444" lon="-0.26252">
        <ele>47.1</ele>
        <time>2017-09-16T07:57:12Z</time>
      </trkpt>
      <trkpt lat="47.58449" lon="-0.26249">
        <ele>47.1</ele>
        <time>2017-09-16T07:57:17Z</time>
      </trkpt>
      <trkpt lat="47.58454" lon="-0.26246">
        <ele>47.2</ele>
        <time>2017-09-16T07:57:22Z</time>
      </trkpt>
      <trkpt lat="47.5846" lon="-0.26244">
        <ele>47.3</ele>
        <time>2017-09-16T07:57:27Z</time>
      </trkpt>
      <trkpt lat="47.58465" lon="-0.26241">
        <ele>47.4</ele>
        <time>2017-09-16T07:57:32Z</time>
      </trkpt>
      <trkpt lat="47.58471" lon="-0.26238">
        <ele>47.5</ele>
        <time>2017-09-16T07:57:37Z</time>
      </trkpt>
      <trkpt lat="47.58477" lon="-0.26234">
        <ele>47.5</ele>
        <time>2017-09-16T07:57:42Z</time>
      </trkpt>
      <trkpt lat="47.58483" lon="-0.2623">
        <ele>47.6</ele>
        <time>2017-09-16T07:57:47Z</time>
      </trkpt>
      <trkpt lat="47.58488" lon="-0.26228">
        <ele>47.7</ele>
        <time>2017-09-16T07:57:52Z</time>
      </trkpt>
      <trkpt lat="47.58493" lon="-0.26227">
        <ele>47.8</ele>
        <time>2017-09-16T07:57:57Z</time>
      </trkpt>
      <trkpt lat="47.58499" lon="-0.26225">
        <ele>48</ele>
        <time>2017-09-16T07:58:02Z</time>
      </trkpt>
      <trkpt lat="47.58505" lon="-0.26222">
        <ele>48.2</ele>
        <time>2017-09-16T07:58:07Z</time>
      </trkpt>
      <trkpt lat="47.58511" lon="-0.26222">
        <ele>48.4</ele>
        <time>2017-09-16T07:58:12Z</time>
      </trkpt>
      <trkpt lat="47.58518" lon="-0.2622">
        <ele>48.6</ele>
        <time>2017-09-16T07:58:17Z</time>
      </trkpt>
      <trkpt lat="47.58524" lon="-0.26219">
        <ele>48.7</ele>
        <time>2017-09-16T07:58:22Z</time>
      </trkpt>
      <trkpt lat="47.5853" lon="-0.26219">
        <ele>48.9</ele>
        <time>2017-09-16T07:58:27Z</time>
      </trkpt>
      <trkpt lat="47.58536" lon="-0.26218">
        <ele>48.8</ele>
        <time>2017-09-16T07:58:32Z</time>
      </trkpt>
      <trkpt lat="47.58542" lon="-0.26217">
        <ele>48.8</ele>
        <time>2017-09-16T07:58:37Z</time>
      </trkpt>
      <trkpt lat="47.58548" lon="-0.26216">
        <ele>48.8</ele>
        <time>2017-09-16T07:58:42Z</time>
      </trkpt>
      <trkpt lat="47.58554" lon="-0.26216">
        <ele>48.8</ele>
        <time>2017-09-16T07:58:47Z</time>
      </trkpt>
      <trkpt lat="47.5856" lon="-0.26215">
        <ele>48.6</ele>
        <time>2017-09-16T07:58:52Z</time>
      </trkpt>
      <trkpt lat="47.58566" lon="-0.26215">
        <ele>48.5</ele>
        <time>2017-09-16T07:58:57Z</time>
      </trkpt>
      <trkpt lat="47.58571" lon="-0.26214">
        <ele>48.3</ele>
        <time>2017-09-16T07:59:02Z</time>
      </trkpt>
      <trkpt lat="47.58577" lon="-0.26215">
        <ele>48.2</ele>
        <time>2017-09-16T07:59:07Z</time>
      </trkpt>
      <trkpt lat="47.58583" lon="-0.26215">
        <ele>48</ele>
        <time>2017-09-16T07:59:12Z</time>
      </trkpt>
      <trkpt lat="47.58588" lon="-0.26216">
        <ele>47.8</ele>
        <time>2017-09-16T07:59:17Z</time>
      </trkpt>
      <trkpt lat="47.58594" lon="-0.26217">
        <ele>47.6</ele>
        <time>2017-09-16T07:59:22Z</time>
      </trkpt>
      <trkpt lat="47.586" lon="-0.26217">
        <ele>47.4</ele>
        <time>2017-09-16T07:59:27Z</time>
      </trkpt>
      <trkpt lat="47.58606" lon="-0.26217">
        <ele>47.2</ele>
        <time>2017-09-16T07:59:32Z</time>
      </trkpt>
      <trkpt lat="47.58612" lon="-0.26217">
        <ele>47</ele>
        <time>2017-09-16T07:59:37Z</time>
      </trkpt>
      <trkpt lat="47.58618" lon="-0.26218">
        <ele>46.8</ele>
        <time>2017-09-16T07:59:42Z</time>
      </trkpt>
      <trkpt lat="47.58624" lon="-0.26217">
        <ele>46.5</ele>
        <time>2017-09-16T07:59:47Z</time>
      </trkpt>
      <trkpt lat="47.58629" lon="-0.26218">
        <ele>46.3</ele>
        <time>2017-09-16T07:59:52Z</time>
      </trkpt>
      <trkpt lat="47.58635" lon="-0.26217">
        <ele>46.1</ele>
        <time>2017-09-16T07:59:57Z</time>
      </trkpt>
      <trkpt lat="47.58641" lon="-0.26217">
        <ele>46</ele>
        <time>2017-09-16T08:00:02Z</time>
      </trkpt>
      <trkpt lat="47.58647" lon="-0.26217">
        <ele>45.9</ele>
        <time>2017-09-16T08:00:07Z</time>
      </trkpt>
      <trkpt lat="47.58653" lon="-0.26216">
        <ele>45.9</ele>
        <time>2017-09-16T08:00:12Z</time>
      </trkpt>
      <trkpt lat="47.58659" lon="-0.26216">
        <ele>45.8</ele>
        <time>2017-09-16T08:00:17Z</time>
      </trkpt>
      <trkpt lat="47.58665" lon="-0.26217">
        <ele>45.8</ele>
        <time>2017-09-16T08:00:22Z</time>
      </trkpt>
      <trkpt lat="47.5867" lon="-0.26218">
        <ele>45.7</ele>
        <time>2017-09-16T08:00:27Z</time>
      </trkpt>
      <trkpt lat="47.58675" lon="-0.2622">
        <ele>45.6</ele>
        <time>2017-09-16T08:00:32Z</time>
      </trkpt>
      <trkpt lat="47.58679" lon="-0.2622">
        <ele>45.5</ele>
        <time>2017-09-16T08:00:37Z</time>
      </trkpt>
      <trkpt lat="47.58684" lon="-0.26217">
        <ele>45.2</ele>
        <time>2017-09-16T08:00:42Z</time>
      </trkpt>
      <trkpt lat="47.58689" lon="-0.26216">
        <ele>45</ele>
        <time>2017-09-16T08:00:47Z</time>
      </trkpt>
      <trkpt lat="47.58694" lon="-0.26217">
        <ele>44.8</ele>
        <time>2017-09-16T08:00:52Z</time>
      </trkpt>
      <trkpt lat="47.58697" lon="-0.26219">
        <ele>44.8</ele>
        <time>2017-09-16T08:00:57Z</time>
      </trkpt>
      <trkpt lat="47.58702" lon="-0.26221">
        <ele>44.7</ele>
        <time>2017-09-16T08:01:02Z</time>
      </trkpt>
      <trkpt lat="47.58704" lon="-0.26224">
        <ele>44.7</ele>
        <time>2017-09-16T08:01:07Z</time>
      </trkpt>
      <trkpt lat="47.58708" lon="-0.26225">
        <ele>44.5</ele>
        <time>2017-09-16T08:01:12Z</time>
      </trkpt>
      <trkpt lat="47.58714" lon="-0.26226">
        <ele>44.3</ele>
        <time>2017-09-16T08:01:17Z</time>
      </trkpt>
      <trkpt lat="47.58719" lon="-0.26228">
        <ele>44.1</ele>
        <time>2017-09-16T08:01:22Z</time>
      </trkpt>
      <trkpt lat="47.58726" lon="-0.26226">
        <ele>44</ele>
        <time>2017-09-16T08:01:27Z</time>
      </trkpt>
      <trkpt lat="47.58732" lon="-0.26227">
        <ele>44</ele>
        <time>2017-09-16T08:01:32Z</time>
      </trkpt>
      <trkpt lat="47.58737" lon="-0.26229">
        <ele>44</ele>
        <time>2017-09-16T08:01:37Z</time>
      </trkpt>
      <trkpt lat="47.58741" lon="-0.26231">
        <ele>44</ele>
        <time>2017-09-16T08:01:42Z</time>
      </trkpt>
      <trkpt lat="47.58743" lon="-0.26236">
        <ele>44</ele>
        <time>2017-09-16T08:01:47Z</time>
      </trkpt>
      <trkpt lat="47.58745" lon="-0.26236">
        <ele>44</ele>
        <time>2017-09-16T08:01:52Z</time>
      </trkpt>
      <trkpt lat="47.58745" lon="-0.26235">
        <ele>44</ele>
        <time>2017-09-16T08:01:57Z</time>
      </trkpt>
      <trkpt lat="47.58745" lon="-0.26235">
        <ele>44</ele>
        <time>2017-09-16T08:02:02Z</time>
      </trkpt>
      <trkpt lat="47.58745" lon="-0.26234">
        <ele>44</ele>
        <time>2017-09-16T08:02:07Z</time>
      </trkpt>
      <trkpt lat="47.58747" lon="-0.26235">
        <ele>44</ele>
        <time>2017-09-16T08:02:12Z</time>
      </trkpt>
      <trkpt lat="47.58749" lon="-0.26235">
        <ele>44</ele>
        <time>2017-09-16T08:02:17Z</time>
      </trkpt>
      <trkpt lat="47.58749" lon="-0.26232">
        <ele>44</ele>
        <time>2017-09-16T08:02:22Z</time>
      </trkpt>
      <trkpt lat="47.5875" lon="-0.26228">
        <ele>44</ele>
        <time>2017-09-16T08:02:27Z</time>
      </trkpt>
      <trkpt lat="47.58756" lon="-0.26224">
        <ele>44</ele>
        <time>2017-09-16T08:02:32Z</time>
      </trkpt>
      <trkpt lat="47.58762" lon="-0.2622">
        <ele>44</ele>
        <time>2017-09-16T08:02:37Z</time>
      </trkpt>
      <trkpt lat="47.58769" lon="-0.26216">
        <ele>44</ele>
        <time>2017-09-16T08:02:42Z</time>
      </trkpt>
      <trkpt lat="47.58775" lon="-0.26218">
        <ele>44</ele>
        <time>2017-09-16T08:02:47Z</time>
      </trkpt>
      <trkpt lat="47.58781" lon="-0.26215">
        <ele>44.1</ele>
        <time>2017-09-16T08:02:52Z</time>
      </trkpt>
      <trkpt lat="47.58788" lon="-0.26216">
        <ele>44.4</ele>
        <time>2017-09-16T08:02:57Z</time>
      </trkpt>
      <trkpt lat="47.58793" lon="-0.26216">
        <ele>44.5</ele>
        <time>2017-09-16T08:03:02Z</time>
      </trkpt>
      <trkpt lat="47.58798" lon="-0.26213">
        <ele>44.7</ele>
        <time>2017-09-16T08:03:07Z</time>
      </trkpt>
      <trkpt lat="47.58803" lon="-0.26213">
        <ele>44.9</ele>
        <time>2017-09-16T08:03:12Z</time>
      </trkpt>
      <trkpt lat="47.58808" lon="-0.26212">
        <ele>45.1</ele>
        <time>2017-09-16T08:03:17Z</time>
      </trkpt>
      <trkpt lat="47.58813" lon="-0.26213">
        <ele>45.2</ele>
        <time>2017-09-16T08:03:22Z</time>
      </trkpt>
      <trkpt lat="47.58818" lon="-0.26214">
        <ele>45.3</ele>
        <time>2017-09-16T08:03:27Z</time>
      </trkpt>
      <trkpt lat="47.58822" lon="-0.26212">
        <ele>45.4</ele>
        <time>2017-09-16T08:03:32Z</time>
      </trkpt>
      <trkpt lat="47.58825" lon="-0.26207">
        <ele>45.3</ele>
        <time>2017-09-16T08:03:37Z</time>
      </trkpt>
      <trkpt lat="47.58828" lon="-0.262">
        <ele>45.2</ele>
        <time>2017-09-16T08:03:42Z</time>
      </trkpt>
      <trkpt lat="47.58831" lon="-0.26193">
        <ele>45</ele>
        <time>2017-09-16T08:03:47Z</time>
      </trkpt>
      <trkpt lat="47.58832" lon="-0.26188">
        <ele>45</ele>
        <time>2017-09-16T08:03:52Z</time>
      </trkpt>
      <trkpt lat="47.58833" lon="-0.2618">
        <ele>45</ele>
        <time>2017-09-16T08:03:57Z</time>
      </trkpt>
      <trkpt lat="47.58835" lon="-0.26171">
        <ele>45.1</ele>
        <time>2017-09-16T08:04:02Z</time>
      </trkpt>
      <trkpt lat="47.58838" lon="-0.26168">
        <ele>45.2</ele>
        <time>2017-09-16T08:04:07Z</time>
      </trkpt>
      <trkpt lat="47.5884" lon="-0.26167">
        <ele>45.2</ele>
        <time>2017-09-16T08:04:12Z</time>
      </trkpt>
      <trkpt lat="47.5884" lon="-0.26166">
        <ele>45.2</ele>
        <time>2017-09-16T08:04:17Z</time>
      </trkpt>
      <trkpt lat="47.5884" lon="-0.26161">
        <ele>45.2</ele>
        <time>2017-09-16T08:04:22Z</time>
      </trkpt>
      <trkpt lat="47.58842" lon="-0.26161">
        <ele>45.3</ele>
        <time>2017-09-16T08:04:27Z</time>
      </trkpt>
      <trkpt lat="47.58842" lon="-0.26159">
        <ele>45.3</ele>
        <time>2017-09-16T08:04:32Z</time>
      </trkpt>
      <trkpt lat="47.58841" lon="-0.26153">
        <ele>45.3</ele>
        <time>2017-09-16T08:04:37Z</time>
      </trkpt>
      <trkpt lat="47.5884" lon="-0.26136">
        <ele>45.2</ele>
        <time>2017-09-16T08:04:42Z</time>
      </trkpt>
      <trkpt lat="47.58843" lon="-0.26137">
        <ele>45.3</ele>
        <time>2017-09-16T08:04:47Z</time>
      </trkpt>
      <trkpt lat="47.58844" lon="-0.26144">
        <ele>45.4</ele>
        <time>2017-09-16T08:04:52Z</time>
      </trkpt>
      <trkpt lat="47.5885" lon="-0.26149">
        <ele>45.6</ele>
        <time>2017-09-16T08:04:57Z</time>
      </trkpt>
      <trkpt lat="47.58856" lon="-0.26153">
        <ele>45.8</ele>
        <time>2017-09-16T08:05:02Z</time>
      </trkpt>
      <trkpt lat="47.58861" lon="-0.26154">
        <ele>46</ele>
        <time>2017-09-16T08:05:07Z</time>
      </trkpt>
      <trkpt lat="47.58864" lon="-0.26156">
        <ele>46</ele>
        <time>2017-09-16T08:05:12Z</time>
      </trkpt>
      <trkpt lat="47.58867" lon="-0.26154">
        <ele>46</ele>
        <time>2017-09-16T08:05:17Z</time>
      </trkpt>
      <trkpt lat="47.58872" lon="-0.26154">
        <ele>46</ele>
        <time>2017-09-16T08:05:22Z</time>
      </trkpt>
      <trkpt lat="47.58878" lon="-0.26156">
        <ele>46</ele>
        <time>2017-09-16T08:05:27Z</time>
      </trkpt>
      <trkpt lat="47.58883" lon="-0.26156">
        <ele>46</ele>
        <time>2017-09-16T08:05:32Z</time>
      </trkpt>
      <trkpt lat="47.58888" lon="-0.26159">
        <ele>46</ele>
        <time>2017-09-16T08:05:37Z</time>
      </trkpt>
      <trkpt lat="47.58894" lon="-0.26162">
        <ele>46.2</ele>
        <time>2017-09-16T08:05:42Z</time>
      </trkpt>
      <trkpt lat="47.58899" lon="-0.26167">
        <ele>46.4</ele>
        <time>2017-09-16T08:05:47Z</time>
      </trkpt>
      <trkpt lat="47.58906" lon="-0.26171">
        <ele>46.6</ele>
        <time>2017-09-16T08:05:52Z</time>
      </trkpt>
      <trkpt lat="47.58911" lon="-0.26174">
        <ele>46.8</ele>
        <time>2017-09-16T08:05:57Z</time>
      </trkpt>
      <trkpt lat="47.5892" lon="-0.26181">
        <ele>47.1</ele>
        <time>2017-09-16T08:06:02Z</time>
      </trkpt>
      <trkpt lat="47.5893" lon="-0.2619">
        <ele>47.5</ele>
        <time>2017-09-16T08:06:07Z</time>
      </trkpt>
      <trkpt lat="47.58932" lon="-0.26196">
        <ele>47.6</ele>
        <time>2017-09-16T08:06:12Z</time>
      </trkpt>
      <trkpt lat="47.58935" lon="-0.26199">
        <ele>47.7</ele>
        <time>2017-09-16T08:06:17Z</time>
      </trkpt>
      <trkpt lat="47.58939" lon="-0.26204">
        <ele>47.9</ele>
        <time>2017-09-16T08:06:22Z</time>
      </trkpt>
      <trkpt lat="47.58944" lon="-0.26209">
        <ele>48</ele>
        <time>2017-09-16T08:06:27Z</time>
      </trkpt>
      <trkpt lat="47.58949" lon="-0.26219">
        <ele>48.3</ele>
        <time>2017-09-16T08:06:32Z</time>
      </trkpt>
      <trkpt lat="47.58953" lon="-0.26227">
        <ele>48.7</ele>
        <time>2017-09-16T08:06:37Z</time>
      </trkpt>
      <trkpt lat="47.58956" lon="-0.26233">
        <ele>49.1</ele>
        <time>2017-09-16T08:06:42Z</time>
      </trkpt>
      <trkpt lat="47.5896" lon="-0.26239">
        <ele>49.4</ele>
        <time>2017-09-16T08:06:47Z</time>
      </trkpt>
      <trkpt lat="47.58962" lon="-0.26245">
        <ele>49.6</ele>
        <time>2017-09-16T08:06:52Z</time>
      </trkpt>
      <trkpt lat="47.58967" lon="-0.26252">
        <ele>49.8</ele>
        <time>2017-09-16T08:06:57Z</time>
      </trkpt>
      <trkpt lat="47.58971" lon="-0.26258">
        <ele>50</ele>
        <time>2017-09-16T08:07:02Z</time>
      </trkpt>
      <trkpt lat="47.58975" lon="-0.26265">
        <ele>50.1</ele>
        <time>2017-09-16T08:07:07Z</time>
      </trkpt>
      <trkpt lat="47.58979" lon="-0.26272">
        <ele>50.2</ele>
        <time>2017-09-16T08:07:12Z</time>
      </trkpt>
      <trkpt lat="47.58983" lon="-0.26277">
        <ele>50.4</ele>
        <time>2017-09-16T08:07:17Z</time>
      </trkpt>
      <trkpt lat="47.58987" lon="-0.26283">
        <ele>50.6</ele>
        <time>2017-09-16T08:07:22Z</time>
      </trkpt>
      <trkpt lat="47.58991" lon="-0.26289">
        <ele>50.8</ele>
        <time>2017-09-16T08:07:27Z</time>
      </trkpt>
      <trkpt lat="47.58994" lon="-0.26295">
        <ele>50.9</ele>
        <time>2017-09-16T08:07:32Z</time>
      </trkpt>
      <trkpt lat="47.58998" lon="-0.263">
        <ele>51</ele>
        <time>2017-09-16T08:07:37Z</time>
      </trkpt>
      <trkpt lat="47.59005" lon="-0.26306">
        <ele>51.3</ele>
        <time>2017-09-16T08:07:42Z</time>
      </trkpt>
      <trkpt lat="47.5901" lon="-0.26309">
        <ele>51.8</ele>
        <time>2017-09-16T08:07:47Z</time>
      </trkpt>
      <trkpt lat="47.59015" lon="-0.26313">
        <ele>52.2</ele>
        <time>2017-09-16T08:07:52Z</time>
      </trkpt>
      <trkpt lat="47.59022" lon="-0.26315">
        <ele>52.6</ele>
        <time>2017-09-16T08:07:57Z</time>
      </trkpt>
      <trkpt lat="47.59028" lon="-0.26317">
        <ele>53</ele>
        <time>2017-09-16T08:08:02Z</time>
      </trkpt>
      <trkpt lat="47.59034" lon="-0.26319">
        <ele>53.2</ele>
        <time>2017-09-16T08:08:07Z</time>
      </trkpt>
      <trkpt lat="47.59039" lon="-0.2632">
        <ele>53.4</ele>
        <time>2017-09-16T08:08:12Z</time>
      </trkpt>
      <trkpt lat="47.59045" lon="-0.26321">
        <ele>53.6</ele>
        <time>2017-09-16T08:08:17Z</time>
      </trkpt>
      <trkpt lat="47.5905" lon="-0.26323">
        <ele>53.8</ele>
        <time>2017-09-16T08:08:22Z</time>
      </trkpt>
      <trkpt lat="47.59055" lon="-0.26324">
        <ele>54</ele>
        <time>2017-09-16T08:08:27Z</time>
      </trkpt>
      <trkpt lat="47.5906" lon="-0.26326">
        <ele>54.2</ele>
        <time>2017-09-16T08:08:32Z</time>
      </trkpt>
      <trkpt lat="47.59066" lon="-0.26328">
        <ele>54.4</ele>
        <time>2017-09-16T08:08:37Z</time>
      </trkpt>
      <trkpt lat="47.59072" lon="-0.2633">
        <ele>54.6</ele>
        <time>2017-09-16T08:08:42Z</time>
      </trkpt>
      <trkpt lat="47.59078" lon="-0.26332">
        <ele>54.8</ele>
        <time>2017-09-16T08:08:47Z</time>
      </trkpt>
      <trkpt lat="47.59083" lon="-0.26334">
        <ele>55</ele>
        <time>2017-09-16T08:08:52Z</time>
      </trkpt>
      <trkpt lat="47.59089" lon="-0.26336">
        <ele>55.5</ele>
        <time>2017-09-16T08:08:57Z</time>
      </trkpt>
      <trkpt lat="47.59094" lon="-0.26338">
        <ele>55.9</ele>
        <time>2017-09-16T08:09:02Z</time>
      </trkpt>
      <trkpt lat="47.59099" lon="-0.2634">
        <ele>56.2</ele>
        <time>2017-09-16T08:09:07Z</time>
      </trkpt>
      <trkpt lat="47.59104" lon="-0.26341">
        <ele>56.5</ele>
        <time>2017-09-16T08:09:12Z</time>
      </trkpt>
      <trkpt lat="47.59109" lon="-0.26343">
        <ele>56.9</ele>
        <time>2017-09-16T08:09:17Z</time>
      </trkpt>
      <trkpt lat="47.59114" lon="-0.26344">
        <ele>57.1</ele>
        <time>2017-09-16T08:09:22Z</time>
      </trkpt>
      <trkpt lat="47.59119" lon="-0.26344">
        <ele>57.4</ele>
        <time>2017-09-16T08:09:27Z</time>
      </trkpt>
      <trkpt lat="47.59125" lon="-0.26345">
        <ele>57.7</ele>
        <time>2017-09-16T08:09:32Z</time>
      </trkpt>
      <trkpt lat="47.59131" lon="-0.26347">
        <ele>58.1</ele>
        <time>2017-09-16T08:09:37Z</time>
      </trkpt>
      <trkpt lat="47.59137" lon="-0.26349">
        <ele>58.4</ele>
        <time>2017-09-16T08:09:42Z</time>
      </trkpt>
      <trkpt lat="47.59142" lon="-0.26351">
        <ele>58.8</ele>
        <time>2017-09-16T08:09:47Z</time>
      </trkpt>
      <trkpt lat="47.59147" lon="-0.26352">
        <ele>59</ele>
        <time>2017-09-16T08:09:52Z</time>
      </trkpt>
      <trkpt lat="47.59152" lon="-0.26352">
        <ele>59.3</ele>
        <time>2017-09-16T08:09:57Z</time>
      </trkpt>
      <trkpt lat="47.59157" lon="-0.26353">
        <ele>59.6</ele>
        <time>2017-09-16T08:10:02Z</time>
      </trkpt>
      <trkpt lat="47.59162" lon="-0.26354">
        <ele>59.8</ele>
        <time>2017-09-16T08:10:07Z</time>
      </trkpt>
      <trkpt lat="47.59168" lon="-0.26356">
        <ele>60.1</ele>
        <time>2017-09-16T08:10:12Z</time>
      </trkpt>
      <trkpt lat="47.59174" lon="-0.26357">
        <ele>60.3</ele>
        <time>2017-09-16T08:10:17Z</time>
      </trkpt>
      <trkpt lat="47.59179" lon="-0.26357">
        <ele>60.4</ele>
        <time>2017-09-16T08:10:22Z</time>
      </trkpt>
      <trkpt lat="47.59184" lon="-0.26359">
        <ele>60.6</ele>
        <time>2017-09-16T08:10:27Z</time>
      </trkpt>
      <trkpt lat="47.5919" lon="-0.26361">
        <ele>60.8</ele>
        <time>2017-09-16T08:10:32Z</time>
      </trkpt>
      <trkpt lat="47.59196" lon="-0.26364">
        <ele>61.2</ele>
        <time>2017-09-16T08:10:37Z</time>
      </trkpt>
      <trkpt lat="47.592" lon="-0.26367">
        <ele>61.8</ele>
        <time>2017-09-16T08:10:42Z</time>
      </trkpt>
      <trkpt lat="47.59204" lon="-0.26371">
        <ele>62.3</ele>
        <time>2017-09-16T08:10:47Z</time>
      </trkpt>
      <trkpt lat="47.59208" lon="-0.26375">
        <ele>62.7</ele>
        <time>2017-09-16T08:10:52Z</time>
      </trkpt>
      <trkpt lat="47.59212" lon="-0.26379">
        <ele>63.1</ele>
        <time>2017-09-16T08:10:57Z</time>
      </trkpt>
      <trkpt lat="47.59216" lon="-0.26383">
        <ele>63.5</ele>
        <time>2017-09-16T08:11:02Z</time>
      </trkpt>
      <trkpt lat="47.59221" lon="-0.26381">
        <ele>63.9</ele>
        <time>2017-09-16T08:11:07Z</time>
      </trkpt>
      <trkpt lat="47.59226" lon="-0.26376">
        <ele>64.1</ele>
        <time>2017-09-16T08:11:12Z</time>
      </trkpt>
      <trkpt lat="47.5923" lon="-0.26371">
        <ele>64.3</ele>
        <time>2017-09-16T08:11:17Z</time>
      </trkpt>
      <trkpt lat="47.59234" lon="-0.26366">
        <ele>64.4</ele>
        <time>2017-09-16T08:11:22Z</time>
      </trkpt>
      <trkpt lat="47.59238" lon="-0.2636">
        <ele>64.5</ele>
        <time>2017-09-16T08:11:27Z</time>
      </trkpt>
      <trkpt lat="47.59242" lon="-0.26355">
        <ele>64.5</ele>
        <time>2017-09-16T08:11:32Z</time>
      </trkpt>
      <trkpt lat="47.59246" lon="-0.26349">
        <ele>64.4</ele>
        <time>2017-09-16T08:11:37Z</time>
      </trkpt>
      <trkpt lat="47.5925" lon="-0.26343">
        <ele>64.3</ele>
        <time>2017-09-16T08:11:42Z</time>
      </trkpt>
      <trkpt lat="47.59254" lon="-0.26338">
        <ele>64.2</ele>
        <time>2017-09-16T08:11:47Z</time>
      </trkpt>
      <trkpt lat="47.59258" lon="-0.26331">
        <ele>64</ele>
        <time>2017-09-16T08:11:52Z</time>
      </trkpt>
      <trkpt lat="47.59262" lon="-0.26325">
        <ele>64</ele>
        <time>2017-09-16T08:11:57Z</time>
      </trkpt>
      <trkpt lat="47.59266" lon="-0.26319">
        <ele>64</ele>
        <time>2017-09-16T08:12:02Z</time>
      </trkpt>
      <trkpt lat="47.5927" lon="-0.26313">
        <ele>64</ele>
        <time>2017-09-16T08:12:07Z</time>
      </trkpt>
      <trkpt lat="47.59274" lon="-0.26308">
        <ele>64</ele>
        <time>2017-09-16T08:12:12Z</time>
      </trkpt>
      <trkpt lat="47.59278" lon="-0.26302">
        <ele>63.9</ele>
        <time>2017-09-16T08:12:17Z</time>
      </trkpt>
      <trkpt lat="47.59282" lon="-0.26296">
        <ele>63.5</ele>
        <time>2017-09-16T08:12:22Z</time>
      </trkpt>
      <trkpt lat="47.59286" lon="-0.26289">
        <ele>63.1</ele>
        <time>2017-09-16T08:12:27Z</time>
      </trkpt>
      <trkpt lat="47.5929" lon="-0.26282">
        <ele>62.7</ele>
        <time>2017-09-16T08:12:32Z</time>
      </trkpt>
      <trkpt lat="47.59294" lon="-0.26275">
        <ele>62.4</ele>
        <time>2017-09-16T08:12:37Z</time>
      </trkpt>
      <trkpt lat="47.59298" lon="-0.26269">
        <ele>62.2</ele>
        <time>2017-09-16T08:12:42Z</time>
      </trkpt>
      <trkpt lat="47.59302" lon="-0.26264">
        <ele>62.1</ele>
        <time>2017-09-16T08:12:47Z</time>
      </trkpt>
      <trkpt lat="47.59308" lon="-0.26258">
        <ele>61.9</ele>
        <time>2017-09-16T08:12:52Z</time>
      </trkpt>
      <trkpt lat="47.59311" lon="-0.26254">
        <ele>61.8</ele>
        <time>2017-09-16T08:12:57Z</time>
      </trkpt>
      <trkpt lat="47.59316" lon="-0.26246">
        <ele>61.5</ele>
        <time>2017-09-16T08:13:02Z</time>
      </trkpt>
      <trkpt lat="47.5932" lon="-0.26236">
        <ele>61</ele>
        <time>2017-09-16T08:13:07Z</time>
      </trkpt>
      <trkpt lat="47.59323" lon="-0.26228">
        <ele>60.6</ele>
        <time>2017-09-16T08:13:12Z</time>
      </trkpt>
      <trkpt lat="47.59325" lon="-0.26221">
        <ele>60.3</ele>
        <time>2017-09-16T08:13:17Z</time>
      </trkpt>
      <trkpt lat="47.59327" lon="-0.26214">
        <ele>59.9</ele>
        <time>2017-09-16T08:13:22Z</time>
      </trkpt>
      <trkpt lat="47.59328" lon="-0.26206">
        <ele>59.5</ele>
        <time>2017-09-16T08:13:27Z</time>
      </trkpt>
      <trkpt lat="47.5933" lon="-0.26198">
        <ele>59.2</ele>
        <time>2017-09-16T08:13:32Z</time>
      </trkpt>
      <trkpt lat="47.59332" lon="-0.26189">
        <ele>58.8</ele>
        <time>2017-09-16T08:13:37Z</time>
      </trkpt>
      <trkpt lat="47.59334" lon="-0.26179">
        <ele>58.4</ele>
        <time>2017-09-16T08:13:42Z</time>
      </trkpt>
      <trkpt lat="47.59335" lon="-0.26173">
        <ele>58.2</ele>
        <time>2017-09-16T08:13:47Z</time>
      </trkpt>
      <trkpt lat="47.59337" lon="-0.26165">
        <ele>57.8</ele>
        <time>2017-09-16T08:13:52Z</time>
      </trkpt>
      <trkpt lat="47.59339" lon="-0.26156">
        <ele>57.1</ele>
        <time>2017-09-16T08:13:57Z</time>
      </trkpt>
      <trkpt lat="47.5934" lon="-0.26148">
        <ele>56.6</ele>
        <time>2017-09-16T08:14:02Z</time>
      </trkpt>
      <trkpt lat="47.59341" lon="-0.26139">
        <ele>56</ele>
        <time>2017-09-16T08:14:07Z</time>
      </trkpt>
      <trkpt lat="47.59343" lon="-0.26131">
        <ele>55.7</ele>
        <time>2017-09-16T08:14:12Z</time>
      </trkpt>
      <trkpt lat="47.59344" lon="-0.26122">
        <ele>55.4</ele>
        <time>2017-09-16T08:14:17Z</time>
      </trkpt>
      <trkpt lat="47.59346" lon="-0.26114">
        <ele>55.1</ele>
        <time>2017-09-16T08:14:22Z</time>
      </trkpt>
      <trkpt lat="47.59348" lon="-0.26105">
        <ele>54.9</ele>
        <time>2017-09-16T08:14:27Z</time>
      </trkpt>
      <trkpt lat="47.59349" lon="-0.26097">
        <ele>54.7</ele>
        <time>2017-09-16T08:14:32Z</time>
      </trkpt>
      <trkpt lat="47.59349" lon="-0.26091">
        <ele>54.6</ele>
        <time>2017-09-16T08:14:37Z</time>
      </trkpt>
      <trkpt lat="47.59354" lon="-0.26085">
        <ele>54.3</ele>
        <time>2017-09-16T08:14:42Z</time>
      </trkpt>
      <trkpt lat="47.5936" lon="-0.26074">
        <ele>54</ele>
        <time>2017-09-16T08:14:47Z</time>
      </trkpt>
      <trkpt lat="47.59365" lon="-0.26064">
        <ele>53.9</ele>
        <time>2017-09-16T08:14:52Z</time>
      </trkpt>
      <trkpt lat="47.59367" lon="-0.26058">
        <ele>53.8</ele>
        <time>2017-09-16T08:14:57Z</time>
      </trkpt>
      <trkpt lat="47.59371" lon="-0.26053">
        <ele>53.6</ele>
        <time>2017-09-16T08:15:02Z</time>
      </trkpt>
      <trkpt lat="47.59377" lon="-0.26045">
        <ele>53.4</ele>
        <time>2017-09-16T08:15:07Z</time>
      </trkpt>
      <trkpt lat="47.59382" lon="-0.26039">
        <ele>53.2</ele>
        <time>2017-09-16T08:15:12Z</time>
      </trkpt>
      <trkpt lat="47.59387" lon="-0.26033">
        <ele>53.1</ele>
        <time>2017-09-16T08:15:17Z</time>
      </trkpt>
      <trkpt lat="47.59391" lon="-0.2603">
        <ele>52.9</ele>
        <time>2017-09-16T08:15:22Z</time>
      </trkpt>
      <trkpt lat="47.59396" lon="-0.26026">
        <ele>52.8</ele>
        <time>2017-09-16T08:15:27Z</time>
      </trkpt>
      <trkpt lat="47.594" lon="-0.26021">
        <ele>52.6</ele>
        <time>2017-09-16T08:15:32Z</time>
      </trkpt>
      <trkpt lat="47.59404" lon="-0.26015">
        <ele>52.5</ele>
        <time>2017-09-16T08:15:37Z</time>
      </trkpt>
      <trkpt lat="47.59409" lon="-0.26009">
        <ele>52.3</ele>
        <time>2017-09-16T08:15:42Z</time>
      </trkpt>
      <trkpt lat="47.59414" lon="-0.26">
        <ele>52.1</ele>
        <time>2017-09-16T08:15:47Z</time>
      </trkpt>
      <trkpt lat="47.5942" lon="-0.25992">
        <ele>52.2</ele>
        <time>2017-09-16T08:15:52Z</time>
      </trkpt>
      <trkpt lat="47.59424" lon="-0.25984">
        <ele>52.3</ele>
        <time>2017-09-16T08:15:57Z</time>
      </trkpt>
      <trkpt lat="47.59428" lon="-0.25975">
        <ele>52.5</ele>
        <time>2017-09-16T08:16:02Z</time>
      </trkpt>
      <trkpt lat="47.5943" lon="-0.25965">
        <ele>52.6</ele>
        <time>2017-09-16T08:16:07Z</time>
      </trkpt>
      <trkpt lat="47.59432" lon="-0.25957">
        <ele>52.8</ele>
        <time>2017-09-16T08:16:12Z</time>
      </trkpt>
      <trkpt lat="47.59433" lon="-0.25948">
        <ele>52.9</ele>
        <time>2017-09-16T08:16:17Z</time>
      </trkpt>
      <trkpt lat="47.59435" lon="-0.25939">
        <ele>53</ele>
        <time>2017-09-16T08:16:22Z</time>
      </trkpt>
      <trkpt lat="47.59436" lon="-0.2593">
        <ele>53</ele>
        <time>2017-09-16T08:16:27Z</time>
      </trkpt>
      <trkpt lat="47.59438" lon="-0.25922">
        <ele>53</ele>
        <time>2017-09-16T08:16:32Z</time>
      </trkpt>
      <trkpt lat="47.59438" lon="-0.25914">
        <ele>53</ele>
        <time>2017-09-16T08:16:37Z</time>
      </trkpt>
      <trkpt lat="47.59437" lon="-0.25905">
        <ele>53</ele>
        <time>2017-09-16T08:16:42Z</time>
      </trkpt>
      <trkpt lat="47.59439" lon="-0.25897">
        <ele>53</ele>
        <time>2017-09-16T08:16:47Z</time>
      </trkpt>
      <trkpt lat="47.59439" lon="-0.25891">
        <ele>53</ele>
        <time>2017-09-16T08:16:52Z</time>
      </trkpt>
      <trkpt lat="47.5944" lon="-0.25891">
        <ele>53</ele>
        <time>2017-09-16T08:16:57Z</time>
      </trkpt>
      <trkpt lat="47.59441" lon="-0.25892">
        <ele>53</ele>
        <time>2017-09-16T08:17:02Z</time>
      </trkpt>
      <trkpt lat="47.59441" lon="-0.25898">
        <ele>53</ele>
        <time>2017-09-16T08:17:07Z</time>
      </trkpt>
      <trkpt lat="47.59443" lon="-0.25905">
        <ele>53</ele>
        <time>2017-09-16T08:17:12Z</time>
      </trkpt>
      <trkpt lat="47.59443" lon="-0.25905">
        <ele>53</ele>
        <time>2017-09-16T08:17:17Z</time>
      </trkpt>
      <trkpt lat="47.59445" lon="-0.25905">
        <ele>53</ele>
        <time>2017-09-16T08:17:22Z</time>
      </trkpt>
      <trkpt lat="47.59443" lon="-0.259">
        <ele>53</ele>
        <time>2017-09-16T08:17:27Z</time>
      </trkpt>
      <trkpt lat="47.59443" lon="-0.25892">
        <ele>53</ele>
        <time>2017-09-16T08:17:32Z</time>
      </trkpt>
      <trkpt lat="47.59443" lon="-0.25885">
        <ele>53</ele>
        <time>2017-09-16T08:17:37Z</time>
      </trkpt>
      <trkpt lat="47.59444" lon="-0.25876">
        <ele>53</ele>
        <time>2017-09-16T08:17:42Z</time>
      </trkpt>
      <trkpt lat="47.59445" lon="-0.25868">
        <ele>53</ele>
        <time>2017-09-16T08:17:47Z</time>
      </trkpt>
      <trkpt lat="47.59446" lon="-0.2586">
        <ele>53</ele>
        <time>2017-09-16T08:17:52Z</time>
      </trkpt>
      <trkpt lat="47.59446" lon="-0.25852">
        <ele>53</ele>
        <time>2017-09-16T08:17:57Z</time>
      </trkpt>
      <trkpt lat="47.59446" lon="-0.25845">
        <ele>53</ele>
        <time>2017-09-16T08:18:02Z</time>
      </trkpt>
      <trkpt lat="47.59447" lon="-0.25837">
        <ele>53</ele>
        <time>2017-09-16T08:18:07Z</time>
      </trkpt>
      <trkpt lat="47.59447" lon="-0.25828">
        <ele>53</ele>
        <time>2017-09-16T08:18:12Z</time>
      </trkpt>
      <trkpt lat="47.59447" lon="-0.25823">
        <ele>53</ele>
        <time>2017-09-16T08:18:17Z</time>
      </trkpt>
      <trkpt lat="47.5945" lon="-0.25821">
        <ele>53.1</ele>
        <time>2017-09-16T08:18:22Z</time>
      </trkpt>
      <trkpt lat="47.59454" lon="-0.25821">
        <ele>53.1</ele>
        <time>2017-09-16T08:18:27Z</time>
      </trkpt>
      <trkpt lat="47.59455" lon="-0.25823">
        <ele>53.1</ele>
        <time>2017-09-16T08:18:32Z</time>
      </trkpt>
      <trkpt lat="47.59456" lon="-0.25823">
        <ele>53.2</ele>
        <time>2017-09-16T08:18:37Z</time>
      </trkpt>
      <trkpt lat="47.59458" lon="-0.25821">
        <ele>53.2</ele>
        <time>2017-09-16T08:18:42Z</time>
      </trkpt>
      <trkpt lat="47.59459" lon="-0.25821">
        <ele>53.2</ele>
        <time>2017-09-16T08:18:47Z</time>
      </trkpt>
      <trkpt lat="47.59459" lon="-0.25821">
        <ele>53.2</ele>
        <time>2017-09-16T08:18:52Z</time>
      </trkpt>
      <trkpt lat="47.5946" lon="-0.2582">
        <ele>53.3</ele>
        <time>2017-09-16T08:18:57Z</time>
      </trkpt>
      <trkpt lat="47.59462" lon="-0.25821">
        <ele>53.3</ele>
        <time>2017-09-16T08:19:02Z</time>
      </trkpt>
      <trkpt lat="47.59466" lon="-0.25821">
        <ele>53.4</ele>
        <time>2017-09-16T08:19:07Z</time>
      </trkpt>
      <trkpt lat="47.59467" lon="-0.25819">
        <ele>53.4</ele>
        <time>2017-09-16T08:19:12Z</time>
      </trkpt>
      <trkpt lat="47.59467" lon="-0.25815">
        <ele>53.5</ele>
        <time>2017-09-16T08:19:17Z</time>
      </trkpt>
      <trkpt lat="47.5947" lon="-0.25809">
        <ele>53.8</ele>
        <time>2017-09-16T08:19:22Z</time>
      </trkpt>
      <trkpt lat="47.5947" lon="-0.25806">
        <ele>53.9</ele>
        <time>2017-09-16T08:19:27Z</time>
      </trkpt>
      <trkpt lat="47.59468" lon="-0.25802">
        <ele>53.9</ele>
        <time>2017-09-16T08:19:32Z</time>
      </trkpt>
      <trkpt lat="47.59465" lon="-0.25799">
        <ele>53.7</ele>
        <time>2017-09-16T08:19:37Z</time>
      </trkpt>
      <trkpt lat="47.59465" lon="-0.25793">
        <ele>53.8</ele>
        <time>2017-09-16T08:19:42Z</time>
      </trkpt>
      <trkpt lat="47.59464" lon="-0.25787">
        <ele>53.7</ele>
        <time>2017-09-16T08:19:47Z</time>
      </trkpt>
      <trkpt lat="47.59461" lon="-0.25786">
        <ele>53.6</ele>
        <time>2017-09-16T08:19:52Z</time>
      </trkpt>
      <trkpt lat="47.59459" lon="-0.25785">
        <ele>53.5</ele>
        <time>2017-09-16T08:19:57Z</time>
      </trkpt>
      <trkpt lat="47.59458" lon="-0.25783">
        <ele>53.5</ele>
        <time>2017-09-16T08:20:02Z</time>
      </trkpt>
      <trkpt lat="47.59458" lon="-0.25778">
        <ele>53.5</ele>
        <time>2017-09-16T08:20:07Z</time>
      </trkpt>
      <trkpt lat="47.59459" lon="-0.25774">
        <ele>53.5</ele>
        <time>2017-09-16T08:20:12Z</time>
      </trkpt>
      <trkpt lat="47.5946" lon="-0.25767">
        <ele>53.6</ele>
        <time>2017-09-16T08:20:17Z</time>
      </trkpt>
      <trkpt lat="47.59458" lon="-0.25761">
        <ele>53.5</ele>
        <time>2017-09-16T08:20:22Z</time>
      </trkpt>
      <trkpt lat="47.59459" lon="-0.25757">
        <ele>53.5</ele>
        <time>2017-09-16T08:20:27Z</time>
      </trkpt>
      <trkpt lat="47.5946" lon="-0.25753">
        <ele>53.6</ele>
        <time>2017-09-16T08:20:32Z</time>
      </trkpt>
      <trkpt lat="47.59462" lon="-0.25747">
        <ele>53.6</ele>
        <time>2017-09-16T08:20:37Z</time>
      </trkpt>
      <trkpt lat="47.59461" lon="-0.25741">
        <ele>53.6</ele>
        <time>2017-09-16T08:20:42Z</time>
      </trkpt>
      <trkpt lat="47.59461" lon="-0.25739">
        <ele>53.6</ele>
        <time>2017-09-16T08:20:47Z</time>
      </trkpt>
      <trkpt lat="47.59461" lon="-0.25738">
        <ele>53.6</ele>
        <time>2017-09-16T08:20:52Z</time>
      </trkpt>
      <trkpt lat="47.59461" lon="-0.25737">
        <ele>53.6</ele>
        <time>2017-09-16T08:20:57Z</time>
      </trkpt>
      <trkpt lat="47.59461" lon="-0.25732">
        <ele>53.6</ele>
        <time>2017-09-16T08:21:02Z</time>
      </trkpt>
      <trkpt lat="47.59461" lon="-0.25726">
        <ele>53.6</ele>
        <time>2017-09-16T08:21:07Z</time>
      </trkpt>
      <trkpt lat="47.59461" lon="-0.25723">
        <ele>53.6</ele>
        <time>2017-09-16T08:21:12Z</time>
      </trkpt>
      <trkpt lat="47.59461" lon="-0.2572">
        <ele>53.6</ele>
        <time>2017-09-16T08:21:17Z</time>
      </trkpt>
      <trkpt lat="47.59462" lon="-0.25717">
        <ele>53.6</ele>
        <time>2017-09-16T08:21:22Z</time>
      </trkpt>
      <trkpt lat="47.59464" lon="-0.25713">
        <ele>53.7</ele>
        <time>2017-09-16T08:21:27Z</time>
      </trkpt>
      <trkpt lat="47.59463" lon="-0.2571">
        <ele>53.7</ele>
        <time>2017-09-16T08:21:32Z</time>
      </trkpt>
      <trkpt lat="47.59463" lon="-0.25705">
        <ele>53.7</ele>
        <time>2017-09-16T08:21:37Z</time>
      </trkpt>
      <trkpt lat="47.59462" lon="-0.25703">
        <ele>53.6</ele>
        <time>2017-09-16T08:21:42Z</time>
      </trkpt>
      <trkpt lat="47.59462" lon="-0.25703">
        <ele>53.6</ele>
        <time>2017-09-16T08:21:47Z</time>
      </trkpt>
      <trkpt lat="47.59462" lon="-0.25702">
        <ele>53.6</ele>
        <time>2017-09-16T08:21:52Z</time>
      </trkpt>
      <trkpt lat="47.59463" lon="-0.257">
        <ele>53.7</ele>
        <time>2017-09-16T08:21:57Z</time>
      </trkpt>
      <trkpt lat="47.59465" lon="-0.25699">
        <ele>53.7</ele>
        <time>2017-09-16T08:22:02Z</time>
      </trkpt>
      <trkpt lat="47.59464" lon="-0.25699">
        <ele>53.7</ele>
        <time>2017-09-16T08:22:07Z</time>
      </trkpt>
      <trkpt lat="47.59464" lon="-0.257">
        <ele>53.7</ele>
        <time>2017-09-16T08:22:12Z</time>
      </trkpt>
      <trkpt lat="47.59465" lon="-0.257">
        <ele>53.7</ele>
        <time>2017-09-16T08:22:17Z</time>
      </trkpt>
      <trkpt lat="47.59465" lon="-0.257">
        <ele>53.8</ele>
        <time>2017-09-16T08:22:22Z</time>
      </trkpt>
      <trkpt lat="47.59466" lon="-0.25699">
        <ele>53.8</ele>
        <time>2017-09-16T08:22:27Z</time>
      </trkpt>
      <trkpt lat="47.59466" lon="-0.25697">
        <ele>53.8</ele>
        <time>2017-09-16T08:22:32Z</time>
      </trkpt>
      <trkpt lat="47.59464" lon="-0.25694">
        <ele>53.7</ele>
        <time>2017-09-16T08:22:37Z</time>
      </trkpt>
      <trkpt lat="47.59459" lon="-0.25691">
        <ele>53.5</ele>
        <time>2017-09-16T08:22:42Z</time>
      </trkpt>
      <trkpt lat="47.5946" lon="-0.25686">
        <ele>53.6</ele>
        <time>2017-09-16T08:22:47Z</time>
      </trkpt>
      <trkpt lat="47.5946" lon="-0.2568">
        <ele>53.6</ele>
        <time>2017-09-16T08:22:52Z</time>
      </trkpt>
      <trkpt lat="47.59461" lon="-0.25673">
        <ele>53.6</ele>
        <time>2017-09-16T08:22:57Z</time>
      </trkpt>
      <trkpt lat="47.5946" lon="-0.25665">
        <ele>53.6</ele>
        <time>2017-09-16T08:23:02Z</time>
      </trkpt>
      <trkpt lat="47.5946" lon="-0.25656">
        <ele>53.6</ele>
        <time>2017-09-16T08:23:07Z</time>
      </trkpt>
      <trkpt lat="47.5946" lon="-0.25647">
        <ele>53.6</ele>
        <time>2017-09-16T08:23:12Z</time>
      </trkpt>
      <trkpt lat="47.59461" lon="-0.25639">
        <ele>53.6</ele>
        <time>2017-09-16T08:23:17Z</time>
      </trkpt>
      <trkpt lat="47.59462" lon="-0.25632">
        <ele>53.7</ele>
        <time>2017-09-16T08:23:22Z</time>
      </trkpt>
      <trkpt lat="47.59464" lon="-0.25629">
        <ele>53.8</ele>
        <time>2017-09-16T08:23:27Z</time>
      </trkpt>
      <trkpt lat="47.59464" lon="-0.25629">
        <ele>53.8</ele>
        <time>2017-09-16T08:23:32Z</time>
      </trkpt>
      <trkpt lat="47.59464" lon="-0.25629">
        <ele>53.8</ele>
        <time>2017-09-16T08:23:37Z</time>
      </trkpt>
      <trkpt lat="47.59464" lon="-0.25624">
        <ele>53.9</ele>
        <time>2017-09-16T08:23:42Z</time>
      </trkpt>
      <trkpt lat="47.59464" lon="-0.25616">
        <ele>53.9</ele>
        <time>2017-09-16T08:23:47Z</time>
      </trkpt>
      <trkpt lat="47.59464" lon="-0.25612">
        <ele>54</ele>
        <time>2017-09-16T08:23:52Z</time>
      </trkpt>
      <trkpt lat="47.59466" lon="-0.25613">
        <ele>54</ele>
        <time>2017-09-16T08:23:57Z</time>
      </trkpt>
      <trkpt lat="47.59466" lon="-0.25613">
        <ele>54</ele>
        <time>2017-09-16T08:24:02Z</time>
      </trkpt>
      <trkpt lat="47.59467" lon="-0.25613">
        <ele>54</ele>
        <time>2017-09-16T08:24:07Z</time>
      </trkpt>
      <trkpt lat="47.59466" lon="-0.25608">
        <ele>54</ele>
        <time>2017-09-16T08:24:12Z</time>
      </trkpt>
      <trkpt lat="47.59466" lon="-0.256">
        <ele>54</ele>
        <time>2017-09-16T08:24:17Z</time>
      </trkpt>
      <trkpt lat="47.59464" lon="-0.25591">
        <ele>54</ele>
        <time>2017-09-16T08:24:22Z</time>
      </trkpt>
      <trkpt lat="47.59466" lon="-0.25583">
        <ele>54</ele>
        <time>2017-09-16T08:24:27Z</time>
      </trkpt>
      <trkpt lat="47.59467" lon="-0.25576">
        <ele>54</ele>
        <time>2017-09-16T08:24:32Z</time>
      </trkpt>
      <trkpt lat="47.59467" lon="-0.25567">
        <ele>54</ele>
        <time>2017-09-16T08:24:37Z</time>
      </trkpt>
      <trkpt lat="47.59465" lon="-0.25557">
        <ele>54</ele>
        <time>2017-09-16T08:24:42Z</time>
      </trkpt>
      <trkpt lat="47.59467" lon="-0.2555">
        <ele>54</ele>
        <time>2017-09-16T08:24:47Z</time>
      </trkpt>
      <trkpt lat="47.59465" lon="-0.25543">
        <ele>54</ele>
        <time>2017-09-16T08:24:52Z</time>
      </trkpt>
      <trkpt lat="47.59461" lon="-0.25536">
        <ele>54</ele>
        <time>2017-09-16T08:24:57Z</time>
      </trkpt>
      <trkpt lat="47.5946" lon="-0.2553">
        <ele>54</ele>
        <time>2017-09-16T08:25:02Z</time>
      </trkpt>
      <trkpt lat="47.59456" lon="-0.25523">
        <ele>54</ele>
        <time>2017-09-16T08:25:07Z</time>
      </trkpt>
      <trkpt lat="47.59455" lon="-0.25516">
        <ele>54</ele>
        <time>2017-09-16T08:25:12Z</time>
      </trkpt>
      <trkpt lat="47.5945" lon="-0.25508">
        <ele>54</ele>
        <time>2017-09-16T08:25:17Z</time>
      </trkpt>
      <trkpt lat="47.59448" lon="-0.255">
        <ele>54</ele>
        <time>2017-09-16T08:25:22Z</time>
      </trkpt>
      <trkpt lat="47.59447" lon="-0.25492">
        <ele>54</ele>
        <time>2017-09-16T08:25:27Z</time>
      </trkpt>
      <trkpt lat="47.59444" lon="-0.25482">
        <ele>54</ele>
        <time>2017-09-16T08:25:32Z</time>
      </trkpt>
      <trkpt lat="47.59442" lon="-0.25471">
        <ele>53.9</ele>
        <time>2017-09-16T08:25:37Z</time>
      </trkpt>
      <trkpt lat="47.59445" lon="-0.25459">
        <ele>54</ele>
        <time>2017-09-16T08:25:42Z</time>
      </trkpt>
      <trkpt lat="47.59442" lon="-0.25453">
        <ele>53.9</ele>
        <time>2017-09-16T08:25:47Z</time>
      </trkpt>
      <trkpt lat="47.59442" lon="-0.25444">
        <ele>53.9</ele>
        <time>2017-09-16T08:25:52Z</time>
      </trkpt>
      <trkpt lat="47.59443" lon="-0.2544">
        <ele>53.9</ele>
        <time>2017-09-16T08:25:57Z</time>
      </trkpt>
      <trkpt lat="47.59444" lon="-0.25433">
        <ele>54</ele>
        <time>2017-09-16T08:26:02Z</time>
      </trkpt>
      <trkpt lat="47.59441" lon="-0.25427">
        <ele>53.9</ele>
        <time>2017-09-16T08:26:07Z</time>
      </trkpt>
      <trkpt lat="47.59437" lon="-0.25423">
        <ele>53.7</ele>
        <time>2017-09-16T08:26:12Z</time>
      </trkpt>
      <trkpt lat="47.59437" lon="-0.25416">
        <ele>53.7</ele>
        <time>2017-09-16T08:26:17Z</time>
      </trkpt>
      <trkpt lat="47.59439" lon="-0.25409">
        <ele>53.5</ele>
        <time>2017-09-16T08:26:22Z</time>
      </trkpt>
      <trkpt lat="47.59437" lon="-0.25403">
        <ele>53.3</ele>
        <time>2017-09-16T08:26:27Z</time>
      </trkpt>
      <trkpt lat="47.59437" lon="-0.25397">
        <ele>53</ele>
        <time>2017-09-16T08:26:32Z</time>
      </trkpt>
      <trkpt lat="47.59438" lon="-0.25391">
        <ele>52.8</ele>
        <time>2017-09-16T08:26:37Z</time>
      </trkpt>
      <trkpt lat="47.59436" lon="-0.25381">
        <ele>52.7</ele>
        <time>2017-09-16T08:26:42Z</time>
      </trkpt>
      <trkpt lat="47.59439" lon="-0.25374">
        <ele>52.8</ele>
        <time>2017-09-16T08:26:47Z</time>
      </trkpt>
      <trkpt lat="47.59442" lon="-0.25373">
        <ele>52.9</ele>
        <time>2017-09-16T08:26:52Z</time>
      </trkpt>
      <trkpt lat="47.59448" lon="-0.25371">
        <ele>53</ele>
        <time>2017-09-16T08:26:57Z</time>
      </trkpt>
      <trkpt lat="47.5945" lon="-0.25371">
        <ele>53.1</ele>
        <time>2017-09-16T08:27:02Z</time>
      </trkpt>
      <trkpt lat="47.59451" lon="-0.25371">
        <ele>53.1</ele>
        <time>2017-09-16T08:27:07Z</time>
      </trkpt>
      <trkpt lat="47.59451" lon="-0.25371">
        <ele>53.1</ele>
        <time>2017-09-16T08:27:12Z</time>
      </trkpt>
      <trkpt lat="47.59451" lon="-0.25371">
        <ele>53.1</ele>
        <time>2017-09-16T08:27:17Z</time>
      </trkpt>
      <trkpt lat="47.59451" lon="-0.25371">
        <ele>53.1</ele>
        <time>2017-09-16T08:27:22Z</time>
      </trkpt>
      <trkpt lat="47.59451" lon="-0.25371">
        <ele>53.1</ele>
        <time>2017-09-16T08:27:27Z</time>
      </trkpt>
      <trkpt lat="47.59451" lon="-0.25371">
        <ele>53.1</ele>
        <time>2017-09-16T08:27:32Z</time>
      </trkpt>
      <trkpt lat="47.59451" lon="-0.25371">
        <ele>53.1</ele>
        <time>2017-09-16T08:27:37Z</time>
      </trkpt>
      <trkpt lat="47.59451" lon="-0.25371">
        <ele>53.1</ele>
        <time>2017-09-16T08:27:42Z</time>
      </trkpt>
      <trkpt lat="47.59448" lon="-0.25369">
        <ele>53</ele>
        <time>2017-09-16T08:27:47Z</time>
      </trkpt>
      <trkpt lat="47.59447" lon="-0.25359">
        <ele>53</ele>
        <time>2017-09-16T08:27:52Z</time>
      </trkpt>
      <trkpt lat="47.59442" lon="-0.25348">
        <ele>52.9</ele>
        <time>2017-09-16T08:27:57Z</time>
      </trkpt>
      <trkpt lat="47.5944" lon="-0.2534">
        <ele>52.8</ele>
        <time>2017-09-16T08:28:02Z</time>
      </trkpt>
      <trkpt lat="47.59437" lon="-0.25331">
        <ele>52.7</ele>
        <time>2017-09-16T08:28:07Z</time>
      </trkpt>
      <trkpt lat="47.59436" lon="-0.25321">
        <ele>52.7</ele>
        <time>2017-09-16T08:28:12Z</time>
      </trkpt>
      <trkpt lat="47.59437" lon="-0.25307">
        <ele>52.7</ele>
        <time>2017-09-16T08:28:17Z</time>
      </trkpt>
      <trkpt lat="47.59437" lon="-0.25292">
        <ele>52.2</ele>
        <time>2017-09-16T08:28:22Z</time>
      </trkpt>
      <trkpt lat="47.59438" lon="-0.25279">
        <ele>51.8</ele>
        <time>2017-09-16T08:28:27Z</time>
      </trkpt>
      <trkpt lat="47.59442" lon="-0.25265">
        <ele>51.9</ele>
        <time>2017-09-16T08:28:32Z</time>
      </trkpt>
      <trkpt lat="47.59444" lon="-0.25256">
        <ele>52</ele>
        <time>2017-09-16T08:28:37Z</time>
      </trkpt>
      <trkpt lat="47.59446" lon="-0.2525">
        <ele>52.1</ele>
        <time>2017-09-16T08:28:42Z</time>
      </trkpt>
      <trkpt lat="47.59447" lon="-0.25243">
        <ele>52.1</ele>
        <time>2017-09-16T08:28:47Z</time>
      </trkpt>
      <trkpt lat="47.59448" lon="-0.25235">
        <ele>52.1</ele>
        <time>2017-09-16T08:28:52Z</time>
      </trkpt>
      <trkpt lat="47.59449" lon="-0.25226">
        <ele>52</ele>
        <time>2017-09-16T08:28:57Z</time>
      </trkpt>
      <trkpt lat="47.59452" lon="-0.25219">
        <ele>51.9</ele>
        <time>2017-09-16T08:29:02Z</time>
      </trkpt>
      <trkpt lat="47.59452" lon="-0.25213">
        <ele>51.7</ele>
        <time>2017-09-16T08:29:07Z</time>
      </trkpt>
      <trkpt lat="47.59451" lon="-0.25205">
        <ele>51.5</ele>
        <time>2017-09-16T08:29:12Z</time>
      </trkpt>
      <trkpt lat="47.59453" lon="-0.25196">
        <ele>51.3</ele>
        <time>2017-09-16T08:29:17Z</time>
      </trkpt>
      <trkpt lat="47.59454" lon="-0.25187">
        <ele>51.3</ele>
        <time>2017-09-16T08:29:22Z</time>
      </trkpt>
      <trkpt lat="47.59456" lon="-0.25176">
        <ele>51.1</ele>
        <time>2017-09-16T08:29:27Z</time>
      </trkpt>
      <trkpt lat="47.59456" lon="-0.25164">
        <ele>50.9</ele>
        <time>2017-09-16T08:29:32Z</time>
      </trkpt>
      <trkpt lat="47.59457" lon="-0.25153">
        <ele>50.7</ele>
        <time>2017-09-16T08:29:37Z</time>
      </trkpt>
      <trkpt lat="47.59458" lon="-0.25145">
        <ele>50.6</ele>
        <time>2017-09-16T08:29:42Z</time>
      </trkpt>
      <trkpt lat="47.59459" lon="-0.25137">
        <ele>50.5</ele>
        <time>2017-09-16T08:29:47Z</time>
      </trkpt>
      <trkpt lat="47.59461" lon="-0.25127">
        <ele>50.6</ele>
        <time>2017-09-16T08:29:52Z</time>
      </trkpt>
      <trkpt lat="47.59463" lon="-0.25119">
        <ele>50.7</ele>
        <time>2017-09-16T08:29:57Z</time>
      </trkpt>
      <trkpt lat="47.59464" lon="-0.25109">
        <ele>50.6</ele>
        <time>2017-09-16T08:30:02Z</time>
      </trkpt>
      <trkpt lat="47.59465" lon="-0.25101">
        <ele>50.4</ele>
        <time>2017-09-16T08:30:07Z</time>
      </trkpt>
      <trkpt lat="47.59468" lon="-0.25092">
        <ele>50.1</ele>
        <time>2017-09-16T08:30:12Z</time>
      </trkpt>
      <trkpt lat="47.59472" lon="-0.25082">
        <ele>49.9</ele>
        <time>2017-09-16T08:30:17Z</time>
      </trkpt>
      <trkpt lat="47.59474" lon="-0.25072">
        <ele>49.6</ele>
        <time>2017-09-16T08:30:22Z</time>
      </trkpt>
      <trkpt lat="47.59477" lon="-0.25063">
        <ele>49.4</ele>
        <time>2017-09-16T08:30:27Z</time>
      </trkpt>
      <trkpt lat="47.59481" lon="-0.25052">
        <ele>49.3</ele>
        <time>2017-09-16T08:30:32Z</time>
      </trkpt>
      <trkpt lat="47.59484" lon="-0.25043">
        <ele>49.2</ele>
        <time>2017-09-16T08:30:37Z</time>
      </trkpt>
      <trkpt lat="47.59486" lon="-0.25033">
        <ele>49.1</ele>
        <time>2017-09-16T08:30:42Z</time>
      </trkpt>
      <trkpt lat="47.59488" lon="-0.25025">
        <ele>49</ele>
        <time>2017-09-16T08:30:47Z</time>
      </trkpt>
      <trkpt lat="47.59491" lon="-0.25015">
        <ele>48.9</ele>
        <time>2017-09-16T08:30:52Z</time>
      </trkpt>
      <trkpt lat="47.59493" lon="-0.25004">
        <ele>48.8</ele>
        <time>2017-09-16T08:30:57Z</time>
      </trkpt>
      <trkpt lat="47.59495" lon="-0.24996">
        <ele>48.7</ele>
        <time>2017-09-16T08:31:02Z</time>
      </trkpt>
      <trkpt lat="47.59497" lon="-0.24987">
        <ele>48.5</ele>
        <time>2017-09-16T08:31:07Z</time>
      </trkpt>
      <trkpt lat="47.59501" lon="-0.24979">
        <ele>48.3</ele>
        <time>2017-09-16T08:31:12Z</time>
      </trkpt>
      <trkpt lat="47.59503" lon="-0.24969">
        <ele>48.1</ele>
        <time>2017-09-16T08:31:17Z</time>
      </trkpt>
      <trkpt lat="47.59505" lon="-0.24959">
        <ele>48.1</ele>
        <time>2017-09-16T08:31:22Z</time>
      </trkpt>
      <trkpt lat="47.59507" lon="-0.24951">
        <ele>48.1</ele>
        <time>2017-09-16T08:31:27Z</time>
      </trkpt>
      <trkpt lat="47.5951" lon="-0.24942">
        <ele>48</ele>
        <time>2017-09-16T08:31:32Z</time>
      </trkpt>
      <trkpt lat="47.59513" lon="-0.24933">
        <ele>48</ele>
        <time>2017-09-16T08:31:37Z</time>
      </trkpt>
      <trkpt lat="47.59517" lon="-0.24925">
        <ele>48</ele>
        <time>2017-09-16T08:31:42Z</time>
      </trkpt>
      <trkpt lat="47.59521" lon="-0.24919">
        <ele>48</ele>
        <time>2017-09-16T08:31:47Z</time>
      </trkpt>
      <trkpt lat="47.59526" lon="-0.24914">
        <ele>47.9</ele>
        <time>2017-09-16T08:31:52Z</time>
      </trkpt>
      <trkpt lat="47.5953" lon="-0.24908">
        <ele>47.6</ele>
        <time>2017-09-16T08:31:57Z</time>
      </trkpt>
      <trkpt lat="47.59536" lon="-0.24903">
        <ele>47.2</ele>
        <time>2017-09-16T08:32:02Z</time>
      </trkpt>
      <trkpt lat="47.59541" lon="-0.24899">
        <ele>46.9</ele>
        <time>2017-09-16T08:32:07Z</time>
      </trkpt>
      <trkpt lat="47.59545" lon="-0.24893">
        <ele>46.5</ele>
        <time>2017-09-16T08:32:12Z</time>
      </trkpt>
      <trkpt lat="47.59549" lon="-0.24887">
        <ele>46.2</ele>
        <time>2017-09-16T08:32:17Z</time>
      </trkpt>
      <trkpt lat="47.59554" lon="-0.24881">
        <ele>46.1</ele>
        <time>2017-09-16T08:32:22Z</time>
      </trkpt>
      <trkpt lat="47.59556" lon="-0.24879">
        <ele>46</ele>
        <time>2017-09-16T08:32:27Z</time>
      </trkpt>
      <trkpt lat="47.59559" lon="-0.24875">
        <ele>45.7</ele>
        <time>2017-09-16T08:32:32Z</time>
      </trkpt>
      <trkpt lat="47.59563" lon="-0.24869">
        <ele>45.4</ele>
        <time>2017-09-16T08:32:37Z</time>
      </trkpt>
      <trkpt lat="47.59568" lon="-0.24861">
        <ele>45.1</ele>
        <time>2017-09-16T08:32:42Z</time>
      </trkpt>
      <trkpt lat="47.59574" lon="-0.24852">
        <ele>44.7</ele>
        <time>2017-09-16T08:32:47Z</time>
      </trkpt>
      <trkpt lat="47.59579" lon="-0.24845">
        <ele>44.3</ele>
        <time>2017-09-16T08:32:52Z</time>
      </trkpt>
      <trkpt lat="47.59583" lon="-0.24838">
        <ele>44</ele>
        <time>2017-09-16T08:32:57Z</time>
      </trkpt>
      <trkpt lat="47.59586" lon="-0.24831">
        <ele>44</ele>
        <time>2017-09-16T08:33:02Z</time>
      </trkpt>
      <trkpt lat="47.5959" lon="-0.24824">
        <ele>44</ele>
        <time>2017-09-16T08:33:07Z</time>
      </trkpt>
      <trkpt lat="47.59591" lon="-0.24818">
        <ele>44.1</ele>
        <time>2017-09-16T08:33:12Z</time>
      </trkpt>
      <trkpt lat="47.59595" lon="-0.24812">
        <ele>44</ele>
        <time>2017-09-16T08:33:17Z</time>
      </trkpt>
      <trkpt lat="47.596" lon="-0.24805">
        <ele>43.8</ele>
        <time>2017-09-16T08:33:22Z</time>
      </trkpt>
      <trkpt lat="47.59602" lon="-0.24797">
        <ele>43.7</ele>
        <time>2017-09-16T08:33:27Z</time>
      </trkpt>
      <trkpt lat="47.59605" lon="-0.24789">
        <ele>43.5</ele>
        <time>2017-09-16T08:33:32Z</time>
      </trkpt>
      <trkpt lat="47.59607" lon="-0.24781">
        <ele>43.3</ele>
        <time>2017-09-16T08:33:37Z</time>
      </trkpt>
      <trkpt lat="47.5961" lon="-0.24773">
        <ele>43.2</ele>
        <time>2017-09-16T08:33:42Z</time>
      </trkpt>
      <trkpt lat="47.59611" lon="-0.24768">
        <ele>43.4</ele>
        <time>2017-09-16T08:33:47Z</time>
      </trkpt>
      <trkpt lat="47.59613" lon="-0.24761">
        <ele>43.4</ele>
        <time>2017-09-16T08:33:52Z</time>
      </trkpt>
      <trkpt lat="47.59615" lon="-0.24755">
        <ele>43.5</ele>
        <time>2017-09-16T08:33:57Z</time>
      </trkpt>
      <trkpt lat="47.59619" lon="-0.24747">
        <ele>43.2</ele>
        <time>2017-09-16T08:34:02Z</time>
      </trkpt>
      <trkpt lat="47.59623" lon="-0.24738">
        <ele>42.9</ele>
        <time>2017-09-16T08:34:07Z</time>
      </trkpt>
      <trkpt lat="47.59624" lon="-0.24729">
        <ele>43</ele>
        <time>2017-09-16T08:34:12Z</time>
      </trkpt>
      <trkpt lat="47.59628" lon="-0.24717">
        <ele>42.8</ele>
        <time>2017-09-16T08:34:17Z</time>
      </trkpt>
      <trkpt lat="47.59632" lon="-0.24705">
        <ele>42.5</ele>
        <time>2017-09-16T08:34:22Z</time>
      </trkpt>
      <trkpt lat="47.59637" lon="-0.24693">
        <ele>42.2</ele>
        <time>2017-09-16T08:34:27Z</time>
      </trkpt>
      <trkpt lat="47.5964" lon="-0.24684">
        <ele>42</ele>
        <time>2017-09-16T08:34:32Z</time>
      </trkpt>
      <trkpt lat="47.59642" lon="-0.24674">
        <ele>41.9</ele>
        <time>2017-09-16T08:34:37Z</time>
      </trkpt>
      <trkpt lat="47.59644" lon="-0.24666">
        <ele>41.8</ele>
        <time>2017-09-16T08:34:42Z</time>
      </trkpt>
      <trkpt lat="47.59646" lon="-0.24659">
        <ele>41.8</ele>
        <time>2017-09-16T08:34:47Z</time>
      </trkpt>
      <trkpt lat="47.59641" lon="-0.24648">
        <ele>42</ele>
        <time>2017-09-16T08:34:52Z</time>
      </trkpt>
      <trkpt lat="47.59637" lon="-0.2464">
        <ele>42.1</ele>
        <time>2017-09-16T08:34:57Z</time>
      </trkpt>
      <trkpt lat="47.59635" lon="-0.2463">
        <ele>42.2</ele>
        <time>2017-09-16T08:35:02Z</time>
      </trkpt>
      <trkpt lat="47.59629" lon="-0.2462">
        <ele>42.4</ele>
        <time>2017-09-16T08:35:07Z</time>
      </trkpt>
      <trkpt lat="47.59623" lon="-0.24611">
        <ele>42.6</ele>
        <time>2017-09-16T08:35:12Z</time>
      </trkpt>
      <trkpt lat="47.59618" lon="-0.24605">
        <ele>42.6</ele>
        <time>2017-09-16T08:35:17Z</time>
      </trkpt>
      <trkpt lat="47.59614" lon="-0.24598">
        <ele>42.5</ele>
        <time>2017-09-16T08:35:22Z</time>
      </trkpt>
      <trkpt lat="47.59611" lon="-0.24591">
        <ele>42.3</ele>
        <time>2017-09-16T08:35:27Z</time>
      </trkpt>
      <trkpt lat="47.59608" lon="-0.24583">
        <ele>42.1</ele>
        <time>2017-09-16T08:35:32Z</time>
      </trkpt>
      <trkpt lat="47.59604" lon="-0.24577">
        <ele>42.1</ele>
        <time>2017-09-16T08:35:37Z</time>
      </trkpt>
      <trkpt lat="47.59601" lon="-0.24571">
        <ele>42.1</ele>
        <time>2017-09-16T08:35:42Z</time>
      </trkpt>
      <trkpt lat="47.59597" lon="-0.24563">
        <ele>42.2</ele>
        <time>2017-09-16T08:35:47Z</time>
      </trkpt>
      <trkpt lat="47.59593" lon="-0.24556">
        <ele>42.3</ele>
        <time>2017-09-16T08:35:52Z</time>
      </trkpt>
      <trkpt lat="47.5959" lon="-0.24547">
        <ele>42.3</ele>
        <time>2017-09-16T08:35:57Z</time>
      </trkpt>
      <trkpt lat="47.59588" lon="-0.2454">
        <ele>42.2</ele>
        <time>2017-09-16T08:36:02Z</time>
      </trkpt>
      <trkpt lat="47.59584" lon="-0.24534">
        <ele>42.2</ele>
        <time>2017-09-16T08:36:07Z</time>
      </trkpt>
      <trkpt lat="47.59582" lon="-0.24525">
        <ele>42</ele>
        <time>2017-09-16T08:36:12Z</time>
      </trkpt>
      <trkpt lat="47.59579" lon="-0.24516">
        <ele>42.2</ele>
        <time>2017-09-16T08:36:17Z</time>
      </trkpt>
      <trkpt lat="47.59577" lon="-0.24509">
        <ele>42.2</ele>
        <time>2017-09-16T08:36:22Z</time>
      </trkpt>
      <trkpt lat="47.59574" lon="-0.245">
        <ele>42.3</ele>
        <time>2017-09-16T08:36:27Z</time>
      </trkpt>
      <trkpt lat="47.59572" lon="-0.24492">
        <ele>42.3</ele>
        <time>2017-09-16T08:36:32Z</time>
      </trkpt>
      <trkpt lat="47.59569" lon="-0.24483">
        <ele>42.2</ele>
        <time>2017-09-16T08:36:37Z</time>
      </trkpt>
      <trkpt lat="47.59566" lon="-0.24476">
        <ele>42.1</ele>
        <time>2017-09-16T08:36:42Z</time>
      </trkpt>
      <trkpt lat="47.59563" lon="-0.24465">
        <ele>41.9</ele>
        <time>2017-09-16T08:36:47Z</time>
      </trkpt>
      <trkpt lat="47.5956" lon="-0.24457">
        <ele>41.9</ele>
        <time>2017-09-16T08:36:52Z</time>
      </trkpt>
      <trkpt lat="47.59558" lon="-0.24449">
        <ele>41.9</ele>
        <time>2017-09-16T08:36:57Z</time>
      </trkpt>
      <trkpt lat="47.59557" lon="-0.2444">
        <ele>41.8</ele>
        <time>2017-09-16T08:37:02Z</time>
      </trkpt>
      <trkpt lat="47.59555" lon="-0.24432">
        <ele>41.6</ele>
        <time>2017-09-16T08:37:07Z</time>
      </trkpt>
      <trkpt lat="47.59553" lon="-0.24423">
        <ele>41.2</ele>
        <time>2017-09-16T08:37:12Z</time>
      </trkpt>
      <trkpt lat="47.59552" lon="-0.2441">
        <ele>40.8</ele>
        <time>2017-09-16T08:37:17Z</time>
      </trkpt>
      <trkpt lat="47.5955" lon="-0.24401">
        <ele>40.4</ele>
        <time>2017-09-16T08:37:22Z</time>
      </trkpt>
      <trkpt lat="47.59547" lon="-0.24394">
        <ele>40.2</ele>
        <time>2017-09-16T08:37:27Z</time>
      </trkpt>
      <trkpt lat="47.59546" lon="-0.24386">
        <ele>40</ele>
        <time>2017-09-16T08:37:32Z</time>
      </trkpt>
      <trkpt lat="47.59546" lon="-0.24378">
        <ele>39.9</ele>
        <time>2017-09-16T08:37:37Z</time>
      </trkpt>
      <trkpt lat="47.59543" lon="-0.24372">
        <ele>39.7</ele>
        <time>2017-09-16T08:37:42Z</time>
      </trkpt>
      <trkpt lat="47.59541" lon="-0.24363">
        <ele>39.5</ele>
        <time>2017-09-16T08:37:47Z</time>
      </trkpt>
      <trkpt lat="47.5954" lon="-0.24354">
        <ele>39.3</ele>
        <time>2017-09-16T08:37:52Z</time>
      </trkpt>
      <trkpt lat="47.59534" lon="-0.24346">
        <ele>39.1</ele>
        <time>2017-09-16T08:37:57Z</time>
      </trkpt>
      <trkpt lat="47.59532" lon="-0.24339">
        <ele>39</ele>
        <time>2017-09-16T08:38:02Z</time>
      </trkpt>
      <trkpt lat="47.59529" lon="-0.24332">
        <ele>39</ele>
        <time>2017-09-16T08:38:07Z</time>
      </trkpt>
      <trkpt lat="47.59528" lon="-0.24325">
        <ele>39</ele>
        <time>2017-09-16T08:38:12Z</time>
      </trkpt>
      <trkpt lat="47.59526" lon="-0.24321">
        <ele>39</ele>
        <time>2017-09-16T08:38:17Z</time>
      </trkpt>
      <trkpt lat="47.59523" lon="-0.2432">
        <ele>38.9</ele>
        <time>2017-09-16T08:38:22Z</time>
      </trkpt>
      <trkpt lat="47.59523" lon="-0.24318">
        <ele>38.9</ele>
        <time>2017-09-16T08:38:27Z</time>
      </trkpt>
      <trkpt lat="47.59523" lon="-0.24318">
        <ele>38.9</ele>
        <time>2017-09-16T08:38:32Z</time>
      </trkpt>
      <trkpt lat="47.59521" lon="-0.24311">
        <ele>39</ele>
        <time>2017-09-16T08:38:37Z</time>
      </trkpt>
      <trkpt lat="47.59519" lon="-0.24303">
        <ele>39.1</ele>
        <time>2017-09-16T08:38:42Z</time>
      </trkpt>
      <trkpt lat="47.59518" lon="-0.24297">
        <ele>39.3</ele>
        <time>2017-09-16T08:38:47Z</time>
      </trkpt>
      <trkpt lat="47.59517" lon="-0.24291">
        <ele>39.5</ele>
        <time>2017-09-16T08:38:52Z</time>
      </trkpt>
      <trkpt lat="47.59516" lon="-0.24288">
        <ele>39.6</ele>
        <time>2017-09-16T08:38:57Z</time>
      </trkpt>
      <trkpt lat="47.59517" lon="-0.24287">
        <ele>39.7</ele>
        <time>2017-09-16T08:39:02Z</time>
      </trkpt>
      <trkpt lat="47.59516" lon="-0.24283">
        <ele>39.8</ele>
        <time>2017-09-16T08:39:07Z</time>
      </trkpt>
      <trkpt lat="47.59516" lon="-0.2428">
        <ele>39.9</ele>
        <time>2017-09-16T08:39:12Z</time>
      </trkpt>
      <trkpt lat="47.59517" lon="-0.24279">
        <ele>39.9</ele>
        <time>2017-09-16T08:39:17Z</time>
      </trkpt>
      <trkpt lat="47.59517" lon="-0.24279">
        <ele>39.9</ele>
        <time>2017-09-16T08:39:22Z</time>
      </trkpt>
      <trkpt lat="47.59518" lon="-0.24275">
        <ele>40.2</ele>
        <time>2017-09-16T08:39:27Z</time>
      </trkpt>
      <trkpt lat="47.59519" lon="-0.24266">
        <ele>40.9</ele>
        <time>2017-09-16T08:39:32Z</time>
      </trkpt>
      <trkpt lat="47.59519" lon="-0.24257">
        <ele>41.5</ele>
        <time>2017-09-16T08:39:37Z</time>
      </trkpt>
      <trkpt lat="47.59519" lon="-0.24249">
        <ele>42</ele>
        <time>2017-09-16T08:39:42Z</time>
      </trkpt>
      <trkpt lat="47.59516" lon="-0.24243">
        <ele>42.5</ele>
        <time>2017-09-16T08:39:47Z</time>
      </trkpt>
      <trkpt lat="47.59515" lon="-0.24234">
        <ele>43.1</ele>
        <time>2017-09-16T08:39:52Z</time>
      </trkpt>
      <trkpt lat="47.59514" lon="-0.24225">
        <ele>43.8</ele>
        <time>2017-09-16T08:39:57Z</time>
      </trkpt>
      <trkpt lat="47.59513" lon="-0.24217">
        <ele>44.1</ele>
        <time>2017-09-16T08:40:02Z</time>
      </trkpt>
      <trkpt lat="47.59511" lon="-0.24212">
        <ele>44.1</ele>
        <time>2017-09-16T08:40:07Z</time>
      </trkpt>
      <trkpt lat="47.59509" lon="-0.24204">
        <ele>44.2</ele>
        <time>2017-09-16T08:40:12Z</time>
      </trkpt>
      <trkpt lat="47.59508" lon="-0.24194">
        <ele>44.3</ele>
        <time>2017-09-16T08:40:17Z</time>
      </trkpt>
      <trkpt lat="47.59507" lon="-0.24185">
        <ele>44.6</ele>
        <time>2017-09-16T08:40:22Z</time>
      </trkpt>
      <trkpt lat="47.59506" lon="-0.24176">
        <ele>44.9</ele>
        <time>2017-09-16T08:40:27Z</time>
      </trkpt>
      <trkpt lat="47.59504" lon="-0.24167">
        <ele>45.1</ele>
        <time>2017-09-16T08:40:32Z</time>
      </trkpt>
      <trkpt lat="47.59502" lon="-0.24157">
        <ele>45.1</ele>
        <time>2017-09-16T08:40:37Z</time>
      </trkpt>
      <trkpt lat="47.59502" lon="-0.24148">
        <ele>45.1</ele>
        <time>2017-09-16T08:40:42Z</time>
      </trkpt>
      <trkpt lat="47.59501" lon="-0.24139">
        <ele>45</ele>
        <time>2017-09-16T08:40:47Z</time>
      </trkpt>
      <trkpt lat="47.59499" lon="-0.24131">
        <ele>45.3</ele>
        <time>2017-09-16T08:40:52Z</time>
      </trkpt>
      <trkpt lat="47.59498" lon="-0.24122">
        <ele>45.6</ele>
        <time>2017-09-16T08:40:57Z</time>
      </trkpt>
      <trkpt lat="47.59498" lon="-0.24114">
        <ele>45.8</ele>
        <time>2017-09-16T08:41:02Z</time>
      </trkpt>
      <trkpt lat="47.59497" lon="-0.24107">
        <ele>45.9</ele>
        <time>2017-09-16T08:41:07Z</time>
      </trkpt>
      <trkpt lat="47.59497" lon="-0.24098">
        <ele>45.9</ele>
        <time>2017-09-16T08:41:12Z</time>
      </trkpt>
      <trkpt lat="47.59496" lon="-0.24089">
        <ele>45.9</ele>
        <time>2017-09-16T08:41:17Z</time>
      </trkpt>
      <trkpt lat="47.59496" lon="-0.24081">
        <ele>45.9</ele>
        <time>2017-09-16T08:41:22Z</time>
      </trkpt>
      <trkpt lat="47.59496" lon="-0.24072">
        <ele>45.9</ele>
        <time>2017-09-16T08:41:27Z</time>
      </trkpt>
      <trkpt lat="47.59496" lon="-0.24063">
        <ele>45.9</ele>
        <time>2017-09-16T08:41:32Z</time>
      </trkpt>
      <trkpt lat="47.59497" lon="-0.24054">
        <ele>45.9</ele>
        <time>2017-09-16T08:41:37Z</time>
      </trkpt>
      <trkpt lat="47.59498" lon="-0.24044">
        <ele>45.9</ele>
        <time>2017-09-16T08:41:42Z</time>
      </trkpt>
      <trkpt lat="47.595" lon="-0.24034">
        <ele>46</ele>
        <time>2017-09-16T08:41:47Z</time>
      </trkpt>
      <trkpt lat="47.59502" lon="-0.24026">
        <ele>46.1</ele>
        <time>2017-09-16T08:41:52Z</time>
      </trkpt>
      <trkpt lat="47.59504" lon="-0.24018">
        <ele>46.4</ele>
        <time>2017-09-16T08:41:57Z</time>
      </trkpt>
      <trkpt lat="47.59507" lon="-0.24009">
        <ele>46.7</ele>
        <time>2017-09-16T08:42:02Z</time>
      </trkpt>
      <trkpt lat="47.5951" lon="-0.23999">
        <ele>47</ele>
        <time>2017-09-16T08:42:07Z</time>
      </trkpt>
      <trkpt lat="47.59514" lon="-0.23991">
        <ele>46.8</ele>
        <time>2017-09-16T08:42:12Z</time>
      </trkpt>
      <trkpt lat="47.59516" lon="-0.23981">
        <ele>46.7</ele>
        <time>2017-09-16T08:42:17Z</time>
      </trkpt>
      <trkpt lat="47.59518" lon="-0.23973">
        <ele>46.7</ele>
        <time>2017-09-16T08:42:22Z</time>
      </trkpt>
      <trkpt lat="47.5952" lon="-0.23964">
        <ele>46.7</ele>
        <time>2017-09-16T08:42:27Z</time>
      </trkpt>
      <trkpt lat="47.59521" lon="-0.23955">
        <ele>46.7</ele>
        <time>2017-09-16T08:42:32Z</time>
      </trkpt>
      <trkpt lat="47.59522" lon="-0.23945">
        <ele>46.8</ele>
        <time>2017-09-16T08:42:37Z</time>
      </trkpt>
      <trkpt lat="47.59522" lon="-0.23937">
        <ele>46.8</ele>
        <time>2017-09-16T08:42:42Z</time>
      </trkpt>
      <trkpt lat="47.59522" lon="-0.23927">
        <ele>46.8</ele>
        <time>2017-09-16T08:42:47Z</time>
      </trkpt>
      <trkpt lat="47.59522" lon="-0.23918">
        <ele>46.8</ele>
        <time>2017-09-16T08:42:52Z</time>
      </trkpt>
      <trkpt lat="47.59521" lon="-0.2391">
        <ele>46.5</ele>
        <time>2017-09-16T08:42:57Z</time>
      </trkpt>
      <trkpt lat="47.5952" lon="-0.23901">
        <ele>46.2</ele>
        <time>2017-09-16T08:43:02Z</time>
      </trkpt>
      <trkpt lat="47.5952" lon="-0.23892">
        <ele>45.8</ele>
        <time>2017-09-16T08:43:07Z</time>
      </trkpt>
      <trkpt lat="47.59519" lon="-0.23884">
        <ele>45.7</ele>
        <time>2017-09-16T08:43:12Z</time>
      </trkpt>
      <trkpt lat="47.59519" lon="-0.23876">
        <ele>45.7</ele>
        <time>2017-09-16T08:43:17Z</time>
      </trkpt>
      <trkpt lat="47.59517" lon="-0.23869">
        <ele>45.6</ele>
        <time>2017-09-16T08:43:22Z</time>
      </trkpt>
      <trkpt lat="47.59516" lon="-0.23861">
        <ele>45.6</ele>
        <time>2017-09-16T08:43:27Z</time>
      </trkpt>
      <trkpt lat="47.59516" lon="-0.23852">
        <ele>45.6</ele>
        <time>2017-09-16T08:43:32Z</time>
      </trkpt>
      <trkpt lat="47.59515" lon="-0.23845">
        <ele>45.5</ele>
        <time>2017-09-16T08:43:37Z</time>
      </trkpt>
      <trkpt lat="47.59515" lon="-0.23837">
        <ele>45.5</ele>
        <time>2017-09-16T08:43:42Z</time>
      </trkpt>
      <trkpt lat="47.59515" lon="-0.23828">
        <ele>45.5</ele>
        <time>2017-09-16T08:43:47Z</time>
      </trkpt>
      <trkpt lat="47.59516" lon="-0.23818">
        <ele>45.6</ele>
        <time>2017-09-16T08:43:52Z</time>
      </trkpt>
      <trkpt lat="47.59517" lon="-0.23809">
        <ele>45.6</ele>
        <time>2017-09-16T08:43:57Z</time>
      </trkpt>
      <trkpt lat="47.59518" lon="-0.238">
        <ele>45.7</ele>
        <time>2017-09-16T08:44:02Z</time>
      </trkpt>
      <trkpt lat="47.59519" lon="-0.23792">
        <ele>45.7</ele>
        <time>2017-09-16T08:44:07Z</time>
      </trkpt>
      <trkpt lat="47.59519" lon="-0.2379">
        <ele>45.7</ele>
        <time>2017-09-16T08:44:12Z</time>
      </trkpt>
      <trkpt lat="47.5952" lon="-0.23783">
        <ele>45.7</ele>
        <time>2017-09-16T08:44:17Z</time>
      </trkpt>
      <trkpt lat="47.59522" lon="-0.23774">
        <ele>45.8</ele>
        <time>2017-09-16T08:44:22Z</time>
      </trkpt>
      <trkpt lat="47.59524" lon="-0.23763">
        <ele>45.9</ele>
        <time>2017-09-16T08:44:27Z</time>
      </trkpt>
      <trkpt lat="47.59525" lon="-0.23756">
        <ele>45.9</ele>
        <time>2017-09-16T08:44:32Z</time>
      </trkpt>
      <trkpt lat="47.59525" lon="-0.23755">
        <ele>45.9</ele>
        <time>2017-09-16T08:44:37Z</time>
      </trkpt>
      <trkpt lat="47.59525" lon="-0.23755">
        <ele>45.9</ele>
        <time>2017-09-16T08:44:42Z</time>
      </trkpt>
      <trkpt lat="47.59525" lon="-0.23755">
        <ele>45.9</ele>
        <time>2017-09-16T08:44:47Z</time>
      </trkpt>
      <trkpt lat="47.59526" lon="-0.23749">
        <ele>46</ele>
        <time>2017-09-16T08:44:52Z</time>
      </trkpt>
      <trkpt lat="47.59529" lon="-0.2374">
        <ele>46</ele>
        <time>2017-09-16T08:44:57Z</time>
      </trkpt>
      <trkpt lat="47.59531" lon="-0.23731">
        <ele>46</ele>
        <time>2017-09-16T08:45:02Z</time>
      </trkpt>
      <trkpt lat="47.59531" lon="-0.23722">
        <ele>46</ele>
        <time>2017-09-16T08:45:07Z</time>
      </trkpt>
      <trkpt lat="47.59532" lon="-0.23713">
        <ele>45.7</ele>
        <time>2017-09-16T08:45:12Z</time>
      </trkpt>
      <trkpt lat="47.59533" lon="-0.23705">
        <ele>45.5</ele>
        <time>2017-09-16T08:45:17Z</time>
      </trkpt>
      <trkpt lat="47.59534" lon="-0.23695">
        <ele>45.3</ele>
        <time>2017-09-16T08:45:22Z</time>
      </trkpt>
      <trkpt lat="47.59535" lon="-0.23688">
        <ele>45.3</ele>
        <time>2017-09-16T08:45:27Z</time>
      </trkpt>
      <trkpt lat="47.59536" lon="-0.2368">
        <ele>45.3</ele>
        <time>2017-09-16T08:45:32Z</time>
      </trkpt>
      <trkpt lat="47.59537" lon="-0.23679">
        <ele>45.3</ele>
        <time>2017-09-16T08:45:37Z</time>
      </trkpt>
      <trkpt lat="47.59538" lon="-0.23679">
        <ele>45.4</ele>
        <time>2017-09-16T08:45:42Z</time>
      </trkpt>
      <trkpt lat="47.59537" lon="-0.23676">
        <ele>45.3</ele>
        <time>2017-09-16T08:45:47Z</time>
      </trkpt>
      <trkpt lat="47.59537" lon="-0.23667">
        <ele>45.3</ele>
        <time>2017-09-16T08:45:52Z</time>
      </trkpt>
      <trkpt lat="47.59538" lon="-0.23658">
        <ele>45.4</ele>
        <time>2017-09-16T08:45:57Z</time>
      </trkpt>
      <trkpt lat="47.5954" lon="-0.23649">
        <ele>45.4</ele>
        <time>2017-09-16T08:46:02Z</time>
      </trkpt>
      <trkpt lat="47.59541" lon="-0.23639">
        <ele>45.5</ele>
        <time>2017-09-16T08:46:07Z</time>
      </trkpt>
      <trkpt lat="47.59542" lon="-0.2363">
        <ele>45.4</ele>
        <time>2017-09-16T08:46:12Z</time>
      </trkpt>
      <trkpt lat="47.59543" lon="-0.2362">
        <ele>45.2</ele>
        <time>2017-09-16T08:46:17Z</time>
      </trkpt>
      <trkpt lat="47.59545" lon="-0.23611">
        <ele>45</ele>
        <time>2017-09-16T08:46:22Z</time>
      </trkpt>
      <trkpt lat="47.59547" lon="-0.23601">
        <ele>45</ele>
        <time>2017-09-16T08:46:27Z</time>
      </trkpt>
      <trkpt lat="47.59549" lon="-0.23592">
        <ele>45</ele>
        <time>2017-09-16T08:46:32Z</time>
      </trkpt>
      <trkpt lat="47.5955" lon="-0.23583">
        <ele>45</ele>
        <time>2017-09-16T08:46:37Z</time>
      </trkpt>
      <trkpt lat="47.59551" lon="-0.23574">
        <ele>45</ele>
        <time>2017-09-16T08:46:42Z</time>
      </trkpt>
      <trkpt lat="47.59553" lon="-0.23565">
        <ele>45</ele>
        <time>2017-09-16T08:46:47Z</time>
      </trkpt>
      <trkpt lat="47.59555" lon="-0.23557">
        <ele>45</ele>
        <time>2017-09-16T08:46:52Z</time>
      </trkpt>
      <trkpt lat="47.59556" lon="-0.23548">
        <ele>45</ele>
        <time>2017-09-16T08:46:57Z</time>
      </trkpt>
      <trkpt lat="47.59558" lon="-0.2354">
        <ele>44.9</ele>
        <time>2017-09-16T08:47:02Z</time>
      </trkpt>
      <trkpt lat="47.59561" lon="-0.23532">
        <ele>44.8</ele>
        <time>2017-09-16T08:47:07Z</time>
      </trkpt>
      <trkpt lat="47.59564" lon="-0.23524">
        <ele>44.7</ele>
        <time>2017-09-16T08:47:12Z</time>
      </trkpt>
      <trkpt lat="47.59567" lon="-0.23516">
        <ele>44.8</ele>
        <time>2017-09-16T08:47:17Z</time>
      </trkpt>
      <trkpt lat="47.5957" lon="-0.2351">
        <ele>44.8</ele>
        <time>2017-09-16T08:47:22Z</time>
      </trkpt>
      <trkpt lat="47.59573" lon="-0.23503">
        <ele>44.9</ele>
        <time>2017-09-16T08:47:27Z</time>
      </trkpt>
      <trkpt lat="47.59577" lon="-0.23496">
        <ele>45</ele>
        <time>2017-09-16T08:47:32Z</time>
      </trkpt>
      <trkpt lat="47.59579" lon="-0.23491">
        <ele>45</ele>
        <time>2017-09-16T08:47:37Z</time>
      </trkpt>
      <trkpt lat="47.59581" lon="-0.23487">
        <ele>45</ele>
        <time>2017-09-16T08:47:42Z</time>
      </trkpt>
      <trkpt lat="47.59581" lon="-0.23487">
        <ele>45</ele>
        <time>2017-09-16T08:47:47Z</time>
      </trkpt>
      <trkpt lat="47.59583" lon="-0.23482">
        <ele>45</ele>
        <time>2017-09-16T08:47:52Z</time>
      </trkpt>
      <trkpt lat="47.59587" lon="-0.23475">
        <ele>45</ele>
        <time>2017-09-16T08:47:57Z</time>
      </trkpt>
      <trkpt lat="47.59592" lon="-0.23468">
        <ele>45</ele>
        <time>2017-09-16T08:48:02Z</time>
      </trkpt>
      <trkpt lat="47.59596" lon="-0.2346">
        <ele>45</ele>
        <time>2017-09-16T08:48:07Z</time>
      </trkpt>
      <trkpt lat="47.596" lon="-0.23454">
        <ele>45</ele>
        <time>2017-09-16T08:48:12Z</time>
      </trkpt>
      <trkpt lat="47.59604" lon="-0.23447">
        <ele>45</ele>
        <time>2017-09-16T08:48:17Z</time>
      </trkpt>
      <trkpt lat="47.59609" lon="-0.2344">
        <ele>45</ele>
        <time>2017-09-16T08:48:22Z</time>
      </trkpt>
      <trkpt lat="47.59613" lon="-0.23434">
        <ele>45</ele>
        <time>2017-09-16T08:48:27Z</time>
      </trkpt>
      <trkpt lat="47.59616" lon="-0.23427">
        <ele>45</ele>
        <time>2017-09-16T08:48:32Z</time>
      </trkpt>
      <trkpt lat="47.5962" lon="-0.2342">
        <ele>45</ele>
        <time>2017-09-16T08:48:37Z</time>
      </trkpt>
      <trkpt lat="47.59625" lon="-0.23414">
        <ele>45</ele>
        <time>2017-09-16T08:48:42Z</time>
      </trkpt>
      <trkpt lat="47.59629" lon="-0.23407">
        <ele>44.9</ele>
        <time>2017-09-16T08:48:47Z</time>
      </trkpt>
      <trkpt lat="47.59633" lon="-0.234">
        <ele>44.9</ele>
        <time>2017-09-16T08:48:52Z</time>
      </trkpt>
      <trkpt lat="47.59637" lon="-0.23394">
        <ele>44.9</ele>
        <time>2017-09-16T08:48:57Z</time>
      </trkpt>
      <trkpt lat="47.5964" lon="-0.23387">
        <ele>44.9</ele>
        <time>2017-09-16T08:49:02Z</time>
      </trkpt>
      <trkpt lat="47.59644" lon="-0.23379">
        <ele>44.5</ele>
        <time>2017-09-16T08:49:07Z</time>
      </trkpt>
      <trkpt lat="47.59647" lon="-0.23371">
        <ele>44.2</ele>
        <time>2017-09-16T08:49:12Z</time>
      </trkpt>
      <trkpt lat="47.59651" lon="-0.23362">
        <ele>44</ele>
        <time>2017-09-16T08:49:17Z</time>
      </trkpt>
      <trkpt lat="47.59655" lon="-0.23355">
        <ele>44</ele>
        <time>2017-09-16T08:49:22Z</time>
      </trkpt>
      <trkpt lat="47.59657" lon="-0.23347">
        <ele>44</ele>
        <time>2017-09-16T08:49:27Z</time>
      </trkpt>
      <trkpt lat="47.59661" lon="-0.2334">
        <ele>44</ele>
        <time>2017-09-16T08:49:32Z</time>
      </trkpt>
      <trkpt lat="47.59663" lon="-0.23331">
        <ele>44</ele>
        <time>2017-09-16T08:49:37Z</time>
      </trkpt>
      <trkpt lat="47.59665" lon="-0.23322">
        <ele>44</ele>
        <time>2017-09-16T08:49:42Z</time>
      </trkpt>
      <trkpt lat="47.59668" lon="-0.23314">
        <ele>44</ele>
        <time>2017-09-16T08:49:47Z</time>
      </trkpt>
      <trkpt lat="47.5967" lon="-0.23305">
        <ele>44</ele>
        <time>2017-09-16T08:49:52Z</time>
      </trkpt>
      <trkpt lat="47.59672" lon="-0.23297">
        <ele>44</ele>
        <time>2017-09-16T08:49:57Z</time>
      </trkpt>
      <trkpt lat="47.59673" lon="-0.23289">
        <ele>44</ele>
        <time>2017-09-16T08:50:02Z</time>
      </trkpt>
      <trkpt lat="47.59671" lon="-0.23282">
        <ele>44</ele>
        <time>2017-09-16T08:50:07Z</time>
      </trkpt>
      <trkpt lat="47.59669" lon="-0.23278">
        <ele>44</ele>
        <time>2017-09-16T08:50:12Z</time>
      </trkpt>
      <trkpt lat="47.59669" lon="-0.23277">
        <ele>44</ele>
        <time>2017-09-16T08:50:17Z</time>
      </trkpt>
      <trkpt lat="47.59669" lon="-0.23276">
        <ele>44</ele>
        <time>2017-09-16T08:50:22Z</time>
      </trkpt>
      <trkpt lat="47.59667" lon="-0.23269">
        <ele>44</ele>
        <time>2017-09-16T08:50:27Z</time>
      </trkpt>
      <trkpt lat="47.59662" lon="-0.23263">
        <ele>43.8</ele>
        <time>2017-09-16T08:50:32Z</time>
      </trkpt>
      <trkpt lat="47.59657" lon="-0.23258">
        <ele>43.7</ele>
        <time>2017-09-16T08:50:37Z</time>
      </trkpt>
      <trkpt lat="47.59654" lon="-0.23253">
        <ele>43.5</ele>
        <time>2017-09-16T08:50:42Z</time>
      </trkpt>
      <trkpt lat="47.59649" lon="-0.2325">
        <ele>43.4</ele>
        <time>2017-09-16T08:50:47Z</time>
      </trkpt>
      <trkpt lat="47.59644" lon="-0.23247">
        <ele>43.2</ele>
        <time>2017-09-16T08:50:52Z</time>
      </trkpt>
      <trkpt lat="47.59638" lon="-0.23243">
        <ele>43</ele>
        <time>2017-09-16T08:50:57Z</time>
      </trkpt>
      <trkpt lat="47.59633" lon="-0.2324">
        <ele>43</ele>
        <time>2017-09-16T08:51:02Z</time>
      </trkpt>
      <trkpt lat="47.59628" lon="-0.23235">
        <ele>43</ele>
        <time>2017-09-16T08:51:07Z</time>
      </trkpt>
      <trkpt lat="47.59623" lon="-0.23229">
        <ele>43</ele>
        <time>2017-09-16T08:51:12Z</time>
      </trkpt>
      <trkpt lat="47.59619" lon="-0.23222">
        <ele>43</ele>
        <time>2017-09-16T08:51:17Z</time>
      </trkpt>
      <trkpt lat="47.59613" lon="-0.23223">
        <ele>43</ele>
        <time>2017-09-16T08:51:22Z</time>
      </trkpt>
      <trkpt lat="47.59612" lon="-0.23217">
        <ele>43</ele>
        <time>2017-09-16T08:51:27Z</time>
      </trkpt>
      <trkpt lat="47.59604" lon="-0.23217">
        <ele>43</ele>
        <time>2017-09-16T08:51:32Z</time>
      </trkpt>
      <trkpt lat="47.596" lon="-0.23215">
        <ele>43</ele>
        <time>2017-09-16T08:51:37Z</time>
      </trkpt>
      <trkpt lat="47.59593" lon="-0.2321">
        <ele>43</ele>
        <time>2017-09-16T08:51:42Z</time>
      </trkpt>
      <trkpt lat="47.59588" lon="-0.23208">
        <ele>43</ele>
        <time>2017-09-16T08:51:47Z</time>
      </trkpt>
      <trkpt lat="47.59582" lon="-0.23206">
        <ele>43</ele>
        <time>2017-09-16T08:51:52Z</time>
      </trkpt>
      <trkpt lat="47.59577" lon="-0.23204">
        <ele>43</ele>
        <time>2017-09-16T08:51:57Z</time>
      </trkpt>
      <trkpt lat="47.5957" lon="-0.23199">
        <ele>43</ele>
        <time>2017-09-16T08:52:02Z</time>
      </trkpt>
      <trkpt lat="47.59564" lon="-0.23195">
        <ele>43</ele>
        <time>2017-09-16T08:52:07Z</time>
      </trkpt>
      <trkpt lat="47.59561" lon="-0.23192">
        <ele>43</ele>
        <time>2017-09-16T08:52:12Z</time>
      </trkpt>
      <trkpt lat="47.59557" lon="-0.23191">
        <ele>43</ele>
        <time>2017-09-16T08:52:17Z</time>
      </trkpt>
      <trkpt lat="47.59553" lon="-0.2319">
        <ele>43</ele>
        <time>2017-09-16T08:52:22Z</time>
      </trkpt>
      <trkpt lat="47.5955" lon="-0.23186">
        <ele>43</ele>
        <time>2017-09-16T08:52:27Z</time>
      </trkpt>
      <trkpt lat="47.59544" lon="-0.23183">
        <ele>43</ele>
        <time>2017-09-16T08:52:32Z</time>
      </trkpt>
      <trkpt lat="47.59537" lon="-0.23178">
        <ele>43</ele>
        <time>2017-09-16T08:52:37Z</time>
      </trkpt>
      <trkpt lat="47.59532" lon="-0.23175">
        <ele>43</ele>
        <time>2017-09-16T08:52:42Z</time>
      </trkpt>
      <trkpt lat="47.59526" lon="-0.23171">
        <ele>43</ele>
        <time>2017-09-16T08:52:47Z</time>
      </trkpt>
      <trkpt lat="47.59521" lon="-0.23168">
        <ele>43</ele>
        <time>2017-09-16T08:52:52Z</time>
      </trkpt>
      <trkpt lat="47.59513" lon="-0.23165">
        <ele>43</ele>
        <time>2017-09-16T08:52:57Z</time>
      </trkpt>
      <trkpt lat="47.59506" lon="-0.23162">
        <ele>43</ele>
        <time>2017-09-16T08:53:02Z</time>
      </trkpt>
      <trkpt lat="47.59502" lon="-0.23161">
        <ele>43</ele>
        <time>2017-09-16T08:53:07Z</time>
      </trkpt>
      <trkpt lat="47.59495" lon="-0.23159">
        <ele>43</ele>
        <time>2017-09-16T08:53:12Z</time>
      </trkpt>
      <trkpt lat="47.59489" lon="-0.23159">
        <ele>43</ele>
        <time>2017-09-16T08:53:17Z</time>
      </trkpt>
      <trkpt lat="47.59488" lon="-0.23152">
        <ele>43</ele>
        <time>2017-09-16T08:53:22Z</time>
      </trkpt>
      <trkpt lat="47.59484" lon="-0.23147">
        <ele>43</ele>
        <time>2017-09-16T08:53:27Z</time>
      </trkpt>
      <trkpt lat="47.5948" lon="-0.23143">
        <ele>43</ele>
        <time>2017-09-16T08:53:32Z</time>
      </trkpt>
      <trkpt lat="47.59476" lon="-0.23138">
        <ele>43</ele>
        <time>2017-09-16T08:53:37Z</time>
      </trkpt>
      <trkpt lat="47.59469" lon="-0.23135">
        <ele>43</ele>
        <time>2017-09-16T08:53:42Z</time>
      </trkpt>
      <trkpt lat="47.59464" lon="-0.23131">
        <ele>43</ele>
        <time>2017-09-16T08:53:47Z</time>
      </trkpt>
      <trkpt lat="47.5946" lon="-0.23131">
        <ele>43</ele>
        <time>2017-09-16T08:53:52Z</time>
      </trkpt>
      <trkpt lat="47.59454" lon="-0.23128">
        <ele>43</ele>
        <time>2017-09-16T08:53:57Z</time>
      </trkpt>
      <trkpt lat="47.59449" lon="-0.23127">
        <ele>43</ele>
        <time>2017-09-16T08:54:02Z</time>
      </trkpt>
      <trkpt lat="47.59442" lon="-0.23125">
        <ele>43</ele>
        <time>2017-09-16T08:54:07Z</time>
      </trkpt>
      <trkpt lat="47.59441" lon="-0.23122">
        <ele>43</ele>
        <time>2017-09-16T08:54:12Z</time>
      </trkpt>
      <trkpt lat="47.5944" lon="-0.23121">
        <ele>43</ele>
        <time>2017-09-16T08:54:17Z</time>
      </trkpt>
      <trkpt lat="47.59441" lon="-0.23121">
        <ele>43</ele>
        <time>2017-09-16T08:54:22Z</time>
      </trkpt>
      <trkpt lat="47.59442" lon="-0.23118">
        <ele>43</ele>
        <time>2017-09-16T08:54:27Z</time>
      </trkpt>
      <trkpt lat="47.59439" lon="-0.23117">
        <ele>43</ele>
        <time>2017-09-16T08:54:32Z</time>
      </trkpt>
      <trkpt lat="47.59436" lon="-0.23113">
        <ele>43</ele>
        <time>2017-09-16T08:54:37Z</time>
      </trkpt>
      <trkpt lat="47.5943" lon="-0.23109">
        <ele>43</ele>
        <time>2017-09-16T08:54:42Z</time>
      </trkpt>
      <trkpt lat="47.59425" lon="-0.23104">
        <ele>43</ele>
        <time>2017-09-16T08:54:47Z</time>
      </trkpt>
      <trkpt lat="47.5942" lon="-0.23101">
        <ele>43</ele>
        <time>2017-09-16T08:54:52Z</time>
      </trkpt>
      <trkpt lat="47.59411" lon="-0.23101">
        <ele>43</ele>
        <time>2017-09-16T08:54:57Z</time>
      </trkpt>
      <trkpt lat="47.59405" lon="-0.231">
        <ele>43</ele>
        <time>2017-09-16T08:55:02Z</time>
      </trkpt>
      <trkpt lat="47.59396" lon="-0.23099">
        <ele>43</ele>
        <time>2017-09-16T08:55:07Z</time>
      </trkpt>
      <trkpt lat="47.59389" lon="-0.23096">
        <ele>43</ele>
        <time>2017-09-16T08:55:12Z</time>
      </trkpt>
      <trkpt lat="47.59382" lon="-0.23093">
        <ele>43</ele>
        <time>2017-09-16T08:55:17Z</time>
      </trkpt>
      <trkpt lat="47.59374" lon="-0.23091">
        <ele>43</ele>
        <time>2017-09-16T08:55:22Z</time>
      </trkpt>
      <trkpt lat="47.59368" lon="-0.23088">
        <ele>43</ele>
        <time>2017-09-16T08:55:27Z</time>
      </trkpt>
      <trkpt lat="47.59363" lon="-0.23087">
        <ele>43</ele>
        <time>2017-09-16T08:55:32Z</time>
      </trkpt>
      <trkpt lat="47.59358" lon="-0.23082">
        <ele>43</ele>
        <time>2017-09-16T08:55:37Z</time>
      </trkpt>
      <trkpt lat="47.59351" lon="-0.23077">
        <ele>43</ele>
        <time>2017-09-16T08:55:42Z</time>
      </trkpt>
      <trkpt lat="47.59347" lon="-0.23074">
        <ele>43</ele>
        <time>2017-09-16T08:55:47Z</time>
      </trkpt>
      <trkpt lat="47.59344" lon="-0.23071">
        <ele>43</ele>
        <time>2017-09-16T08:55:52Z</time>
      </trkpt>
      <trkpt lat="47.59338" lon="-0.23065">
        <ele>43</ele>
        <time>2017-09-16T08:55:57Z</time>
      </trkpt>
      <trkpt lat="47.59333" lon="-0.23062">
        <ele>43</ele>
        <time>2017-09-16T08:56:02Z</time>
      </trkpt>
      <trkpt lat="47.59327" lon="-0.23059">
        <ele>43</ele>
        <time>2017-09-16T08:56:07Z</time>
      </trkpt>
      <trkpt lat="47.59322" lon="-0.23056">
        <ele>43</ele>
        <time>2017-09-16T08:56:12Z</time>
      </trkpt>
      <trkpt lat="47.59317" lon="-0.2305">
        <ele>43</ele>
        <time>2017-09-16T08:56:17Z</time>
      </trkpt>
      <trkpt lat="47.5931" lon="-0.23048">
        <ele>43</ele>
        <time>2017-09-16T08:56:22Z</time>
      </trkpt>
      <trkpt lat="47.59306" lon="-0.23043">
        <ele>43</ele>
        <time>2017-09-16T08:56:27Z</time>
      </trkpt>
      <trkpt lat="47.593" lon="-0.2304">
        <ele>43</ele>
        <time>2017-09-16T08:56:32Z</time>
      </trkpt>
      <trkpt lat="47.59294" lon="-0.23039">
        <ele>43</ele>
        <time>2017-09-16T08:56:37Z</time>
      </trkpt>
      <trkpt lat="47.59287" lon="-0.23034">
        <ele>43</ele>
        <time>2017-09-16T08:56:42Z</time>
      </trkpt>
      <trkpt lat="47.59277" lon="-0.23032">
        <ele>43</ele>
        <time>2017-09-16T08:56:47Z</time>
      </trkpt>
      <trkpt lat="47.59273" lon="-0.23029">
        <ele>43</ele>
        <time>2017-09-16T08:56:52Z</time>
      </trkpt>
      <trkpt lat="47.59268" lon="-0.23028">
        <ele>43</ele>
        <time>2017-09-16T08:56:57Z</time>
      </trkpt>
      <trkpt lat="47.59264" lon="-0.23023">
        <ele>43</ele>
        <time>2017-09-16T08:57:02Z</time>
      </trkpt>
      <trkpt lat="47.59256" lon="-0.2302">
        <ele>43</ele>
        <time>2017-09-16T08:57:07Z</time>
      </trkpt>
      <trkpt lat="47.59252" lon="-0.23018">
        <ele>43</ele>
        <time>2017-09-16T08:57:12Z</time>
      </trkpt>
      <trkpt lat="47.59251" lon="-0.23014">
        <ele>43</ele>
        <time>2017-09-16T08:57:17Z</time>
      </trkpt>
      <trkpt lat="47.59246" lon="-0.23011">
        <ele>43.1</ele>
        <time>2017-09-16T08:57:22Z</time>
      </trkpt>
      <trkpt lat="47.59242" lon="-0.23008">
        <ele>43.1</ele>
        <time>2017-09-16T08:57:27Z</time>
      </trkpt>
      <trkpt lat="47.59238" lon="-0.23005">
        <ele>43.1</ele>
        <time>2017-09-16T08:57:32Z</time>
      </trkpt>
      <trkpt lat="47.59232" lon="-0.23002">
        <ele>43</ele>
        <time>2017-09-16T08:57:37Z</time>
      </trkpt>
      <trkpt lat="47.59225" lon="-0.22999">
        <ele>43</ele>
        <time>2017-09-16T08:57:42Z</time>
      </trkpt>
      <trkpt lat="47.59221" lon="-0.22998">
        <ele>43</ele>
        <time>2017-09-16T08:57:47Z</time>
      </trkpt>
      <trkpt lat="47.59218" lon="-0.22996">
        <ele>43</ele>
        <time>2017-09-16T08:57:52Z</time>
      </trkpt>
      <trkpt lat="47.59214" lon="-0.22991">
        <ele>43</ele>
        <time>2017-09-16T08:57:57Z</time>
      </trkpt>
      <trkpt lat="47.59211" lon="-0.22987">
        <ele>43</ele>
        <time>2017-09-16T08:58:02Z</time>
      </trkpt>
      <trkpt lat="47.59206" lon="-0.22985">
        <ele>43</ele>
        <time>2017-09-16T08:58:07Z</time>
      </trkpt>
      <trkpt lat="47.59203" lon="-0.22981">
        <ele>43</ele>
        <time>2017-09-16T08:58:12Z</time>
      </trkpt>
      <trkpt lat="47.59197" lon="-0.2298">
        <ele>43</ele>
        <time>2017-09-16T08:58:17Z</time>
      </trkpt>
      <trkpt lat="47.59189" lon="-0.22981">
        <ele>43.1</ele>
        <time>2017-09-16T08:58:22Z</time>
      </trkpt>
      <trkpt lat="47.59182" lon="-0.22981">
        <ele>43.1</ele>
        <time>2017-09-16T08:58:27Z</time>
      </trkpt>
      <trkpt lat="47.59174" lon="-0.2298">
        <ele>43.2</ele>
        <time>2017-09-16T08:58:32Z</time>
      </trkpt>
      <trkpt lat="47.5917" lon="-0.22977">
        <ele>43.1</ele>
        <time>2017-09-16T08:58:37Z</time>
      </trkpt>
      <trkpt lat="47.59163" lon="-0.22974">
        <ele>43.1</ele>
        <time>2017-09-16T08:58:42Z</time>
      </trkpt>
      <trkpt lat="47.59159" lon="-0.22971">
        <ele>43</ele>
        <time>2017-09-16T08:58:47Z</time>
      </trkpt>
      <trkpt lat="47.59155" lon="-0.22967">
        <ele>43</ele>
        <time>2017-09-16T08:58:52Z</time>
      </trkpt>
      <trkpt lat="47.5915" lon="-0.22964">
        <ele>43</ele>
        <time>2017-09-16T08:58:57Z</time>
      </trkpt>
      <trkpt lat="47.59145" lon="-0.22961">
        <ele>43</ele>
        <time>2017-09-16T08:59:02Z</time>
      </trkpt>
      <trkpt lat="47.5914" lon="-0.2296">
        <ele>43</ele>
        <time>2017-09-16T08:59:07Z</time>
      </trkpt>
      <trkpt lat="47.59135" lon="-0.22956">
        <ele>43</ele>
        <time>2017-09-16T08:59:12Z</time>
      </trkpt>
      <trkpt lat="47.59129" lon="-0.22953">
        <ele>43</ele>
        <time>2017-09-16T08:59:17Z</time>
      </trkpt>
      <trkpt lat="47.59124" lon="-0.2295">
        <ele>43</ele>
        <time>2017-09-16T08:59:22Z</time>
      </trkpt>
      <trkpt lat="47.59119" lon="-0.22947">
        <ele>43</ele>
        <time>2017-09-16T08:59:27Z</time>
      </trkpt>
      <trkpt lat="47.59114" lon="-0.22944">
        <ele>43</ele>
        <time>2017-09-16T08:59:32Z</time>
      </trkpt>
      <trkpt lat="47.5911" lon="-0.22942">
        <ele>43</ele>
        <time>2017-09-16T08:59:37Z</time>
      </trkpt>
      <trkpt lat="47.59106" lon="-0.22939">
        <ele>43</ele>
        <time>2017-09-16T08:59:42Z</time>
      </trkpt>
      <trkpt lat="47.59101" lon="-0.22937">
        <ele>43</ele>
        <time>2017-09-16T08:59:47Z</time>
      </trkpt>
      <trkpt lat="47.59098" lon="-0.22932">
        <ele>43</ele>
        <time>2017-09-16T08:59:52Z</time>
      </trkpt>
      <trkpt lat="47.59093" lon="-0.2293">
        <ele>43</ele>
        <time>2017-09-16T08:59:57Z</time>
      </trkpt>
      <trkpt lat="47.59087" lon="-0.22927">
        <ele>43</ele>
        <time>2017-09-16T09:00:02Z</time>
      </trkpt>
      <trkpt lat="47.59083" lon="-0.22924">
        <ele>43</ele>
        <time>2017-09-16T09:00:07Z</time>
      </trkpt>
      <trkpt lat="47.59078" lon="-0.22921">
        <ele>42.8</ele>
        <time>2017-09-16T09:00:12Z</time>
      </trkpt>
      <trkpt lat="47.59073" lon="-0.22919">
        <ele>42.6</ele>
        <time>2017-09-16T09:00:17Z</time>
      </trkpt>
      <trkpt lat="47.59067" lon="-0.22916">
        <ele>42.4</ele>
        <time>2017-09-16T09:00:22Z</time>
      </trkpt>
      <trkpt lat="47.59062" lon="-0.22913">
        <ele>42.2</ele>
        <time>2017-09-16T09:00:27Z</time>
      </trkpt>
      <trkpt lat="47.59057" lon="-0.22909">
        <ele>42</ele>
        <time>2017-09-16T09:00:32Z</time>
      </trkpt>
      <trkpt lat="47.59051" lon="-0.22906">
        <ele>42</ele>
        <time>2017-09-16T09:00:37Z</time>
      </trkpt>
      <trkpt lat="47.59046" lon="-0.22902">
        <ele>42</ele>
        <time>2017-09-16T09:00:42Z</time>
      </trkpt>
      <trkpt lat="47.5904" lon="-0.229">
        <ele>42</ele>
        <time>2017-09-16T09:00:47Z</time>
      </trkpt>
      <trkpt lat="47.59034" lon="-0.22896">
        <ele>42</ele>
        <time>2017-09-16T09:00:52Z</time>
      </trkpt>
      <trkpt lat="47.5903" lon="-0.22892">
        <ele>42</ele>
        <time>2017-09-16T09:00:57Z</time>
      </trkpt>
      <trkpt lat="47.59024" lon="-0.2289">
        <ele>42</ele>
        <time>2017-09-16T09:01:02Z</time>
      </trkpt>
      <trkpt lat="47.59018" lon="-0.22885">
        <ele>42</ele>
        <time>2017-09-16T09:01:07Z</time>
      </trkpt>
      <trkpt lat="47.59012" lon="-0.22881">
        <ele>41.8</ele>
        <time>2017-09-16T09:01:12Z</time>
      </trkpt>
      <trkpt lat="47.59007" lon="-0.22878">
        <ele>41.7</ele>
        <time>2017-09-16T09:01:17Z</time>
      </trkpt>
      <trkpt lat="47.59001" lon="-0.22875">
        <ele>41.5</ele>
        <time>2017-09-16T09:01:22Z</time>
      </trkpt>
      <trkpt lat="47.58995" lon="-0.22871">
        <ele>41.3</ele>
        <time>2017-09-16T09:01:27Z</time>
      </trkpt>
      <trkpt lat="47.58988" lon="-0.22867">
        <ele>41.1</ele>
        <time>2017-09-16T09:01:32Z</time>
      </trkpt>
      <trkpt lat="47.58984" lon="-0.22864">
        <ele>41</ele>
        <time>2017-09-16T09:01:37Z</time>
      </trkpt>
      <trkpt lat="47.5898" lon="-0.22861">
        <ele>41</ele>
        <time>2017-09-16T09:01:42Z</time>
      </trkpt>
      <trkpt lat="47.58974" lon="-0.22858">
        <ele>41</ele>
        <time>2017-09-16T09:01:47Z</time>
      </trkpt>
      <trkpt lat="47.58969" lon="-0.22857">
        <ele>41</ele>
        <time>2017-09-16T09:01:52Z</time>
      </trkpt>
      <trkpt lat="47.58962" lon="-0.22856">
        <ele>41</ele>
        <time>2017-09-16T09:01:57Z</time>
      </trkpt>
      <trkpt lat="47.58957" lon="-0.22854">
        <ele>41</ele>
        <time>2017-09-16T09:02:02Z</time>
      </trkpt>
      <trkpt lat="47.58951" lon="-0.22852">
        <ele>41</ele>
        <time>2017-09-16T09:02:07Z</time>
      </trkpt>
      <trkpt lat="47.58946" lon="-0.22849">
        <ele>41</ele>
        <time>2017-09-16T09:02:12Z</time>
      </trkpt>
      <trkpt lat="47.58941" lon="-0.22844">
        <ele>41</ele>
        <time>2017-09-16T09:02:17Z</time>
      </trkpt>
      <trkpt lat="47.58934" lon="-0.2284">
        <ele>41</ele>
        <time>2017-09-16T09:02:22Z</time>
      </trkpt>
      <trkpt lat="47.58929" lon="-0.22837">
        <ele>41</ele>
        <time>2017-09-16T09:02:27Z</time>
      </trkpt>
      <trkpt lat="47.58924" lon="-0.22835">
        <ele>41</ele>
        <time>2017-09-16T09:02:32Z</time>
      </trkpt>
      <trkpt lat="47.58918" lon="-0.22834">
        <ele>41</ele>
        <time>2017-09-16T09:02:37Z</time>
      </trkpt>
      <trkpt lat="47.58911" lon="-0.22832">
        <ele>40.9</ele>
        <time>2017-09-16T09:02:42Z</time>
      </trkpt>
      <trkpt lat="47.58908" lon="-0.22828">
        <ele>40.8</ele>
        <time>2017-09-16T09:02:47Z</time>
      </trkpt>
      <trkpt lat="47.58901" lon="-0.22828">
        <ele>40.8</ele>
        <time>2017-09-16T09:02:52Z</time>
      </trkpt>
      <trkpt lat="47.58898" lon="-0.22826">
        <ele>40.7</ele>
        <time>2017-09-16T09:02:57Z</time>
      </trkpt>
      <trkpt lat="47.58892" lon="-0.22823">
        <ele>40.6</ele>
        <time>2017-09-16T09:03:02Z</time>
      </trkpt>
      <trkpt lat="47.58891" lon="-0.2282">
        <ele>40.5</ele>
        <time>2017-09-16T09:03:07Z</time>
      </trkpt>
      <trkpt lat="47.58887" lon="-0.22817">
        <ele>40.4</ele>
        <time>2017-09-16T09:03:12Z</time>
      </trkpt>
      <trkpt lat="47.58883" lon="-0.22813">
        <ele>40.4</ele>
        <time>2017-09-16T09:03:17Z</time>
      </trkpt>
      <trkpt lat="47.5888" lon="-0.22813">
        <ele>40.5</ele>
        <time>2017-09-16T09:03:22Z</time>
      </trkpt>
      <trkpt lat="47.58878" lon="-0.22806">
        <ele>40.4</ele>
        <time>2017-09-16T09:03:27Z</time>
      </trkpt>
      <trkpt lat="47.58868" lon="-0.22802">
        <ele>40.8</ele>
        <time>2017-09-16T09:03:32Z</time>
      </trkpt>
      <trkpt lat="47.58864" lon="-0.22797">
        <ele>40.9</ele>
        <time>2017-09-16T09:03:37Z</time>
      </trkpt>
      <trkpt lat="47.58861" lon="-0.22794">
        <ele>41</ele>
        <time>2017-09-16T09:03:42Z</time>
      </trkpt>
      <trkpt lat="47.58859" lon="-0.2279">
        <ele>41</ele>
        <time>2017-09-16T09:03:47Z</time>
      </trkpt>
      <trkpt lat="47.58853" lon="-0.22791">
        <ele>41</ele>
        <time>2017-09-16T09:03:52Z</time>
      </trkpt>
      <trkpt lat="47.5885" lon="-0.22788">
        <ele>41</ele>
        <time>2017-09-16T09:03:57Z</time>
      </trkpt>
      <trkpt lat="47.58843" lon="-0.22788">
        <ele>41</ele>
        <time>2017-09-16T09:04:02Z</time>
      </trkpt>
      <trkpt lat="47.58838" lon="-0.22785">
        <ele>41</ele>
        <time>2017-09-16T09:04:07Z</time>
      </trkpt>
      <trkpt lat="47.58833" lon="-0.22782">
        <ele>41</ele>
        <time>2017-09-16T09:04:12Z</time>
      </trkpt>
      <trkpt lat="47.58827" lon="-0.22781">
        <ele>41</ele>
        <time>2017-09-16T09:04:17Z</time>
      </trkpt>
      <trkpt lat="47.58822" lon="-0.22779">
        <ele>41</ele>
        <time>2017-09-16T09:04:22Z</time>
      </trkpt>
      <trkpt lat="47.58815" lon="-0.22777">
        <ele>41</ele>
        <time>2017-09-16T09:04:27Z</time>
      </trkpt>
      <trkpt lat="47.58809" lon="-0.22773">
        <ele>41</ele>
        <time>2017-09-16T09:04:32Z</time>
      </trkpt>
      <trkpt lat="47.58804" lon="-0.22771">
        <ele>41.1</ele>
        <time>2017-09-16T09:04:37Z</time>
      </trkpt>
      <trkpt lat="47.58801" lon="-0.22766">
        <ele>41.2</ele>
        <time>2017-09-16T09:04:42Z</time>
      </trkpt>
      <trkpt lat="47.58796" lon="-0.22764">
        <ele>41.3</ele>
        <time>2017-09-16T09:04:47Z</time>
      </trkpt>
      <trkpt lat="47.58793" lon="-0.22762">
        <ele>41.4</ele>
        <time>2017-09-16T09:04:52Z</time>
      </trkpt>
      <trkpt lat="47.58791" lon="-0.22763">
        <ele>41.5</ele>
        <time>2017-09-16T09:04:57Z</time>
      </trkpt>
      <trkpt lat="47.58791" lon="-0.22762">
        <ele>41.5</ele>
        <time>2017-09-16T09:05:02Z</time>
      </trkpt>
      <trkpt lat="47.58791" lon="-0.22763">
        <ele>41.5</ele>
        <time>2017-09-16T09:05:07Z</time>
      </trkpt>
      <trkpt lat="47.58791" lon="-0.22763">
        <ele>41.5</ele>
        <time>2017-09-16T09:05:12Z</time>
      </trkpt>
      <trkpt lat="47.58791" lon="-0.22759">
        <ele>41.5</ele>
        <time>2017-09-16T09:05:17Z</time>
      </trkpt>
      <trkpt lat="47.58791" lon="-0.22757">
        <ele>41.5</ele>
        <time>2017-09-16T09:05:22Z</time>
      </trkpt>
      <trkpt lat="47.58787" lon="-0.22749">
        <ele>41.6</ele>
        <time>2017-09-16T09:05:27Z</time>
      </trkpt>
      <trkpt lat="47.58784" lon="-0.22743">
        <ele>41.6</ele>
        <time>2017-09-16T09:05:32Z</time>
      </trkpt>
      <trkpt lat="47.58783" lon="-0.22736">
        <ele>41.4</ele>
        <time>2017-09-16T09:05:37Z</time>
      </trkpt>
      <trkpt lat="47.5878" lon="-0.22731">
        <ele>41.3</ele>
        <time>2017-09-16T09:05:42Z</time>
      </trkpt>
      <trkpt lat="47.58775" lon="-0.22727">
        <ele>41.3</ele>
        <time>2017-09-16T09:05:47Z</time>
      </trkpt>
      <trkpt lat="47.58772" lon="-0.22723">
        <ele>41.2</ele>
        <time>2017-09-16T09:05:52Z</time>
      </trkpt>
      <trkpt lat="47.58768" lon="-0.22718">
        <ele>41.3</ele>
        <time>2017-09-16T09:05:57Z</time>
      </trkpt>
      <trkpt lat="47.58766" lon="-0.22713">
        <ele>41.4</ele>
        <time>2017-09-16T09:06:02Z</time>
      </trkpt>
      <trkpt lat="47.58762" lon="-0.22707">
        <ele>41.6</ele>
        <time>2017-09-16T09:06:07Z</time>
      </trkpt>
      <trkpt lat="47.58759" lon="-0.22701">
        <ele>41.7</ele>
        <time>2017-09-16T09:06:12Z</time>
      </trkpt>
      <trkpt lat="47.58756" lon="-0.22695">
        <ele>41.8</ele>
        <time>2017-09-16T09:06:17Z</time>
      </trkpt>
      <trkpt lat="47.58753" lon="-0.22687">
        <ele>41.6</ele>
        <time>2017-09-16T09:06:22Z</time>
      </trkpt>
      <trkpt lat="47.58753" lon="-0.22679">
        <ele>41.4</ele>
        <time>2017-09-16T09:06:27Z</time>
      </trkpt>
      <trkpt lat="47.58747" lon="-0.22673">
        <ele>41.3</ele>
        <time>2017-09-16T09:06:32Z</time>
      </trkpt>
      <trkpt lat="47.58747" lon="-0.22664">
        <ele>41.1</ele>
        <time>2017-09-16T09:06:37Z</time>
      </trkpt>
      <trkpt lat="47.58746" lon="-0.22655">
        <ele>41.1</ele>
        <time>2017-09-16T09:06:42Z</time>
      </trkpt>
      <trkpt lat="47.58745" lon="-0.22651">
        <ele>41.2</ele>
        <time>2017-09-16T09:06:47Z</time>
      </trkpt>
      <trkpt lat="47.58743" lon="-0.22649">
        <ele>41.3</ele>
        <time>2017-09-16T09:06:52Z</time>
      </trkpt>
      <trkpt lat="47.5874" lon="-0.22649">
        <ele>41.4</ele>
        <time>2017-09-16T09:06:57Z</time>
      </trkpt>
      <trkpt lat="47.58734" lon="-0.22649">
        <ele>41.6</ele>
        <time>2017-09-16T09:07:02Z</time>
      </trkpt>
      <trkpt lat="47.58729" lon="-0.2265">
        <ele>41.7</ele>
        <time>2017-09-16T09:07:07Z</time>
      </trkpt>
      <trkpt lat="47.58726" lon="-0.22654">
        <ele>41.9</ele>
        <time>2017-09-16T09:07:12Z</time>
      </trkpt>
      <trkpt lat="47.58724" lon="-0.22657">
        <ele>41.9</ele>
        <time>2017-09-16T09:07:17Z</time>
      </trkpt>
      <trkpt lat="47.58721" lon="-0.22658">
        <ele>42</ele>
        <time>2017-09-16T09:07:22Z</time>
      </trkpt>
      <trkpt lat="47.58715" lon="-0.22659">
        <ele>42</ele>
        <time>2017-09-16T09:07:27Z</time>
      </trkpt>
      <trkpt lat="47.58707" lon="-0.22662">
        <ele>42</ele>
        <time>2017-09-16T09:07:32Z</time>
      </trkpt>
      <trkpt lat="47.58699" lon="-0.22666">
        <ele>42</ele>
        <time>2017-09-16T09:07:37Z</time>
      </trkpt>
      <trkpt lat="47.58694" lon="-0.22667">
        <ele>42</ele>
        <time>2017-09-16T09:07:42Z</time>
      </trkpt>
      <trkpt lat="47.58686" lon="-0.22673">
        <ele>42.2</ele>
        <time>2017-09-16T09:07:47Z</time>
      </trkpt>
      <trkpt lat="47.58685" lon="-0.22671">
        <ele>42.2</ele>
        <time>2017-09-16T09:07:52Z</time>
      </trkpt>
      <trkpt lat="47.58683" lon="-0.22672">
        <ele>42.2</ele>
        <time>2017-09-16T09:07:57Z</time>
      </trkpt>
      <trkpt lat="47.58677" lon="-0.22675">
        <ele>42.3</ele>
        <time>2017-09-16T09:08:02Z</time>
      </trkpt>
      <trkpt lat="47.58667" lon="-0.22675">
        <ele>42.3</ele>
        <time>2017-09-16T09:08:07Z</time>
      </trkpt>
      <trkpt lat="47.58662" lon="-0.22675">
        <ele>42.4</ele>
        <time>2017-09-16T09:08:12Z</time>
      </trkpt>
      <trkpt lat="47.58656" lon="-0.22674">
        <ele>42.6</ele>
        <time>2017-09-16T09:08:17Z</time>
      </trkpt>
      <trkpt lat="47.5865" lon="-0.22672">
        <ele>42.7</ele>
        <time>2017-09-16T09:08:22Z</time>
      </trkpt>
      <trkpt lat="47.58645" lon="-0.22669">
        <ele>42.8</ele>
        <time>2017-09-16T09:08:27Z</time>
      </trkpt>
      <trkpt lat="47.58638" lon="-0.2267">
        <ele>43</ele>
        <time>2017-09-16T09:08:32Z</time>
      </trkpt>
      <trkpt lat="47.58629" lon="-0.22673">
        <ele>43</ele>
        <time>2017-09-16T09:08:37Z</time>
      </trkpt>
      <trkpt lat="47.58621" lon="-0.22671">
        <ele>43</ele>
        <time>2017-09-16T09:08:42Z</time>
      </trkpt>
      <trkpt lat="47.5861" lon="-0.22672">
        <ele>43</ele>
        <time>2017-09-16T09:08:47Z</time>
      </trkpt>
      <trkpt lat="47.58615" lon="-0.22661">
        <ele>42.8</ele>
        <time>2017-09-16T09:08:52Z</time>
      </trkpt>
      <trkpt lat="47.58613" lon="-0.22657">
        <ele>42.7</ele>
        <time>2017-09-16T09:08:57Z</time>
      </trkpt>
      <trkpt lat="47.58606" lon="-0.22655">
        <ele>42.6</ele>
        <time>2017-09-16T09:09:02Z</time>
      </trkpt>
      <trkpt lat="47.586" lon="-0.22655">
        <ele>42.7</ele>
        <time>2017-09-16T09:09:07Z</time>
      </trkpt>
      <trkpt lat="47.58594" lon="-0.22654">
        <ele>42.8</ele>
        <time>2017-09-16T09:09:12Z</time>
      </trkpt>
      <trkpt lat="47.5859" lon="-0.22652">
        <ele>42.9</ele>
        <time>2017-09-16T09:09:17Z</time>
      </trkpt>
      <trkpt lat="47.58585" lon="-0.22651">
        <ele>43</ele>
        <time>2017-09-16T09:09:22Z</time>
      </trkpt>
      <trkpt lat="47.58579" lon="-0.22651">
        <ele>43.1</ele>
        <time>2017-09-16T09:09:27Z</time>
      </trkpt>
      <trkpt lat="47.58574" lon="-0.22652">
        <ele>43.3</ele>
        <time>2017-09-16T09:09:32Z</time>
      </trkpt>
      <trkpt lat="47.58569" lon="-0.22652">
        <ele>43.5</ele>
        <time>2017-09-16T09:09:37Z</time>
      </trkpt>
      <trkpt lat="47.58563" lon="-0.22656">
        <ele>43.7</ele>
        <time>2017-09-16T09:09:42Z</time>
      </trkpt>
      <trkpt lat="47.58557" lon="-0.22658">
        <ele>43.9</ele>
        <time>2017-09-16T09:09:47Z</time>
      </trkpt>
      <trkpt lat="47.58551" lon="-0.22659">
        <ele>44</ele>
        <time>2017-09-16T09:09:52Z</time>
      </trkpt>
      <trkpt lat="47.58543" lon="-0.22657">
        <ele>44</ele>
        <time>2017-09-16T09:09:57Z</time>
      </trkpt>
      <trkpt lat="47.58538" lon="-0.22658">
        <ele>44</ele>
        <time>2017-09-16T09:10:02Z</time>
      </trkpt>
      <trkpt lat="47.58522" lon="-0.22656">
        <ele>44.1</ele>
        <time>2017-09-16T09:10:07Z</time>
      </trkpt>
      <trkpt lat="47.58516" lon="-0.22657">
        <ele>44.3</ele>
        <time>2017-09-16T09:10:12Z</time>
      </trkpt>
      <trkpt lat="47.58512" lon="-0.22658">
        <ele>44.4</ele>
        <time>2017-09-16T09:10:17Z</time>
      </trkpt>
      <trkpt lat="47.58508" lon="-0.22659">
        <ele>44.5</ele>
        <time>2017-09-16T09:10:22Z</time>
      </trkpt>
      <trkpt lat="47.58502" lon="-0.22658">
        <ele>44.6</ele>
        <time>2017-09-16T09:10:27Z</time>
      </trkpt>
      <trkpt lat="47.58496" lon="-0.22657">
        <ele>44.6</ele>
        <time>2017-09-16T09:10:32Z</time>
      </trkpt>
      <trkpt lat="47.5849" lon="-0.2266">
        <ele>44.5</ele>
        <time>2017-09-16T09:10:37Z</time>
      </trkpt>
      <trkpt lat="47.58486" lon="-0.22662">
        <ele>44.4</ele>
        <time>2017-09-16T09:10:42Z</time>
      </trkpt>
      <trkpt lat="47.58482" lon="-0.22662">
        <ele>44.3</ele>
        <time>2017-09-16T09:10:47Z</time>
      </trkpt>
      <trkpt lat="47.58475" lon="-0.22662">
        <ele>44.1</ele>
        <time>2017-09-16T09:10:52Z</time>
      </trkpt>
      <trkpt lat="47.58468" lon="-0.22661">
        <ele>44</ele>
        <time>2017-09-16T09:10:57Z</time>
      </trkpt>
      <trkpt lat="47.58462" lon="-0.22662">
        <ele>44</ele>
        <time>2017-09-16T09:11:02Z</time>
      </trkpt>
      <trkpt lat="47.58458" lon="-0.22662">
        <ele>44</ele>
        <time>2017-09-16T09:11:07Z</time>
      </trkpt>
      <trkpt lat="47.58452" lon="-0.22664">
        <ele>44</ele>
        <time>2017-09-16T09:11:12Z</time>
      </trkpt>
      <trkpt lat="47.5845" lon="-0.22662">
        <ele>44</ele>
        <time>2017-09-16T09:11:17Z</time>
      </trkpt>
      <trkpt lat="47.58446" lon="-0.2266">
        <ele>44</ele>
        <time>2017-09-16T09:11:22Z</time>
      </trkpt>
      <trkpt lat="47.58445" lon="-0.22658">
        <ele>44</ele>
        <time>2017-09-16T09:11:27Z</time>
      </trkpt>
      <trkpt lat="47.58443" lon="-0.22654">
        <ele>44</ele>
        <time>2017-09-16T09:11:32Z</time>
      </trkpt>
      <trkpt lat="47.58439" lon="-0.2265">
        <ele>44</ele>
        <time>2017-09-16T09:11:37Z</time>
      </trkpt>
      <trkpt lat="47.58435" lon="-0.22647">
        <ele>44</ele>
        <time>2017-09-16T09:11:42Z</time>
      </trkpt>
      <trkpt lat="47.58434" lon="-0.22646">
        <ele>44</ele>
        <time>2017-09-16T09:11:47Z</time>
      </trkpt>
      <trkpt lat="47.58431" lon="-0.22643">
        <ele>44</ele>
        <time>2017-09-16T09:11:52Z</time>
      </trkpt>
      <trkpt lat="47.58429" lon="-0.22645">
        <ele>44</ele>
        <time>2017-09-16T09:11:57Z</time>
      </trkpt>
      <trkpt lat="47.58422" lon="-0.22643">
        <ele>44</ele>
        <time>2017-09-16T09:12:02Z</time>
      </trkpt>
      <trkpt lat="47.58415" lon="-0.22642">
        <ele>44</ele>
        <time>2017-09-16T09:12:07Z</time>
      </trkpt>
      <trkpt lat="47.58406" lon="-0.22641">
        <ele>44</ele>
        <time>2017-09-16T09:12:12Z</time>
      </trkpt>
      <trkpt lat="47.58399" lon="-0.22641">
        <ele>44</ele>
        <time>2017-09-16T09:12:17Z</time>
      </trkpt>
      <trkpt lat="47.5839" lon="-0.22641">
        <ele>44</ele>
        <time>2017-09-16T09:12:22Z</time>
      </trkpt>
      <trkpt lat="47.58381" lon="-0.2264">
        <ele>44</ele>
        <time>2017-09-16T09:12:27Z</time>
      </trkpt>
      <trkpt lat="47.58372" lon="-0.22642">
        <ele>44</ele>
        <time>2017-09-16T09:12:32Z</time>
      </trkpt>
      <trkpt lat="47.58367" lon="-0.22645">
        <ele>44</ele>
        <time>2017-09-16T09:12:37Z</time>
      </trkpt>
      <trkpt lat="47.5836" lon="-0.22645">
        <ele>44</ele>
        <time>2017-09-16T09:12:42Z</time>
      </trkpt>
      <trkpt lat="47.5836" lon="-0.22644">
        <ele>44</ele>
        <time>2017-09-16T09:12:47Z</time>
      </trkpt>
      <trkpt lat="47.58359" lon="-0.22644">
        <ele>44</ele>
        <time>2017-09-16T09:12:52Z</time>
      </trkpt>
      <trkpt lat="47.58358" lon="-0.22641">
        <ele>44</ele>
        <time>2017-09-16T09:12:57Z</time>
      </trkpt>
      <trkpt lat="47.58358" lon="-0.22636">
        <ele>44</ele>
        <time>2017-09-16T09:13:02Z</time>
      </trkpt>
      <trkpt lat="47.58347" lon="-0.22633">
        <ele>44</ele>
        <time>2017-09-16T09:13:07Z</time>
      </trkpt>
      <trkpt lat="47.58347" lon="-0.22633">
        <ele>44</ele>
        <time>2017-09-16T09:13:12Z</time>
      </trkpt>
      <trkpt lat="47.58347" lon="-0.22626">
        <ele>44</ele>
        <time>2017-09-16T09:13:17Z</time>
      </trkpt>
      <trkpt lat="47.58344" lon="-0.22622">
        <ele>44</ele>
        <time>2017-09-16T09:13:22Z</time>
      </trkpt>
      <trkpt lat="47.58341" lon="-0.22617">
        <ele>44</ele>
        <time>2017-09-16T09:13:27Z</time>
      </trkpt>
      <trkpt lat="47.58339" lon="-0.22608">
        <ele>44</ele>
        <time>2017-09-16T09:13:32Z</time>
      </trkpt>
      <trkpt lat="47.58336" lon="-0.226">
        <ele>44</ele>
        <time>2017-09-16T09:13:37Z</time>
      </trkpt>
      <trkpt lat="47.58336" lon="-0.22596">
        <ele>44</ele>
        <time>2017-09-16T09:13:42Z</time>
      </trkpt>
      <trkpt lat="47.58335" lon="-0.22589">
        <ele>44</ele>
        <time>2017-09-16T09:13:47Z</time>
      </trkpt>
      <trkpt lat="47.58334" lon="-0.22581">
        <ele>44</ele>
        <time>2017-09-16T09:13:52Z</time>
      </trkpt>
      <trkpt lat="47.58334" lon="-0.22579">
        <ele>44</ele>
        <time>2017-09-16T09:13:57Z</time>
      </trkpt>
      <trkpt lat="47.58331" lon="-0.22575">
        <ele>44</ele>
        <time>2017-09-16T09:14:02Z</time>
      </trkpt>
      <trkpt lat="47.58331" lon="-0.2257">
        <ele>44</ele>
        <time>2017-09-16T09:14:07Z</time>
      </trkpt>
      <trkpt lat="47.58329" lon="-0.22563">
        <ele>44</ele>
        <time>2017-09-16T09:14:12Z</time>
      </trkpt>
      <trkpt lat="47.58328" lon="-0.22557">
        <ele>44</ele>
        <time>2017-09-16T09:14:17Z</time>
      </trkpt>
      <trkpt lat="47.58327" lon="-0.22555">
        <ele>44</ele>
        <time>2017-09-16T09:14:22Z</time>
      </trkpt>
      <trkpt lat="47.58327" lon="-0.22552">
        <ele>44</ele>
        <time>2017-09-16T09:14:27Z</time>
      </trkpt>
      <trkpt lat="47.58322" lon="-0.22542">
        <ele>44</ele>
        <time>2017-09-16T09:14:32Z</time>
      </trkpt>
      <trkpt lat="47.58315" lon="-0.22541">
        <ele>44</ele>
        <time>2017-09-16T09:14:37Z</time>
      </trkpt>
      <trkpt lat="47.5831" lon="-0.22541">
        <ele>44</ele>
        <time>2017-09-16T09:14:42Z</time>
      </trkpt>
      <trkpt lat="47.58304" lon="-0.2254">
        <ele>44</ele>
        <time>2017-09-16T09:14:47Z</time>
      </trkpt>
      <trkpt lat="47.58299" lon="-0.22538">
        <ele>44</ele>
        <time>2017-09-16T09:14:52Z</time>
      </trkpt>
      <trkpt lat="47.58295" lon="-0.22539">
        <ele>44</ele>
        <time>2017-09-16T09:14:57Z</time>
      </trkpt>
      <trkpt lat="47.58287" lon="-0.22538">
        <ele>44</ele>
        <time>2017-09-16T09:15:02Z</time>
      </trkpt>
      <trkpt lat="47.58283" lon="-0.2254">
        <ele>44</ele>
        <time>2017-09-16T09:15:07Z</time>
      </trkpt>
      <trkpt lat="47.58275" lon="-0.2254">
        <ele>44</ele>
        <time>2017-09-16T09:15:12Z</time>
      </trkpt>
      <trkpt lat="47.58267" lon="-0.2254">
        <ele>44</ele>
        <time>2017-09-16T09:15:17Z</time>
      </trkpt>
      <trkpt lat="47.58263" lon="-0.22539">
        <ele>44</ele>
        <time>2017-09-16T09:15:22Z</time>
      </trkpt>
      <trkpt lat="47.58254" lon="-0.22538">
        <ele>44</ele>
        <time>2017-09-16T09:15:27Z</time>
      </trkpt>
      <trkpt lat="47.58249" lon="-0.22539">
        <ele>44</ele>
        <time>2017-09-16T09:15:32Z</time>
      </trkpt>
      <trkpt lat="47.58245" lon="-0.22536">
        <ele>44</ele>
        <time>2017-09-16T09:15:37Z</time>
      </trkpt>
      <trkpt lat="47.58245" lon="-0.22538">
        <ele>44</ele>
        <time>2017-09-16T09:15:42Z</time>
      </trkpt>
      <trkpt lat="47.58242" lon="-0.2254">
        <ele>44</ele>
        <time>2017-09-16T09:15:47Z</time>
      </trkpt>
      <trkpt lat="47.58236" lon="-0.22544">
        <ele>44</ele>
        <time>2017-09-16T09:15:52Z</time>
      </trkpt>
      <trkpt lat="47.58226" lon="-0.2254">
        <ele>44</ele>
        <time>2017-09-16T09:15:57Z</time>
      </trkpt>
      <trkpt lat="47.58224" lon="-0.2254">
        <ele>44</ele>
        <time>2017-09-16T09:16:02Z</time>
      </trkpt>
      <trkpt lat="47.58222" lon="-0.2254">
        <ele>44</ele>
        <time>2017-09-16T09:16:07Z</time>
      </trkpt>
      <trkpt lat="47.58218" lon="-0.22538">
        <ele>44.1</ele>
        <time>2017-09-16T09:16:12Z</time>
      </trkpt>
      <trkpt lat="47.58215" lon="-0.22537">
        <ele>44.2</ele>
        <time>2017-09-16T09:16:17Z</time>
      </trkpt>
      <trkpt lat="47.58209" lon="-0.22535">
        <ele>44.3</ele>
        <time>2017-09-16T09:16:22Z</time>
      </trkpt>
      <trkpt lat="47.58206" lon="-0.22534">
        <ele>44.4</ele>
        <time>2017-09-16T09:16:27Z</time>
      </trkpt>
      <trkpt lat="47.58205" lon="-0.22533">
        <ele>44.5</ele>
        <time>2017-09-16T09:16:32Z</time>
      </trkpt>
      <trkpt lat="47.58198" lon="-0.22532">
        <ele>44.7</ele>
        <time>2017-09-16T09:16:37Z</time>
      </trkpt>
      <trkpt lat="47.58194" lon="-0.22529">
        <ele>44.9</ele>
        <time>2017-09-16T09:16:42Z</time>
      </trkpt>
      <trkpt lat="47.58189" lon="-0.22529">
        <ele>45</ele>
        <time>2017-09-16T09:16:47Z</time>
      </trkpt>
      <trkpt lat="47.58185" lon="-0.22529">
        <ele>45</ele>
        <time>2017-09-16T09:16:52Z</time>
      </trkpt>
      <trkpt lat="47.58178" lon="-0.22527">
        <ele>45</ele>
        <time>2017-09-16T09:16:57Z</time>
      </trkpt>
      <trkpt lat="47.58171" lon="-0.22525">
        <ele>45</ele>
        <time>2017-09-16T09:17:02Z</time>
      </trkpt>
      <trkpt lat="47.58163" lon="-0.22522">
        <ele>45</ele>
        <time>2017-09-16T09:17:07Z</time>
      </trkpt>
      <trkpt lat="47.58155" lon="-0.22519">
        <ele>45</ele>
        <time>2017-09-16T09:17:12Z</time>
      </trkpt>
      <trkpt lat="47.58151" lon="-0.22517">
        <ele>45</ele>
        <time>2017-09-16T09:17:17Z</time>
      </trkpt>
      <trkpt lat="47.58146" lon="-0.22513">
        <ele>45</ele>
        <time>2017-09-16T09:17:22Z</time>
      </trkpt>
      <trkpt lat="47.58141" lon="-0.22511">
        <ele>45</ele>
        <time>2017-09-16T09:17:27Z</time>
      </trkpt>
      <trkpt lat="47.58137" lon="-0.22508">
        <ele>45</ele>
        <time>2017-09-16T09:17:32Z</time>
      </trkpt>
      <trkpt lat="47.58136" lon="-0.22505">
        <ele>45</ele>
        <time>2017-09-16T09:17:37Z</time>
      </trkpt>
      <trkpt lat="47.58134" lon="-0.22503">
        <ele>45</ele>
        <time>2017-09-16T09:17:42Z</time>
      </trkpt>
      <trkpt lat="47.58127" lon="-0.225">
        <ele>45</ele>
        <time>2017-09-16T09:17:47Z</time>
      </trkpt>
      <trkpt lat="47.58123" lon="-0.22499">
        <ele>45</ele>
        <time>2017-09-16T09:17:52Z</time>
      </trkpt>
      <trkpt lat="47.5812" lon="-0.22497">
        <ele>45</ele>
        <time>2017-09-16T09:17:57Z</time>
      </trkpt>
      <trkpt lat="47.58113" lon="-0.22494">
        <ele>45</ele>
        <time>2017-09-16T09:18:02Z</time>
      </trkpt>
      <trkpt lat="47.58103" lon="-0.22493">
        <ele>45.3</ele>
        <time>2017-09-16T09:18:07Z</time>
      </trkpt>
      <trkpt lat="47.58095" lon="-0.22494">
        <ele>45.6</ele>
        <time>2017-09-16T09:18:12Z</time>
      </trkpt>
      <trkpt lat="47.58083" lon="-0.22496">
        <ele>46</ele>
        <time>2017-09-16T09:18:17Z</time>
      </trkpt>
      <trkpt lat="47.5807" lon="-0.22503">
        <ele>46.5</ele>
        <time>2017-09-16T09:18:22Z</time>
      </trkpt>
      <trkpt lat="47.58064" lon="-0.2251">
        <ele>46.7</ele>
        <time>2017-09-16T09:18:27Z</time>
      </trkpt>
      <trkpt lat="47.58059" lon="-0.22515">
        <ele>46.9</ele>
        <time>2017-09-16T09:18:32Z</time>
      </trkpt>
      <trkpt lat="47.58055" lon="-0.22517">
        <ele>47</ele>
        <time>2017-09-16T09:18:37Z</time>
      </trkpt>
      <trkpt lat="47.5805" lon="-0.22522">
        <ele>47.2</ele>
        <time>2017-09-16T09:18:42Z</time>
      </trkpt>
      <trkpt lat="47.58045" lon="-0.22526">
        <ele>47.4</ele>
        <time>2017-09-16T09:18:47Z</time>
      </trkpt>
      <trkpt lat="47.5804" lon="-0.22532">
        <ele>47.5</ele>
        <time>2017-09-16T09:18:52Z</time>
      </trkpt>
      <trkpt lat="47.58035" lon="-0.22537">
        <ele>47.5</ele>
        <time>2017-09-16T09:18:57Z</time>
      </trkpt>
      <trkpt lat="47.5803" lon="-0.2254">
        <ele>47.5</ele>
        <time>2017-09-16T09:19:02Z</time>
      </trkpt>
      <trkpt lat="47.58025" lon="-0.22542">
        <ele>47.5</ele>
        <time>2017-09-16T09:19:07Z</time>
      </trkpt>
      <trkpt lat="47.5802" lon="-0.22543">
        <ele>47.6</ele>
        <time>2017-09-16T09:19:12Z</time>
      </trkpt>
      <trkpt lat="47.58016" lon="-0.22544">
        <ele>47.7</ele>
        <time>2017-09-16T09:19:17Z</time>
      </trkpt>
      <trkpt lat="47.58012" lon="-0.22544">
        <ele>47.8</ele>
        <time>2017-09-16T09:19:22Z</time>
      </trkpt>
      <trkpt lat="47.58007" lon="-0.22543">
        <ele>47.9</ele>
        <time>2017-09-16T09:19:27Z</time>
      </trkpt>
      <trkpt lat="47.58002" lon="-0.22541">
        <ele>48</ele>
        <time>2017-09-16T09:19:32Z</time>
      </trkpt>
      <trkpt lat="47.57997" lon="-0.22544">
        <ele>48</ele>
        <time>2017-09-16T09:19:37Z</time>
      </trkpt>
      <trkpt lat="47.57991" lon="-0.22546">
        <ele>48.1</ele>
        <time>2017-09-16T09:19:42Z</time>
      </trkpt>
      <trkpt lat="47.57988" lon="-0.22547">
        <ele>48.1</ele>
        <time>2017-09-16T09:19:47Z</time>
      </trkpt>
      <trkpt lat="47.57985" lon="-0.22547">
        <ele>48.2</ele>
        <time>2017-09-16T09:19:52Z</time>
      </trkpt>
      <trkpt lat="47.57981" lon="-0.22552">
        <ele>48.1</ele>
        <time>2017-09-16T09:19:57Z</time>
      </trkpt>
      <trkpt lat="47.57977" lon="-0.22553">
        <ele>48.1</ele>
        <time>2017-09-16T09:20:02Z</time>
      </trkpt>
      <trkpt lat="47.57972" lon="-0.22555">
        <ele>48</ele>
        <time>2017-09-16T09:20:07Z</time>
      </trkpt>
      <trkpt lat="47.57967" lon="-0.22559">
        <ele>48.3</ele>
        <time>2017-09-16T09:20:12Z</time>
      </trkpt>
      <trkpt lat="47.57962" lon="-0.22561">
        <ele>48.5</ele>
        <time>2017-09-16T09:20:17Z</time>
      </trkpt>
      <trkpt lat="47.57957" lon="-0.22563">
        <ele>48.7</ele>
        <time>2017-09-16T09:20:22Z</time>
      </trkpt>
      <trkpt lat="47.57952" lon="-0.22565">
        <ele>48.8</ele>
        <time>2017-09-16T09:20:27Z</time>
      </trkpt>
      <trkpt lat="47.57946" lon="-0.22568">
        <ele>49</ele>
        <time>2017-09-16T09:20:32Z</time>
      </trkpt>
      <trkpt lat="47.57941" lon="-0.2257">
        <ele>49.1</ele>
        <time>2017-09-16T09:20:37Z</time>
      </trkpt>
      <trkpt lat="47.57936" lon="-0.22572">
        <ele>49.3</ele>
        <time>2017-09-16T09:20:42Z</time>
      </trkpt>
      <trkpt lat="47.57931" lon="-0.22575">
        <ele>49.5</ele>
        <time>2017-09-16T09:20:47Z</time>
      </trkpt>
      <trkpt lat="47.57925" lon="-0.22576">
        <ele>49.7</ele>
        <time>2017-09-16T09:20:52Z</time>
      </trkpt>
      <trkpt lat="47.5792" lon="-0.22578">
        <ele>49.9</ele>
        <time>2017-09-16T09:20:57Z</time>
      </trkpt>
      <trkpt lat="47.57914" lon="-0.2258">
        <ele>50</ele>
        <time>2017-09-16T09:21:02Z</time>
      </trkpt>
      <trkpt lat="47.5791" lon="-0.22583">
        <ele>50</ele>
        <time>2017-09-16T09:21:07Z</time>
      </trkpt>
      <trkpt lat="47.57904" lon="-0.22586">
        <ele>50</ele>
        <time>2017-09-16T09:21:12Z</time>
      </trkpt>
      <trkpt lat="47.57899" lon="-0.22589">
        <ele>50</ele>
        <time>2017-09-16T09:21:17Z</time>
      </trkpt>
      <trkpt lat="47.57893" lon="-0.22592">
        <ele>50</ele>
        <time>2017-09-16T09:21:22Z</time>
      </trkpt>
      <trkpt lat="47.57887" lon="-0.22594">
        <ele>50.1</ele>
        <time>2017-09-16T09:21:27Z</time>
      </trkpt>
      <trkpt lat="47.57881" lon="-0.22596">
        <ele>50.3</ele>
        <time>2017-09-16T09:21:32Z</time>
      </trkpt>
      <trkpt lat="47.57875" lon="-0.22598">
        <ele>50.5</ele>
        <time>2017-09-16T09:21:37Z</time>
      </trkpt>
      <trkpt lat="47.5787" lon="-0.22599">
        <ele>50.7</ele>
        <time>2017-09-16T09:21:42Z</time>
      </trkpt>
      <trkpt lat="47.57864" lon="-0.22601">
        <ele>50.9</ele>
        <time>2017-09-16T09:21:47Z</time>
      </trkpt>
      <trkpt lat="47.57858" lon="-0.22603">
        <ele>51</ele>
        <time>2017-09-16T09:21:52Z</time>
      </trkpt>
      <trkpt lat="47.57853" lon="-0.22605">
        <ele>51</ele>
        <time>2017-09-16T09:21:57Z</time>
      </trkpt>
      <trkpt lat="47.57847" lon="-0.22607">
        <ele>51</ele>
        <time>2017-09-16T09:22:02Z</time>
      </trkpt>
      <trkpt lat="47.57841" lon="-0.22608">
        <ele>51</ele>
        <time>2017-09-16T09:22:07Z</time>
      </trkpt>
      <trkpt lat="47.57835" lon="-0.2261">
        <ele>51</ele>
        <time>2017-09-16T09:22:12Z</time>
      </trkpt>
      <trkpt lat="47.57829" lon="-0.22612">
        <ele>51.2</ele>
        <time>2017-09-16T09:22:17Z</time>
      </trkpt>
      <trkpt lat="47.57824" lon="-0.22613">
        <ele>51.4</ele>
        <time>2017-09-16T09:22:22Z</time>
      </trkpt>
      <trkpt lat="47.57818" lon="-0.22614">
        <ele>51.6</ele>
        <time>2017-09-16T09:22:27Z</time>
      </trkpt>
      <trkpt lat="47.57812" lon="-0.22616">
        <ele>51.8</ele>
        <time>2017-09-16T09:22:32Z</time>
      </trkpt>
      <trkpt lat="47.57806" lon="-0.22618">
        <ele>52</ele>
        <time>2017-09-16T09:22:37Z</time>
      </trkpt>
      <trkpt lat="47.578" lon="-0.22618">
        <ele>52</ele>
        <time>2017-09-16T09:22:42Z</time>
      </trkpt>
      <trkpt lat="47.57795" lon="-0.22619">
        <ele>52</ele>
        <time>2017-09-16T09:22:47Z</time>
      </trkpt>
      <trkpt lat="47.57789" lon="-0.22621">
        <ele>52</ele>
        <time>2017-09-16T09:22:52Z</time>
      </trkpt>
      <trkpt lat="47.57783" lon="-0.22623">
        <ele>52</ele>
        <time>2017-09-16T09:22:57Z</time>
      </trkpt>
      <trkpt lat="47.57777" lon="-0.22623">
        <ele>52</ele>
        <time>2017-09-16T09:23:02Z</time>
      </trkpt>
      <trkpt lat="47.57772" lon="-0.22625">
        <ele>52.1</ele>
        <time>2017-09-16T09:23:07Z</time>
      </trkpt>
      <trkpt lat="47.57766" lon="-0.22626">
        <ele>52.2</ele>
        <time>2017-09-16T09:23:12Z</time>
      </trkpt>
      <trkpt lat="47.5776" lon="-0.22627">
        <ele>52.4</ele>
        <time>2017-09-16T09:23:17Z</time>
      </trkpt>
      <trkpt lat="47.57755" lon="-0.22627">
        <ele>52.5</ele>
        <time>2017-09-16T09:23:22Z</time>
      </trkpt>
      <trkpt lat="47.57749" lon="-0.22628">
        <ele>52.6</ele>
        <time>2017-09-16T09:23:27Z</time>
      </trkpt>
      <trkpt lat="47.57743" lon="-0.22628">
        <ele>52.7</ele>
        <time>2017-09-16T09:23:32Z</time>
      </trkpt>
      <trkpt lat="47.57737" lon="-0.22629">
        <ele>52.8</ele>
        <time>2017-09-16T09:23:37Z</time>
      </trkpt>
      <trkpt lat="47.57732" lon="-0.2263">
        <ele>52.9</ele>
        <time>2017-09-16T09:23:42Z</time>
      </trkpt>
      <trkpt lat="47.57726" lon="-0.22632">
        <ele>53</ele>
        <time>2017-09-16T09:23:47Z</time>
      </trkpt>
      <trkpt lat="47.57722" lon="-0.22633">
        <ele>53</ele>
        <time>2017-09-16T09:23:52Z</time>
      </trkpt>
      <trkpt lat="47.5772" lon="-0.22635">
        <ele>53.1</ele>
        <time>2017-09-16T09:23:57Z</time>
      </trkpt>
      <trkpt lat="47.57719" lon="-0.22636">
        <ele>53.1</ele>
        <time>2017-09-16T09:24:02Z</time>
      </trkpt>
      <trkpt lat="47.57718" lon="-0.22637">
        <ele>53.1</ele>
        <time>2017-09-16T09:24:07Z</time>
      </trkpt>
      <trkpt lat="47.57718" lon="-0.22638">
        <ele>53.1</ele>
        <time>2017-09-16T09:24:12Z</time>
      </trkpt>
      <trkpt lat="47.57718" lon="-0.22638">
        <ele>53.1</ele>
        <time>2017-09-16T09:24:17Z</time>
      </trkpt>
      <trkpt lat="47.57718" lon="-0.22637">
        <ele>53.1</ele>
        <time>2017-09-16T09:24:22Z</time>
      </trkpt>
      <trkpt lat="47.57719" lon="-0.22637">
        <ele>53.1</ele>
        <time>2017-09-16T09:24:27Z</time>
      </trkpt>
      <trkpt lat="47.57719" lon="-0.22637">
        <ele>53.1</ele>
        <time>2017-09-16T09:24:32Z</time>
      </trkpt>
      <trkpt lat="47.57719" lon="-0.22637">
        <ele>53.1</ele>
        <time>2017-09-16T09:24:37Z</time>
      </trkpt>
      <trkpt lat="47.57719" lon="-0.22638">
        <ele>53.1</ele>
        <time>2017-09-16T09:24:42Z</time>
      </trkpt>
      <trkpt lat="47.57719" lon="-0.22637">
        <ele>53.1</ele>
        <time>2017-09-16T09:24:47Z</time>
      </trkpt>
      <trkpt lat="47.5772" lon="-0.22637">
        <ele>53.1</ele>
        <time>2017-09-16T09:24:52Z</time>
      </trkpt>
      <trkpt lat="47.5772" lon="-0.22637">
        <ele>53.1</ele>
        <time>2017-09-16T09:24:57Z</time>
      </trkpt>
      <trkpt lat="47.5772" lon="-0.22637">
        <ele>53.1</ele>
        <time>2017-09-16T09:25:02Z</time>
      </trkpt>
      <trkpt lat="47.5772" lon="-0.22637">
        <ele>53.1</ele>
        <time>2017-09-16T09:25:07Z</time>
      </trkpt>
      <trkpt lat="47.5772" lon="-0.22637">
        <ele>53.1</ele>
        <time>2017-09-16T09:25:12Z</time>
      </trkpt>
      <trkpt lat="47.5772" lon="-0.22637">
        <ele>53.1</ele>
        <time>2017-09-16T09:25:17Z</time>
      </trkpt>
      <trkpt lat="47.5772" lon="-0.22637">
        <ele>53.1</ele>
        <time>2017-09-16T09:25:22Z</time>
      </trkpt>
      <trkpt lat="47.5772" lon="-0.22637">
        <ele>53.1</ele>
        <time>2017-09-16T09:25:27Z</time>
      </trkpt>
      <trkpt lat="47.5772" lon="-0.22637">
        <ele>53.1</ele>
        <time>2017-09-16T09:25:32Z</time>
      </trkpt>
      <trkpt lat="47.5772" lon="-0.22637">
        <ele>53.1</ele>
        <time>2017-09-16T09:25:37Z</time>
      </trkpt>
      <trkpt lat="47.5772" lon="-0.22637">
        <ele>53.1</ele>
        <time>2017-09-16T09:25:42Z</time>
      </trkpt>
      <trkpt lat="47.5772" lon="-0.22637">
        <ele>53.1</ele>
        <time>2017-09-16T09:25:47Z</time>
      </trkpt>
      <trkpt lat="47.57717" lon="-0.22636">
        <ele>53.2</ele>
        <time>2017-09-16T09:25:52Z</time>
      </trkpt>
      <trkpt lat="47.57711" lon="-0.22636">
        <ele>53.4</ele>
        <time>2017-09-16T09:25:57Z</time>
      </trkpt>
      <trkpt lat="47.57705" lon="-0.22636">
        <ele>53.6</ele>
        <time>2017-09-16T09:26:02Z</time>
      </trkpt>
      <trkpt lat="47.577" lon="-0.22636">
        <ele>53.7</ele>
        <time>2017-09-16T09:26:07Z</time>
      </trkpt>
      <trkpt lat="47.57695" lon="-0.22636">
        <ele>53.9</ele>
        <time>2017-09-16T09:26:12Z</time>
      </trkpt>
      <trkpt lat="47.57689" lon="-0.22636">
        <ele>53.9</ele>
        <time>2017-09-16T09:26:17Z</time>
      </trkpt>
      <trkpt lat="47.57683" lon="-0.22636">
        <ele>53.9</ele>
        <time>2017-09-16T09:26:22Z</time>
      </trkpt>
      <trkpt lat="47.57678" lon="-0.22636">
        <ele>54</ele>
        <time>2017-09-16T09:26:27Z</time>
      </trkpt>
      <trkpt lat="47.57672" lon="-0.22636">
        <ele>54</ele>
        <time>2017-09-16T09:26:32Z</time>
      </trkpt>
      <trkpt lat="47.57666" lon="-0.22637">
        <ele>54</ele>
        <time>2017-09-16T09:26:37Z</time>
      </trkpt>
      <trkpt lat="47.5766" lon="-0.22638">
        <ele>54.2</ele>
        <time>2017-09-16T09:26:42Z</time>
      </trkpt>
      <trkpt lat="47.57654" lon="-0.22638">
        <ele>54.5</ele>
        <time>2017-09-16T09:26:47Z</time>
      </trkpt>
      <trkpt lat="47.57648" lon="-0.22637">
        <ele>54.7</ele>
        <time>2017-09-16T09:26:52Z</time>
      </trkpt>
      <trkpt lat="47.57642" lon="-0.22638">
        <ele>54.9</ele>
        <time>2017-09-16T09:26:57Z</time>
      </trkpt>
      <trkpt lat="47.57637" lon="-0.22637">
        <ele>55.1</ele>
        <time>2017-09-16T09:27:02Z</time>
      </trkpt>
      <trkpt lat="47.57632" lon="-0.22637">
        <ele>55.2</ele>
        <time>2017-09-16T09:27:07Z</time>
      </trkpt>
      <trkpt lat="47.57628" lon="-0.22637">
        <ele>55.4</ele>
        <time>2017-09-16T09:27:12Z</time>
      </trkpt>
      <trkpt lat="47.57626" lon="-0.22635">
        <ele>55.4</ele>
        <time>2017-09-16T09:27:17Z</time>
      </trkpt>
      <trkpt lat="47.57625" lon="-0.22635">
        <ele>55.4</ele>
        <time>2017-09-16T09:27:22Z</time>
      </trkpt>
      <trkpt lat="47.57625" lon="-0.22635">
        <ele>55.4</ele>
        <time>2017-09-16T09:27:27Z</time>
      </trkpt>
      <trkpt lat="47.57625" lon="-0.22635">
        <ele>55.4</ele>
        <time>2017-09-16T09:27:32Z</time>
      </trkpt>
      <trkpt lat="47.57625" lon="-0.22635">
        <ele>55.4</ele>
        <time>2017-09-16T09:27:37Z</time>
      </trkpt>
      <trkpt lat="47.57625" lon="-0.22637">
        <ele>55.5</ele>
        <time>2017-09-16T09:27:42Z</time>
      </trkpt>
      <trkpt lat="47.57625" lon="-0.22637">
        <ele>55.5</ele>
        <time>2017-09-16T09:27:47Z</time>
      </trkpt>
      <trkpt lat="47.57621" lon="-0.22639">
        <ele>55.6</ele>
        <time>2017-09-16T09:27:52Z</time>
      </trkpt>
      <trkpt lat="47.57621" lon="-0.22639">
        <ele>55.6</ele>
        <time>2017-09-16T09:27:57Z</time>
      </trkpt>
      <trkpt lat="47.57622" lon="-0.2264">
        <ele>55.6</ele>
        <time>2017-09-16T09:28:02Z</time>
      </trkpt>
      <trkpt lat="47.57623" lon="-0.2264">
        <ele>55.6</ele>
        <time>2017-09-16T09:28:07Z</time>
      </trkpt>
      <trkpt lat="47.57623" lon="-0.22641">
        <ele>55.6</ele>
        <time>2017-09-16T09:28:12Z</time>
      </trkpt>
      <trkpt lat="47.57623" lon="-0.22641">
        <ele>55.6</ele>
        <time>2017-09-16T09:28:17Z</time>
      </trkpt>
      <trkpt lat="47.57623" lon="-0.22641">
        <ele>55.6</ele>
        <time>2017-09-16T09:28:22Z</time>
      </trkpt>
      <trkpt lat="47.57619" lon="-0.22641">
        <ele>55.7</ele>
        <time>2017-09-16T09:28:27Z</time>
      </trkpt>
      <trkpt lat="47.57616" lon="-0.22639">
        <ele>55.8</ele>
        <time>2017-09-16T09:28:32Z</time>
      </trkpt>
      <trkpt lat="47.57612" lon="-0.22637">
        <ele>55.9</ele>
        <time>2017-09-16T09:28:37Z</time>
      </trkpt>
      <trkpt lat="47.57609" lon="-0.22638">
        <ele>56.1</ele>
        <time>2017-09-16T09:28:42Z</time>
      </trkpt>
      <trkpt lat="47.57609" lon="-0.22638">
        <ele>56.1</ele>
        <time>2017-09-16T09:28:47Z</time>
      </trkpt>
      <trkpt lat="47.57609" lon="-0.22637">
        <ele>56.1</ele>
        <time>2017-09-16T09:28:52Z</time>
      </trkpt>
      <trkpt lat="47.57607" lon="-0.22637">
        <ele>56.2</ele>
        <time>2017-09-16T09:28:57Z</time>
      </trkpt>
      <trkpt lat="47.57608" lon="-0.22637">
        <ele>56.2</ele>
        <time>2017-09-16T09:29:02Z</time>
      </trkpt>
      <trkpt lat="47.57605" lon="-0.22641">
        <ele>56.4</ele>
        <time>2017-09-16T09:29:07Z</time>
      </trkpt>
      <trkpt lat="47.57603" lon="-0.22648">
        <ele>56.6</ele>
        <time>2017-09-16T09:29:12Z</time>
      </trkpt>
      <trkpt lat="47.57603" lon="-0.22654">
        <ele>56.6</ele>
        <time>2017-09-16T09:29:17Z</time>
      </trkpt>
      <trkpt lat="47.57603" lon="-0.22656">
        <ele>56.6</ele>
        <time>2017-09-16T09:29:22Z</time>
      </trkpt>
      <trkpt lat="47.57603" lon="-0.2266">
        <ele>56.6</ele>
        <time>2017-09-16T09:29:27Z</time>
      </trkpt>
      <trkpt lat="47.57603" lon="-0.2266">
        <ele>56.6</ele>
        <time>2017-09-16T09:29:32Z</time>
      </trkpt>
      <trkpt lat="47.57603" lon="-0.2266">
        <ele>56.6</ele>
        <time>2017-09-16T09:29:37Z</time>
      </trkpt>
      <trkpt lat="47.57602" lon="-0.22661">
        <ele>56.6</ele>
        <time>2017-09-16T09:29:42Z</time>
      </trkpt>
      <trkpt lat="47.57602" lon="-0.22669">
        <ele>56.6</ele>
        <time>2017-09-16T09:29:47Z</time>
      </trkpt>
      <trkpt lat="47.57601" lon="-0.22676">
        <ele>56.7</ele>
        <time>2017-09-16T09:29:52Z</time>
      </trkpt>
      <trkpt lat="47.57602" lon="-0.22685">
        <ele>56.7</ele>
        <time>2017-09-16T09:29:57Z</time>
      </trkpt>
      <trkpt lat="47.57602" lon="-0.22692">
        <ele>56.7</ele>
        <time>2017-09-16T09:30:02Z</time>
      </trkpt>
      <trkpt lat="47.57602" lon="-0.22699">
        <ele>56.7</ele>
        <time>2017-09-16T09:30:07Z</time>
      </trkpt>
      <trkpt lat="47.57601" lon="-0.22705">
        <ele>56.7</ele>
        <time>2017-09-16T09:30:12Z</time>
      </trkpt>
      <trkpt lat="47.57601" lon="-0.22712">
        <ele>56.8</ele>
        <time>2017-09-16T09:30:17Z</time>
      </trkpt>
      <trkpt lat="47.576" lon="-0.22719">
        <ele>56.8</ele>
        <time>2017-09-16T09:30:22Z</time>
      </trkpt>
      <trkpt lat="47.57599" lon="-0.22728">
        <ele>57</ele>
        <time>2017-09-16T09:30:27Z</time>
      </trkpt>
      <trkpt lat="47.57601" lon="-0.22736">
        <ele>57.1</ele>
        <time>2017-09-16T09:30:32Z</time>
      </trkpt>
      <trkpt lat="47.57601" lon="-0.22745">
        <ele>57.3</ele>
        <time>2017-09-16T09:30:37Z</time>
      </trkpt>
      <trkpt lat="47.576" lon="-0.22753">
        <ele>57.3</ele>
        <time>2017-09-16T09:30:42Z</time>
      </trkpt>
      <trkpt lat="47.57599" lon="-0.22762">
        <ele>57.2</ele>
        <time>2017-09-16T09:30:47Z</time>
      </trkpt>
      <trkpt lat="47.57598" lon="-0.2277">
        <ele>57.1</ele>
        <time>2017-09-16T09:30:52Z</time>
      </trkpt>
      <trkpt lat="47.57597" lon="-0.22779">
        <ele>57</ele>
        <time>2017-09-16T09:30:57Z</time>
      </trkpt>
      <trkpt lat="47.57595" lon="-0.22789">
        <ele>56.9</ele>
        <time>2017-09-16T09:31:02Z</time>
      </trkpt>
      <trkpt lat="47.57592" lon="-0.22796">
        <ele>56.9</ele>
        <time>2017-09-16T09:31:07Z</time>
      </trkpt>
      <trkpt lat="47.57589" lon="-0.22804">
        <ele>56.8</ele>
        <time>2017-09-16T09:31:12Z</time>
      </trkpt>
      <trkpt lat="47.57586" lon="-0.2281">
        <ele>56.9</ele>
        <time>2017-09-16T09:31:17Z</time>
      </trkpt>
      <trkpt lat="47.5758" lon="-0.22811">
        <ele>57.1</ele>
        <time>2017-09-16T09:31:22Z</time>
      </trkpt>
      <trkpt lat="47.57575" lon="-0.22809">
        <ele>57.3</ele>
        <time>2017-09-16T09:31:27Z</time>
      </trkpt>
      <trkpt lat="47.57569" lon="-0.22807">
        <ele>57.5</ele>
        <time>2017-09-16T09:31:32Z</time>
      </trkpt>
      <trkpt lat="47.57563" lon="-0.22805">
        <ele>57.7</ele>
        <time>2017-09-16T09:31:37Z</time>
      </trkpt>
      <trkpt lat="47.57558" lon="-0.22805">
        <ele>57.9</ele>
        <time>2017-09-16T09:31:42Z</time>
      </trkpt>
      <trkpt lat="47.57552" lon="-0.22804">
        <ele>58.1</ele>
        <time>2017-09-16T09:31:47Z</time>
      </trkpt>
      <trkpt lat="47.57546" lon="-0.22803">
        <ele>58.3</ele>
        <time>2017-09-16T09:31:52Z</time>
      </trkpt>
      <trkpt lat="47.57541" lon="-0.22803">
        <ele>58.5</ele>
        <time>2017-09-16T09:31:57Z</time>
      </trkpt>
      <trkpt lat="47.57537" lon="-0.22804">
        <ele>58.7</ele>
        <time>2017-09-16T09:32:02Z</time>
      </trkpt>
      <trkpt lat="47.57532" lon="-0.22805">
        <ele>58.8</ele>
        <time>2017-09-16T09:32:07Z</time>
      </trkpt>
      <trkpt lat="47.57526" lon="-0.22806">
        <ele>59</ele>
        <time>2017-09-16T09:32:12Z</time>
      </trkpt>
      <trkpt lat="47.5752" lon="-0.22807">
        <ele>59.2</ele>
        <time>2017-09-16T09:32:17Z</time>
      </trkpt>
      <trkpt lat="47.57514" lon="-0.22808">
        <ele>59.5</ele>
        <time>2017-09-16T09:32:22Z</time>
      </trkpt>
      <trkpt lat="47.57508" lon="-0.22809">
        <ele>59.7</ele>
        <time>2017-09-16T09:32:27Z</time>
      </trkpt>
      <trkpt lat="47.57502" lon="-0.22809">
        <ele>59.9</ele>
        <time>2017-09-16T09:32:32Z</time>
      </trkpt>
      <trkpt lat="47.57497" lon="-0.2281">
        <ele>60.1</ele>
        <time>2017-09-16T09:32:37Z</time>
      </trkpt>
      <trkpt lat="47.57492" lon="-0.22811">
        <ele>60.3</ele>
        <time>2017-09-16T09:32:42Z</time>
      </trkpt>
      <trkpt lat="47.57486" lon="-0.22812">
        <ele>60.5</ele>
        <time>2017-09-16T09:32:47Z</time>
      </trkpt>
      <trkpt lat="47.5748" lon="-0.22812">
        <ele>60.7</ele>
        <time>2017-09-16T09:32:52Z</time>
      </trkpt>
      <trkpt lat="47.57475" lon="-0.22813">
        <ele>60.9</ele>
        <time>2017-09-16T09:32:57Z</time>
      </trkpt>
      <trkpt lat="47.57469" lon="-0.22813">
        <ele>61.2</ele>
        <time>2017-09-16T09:33:02Z</time>
      </trkpt>
      <trkpt lat="47.57463" lon="-0.22814">
        <ele>61.6</ele>
        <time>2017-09-16T09:33:07Z</time>
      </trkpt>
      <trkpt lat="47.57457" lon="-0.22813">
        <ele>62.1</ele>
        <time>2017-09-16T09:33:12Z</time>
      </trkpt>
      <trkpt lat="47.57453" lon="-0.22814">
        <ele>62.4</ele>
        <time>2017-09-16T09:33:17Z</time>
      </trkpt>
      <trkpt lat="47.57447" lon="-0.22815">
        <ele>62.8</ele>
        <time>2017-09-16T09:33:22Z</time>
      </trkpt>
      <trkpt lat="47.57443" lon="-0.22814">
        <ele>63.1</ele>
        <time>2017-09-16T09:33:27Z</time>
      </trkpt>
      <trkpt lat="47.57438" lon="-0.22815">
        <ele>63.4</ele>
        <time>2017-09-16T09:33:32Z</time>
      </trkpt>
      <trkpt lat="47.57433" lon="-0.22816">
        <ele>63.7</ele>
        <time>2017-09-16T09:33:37Z</time>
      </trkpt>
      <trkpt lat="47.57428" lon="-0.22815">
        <ele>64</ele>
        <time>2017-09-16T09:33:42Z</time>
      </trkpt>
      <trkpt lat="47.57423" lon="-0.22816">
        <ele>64.3</ele>
        <time>2017-09-16T09:33:47Z</time>
      </trkpt>
      <trkpt lat="47.57419" lon="-0.22815">
        <ele>64.5</ele>
        <time>2017-09-16T09:33:52Z</time>
      </trkpt>
      <trkpt lat="47.57414" lon="-0.22815">
        <ele>64.8</ele>
        <time>2017-09-16T09:33:57Z</time>
      </trkpt>
      <trkpt lat="47.5741" lon="-0.22814">
        <ele>65.3</ele>
        <time>2017-09-16T09:34:02Z</time>
      </trkpt>
      <trkpt lat="47.57406" lon="-0.22812">
        <ele>65.7</ele>
        <time>2017-09-16T09:34:07Z</time>
      </trkpt>
      <trkpt lat="47.57401" lon="-0.22809">
        <ele>66.1</ele>
        <time>2017-09-16T09:34:12Z</time>
      </trkpt>
      <trkpt lat="47.57397" lon="-0.22806">
        <ele>66.4</ele>
        <time>2017-09-16T09:34:17Z</time>
      </trkpt>
      <trkpt lat="47.57393" lon="-0.22804">
        <ele>66.8</ele>
        <time>2017-09-16T09:34:22Z</time>
      </trkpt>
      <trkpt lat="47.57388" lon="-0.22802">
        <ele>67.3</ele>
        <time>2017-09-16T09:34:27Z</time>
      </trkpt>
      <trkpt lat="47.57383" lon="-0.228">
        <ele>67.8</ele>
        <time>2017-09-16T09:34:32Z</time>
      </trkpt>
      <trkpt lat="47.57378" lon="-0.22798">
        <ele>68.4</ele>
        <time>2017-09-16T09:34:37Z</time>
      </trkpt>
      <trkpt lat="47.57373" lon="-0.22796">
        <ele>69</ele>
        <time>2017-09-16T09:34:42Z</time>
      </trkpt>
      <trkpt lat="47.57368" lon="-0.22794">
        <ele>69.7</ele>
        <time>2017-09-16T09:34:47Z</time>
      </trkpt>
      <trkpt lat="47.57363" lon="-0.22792">
        <ele>70.2</ele>
        <time>2017-09-16T09:34:52Z</time>
      </trkpt>
      <trkpt lat="47.57358" lon="-0.2279">
        <ele>70.9</ele>
        <time>2017-09-16T09:34:57Z</time>
      </trkpt>
      <trkpt lat="47.57354" lon="-0.22788">
        <ele>71.7</ele>
        <time>2017-09-16T09:35:02Z</time>
      </trkpt>
      <trkpt lat="47.57349" lon="-0.22787">
        <ele>72.3</ele>
        <time>2017-09-16T09:35:07Z</time>
      </trkpt>
      <trkpt lat="47.57344" lon="-0.22785">
        <ele>73</ele>
        <time>2017-09-16T09:35:12Z</time>
      </trkpt>
      <trkpt lat="47.57339" lon="-0.22784">
        <ele>73.5</ele>
        <time>2017-09-16T09:35:17Z</time>
      </trkpt>
      <trkpt lat="47.57334" lon="-0.22782">
        <ele>74.1</ele>
        <time>2017-09-16T09:35:22Z</time>
      </trkpt>
      <trkpt lat="47.57329" lon="-0.22781">
        <ele>74.5</ele>
        <time>2017-09-16T09:35:27Z</time>
      </trkpt>
      <trkpt lat="47.57324" lon="-0.22779">
        <ele>74.7</ele>
        <time>2017-09-16T09:35:32Z</time>
      </trkpt>
      <trkpt lat="47.57319" lon="-0.22777">
        <ele>75</ele>
        <time>2017-09-16T09:35:37Z</time>
      </trkpt>
      <trkpt lat="47.57314" lon="-0.22778">
        <ele>75.4</ele>
        <time>2017-09-16T09:35:42Z</time>
      </trkpt>
      <trkpt lat="47.57309" lon="-0.22777">
        <ele>75.8</ele>
        <time>2017-09-16T09:35:47Z</time>
      </trkpt>
      <trkpt lat="47.57304" lon="-0.22777">
        <ele>76.2</ele>
        <time>2017-09-16T09:35:52Z</time>
      </trkpt>
      <trkpt lat="47.57299" lon="-0.22778">
        <ele>76.7</ele>
        <time>2017-09-16T09:35:57Z</time>
      </trkpt>
      <trkpt lat="47.57294" lon="-0.22779">
        <ele>77.3</ele>
        <time>2017-09-16T09:36:02Z</time>
      </trkpt>
      <trkpt lat="47.57289" lon="-0.2278">
        <ele>78</ele>
        <time>2017-09-16T09:36:07Z</time>
      </trkpt>
      <trkpt lat="47.57284" lon="-0.22782">
        <ele>78.6</ele>
        <time>2017-09-16T09:36:12Z</time>
      </trkpt>
      <trkpt lat="47.5728" lon="-0.22783">
        <ele>79</ele>
        <time>2017-09-16T09:36:17Z</time>
      </trkpt>
      <trkpt lat="47.57275" lon="-0.22785">
        <ele>79.6</ele>
        <time>2017-09-16T09:36:22Z</time>
      </trkpt>
      <trkpt lat="47.57271" lon="-0.22786">
        <ele>80.3</ele>
        <time>2017-09-16T09:36:27Z</time>
      </trkpt>
      <trkpt lat="47.57267" lon="-0.22788">
        <ele>80.8</ele>
        <time>2017-09-16T09:36:32Z</time>
      </trkpt>
      <trkpt lat="47.57262" lon="-0.2279">
        <ele>81.4</ele>
        <time>2017-09-16T09:36:37Z</time>
      </trkpt>
      <trkpt lat="47.57257" lon="-0.2279">
        <ele>82.1</ele>
        <time>2017-09-16T09:36:42Z</time>
      </trkpt>
      <trkpt lat="47.57252" lon="-0.2279">
        <ele>82.7</ele>
        <time>2017-09-16T09:36:47Z</time>
      </trkpt>
      <trkpt lat="47.57247" lon="-0.22792">
        <ele>83.3</ele>
        <time>2017-09-16T09:36:52Z</time>
      </trkpt>
      <trkpt lat="47.57243" lon="-0.22792">
        <ele>83.8</ele>
        <time>2017-09-16T09:36:57Z</time>
      </trkpt>
      <trkpt lat="47.57238" lon="-0.22791">
        <ele>84.3</ele>
        <time>2017-09-16T09:37:02Z</time>
      </trkpt>
      <trkpt lat="47.57234" lon="-0.2279">
        <ele>84.7</ele>
        <time>2017-09-16T09:37:07Z</time>
      </trkpt>
      <trkpt lat="47.5723" lon="-0.22791">
        <ele>85.2</ele>
        <time>2017-09-16T09:37:12Z</time>
      </trkpt>
      <trkpt lat="47.57226" lon="-0.22791">
        <ele>85.6</ele>
        <time>2017-09-16T09:37:17Z</time>
      </trkpt>
      <trkpt lat="47.57222" lon="-0.22791">
        <ele>86</ele>
        <time>2017-09-16T09:37:22Z</time>
      </trkpt>
      <trkpt lat="47.57217" lon="-0.22791">
        <ele>86.6</ele>
        <time>2017-09-16T09:37:27Z</time>
      </trkpt>
      <trkpt lat="47.57212" lon="-0.2279">
        <ele>87.3</ele>
        <time>2017-09-16T09:37:32Z</time>
      </trkpt>
      <trkpt lat="47.57207" lon="-0.2279">
        <ele>87.9</ele>
        <time>2017-09-16T09:37:37Z</time>
      </trkpt>
      <trkpt lat="47.57203" lon="-0.2279">
        <ele>88.5</ele>
        <time>2017-09-16T09:37:42Z</time>
      </trkpt>
      <trkpt lat="47.57198" lon="-0.2279">
        <ele>89.1</ele>
        <time>2017-09-16T09:37:47Z</time>
      </trkpt>
      <trkpt lat="47.57194" lon="-0.2279">
        <ele>89.6</ele>
        <time>2017-09-16T09:37:52Z</time>
      </trkpt>
      <trkpt lat="47.57191" lon="-0.2279">
        <ele>89.8</ele>
        <time>2017-09-16T09:37:57Z</time>
      </trkpt>
      <trkpt lat="47.57187" lon="-0.22791">
        <ele>90.1</ele>
        <time>2017-09-16T09:38:02Z</time>
      </trkpt>
      <trkpt lat="47.57184" lon="-0.2279">
        <ele>90.3</ele>
        <time>2017-09-16T09:38:07Z</time>
      </trkpt>
      <trkpt lat="47.57184" lon="-0.2279">
        <ele>90.3</ele>
        <time>2017-09-16T09:38:12Z</time>
      </trkpt>
      <trkpt lat="47.57184" lon="-0.2279">
        <ele>90.3</ele>
        <time>2017-09-16T09:38:17Z</time>
      </trkpt>
      <trkpt lat="47.57184" lon="-0.2279">
        <ele>90.3</ele>
        <time>2017-09-16T09:38:22Z</time>
      </trkpt>
      <trkpt lat="47.57184" lon="-0.2279">
        <ele>90.3</ele>
        <time>2017-09-16T09:38:27Z</time>
      </trkpt>
      <trkpt lat="47.57184" lon="-0.2279">
        <ele>90.3</ele>
        <time>2017-09-16T09:38:32Z</time>
      </trkpt>
      <trkpt lat="47.57181" lon="-0.22791">
        <ele>90.5</ele>
        <time>2017-09-16T09:38:37Z</time>
      </trkpt>
      <trkpt lat="47.5718" lon="-0.22792">
        <ele>90.5</ele>
        <time>2017-09-16T09:38:42Z</time>
      </trkpt>
      <trkpt lat="47.5718" lon="-0.22792">
        <ele>90.6</ele>
        <time>2017-09-16T09:38:47Z</time>
      </trkpt>
      <trkpt lat="47.57178" lon="-0.22792">
        <ele>90.7</ele>
        <time>2017-09-16T09:38:52Z</time>
      </trkpt>
      <trkpt lat="47.57174" lon="-0.22793">
        <ele>91</ele>
        <time>2017-09-16T09:38:57Z</time>
      </trkpt>
      <trkpt lat="47.5717" lon="-0.22793">
        <ele>91.3</ele>
        <time>2017-09-16T09:39:02Z</time>
      </trkpt>
      <trkpt lat="47.57167" lon="-0.22794">
        <ele>91.6</ele>
        <time>2017-09-16T09:39:07Z</time>
      </trkpt>
      <trkpt lat="47.57163" lon="-0.22794">
        <ele>91.8</ele>
        <time>2017-09-16T09:39:12Z</time>
      </trkpt>
      <trkpt lat="47.57158" lon="-0.22796">
        <ele>92.1</ele>
        <time>2017-09-16T09:39:17Z</time>
      </trkpt>
      <trkpt lat="47.57154" lon="-0.22795">
        <ele>92.3</ele>
        <time>2017-09-16T09:39:22Z</time>
      </trkpt>
      <trkpt lat="47.57148" lon="-0.22797">
        <ele>92.6</ele>
        <time>2017-09-16T09:39:27Z</time>
      </trkpt>
      <trkpt lat="47.57148" lon="-0.22797">
        <ele>92.6</ele>
        <time>2017-09-16T09:39:32Z</time>
      </trkpt>
      <trkpt lat="47.57144" lon="-0.22799">
        <ele>92.8</ele>
        <time>2017-09-16T09:39:37Z</time>
      </trkpt>
      <trkpt lat="47.5714" lon="-0.22801">
        <ele>93</ele>
        <time>2017-09-16T09:39:42Z</time>
      </trkpt>
      <trkpt lat="47.57136" lon="-0.22803">
        <ele>93.1</ele>
        <time>2017-09-16T09:39:47Z</time>
      </trkpt>
      <trkpt lat="47.57134" lon="-0.22805">
        <ele>93.2</ele>
        <time>2017-09-16T09:39:52Z</time>
      </trkpt>
      <trkpt lat="47.57134" lon="-0.22805">
        <ele>93.2</ele>
        <time>2017-09-16T09:39:57Z</time>
      </trkpt>
      <trkpt lat="47.57134" lon="-0.22805">
        <ele>93.2</ele>
        <time>2017-09-16T09:40:02Z</time>
      </trkpt>
      <trkpt lat="47.57134" lon="-0.22805">
        <ele>93.2</ele>
        <time>2017-09-16T09:40:07Z</time>
      </trkpt>
      <trkpt lat="47.57134" lon="-0.22806">
        <ele>93.2</ele>
        <time>2017-09-16T09:40:12Z</time>
      </trkpt>
      <trkpt lat="47.5713" lon="-0.22808">
        <ele>93.4</ele>
        <time>2017-09-16T09:40:17Z</time>
      </trkpt>
      <trkpt lat="47.5713" lon="-0.22809">
        <ele>93.4</ele>
        <time>2017-09-16T09:40:22Z</time>
      </trkpt>
      <trkpt lat="47.57129" lon="-0.22809">
        <ele>93.5</ele>
        <time>2017-09-16T09:40:27Z</time>
      </trkpt>
      <trkpt lat="47.57129" lon="-0.22809">
        <ele>93.5</ele>
        <time>2017-09-16T09:40:32Z</time>
      </trkpt>
      <trkpt lat="47.57129" lon="-0.22809">
        <ele>93.5</ele>
        <time>2017-09-16T09:40:37Z</time>
      </trkpt>
      <trkpt lat="47.57125" lon="-0.2281">
        <ele>93.7</ele>
        <time>2017-09-16T09:40:42Z</time>
      </trkpt>
      <trkpt lat="47.5712" lon="-0.22812">
        <ele>93.9</ele>
        <time>2017-09-16T09:40:47Z</time>
      </trkpt>
      <trkpt lat="47.57115" lon="-0.22813">
        <ele>94.1</ele>
        <time>2017-09-16T09:40:52Z</time>
      </trkpt>
      <trkpt lat="47.57109" lon="-0.22815">
        <ele>94.3</ele>
        <time>2017-09-16T09:40:57Z</time>
      </trkpt>
      <trkpt lat="47.57105" lon="-0.22814">
        <ele>94.2</ele>
        <time>2017-09-16T09:41:02Z</time>
      </trkpt>
      <trkpt lat="47.57101" lon="-0.22815">
        <ele>94.2</ele>
        <time>2017-09-16T09:41:07Z</time>
      </trkpt>
      <trkpt lat="47.571" lon="-0.22818">
        <ele>94.3</ele>
        <time>2017-09-16T09:41:12Z</time>
      </trkpt>
      <trkpt lat="47.571" lon="-0.22818">
        <ele>94.3</ele>
        <time>2017-09-16T09:41:17Z</time>
      </trkpt>
      <trkpt lat="47.571" lon="-0.22818">
        <ele>94.3</ele>
        <time>2017-09-16T09:41:22Z</time>
      </trkpt>
      <trkpt lat="47.571" lon="-0.22818">
        <ele>94.3</ele>
        <time>2017-09-16T09:41:27Z</time>
      </trkpt>
      <trkpt lat="47.57099" lon="-0.22814">
        <ele>94.2</ele>
        <time>2017-09-16T09:41:32Z</time>
      </trkpt>
      <trkpt lat="47.57095" lon="-0.22809">
        <ele>94.1</ele>
        <time>2017-09-16T09:41:37Z</time>
      </trkpt>
      <trkpt lat="47.5709" lon="-0.22805">
        <ele>94</ele>
        <time>2017-09-16T09:41:42Z</time>
      </trkpt>
      <trkpt lat="47.57086" lon="-0.22803">
        <ele>93.9</ele>
        <time>2017-09-16T09:41:47Z</time>
      </trkpt>
      <trkpt lat="47.57081" lon="-0.22801">
        <ele>93.7</ele>
        <time>2017-09-16T09:41:52Z</time>
      </trkpt>
      <trkpt lat="47.57076" lon="-0.22798">
        <ele>93.5</ele>
        <time>2017-09-16T09:41:57Z</time>
      </trkpt>
      <trkpt lat="47.57071" lon="-0.22795">
        <ele>93.2</ele>
        <time>2017-09-16T09:42:02Z</time>
      </trkpt>
      <trkpt lat="47.57067" lon="-0.22793">
        <ele>93</ele>
        <time>2017-09-16T09:42:07Z</time>
      </trkpt>
      <trkpt lat="47.57063" lon="-0.2279">
        <ele>92.7</ele>
        <time>2017-09-16T09:42:12Z</time>
      </trkpt>
      <trkpt lat="47.57058" lon="-0.22788">
        <ele>92.4</ele>
        <time>2017-09-16T09:42:17Z</time>
      </trkpt>
      <trkpt lat="47.57055" lon="-0.22785">
        <ele>92.2</ele>
        <time>2017-09-16T09:42:22Z</time>
      </trkpt>
      <trkpt lat="47.57051" lon="-0.22784">
        <ele>92.1</ele>
        <time>2017-09-16T09:42:27Z</time>
      </trkpt>
      <trkpt lat="47.5705" lon="-0.22784">
        <ele>92</ele>
        <time>2017-09-16T09:42:32Z</time>
      </trkpt>
      <trkpt lat="47.57048" lon="-0.22783">
        <ele>91.9</ele>
        <time>2017-09-16T09:42:37Z</time>
      </trkpt>
      <trkpt lat="47.57044" lon="-0.22781">
        <ele>91.7</ele>
        <time>2017-09-16T09:42:42Z</time>
      </trkpt>
      <trkpt lat="47.5704" lon="-0.2278">
        <ele>91.5</ele>
        <time>2017-09-16T09:42:47Z</time>
      </trkpt>
      <trkpt lat="47.57035" lon="-0.2278">
        <ele>91.3</ele>
        <time>2017-09-16T09:42:52Z</time>
      </trkpt>
      <trkpt lat="47.57031" lon="-0.2278">
        <ele>91.2</ele>
        <time>2017-09-16T09:42:57Z</time>
      </trkpt>
      <trkpt lat="47.57026" lon="-0.2278">
        <ele>91</ele>
        <time>2017-09-16T09:43:02Z</time>
      </trkpt>
      <trkpt lat="47.57022" lon="-0.22781">
        <ele>90.9</ele>
        <time>2017-09-16T09:43:07Z</time>
      </trkpt>
      <trkpt lat="47.57017" lon="-0.22783">
        <ele>90.7</ele>
        <time>2017-09-16T09:43:12Z</time>
      </trkpt>
      <trkpt lat="47.57012" lon="-0.22786">
        <ele>90.6</ele>
        <time>2017-09-16T09:43:17Z</time>
      </trkpt>
      <trkpt lat="47.57007" lon="-0.22788">
        <ele>90.3</ele>
        <time>2017-09-16T09:43:22Z</time>
      </trkpt>
      <trkpt lat="47.57001" lon="-0.22789">
        <ele>90</ele>
        <time>2017-09-16T09:43:27Z</time>
      </trkpt>
      <trkpt lat="47.56996" lon="-0.22793">
        <ele>89.7</ele>
        <time>2017-09-16T09:43:32Z</time>
      </trkpt>
      <trkpt lat="47.56991" lon="-0.22795">
        <ele>89.4</ele>
        <time>2017-09-16T09:43:37Z</time>
      </trkpt>
      <trkpt lat="47.56986" lon="-0.22798">
        <ele>89</ele>
        <time>2017-09-16T09:43:42Z</time>
      </trkpt>
      <trkpt lat="47.56979" lon="-0.228">
        <ele>88.5</ele>
        <time>2017-09-16T09:43:47Z</time>
      </trkpt>
      <trkpt lat="47.56974" lon="-0.22803">
        <ele>88.1</ele>
        <time>2017-09-16T09:43:52Z</time>
      </trkpt>
      <trkpt lat="47.56967" lon="-0.22805">
        <ele>87.6</ele>
        <time>2017-09-16T09:43:57Z</time>
      </trkpt>
      <trkpt lat="47.56963" lon="-0.22808">
        <ele>87.4</ele>
        <time>2017-09-16T09:44:02Z</time>
      </trkpt>
      <trkpt lat="47.56959" lon="-0.2281">
        <ele>87.1</ele>
        <time>2017-09-16T09:44:07Z</time>
      </trkpt>
      <trkpt lat="47.56955" lon="-0.22812">
        <ele>86.8</ele>
        <time>2017-09-16T09:44:12Z</time>
      </trkpt>
      <trkpt lat="47.5695" lon="-0.22814">
        <ele>86.4</ele>
        <time>2017-09-16T09:44:17Z</time>
      </trkpt>
      <trkpt lat="47.56944" lon="-0.22817">
        <ele>86</ele>
        <time>2017-09-16T09:44:22Z</time>
      </trkpt>
      <trkpt lat="47.56938" lon="-0.2282">
        <ele>85.7</ele>
        <time>2017-09-16T09:44:27Z</time>
      </trkpt>
      <trkpt lat="47.56933" lon="-0.22822">
        <ele>85.4</ele>
        <time>2017-09-16T09:44:32Z</time>
      </trkpt>
      <trkpt lat="47.56929" lon="-0.22823">
        <ele>85.2</ele>
        <time>2017-09-16T09:44:37Z</time>
      </trkpt>
      <trkpt lat="47.56924" lon="-0.22825">
        <ele>85</ele>
        <time>2017-09-16T09:44:42Z</time>
      </trkpt>
      <trkpt lat="47.56918" lon="-0.22827">
        <ele>84.8</ele>
        <time>2017-09-16T09:44:47Z</time>
      </trkpt>
      <trkpt lat="47.5691" lon="-0.22828">
        <ele>84.3</ele>
        <time>2017-09-16T09:44:52Z</time>
      </trkpt>
      <trkpt lat="47.56903" lon="-0.22828">
        <ele>83.9</ele>
        <time>2017-09-16T09:44:57Z</time>
      </trkpt>
      <trkpt lat="47.56896" lon="-0.22828">
        <ele>83.5</ele>
        <time>2017-09-16T09:45:02Z</time>
      </trkpt>
      <trkpt lat="47.5689" lon="-0.2283">
        <ele>83.1</ele>
        <time>2017-09-16T09:45:07Z</time>
      </trkpt>
      <trkpt lat="47.56885" lon="-0.22831">
        <ele>82.8</ele>
        <time>2017-09-16T09:45:12Z</time>
      </trkpt>
      <trkpt lat="47.56879" lon="-0.22832">
        <ele>82.6</ele>
        <time>2017-09-16T09:45:17Z</time>
      </trkpt>
      <trkpt lat="47.56873" lon="-0.22832">
        <ele>82.4</ele>
        <time>2017-09-16T09:45:22Z</time>
      </trkpt>
      <trkpt lat="47.56866" lon="-0.22833">
        <ele>82.2</ele>
        <time>2017-09-16T09:45:27Z</time>
      </trkpt>
      <trkpt lat="47.5686" lon="-0.22835">
        <ele>81.9</ele>
        <time>2017-09-16T09:45:32Z</time>
      </trkpt>
      <trkpt lat="47.56853" lon="-0.22835">
        <ele>81.7</ele>
        <time>2017-09-16T09:45:37Z</time>
      </trkpt>
      <trkpt lat="47.56846" lon="-0.22837">
        <ele>81.5</ele>
        <time>2017-09-16T09:45:42Z</time>
      </trkpt>
      <trkpt lat="47.5684" lon="-0.22839">
        <ele>81.4</ele>
        <time>2017-09-16T09:45:47Z</time>
      </trkpt>
      <trkpt lat="47.56834" lon="-0.22841">
        <ele>81.3</ele>
        <time>2017-09-16T09:45:52Z</time>
      </trkpt>
      <trkpt lat="47.56828" lon="-0.22842">
        <ele>81</ele>
        <time>2017-09-16T09:45:57Z</time>
      </trkpt>
      <trkpt lat="47.56822" lon="-0.22844">
        <ele>80.8</ele>
        <time>2017-09-16T09:46:02Z</time>
      </trkpt>
      <trkpt lat="47.56817" lon="-0.22845">
        <ele>80.6</ele>
        <time>2017-09-16T09:46:07Z</time>
      </trkpt>
      <trkpt lat="47.56812" lon="-0.22846">
        <ele>80.3</ele>
        <time>2017-09-16T09:46:12Z</time>
      </trkpt>
      <trkpt lat="47.56806" lon="-0.22846">
        <ele>80</ele>
        <time>2017-09-16T09:46:17Z</time>
      </trkpt>
      <trkpt lat="47.56801" lon="-0.22844">
        <ele>79.7</ele>
        <time>2017-09-16T09:46:22Z</time>
      </trkpt>
      <trkpt lat="47.56795" lon="-0.22843">
        <ele>79.4</ele>
        <time>2017-09-16T09:46:27Z</time>
      </trkpt>
      <trkpt lat="47.5679" lon="-0.2284">
        <ele>79</ele>
        <time>2017-09-16T09:46:32Z</time>
      </trkpt>
      <trkpt lat="47.56785" lon="-0.22838">
        <ele>78.7</ele>
        <time>2017-09-16T09:46:37Z</time>
      </trkpt>
      <trkpt lat="47.56781" lon="-0.22834">
        <ele>78.3</ele>
        <time>2017-09-16T09:46:42Z</time>
      </trkpt>
      <trkpt lat="47.56775" lon="-0.22833">
        <ele>77.8</ele>
        <time>2017-09-16T09:46:47Z</time>
      </trkpt>
      <trkpt lat="47.56769" lon="-0.22831">
        <ele>77.4</ele>
        <time>2017-09-16T09:46:52Z</time>
      </trkpt>
      <trkpt lat="47.56762" lon="-0.22829">
        <ele>76.9</ele>
        <time>2017-09-16T09:46:57Z</time>
      </trkpt>
      <trkpt lat="47.56756" lon="-0.22829">
        <ele>76.4</ele>
        <time>2017-09-16T09:47:02Z</time>
      </trkpt>
      <trkpt lat="47.56749" lon="-0.22829">
        <ele>75.9</ele>
        <time>2017-09-16T09:47:07Z</time>
      </trkpt>
      <trkpt lat="47.56744" lon="-0.22831">
        <ele>75.4</ele>
        <time>2017-09-16T09:47:12Z</time>
      </trkpt>
      <trkpt lat="47.56739" lon="-0.22834">
        <ele>74.8</ele>
        <time>2017-09-16T09:47:17Z</time>
      </trkpt>
      <trkpt lat="47.56734" lon="-0.22838">
        <ele>74.4</ele>
        <time>2017-09-16T09:47:22Z</time>
      </trkpt>
      <trkpt lat="47.5673" lon="-0.22844">
        <ele>74.2</ele>
        <time>2017-09-16T09:47:27Z</time>
      </trkpt>
      <trkpt lat="47.56725" lon="-0.2285">
        <ele>73.9</ele>
        <time>2017-09-16T09:47:32Z</time>
      </trkpt>
      <trkpt lat="47.56721" lon="-0.22856">
        <ele>73.7</ele>
        <time>2017-09-16T09:47:37Z</time>
      </trkpt>
      <trkpt lat="47.56718" lon="-0.22864">
        <ele>73.6</ele>
        <time>2017-09-16T09:47:42Z</time>
      </trkpt>
      <trkpt lat="47.56715" lon="-0.2287">
        <ele>73.3</ele>
        <time>2017-09-16T09:47:47Z</time>
      </trkpt>
      <trkpt lat="47.56712" lon="-0.22878">
        <ele>73.1</ele>
        <time>2017-09-16T09:47:52Z</time>
      </trkpt>
      <trkpt lat="47.56708" lon="-0.22884">
        <ele>72.8</ele>
        <time>2017-09-16T09:47:57Z</time>
      </trkpt>
      <trkpt lat="47.56705" lon="-0.22893">
        <ele>72.5</ele>
        <time>2017-09-16T09:48:02Z</time>
      </trkpt>
      <trkpt lat="47.56703" lon="-0.229">
        <ele>72.2</ele>
        <time>2017-09-16T09:48:07Z</time>
      </trkpt>
      <trkpt lat="47.567" lon="-0.22906">
        <ele>71.8</ele>
        <time>2017-09-16T09:48:12Z</time>
      </trkpt>
      <trkpt lat="47.56697" lon="-0.22914">
        <ele>71.3</ele>
        <time>2017-09-16T09:48:17Z</time>
      </trkpt>
      <trkpt lat="47.56693" lon="-0.22921">
        <ele>71.2</ele>
        <time>2017-09-16T09:48:22Z</time>
      </trkpt>
      <trkpt lat="47.56689" lon="-0.22927">
        <ele>71.2</ele>
        <time>2017-09-16T09:48:27Z</time>
      </trkpt>
      <trkpt lat="47.56684" lon="-0.22932">
        <ele>70.9</ele>
        <time>2017-09-16T09:48:32Z</time>
      </trkpt>
      <trkpt lat="47.56679" lon="-0.22936">
        <ele>70.6</ele>
        <time>2017-09-16T09:48:37Z</time>
      </trkpt>
      <trkpt lat="47.56675" lon="-0.22943">
        <ele>70.2</ele>
        <time>2017-09-16T09:48:42Z</time>
      </trkpt>
      <trkpt lat="47.5667" lon="-0.22948">
        <ele>69.5</ele>
        <time>2017-09-16T09:48:47Z</time>
      </trkpt>
      <trkpt lat="47.56665" lon="-0.22952">
        <ele>68.9</ele>
        <time>2017-09-16T09:48:52Z</time>
      </trkpt>
      <trkpt lat="47.5666" lon="-0.22956">
        <ele>68.5</ele>
        <time>2017-09-16T09:48:57Z</time>
      </trkpt>
      <trkpt lat="47.56654" lon="-0.22959">
        <ele>68.1</ele>
        <time>2017-09-16T09:49:02Z</time>
      </trkpt>
      <trkpt lat="47.56648" lon="-0.22962">
        <ele>67.7</ele>
        <time>2017-09-16T09:49:07Z</time>
      </trkpt>
      <trkpt lat="47.56643" lon="-0.22966">
        <ele>67.3</ele>
        <time>2017-09-16T09:49:12Z</time>
      </trkpt>
      <trkpt lat="47.56638" lon="-0.22968">
        <ele>67</ele>
        <time>2017-09-16T09:49:17Z</time>
      </trkpt>
      <trkpt lat="47.56632" lon="-0.2297">
        <ele>66.7</ele>
        <time>2017-09-16T09:49:22Z</time>
      </trkpt>
      <trkpt lat="47.56625" lon="-0.22973">
        <ele>66.5</ele>
        <time>2017-09-16T09:49:27Z</time>
      </trkpt>
      <trkpt lat="47.5662" lon="-0.22976">
        <ele>66.3</ele>
        <time>2017-09-16T09:49:32Z</time>
      </trkpt>
      <trkpt lat="47.56614" lon="-0.22981">
        <ele>66.1</ele>
        <time>2017-09-16T09:49:37Z</time>
      </trkpt>
      <trkpt lat="47.56608" lon="-0.22984">
        <ele>65.8</ele>
        <time>2017-09-16T09:49:42Z</time>
      </trkpt>
      <trkpt lat="47.56602" lon="-0.22987">
        <ele>65.5</ele>
        <time>2017-09-16T09:49:47Z</time>
      </trkpt>
      <trkpt lat="47.56596" lon="-0.2299">
        <ele>65.1</ele>
        <time>2017-09-16T09:49:52Z</time>
      </trkpt>
      <trkpt lat="47.56591" lon="-0.22993">
        <ele>64.7</ele>
        <time>2017-09-16T09:49:57Z</time>
      </trkpt>
      <trkpt lat="47.56585" lon="-0.22995">
        <ele>64.3</ele>
        <time>2017-09-16T09:50:02Z</time>
      </trkpt>
      <trkpt lat="47.56579" lon="-0.22997">
        <ele>64.1</ele>
        <time>2017-09-16T09:50:07Z</time>
      </trkpt>
      <trkpt lat="47.56573" lon="-0.22999">
        <ele>64</ele>
        <time>2017-09-16T09:50:12Z</time>
      </trkpt>
      <trkpt lat="47.56567" lon="-0.22999">
        <ele>64</ele>
        <time>2017-09-16T09:50:17Z</time>
      </trkpt>
      <trkpt lat="47.56562" lon="-0.22999">
        <ele>64</ele>
        <time>2017-09-16T09:50:22Z</time>
      </trkpt>
      <trkpt lat="47.56556" lon="-0.22999">
        <ele>64</ele>
        <time>2017-09-16T09:50:27Z</time>
      </trkpt>
      <trkpt lat="47.5655" lon="-0.22997">
        <ele>63.8</ele>
        <time>2017-09-16T09:50:32Z</time>
      </trkpt>
      <trkpt lat="47.56544" lon="-0.22996">
        <ele>63.6</ele>
        <time>2017-09-16T09:50:37Z</time>
      </trkpt>
      <trkpt lat="47.56539" lon="-0.22994">
        <ele>63.4</ele>
        <time>2017-09-16T09:50:42Z</time>
      </trkpt>
      <trkpt lat="47.56533" lon="-0.22994">
        <ele>63.2</ele>
        <time>2017-09-16T09:50:47Z</time>
      </trkpt>
      <trkpt lat="47.56527" lon="-0.22992">
        <ele>63</ele>
        <time>2017-09-16T09:50:52Z</time>
      </trkpt>
      <trkpt lat="47.56521" lon="-0.2299">
        <ele>62.8</ele>
        <time>2017-09-16T09:50:57Z</time>
      </trkpt>
      <trkpt lat="47.56515" lon="-0.22989">
        <ele>62.5</ele>
        <time>2017-09-16T09:51:02Z</time>
      </trkpt>
      <trkpt lat="47.56509" lon="-0.22988">
        <ele>62.3</ele>
        <time>2017-09-16T09:51:07Z</time>
      </trkpt>
      <trkpt lat="47.56503" lon="-0.22987">
        <ele>62.1</ele>
        <time>2017-09-16T09:51:12Z</time>
      </trkpt>
      <trkpt lat="47.56497" lon="-0.22986">
        <ele>62</ele>
        <time>2017-09-16T09:51:17Z</time>
      </trkpt>
      <trkpt lat="47.56491" lon="-0.22986">
        <ele>62</ele>
        <time>2017-09-16T09:51:22Z</time>
      </trkpt>
      <trkpt lat="47.56485" lon="-0.22986">
        <ele>62</ele>
        <time>2017-09-16T09:51:27Z</time>
      </trkpt>
      <trkpt lat="47.56479" lon="-0.22985">
        <ele>62</ele>
        <time>2017-09-16T09:51:32Z</time>
      </trkpt>
      <trkpt lat="47.56473" lon="-0.22983">
        <ele>62</ele>
        <time>2017-09-16T09:51:37Z</time>
      </trkpt>
      <trkpt lat="47.56467" lon="-0.22983">
        <ele>61.8</ele>
        <time>2017-09-16T09:51:42Z</time>
      </trkpt>
      <trkpt lat="47.56461" lon="-0.22984">
        <ele>61.6</ele>
        <time>2017-09-16T09:51:47Z</time>
      </trkpt>
      <trkpt lat="47.56455" lon="-0.22984">
        <ele>61.4</ele>
        <time>2017-09-16T09:51:52Z</time>
      </trkpt>
      <trkpt lat="47.56449" lon="-0.22984">
        <ele>61.2</ele>
        <time>2017-09-16T09:51:57Z</time>
      </trkpt>
      <trkpt lat="47.56444" lon="-0.22985">
        <ele>61</ele>
        <time>2017-09-16T09:52:02Z</time>
      </trkpt>
      <trkpt lat="47.56438" lon="-0.22986">
        <ele>61</ele>
        <time>2017-09-16T09:52:07Z</time>
      </trkpt>
      <trkpt lat="47.56432" lon="-0.22985">
        <ele>61</ele>
        <time>2017-09-16T09:52:12Z</time>
      </trkpt>
      <trkpt lat="47.56427" lon="-0.22986">
        <ele>61</ele>
        <time>2017-09-16T09:52:17Z</time>
      </trkpt>
      <trkpt lat="47.56421" lon="-0.22986">
        <ele>61</ele>
        <time>2017-09-16T09:52:22Z</time>
      </trkpt>
      <trkpt lat="47.56416" lon="-0.22988">
        <ele>61</ele>
        <time>2017-09-16T09:52:27Z</time>
      </trkpt>
      <trkpt lat="47.5641" lon="-0.22988">
        <ele>60.8</ele>
        <time>2017-09-16T09:52:32Z</time>
      </trkpt>
      <trkpt lat="47.56404" lon="-0.22988">
        <ele>60.5</ele>
        <time>2017-09-16T09:52:37Z</time>
      </trkpt>
      <trkpt lat="47.56398" lon="-0.22988">
        <ele>60.3</ele>
        <time>2017-09-16T09:52:42Z</time>
      </trkpt>
      <trkpt lat="47.56392" lon="-0.22989">
        <ele>60.1</ele>
        <time>2017-09-16T09:52:47Z</time>
      </trkpt>
      <trkpt lat="47.56387" lon="-0.22989">
        <ele>59.9</ele>
        <time>2017-09-16T09:52:52Z</time>
      </trkpt>
      <trkpt lat="47.56381" lon="-0.22989">
        <ele>59.5</ele>
        <time>2017-09-16T09:52:57Z</time>
      </trkpt>
      <trkpt lat="47.56375" lon="-0.2299">
        <ele>59.2</ele>
        <time>2017-09-16T09:53:02Z</time>
      </trkpt>
      <trkpt lat="47.5637" lon="-0.22991">
        <ele>58.8</ele>
        <time>2017-09-16T09:53:07Z</time>
      </trkpt>
      <trkpt lat="47.56364" lon="-0.22993">
        <ele>58.5</ele>
        <time>2017-09-16T09:53:12Z</time>
      </trkpt>
      <trkpt lat="47.56359" lon="-0.22994">
        <ele>58.2</ele>
        <time>2017-09-16T09:53:17Z</time>
      </trkpt>
      <trkpt lat="47.56353" lon="-0.22996">
        <ele>58.1</ele>
        <time>2017-09-16T09:53:22Z</time>
      </trkpt>
      <trkpt lat="47.56348" lon="-0.22998">
        <ele>58</ele>
        <time>2017-09-16T09:53:27Z</time>
      </trkpt>
      <trkpt lat="47.56343" lon="-0.23001">
        <ele>58</ele>
        <time>2017-09-16T09:53:32Z</time>
      </trkpt>
      <trkpt lat="47.56337" lon="-0.23004">
        <ele>58</ele>
        <time>2017-09-16T09:53:37Z</time>
      </trkpt>
      <trkpt lat="47.56332" lon="-0.23007">
        <ele>57.9</ele>
        <time>2017-09-16T09:53:42Z</time>
      </trkpt>
      <trkpt lat="47.56326" lon="-0.2301">
        <ele>57.7</ele>
        <time>2017-09-16T09:53:47Z</time>
      </trkpt>
      <trkpt lat="47.5632" lon="-0.23013">
        <ele>57.5</ele>
        <time>2017-09-16T09:53:52Z</time>
      </trkpt>
      <trkpt lat="47.56314" lon="-0.23016">
        <ele>57.3</ele>
        <time>2017-09-16T09:53:57Z</time>
      </trkpt>
      <trkpt lat="47.56307" lon="-0.23019">
        <ele>57.1</ele>
        <time>2017-09-16T09:54:02Z</time>
      </trkpt>
      <trkpt lat="47.56302" lon="-0.23022">
        <ele>57</ele>
        <time>2017-09-16T09:54:07Z</time>
      </trkpt>
      <trkpt lat="47.56296" lon="-0.23026">
        <ele>57</ele>
        <time>2017-09-16T09:54:12Z</time>
      </trkpt>
      <trkpt lat="47.56291" lon="-0.23029">
        <ele>57</ele>
        <time>2017-09-16T09:54:17Z</time>
      </trkpt>
      <trkpt lat="47.56285" lon="-0.23031">
        <ele>57</ele>
        <time>2017-09-16T09:54:22Z</time>
      </trkpt>
      <trkpt lat="47.56279" lon="-0.23034">
        <ele>57</ele>
        <time>2017-09-16T09:54:27Z</time>
      </trkpt>
      <trkpt lat="47.56273" lon="-0.23037">
        <ele>56.9</ele>
        <time>2017-09-16T09:54:32Z</time>
      </trkpt>
      <trkpt lat="47.56267" lon="-0.2304">
        <ele>56.8</ele>
        <time>2017-09-16T09:54:37Z</time>
      </trkpt>
      <trkpt lat="47.56261" lon="-0.23043">
        <ele>56.7</ele>
        <time>2017-09-16T09:54:42Z</time>
      </trkpt>
      <trkpt lat="47.56256" lon="-0.23045">
        <ele>56.5</ele>
        <time>2017-09-16T09:54:47Z</time>
      </trkpt>
      <trkpt lat="47.5625" lon="-0.23048">
        <ele>56.3</ele>
        <time>2017-09-16T09:54:52Z</time>
      </trkpt>
      <trkpt lat="47.56244" lon="-0.23051">
        <ele>56.1</ele>
        <time>2017-09-16T09:54:57Z</time>
      </trkpt>
      <trkpt lat="47.56238" lon="-0.23053">
        <ele>56.1</ele>
        <time>2017-09-16T09:55:02Z</time>
      </trkpt>
      <trkpt lat="47.56231" lon="-0.23055">
        <ele>56</ele>
        <time>2017-09-16T09:55:07Z</time>
      </trkpt>
      <trkpt lat="47.56225" lon="-0.23058">
        <ele>56</ele>
        <time>2017-09-16T09:55:12Z</time>
      </trkpt>
      <trkpt lat="47.56219" lon="-0.23062">
        <ele>55.9</ele>
        <time>2017-09-16T09:55:17Z</time>
      </trkpt>
      <trkpt lat="47.56213" lon="-0.23064">
        <ele>55.7</ele>
        <time>2017-09-16T09:55:22Z</time>
      </trkpt>
      <trkpt lat="47.56207" lon="-0.23067">
        <ele>55.5</ele>
        <time>2017-09-16T09:55:27Z</time>
      </trkpt>
      <trkpt lat="47.562" lon="-0.23069">
        <ele>55.2</ele>
        <time>2017-09-16T09:55:32Z</time>
      </trkpt>
      <trkpt lat="47.56194" lon="-0.23072">
        <ele>55</ele>
        <time>2017-09-16T09:55:37Z</time>
      </trkpt>
      <trkpt lat="47.56189" lon="-0.23074">
        <ele>55</ele>
        <time>2017-09-16T09:55:42Z</time>
      </trkpt>
      <trkpt lat="47.56183" lon="-0.23076">
        <ele>55</ele>
        <time>2017-09-16T09:55:47Z</time>
      </trkpt>
      <trkpt lat="47.56178" lon="-0.23078">
        <ele>55</ele>
        <time>2017-09-16T09:55:52Z</time>
      </trkpt>
      <trkpt lat="47.56172" lon="-0.2308">
        <ele>55</ele>
        <time>2017-09-16T09:55:57Z</time>
      </trkpt>
      <trkpt lat="47.56166" lon="-0.23082">
        <ele>55</ele>
        <time>2017-09-16T09:56:02Z</time>
      </trkpt>
      <trkpt lat="47.56161" lon="-0.23084">
        <ele>54.8</ele>
        <time>2017-09-16T09:56:07Z</time>
      </trkpt>
      <trkpt lat="47.56155" lon="-0.23086">
        <ele>54.6</ele>
        <time>2017-09-16T09:56:12Z</time>
      </trkpt>
      <trkpt lat="47.56149" lon="-0.23088">
        <ele>54.4</ele>
        <time>2017-09-16T09:56:17Z</time>
      </trkpt>
      <trkpt lat="47.56143" lon="-0.2309">
        <ele>54.1</ele>
        <time>2017-09-16T09:56:22Z</time>
      </trkpt>
      <trkpt lat="47.56137" lon="-0.23092">
        <ele>54</ele>
        <time>2017-09-16T09:56:27Z</time>
      </trkpt>
      <trkpt lat="47.56132" lon="-0.23095">
        <ele>54</ele>
        <time>2017-09-16T09:56:32Z</time>
      </trkpt>
      <trkpt lat="47.56127" lon="-0.23097">
        <ele>54</ele>
        <time>2017-09-16T09:56:37Z</time>
      </trkpt>
      <trkpt lat="47.56121" lon="-0.23098">
        <ele>54</ele>
        <time>2017-09-16T09:56:42Z</time>
      </trkpt>
      <trkpt lat="47.56116" lon="-0.231">
        <ele>54</ele>
        <time>2017-09-16T09:56:47Z</time>
      </trkpt>
      <trkpt lat="47.56111" lon="-0.23102">
        <ele>54</ele>
        <time>2017-09-16T09:56:52Z</time>
      </trkpt>
      <trkpt lat="47.56106" lon="-0.23105">
        <ele>54</ele>
        <time>2017-09-16T09:56:57Z</time>
      </trkpt>
      <trkpt lat="47.56104" lon="-0.23106">
        <ele>54</ele>
        <time>2017-09-16T09:57:02Z</time>
      </trkpt>
      <trkpt lat="47.561" lon="-0.23108">
        <ele>54</ele>
        <time>2017-09-16T09:57:07Z</time>
      </trkpt>
      <trkpt lat="47.56096" lon="-0.23109">
        <ele>54</ele>
        <time>2017-09-16T09:57:12Z</time>
      </trkpt>
      <trkpt lat="47.56095" lon="-0.2311">
        <ele>54</ele>
        <time>2017-09-16T09:57:17Z</time>
      </trkpt>
      <trkpt lat="47.56089" lon="-0.23112">
        <ele>54</ele>
        <time>2017-09-16T09:57:22Z</time>
      </trkpt>
      <trkpt lat="47.56083" lon="-0.23114">
        <ele>54</ele>
        <time>2017-09-16T09:57:27Z</time>
      </trkpt>
      <trkpt lat="47.56077" lon="-0.23116">
        <ele>54</ele>
        <time>2017-09-16T09:57:32Z</time>
      </trkpt>
      <trkpt lat="47.56071" lon="-0.23118">
        <ele>54</ele>
        <time>2017-09-16T09:57:37Z</time>
      </trkpt>
      <trkpt lat="47.56065" lon="-0.2312">
        <ele>54</ele>
        <time>2017-09-16T09:57:42Z</time>
      </trkpt>
      <trkpt lat="47.56059" lon="-0.23122">
        <ele>54</ele>
        <time>2017-09-16T09:57:47Z</time>
      </trkpt>
      <trkpt lat="47.56054" lon="-0.23122">
        <ele>54.1</ele>
        <time>2017-09-16T09:57:52Z</time>
      </trkpt>
      <trkpt lat="47.56047" lon="-0.23123">
        <ele>54.4</ele>
        <time>2017-09-16T09:57:57Z</time>
      </trkpt>
      <trkpt lat="47.56041" lon="-0.23123">
        <ele>54.7</ele>
        <time>2017-09-16T09:58:02Z</time>
      </trkpt>
      <trkpt lat="47.56036" lon="-0.23121">
        <ele>55</ele>
        <time>2017-09-16T09:58:07Z</time>
      </trkpt>
      <trkpt lat="47.56031" lon="-0.23118">
        <ele>55.1</ele>
        <time>2017-09-16T09:58:12Z</time>
      </trkpt>
      <trkpt lat="47.56025" lon="-0.23116">
        <ele>55.2</ele>
        <time>2017-09-16T09:58:17Z</time>
      </trkpt>
      <trkpt lat="47.56019" lon="-0.23111">
        <ele>55.3</ele>
        <time>2017-09-16T09:58:22Z</time>
      </trkpt>
      <trkpt lat="47.56014" lon="-0.23107">
        <ele>55.4</ele>
        <time>2017-09-16T09:58:27Z</time>
      </trkpt>
      <trkpt lat="47.5601" lon="-0.23102">
        <ele>55.4</ele>
        <time>2017-09-16T09:58:32Z</time>
      </trkpt>
      <trkpt lat="47.56005" lon="-0.23097">
        <ele>55.4</ele>
        <time>2017-09-16T09:58:37Z</time>
      </trkpt>
      <trkpt lat="47.56001" lon="-0.23091">
        <ele>55.3</ele>
        <time>2017-09-16T09:58:42Z</time>
      </trkpt>
      <trkpt lat="47.55996" lon="-0.23086">
        <ele>55.3</ele>
        <time>2017-09-16T09:58:47Z</time>
      </trkpt>
      <trkpt lat="47.55993" lon="-0.2308">
        <ele>55.5</ele>
        <time>2017-09-16T09:58:52Z</time>
      </trkpt>
      <trkpt lat="47.55989" lon="-0.23075">
        <ele>55.7</ele>
        <time>2017-09-16T09:58:57Z</time>
      </trkpt>
      <trkpt lat="47.55984" lon="-0.23069">
        <ele>55.9</ele>
        <time>2017-09-16T09:59:02Z</time>
      </trkpt>
      <trkpt lat="47.55979" lon="-0.23064">
        <ele>56</ele>
        <time>2017-09-16T09:59:07Z</time>
      </trkpt>
      <trkpt lat="47.55973" lon="-0.23059">
        <ele>56.1</ele>
        <time>2017-09-16T09:59:12Z</time>
      </trkpt>
      <trkpt lat="47.55968" lon="-0.23055">
        <ele>56.1</ele>
        <time>2017-09-16T09:59:17Z</time>
      </trkpt>
      <trkpt lat="47.55963" lon="-0.23051">
        <ele>56.3</ele>
        <time>2017-09-16T09:59:22Z</time>
      </trkpt>
      <trkpt lat="47.55957" lon="-0.23047">
        <ele>56.6</ele>
        <time>2017-09-16T09:59:27Z</time>
      </trkpt>
      <trkpt lat="47.55952" lon="-0.23043">
        <ele>56.7</ele>
        <time>2017-09-16T09:59:32Z</time>
      </trkpt>
      <trkpt lat="47.55946" lon="-0.23039">
        <ele>57</ele>
        <time>2017-09-16T09:59:37Z</time>
      </trkpt>
      <trkpt lat="47.55941" lon="-0.23035">
        <ele>57</ele>
        <time>2017-09-16T09:59:42Z</time>
      </trkpt>
      <trkpt lat="47.55936" lon="-0.23032">
        <ele>57</ele>
        <time>2017-09-16T09:59:47Z</time>
      </trkpt>
      <trkpt lat="47.55931" lon="-0.23029">
        <ele>57</ele>
        <time>2017-09-16T09:59:52Z</time>
      </trkpt>
      <trkpt lat="47.55926" lon="-0.23025">
        <ele>56.9</ele>
        <time>2017-09-16T09:59:57Z</time>
      </trkpt>
      <trkpt lat="47.55921" lon="-0.23022">
        <ele>56.8</ele>
        <time>2017-09-16T10:00:02Z</time>
      </trkpt>
      <trkpt lat="47.55915" lon="-0.23018">
        <ele>56.7</ele>
        <time>2017-09-16T10:00:07Z</time>
      </trkpt>
      <trkpt lat="47.5591" lon="-0.23017">
        <ele>56.8</ele>
        <time>2017-09-16T10:00:12Z</time>
      </trkpt>
      <trkpt lat="47.55904" lon="-0.23015">
        <ele>56.8</ele>
        <time>2017-09-16T10:00:17Z</time>
      </trkpt>
      <trkpt lat="47.55899" lon="-0.23013">
        <ele>56.7</ele>
        <time>2017-09-16T10:00:22Z</time>
      </trkpt>
      <trkpt lat="47.55894" lon="-0.23011">
        <ele>56.7</ele>
        <time>2017-09-16T10:00:27Z</time>
      </trkpt>
      <trkpt lat="47.55888" lon="-0.2301">
        <ele>56.7</ele>
        <time>2017-09-16T10:00:32Z</time>
      </trkpt>
      <trkpt lat="47.55883" lon="-0.23007">
        <ele>56.7</ele>
        <time>2017-09-16T10:00:37Z</time>
      </trkpt>
      <trkpt lat="47.55877" lon="-0.23005">
        <ele>56.7</ele>
        <time>2017-09-16T10:00:42Z</time>
      </trkpt>
      <trkpt lat="47.55872" lon="-0.23003">
        <ele>56.8</ele>
        <time>2017-09-16T10:00:47Z</time>
      </trkpt>
      <trkpt lat="47.55866" lon="-0.23002">
        <ele>56.9</ele>
        <time>2017-09-16T10:00:52Z</time>
      </trkpt>
      <trkpt lat="47.5586" lon="-0.23001">
        <ele>57</ele>
        <time>2017-09-16T10:00:57Z</time>
      </trkpt>
      <trkpt lat="47.55855" lon="-0.22999">
        <ele>56.9</ele>
        <time>2017-09-16T10:01:02Z</time>
      </trkpt>
      <trkpt lat="47.5585" lon="-0.22998">
        <ele>56.9</ele>
        <time>2017-09-16T10:01:07Z</time>
      </trkpt>
      <trkpt lat="47.55844" lon="-0.22997">
        <ele>56.8</ele>
        <time>2017-09-16T10:01:12Z</time>
      </trkpt>
      <trkpt lat="47.55838" lon="-0.22994">
        <ele>56.7</ele>
        <time>2017-09-16T10:01:17Z</time>
      </trkpt>
      <trkpt lat="47.55832" lon="-0.22989">
        <ele>56.6</ele>
        <time>2017-09-16T10:01:22Z</time>
      </trkpt>
      <trkpt lat="47.55828" lon="-0.22984">
        <ele>56.4</ele>
        <time>2017-09-16T10:01:27Z</time>
      </trkpt>
      <trkpt lat="47.55823" lon="-0.22978">
        <ele>56.2</ele>
        <time>2017-09-16T10:01:32Z</time>
      </trkpt>
      <trkpt lat="47.55819" lon="-0.22972">
        <ele>56</ele>
        <time>2017-09-16T10:01:37Z</time>
      </trkpt>
      <trkpt lat="47.55814" lon="-0.22967">
        <ele>55.9</ele>
        <time>2017-09-16T10:01:42Z</time>
      </trkpt>
      <trkpt lat="47.55809" lon="-0.22963">
        <ele>56</ele>
        <time>2017-09-16T10:01:47Z</time>
      </trkpt>
      <trkpt lat="47.55803" lon="-0.22962">
        <ele>56.1</ele>
        <time>2017-09-16T10:01:52Z</time>
      </trkpt>
      <trkpt lat="47.55798" lon="-0.22966">
        <ele>56.3</ele>
        <time>2017-09-16T10:01:57Z</time>
      </trkpt>
      <trkpt lat="47.55795" lon="-0.22972">
        <ele>56.4</ele>
        <time>2017-09-16T10:02:02Z</time>
      </trkpt>
      <trkpt lat="47.55793" lon="-0.22976">
        <ele>56.5</ele>
        <time>2017-09-16T10:02:07Z</time>
      </trkpt>
      <trkpt lat="47.55788" lon="-0.22975">
        <ele>56.7</ele>
        <time>2017-09-16T10:02:12Z</time>
      </trkpt>
      <trkpt lat="47.55784" lon="-0.22976">
        <ele>56.8</ele>
        <time>2017-09-16T10:02:17Z</time>
      </trkpt>
      <trkpt lat="47.55779" lon="-0.22974">
        <ele>57</ele>
        <time>2017-09-16T10:02:22Z</time>
      </trkpt>
      <trkpt lat="47.55774" lon="-0.2297">
        <ele>57</ele>
        <time>2017-09-16T10:02:27Z</time>
      </trkpt>
      <trkpt lat="47.5577" lon="-0.22964">
        <ele>57</ele>
        <time>2017-09-16T10:02:32Z</time>
      </trkpt>
      <trkpt lat="47.55765" lon="-0.2296">
        <ele>57</ele>
        <time>2017-09-16T10:02:37Z</time>
      </trkpt>
      <trkpt lat="47.55765" lon="-0.22964">
        <ele>57</ele>
        <time>2017-09-16T10:02:42Z</time>
      </trkpt>
      <trkpt lat="47.55763" lon="-0.22969">
        <ele>57</ele>
        <time>2017-09-16T10:02:47Z</time>
      </trkpt>
      <trkpt lat="47.55763" lon="-0.22976">
        <ele>57</ele>
        <time>2017-09-16T10:02:52Z</time>
      </trkpt>
      <trkpt lat="47.55765" lon="-0.22984">
        <ele>57</ele>
        <time>2017-09-16T10:02:57Z</time>
      </trkpt>
      <trkpt lat="47.55764" lon="-0.22993">
        <ele>57</ele>
        <time>2017-09-16T10:03:02Z</time>
      </trkpt>
      <trkpt lat="47.55761" lon="-0.23002">
        <ele>57</ele>
        <time>2017-09-16T10:03:07Z</time>
      </trkpt>
      <trkpt lat="47.55757" lon="-0.23009">
        <ele>57</ele>
        <time>2017-09-16T10:03:12Z</time>
      </trkpt>
      <trkpt lat="47.55753" lon="-0.23015">
        <ele>57</ele>
        <time>2017-09-16T10:03:17Z</time>
      </trkpt>
      <trkpt lat="47.55751" lon="-0.23022">
        <ele>57</ele>
        <time>2017-09-16T10:03:22Z</time>
      </trkpt>
      <trkpt lat="47.55747" lon="-0.23028">
        <ele>57.1</ele>
        <time>2017-09-16T10:03:27Z</time>
      </trkpt>
      <trkpt lat="47.55744" lon="-0.23031">
        <ele>57.3</ele>
        <time>2017-09-16T10:03:32Z</time>
      </trkpt>
      <trkpt lat="47.55744" lon="-0.23031">
        <ele>57.3</ele>
        <time>2017-09-16T10:03:37Z</time>
      </trkpt>
      <trkpt lat="47.55744" lon="-0.23031">
        <ele>57.3</ele>
        <time>2017-09-16T10:03:42Z</time>
      </trkpt>
      <trkpt lat="47.55744" lon="-0.23031">
        <ele>57.3</ele>
        <time>2017-09-16T10:03:47Z</time>
      </trkpt>
      <trkpt lat="47.55743" lon="-0.23034">
        <ele>57.4</ele>
        <time>2017-09-16T10:03:52Z</time>
      </trkpt>
      <trkpt lat="47.55739" lon="-0.23038">
        <ele>57.6</ele>
        <time>2017-09-16T10:03:57Z</time>
      </trkpt>
      <trkpt lat="47.55736" lon="-0.2304">
        <ele>57.7</ele>
        <time>2017-09-16T10:04:02Z</time>
      </trkpt>
      <trkpt lat="47.55735" lon="-0.23041">
        <ele>57.8</ele>
        <time>2017-09-16T10:04:07Z</time>
      </trkpt>
      <trkpt lat="47.55733" lon="-0.23043">
        <ele>57.8</ele>
        <time>2017-09-16T10:04:12Z</time>
      </trkpt>
      <trkpt lat="47.55729" lon="-0.23048">
        <ele>57.9</ele>
        <time>2017-09-16T10:04:17Z</time>
      </trkpt>
      <trkpt lat="47.55726" lon="-0.23054">
        <ele>58</ele>
        <time>2017-09-16T10:04:22Z</time>
      </trkpt>
      <trkpt lat="47.55721" lon="-0.23059">
        <ele>58.1</ele>
        <time>2017-09-16T10:04:27Z</time>
      </trkpt>
      <trkpt lat="47.55717" lon="-0.23064">
        <ele>58.3</ele>
        <time>2017-09-16T10:04:32Z</time>
      </trkpt>
      <trkpt lat="47.55712" lon="-0.23069">
        <ele>58.5</ele>
        <time>2017-09-16T10:04:37Z</time>
      </trkpt>
      <trkpt lat="47.55708" lon="-0.23075">
        <ele>58.7</ele>
        <time>2017-09-16T10:04:42Z</time>
      </trkpt>
      <trkpt lat="47.55704" lon="-0.23081">
        <ele>58.9</ele>
        <time>2017-09-16T10:04:47Z</time>
      </trkpt>
      <trkpt lat="47.55699" lon="-0.23084">
        <ele>59</ele>
        <time>2017-09-16T10:04:52Z</time>
      </trkpt>
      <trkpt lat="47.55695" lon="-0.2309">
        <ele>59</ele>
        <time>2017-09-16T10:04:57Z</time>
      </trkpt>
      <trkpt lat="47.55691" lon="-0.23095">
        <ele>59.1</ele>
        <time>2017-09-16T10:05:02Z</time>
      </trkpt>
      <trkpt lat="47.55687" lon="-0.231">
        <ele>59.2</ele>
        <time>2017-09-16T10:05:07Z</time>
      </trkpt>
      <trkpt lat="47.55683" lon="-0.23105">
        <ele>59.3</ele>
        <time>2017-09-16T10:05:12Z</time>
      </trkpt>
      <trkpt lat="47.5568" lon="-0.23112">
        <ele>59.5</ele>
        <time>2017-09-16T10:05:17Z</time>
      </trkpt>
      <trkpt lat="47.55675" lon="-0.23117">
        <ele>59.7</ele>
        <time>2017-09-16T10:05:22Z</time>
      </trkpt>
      <trkpt lat="47.55671" lon="-0.23123">
        <ele>59.8</ele>
        <time>2017-09-16T10:05:27Z</time>
      </trkpt>
      <trkpt lat="47.55668" lon="-0.23129">
        <ele>60</ele>
        <time>2017-09-16T10:05:32Z</time>
      </trkpt>
      <trkpt lat="47.55663" lon="-0.23132">
        <ele>60.1</ele>
        <time>2017-09-16T10:05:37Z</time>
      </trkpt>
      <trkpt lat="47.55664" lon="-0.2313">
        <ele>60.1</ele>
        <time>2017-09-16T10:05:42Z</time>
      </trkpt>
      <trkpt lat="47.55665" lon="-0.2313">
        <ele>60.1</ele>
        <time>2017-09-16T10:05:47Z</time>
      </trkpt>
      <trkpt lat="47.55664" lon="-0.23123">
        <ele>60.1</ele>
        <time>2017-09-16T10:05:52Z</time>
      </trkpt>
      <trkpt lat="47.55661" lon="-0.23118">
        <ele>60.2</ele>
        <time>2017-09-16T10:05:57Z</time>
      </trkpt>
      <trkpt lat="47.5566" lon="-0.23112">
        <ele>60.3</ele>
        <time>2017-09-16T10:06:02Z</time>
      </trkpt>
      <trkpt lat="47.55658" lon="-0.23105">
        <ele>60.1</ele>
        <time>2017-09-16T10:06:07Z</time>
      </trkpt>
      <trkpt lat="47.55654" lon="-0.23099">
        <ele>60</ele>
        <time>2017-09-16T10:06:12Z</time>
      </trkpt>
      <trkpt lat="47.55652" lon="-0.23095">
        <ele>59.9</ele>
        <time>2017-09-16T10:06:17Z</time>
      </trkpt>
      <trkpt lat="47.5565" lon="-0.23089">
        <ele>59.8</ele>
        <time>2017-09-16T10:06:22Z</time>
      </trkpt>
      <trkpt lat="47.55651" lon="-0.23088">
        <ele>59.8</ele>
        <time>2017-09-16T10:06:27Z</time>
      </trkpt>
      <trkpt lat="47.55651" lon="-0.23088">
        <ele>59.8</ele>
        <time>2017-09-16T10:06:32Z</time>
      </trkpt>
      <trkpt lat="47.55651" lon="-0.23088">
        <ele>59.8</ele>
        <time>2017-09-16T10:06:37Z</time>
      </trkpt>
      <trkpt lat="47.55651" lon="-0.23088">
        <ele>59.8</ele>
        <time>2017-09-16T10:06:42Z</time>
      </trkpt>
      <trkpt lat="47.55651" lon="-0.23088">
        <ele>59.8</ele>
        <time>2017-09-16T10:06:47Z</time>
      </trkpt>
      <trkpt lat="47.55651" lon="-0.23088">
        <ele>59.8</ele>
        <time>2017-09-16T10:06:52Z</time>
      </trkpt>
      <trkpt lat="47.55651" lon="-0.23088">
        <ele>59.8</ele>
        <time>2017-09-16T10:06:57Z</time>
      </trkpt>
      <trkpt lat="47.55651" lon="-0.23088">
        <ele>59.8</ele>
        <time>2017-09-16T10:07:02Z</time>
      </trkpt>
      <trkpt lat="47.55651" lon="-0.23088">
        <ele>59.8</ele>
        <time>2017-09-16T10:07:07Z</time>
      </trkpt>
      <trkpt lat="47.5565" lon="-0.23087">
        <ele>59.7</ele>
        <time>2017-09-16T10:07:12Z</time>
      </trkpt>
      <trkpt lat="47.55648" lon="-0.23083">
        <ele>59.7</ele>
        <time>2017-09-16T10:07:17Z</time>
      </trkpt>
      <trkpt lat="47.55646" lon="-0.2308">
        <ele>59.6</ele>
        <time>2017-09-16T10:07:22Z</time>
      </trkpt>
      <trkpt lat="47.55643" lon="-0.23077">
        <ele>59.6</ele>
        <time>2017-09-16T10:07:27Z</time>
      </trkpt>
      <trkpt lat="47.5564" lon="-0.23073">
        <ele>59.6</ele>
        <time>2017-09-16T10:07:32Z</time>
      </trkpt>
      <trkpt lat="47.55635" lon="-0.2307">
        <ele>59.5</ele>
        <time>2017-09-16T10:07:37Z</time>
      </trkpt>
      <trkpt lat="47.55631" lon="-0.23068">
        <ele>59.4</ele>
        <time>2017-09-16T10:07:42Z</time>
      </trkpt>
      <trkpt lat="47.55627" lon="-0.23064">
        <ele>59.3</ele>
        <time>2017-09-16T10:07:47Z</time>
      </trkpt>
      <trkpt lat="47.55622" lon="-0.2306">
        <ele>59.2</ele>
        <time>2017-09-16T10:07:52Z</time>
      </trkpt>
      <trkpt lat="47.55619" lon="-0.23058">
        <ele>59.1</ele>
        <time>2017-09-16T10:07:57Z</time>
      </trkpt>
      <trkpt lat="47.55615" lon="-0.23059">
        <ele>59.1</ele>
        <time>2017-09-16T10:08:02Z</time>
      </trkpt>
      <trkpt lat="47.5561" lon="-0.23059">
        <ele>59.1</ele>
        <time>2017-09-16T10:08:07Z</time>
      </trkpt>
      <trkpt lat="47.55607" lon="-0.2306">
        <ele>59.2</ele>
        <time>2017-09-16T10:08:12Z</time>
      </trkpt>
      <trkpt lat="47.55603" lon="-0.23061">
        <ele>59.3</ele>
        <time>2017-09-16T10:08:17Z</time>
      </trkpt>
      <trkpt lat="47.556" lon="-0.23059">
        <ele>59.2</ele>
        <time>2017-09-16T10:08:22Z</time>
      </trkpt>
      <trkpt lat="47.556" lon="-0.23059">
        <ele>59.2</ele>
        <time>2017-09-16T10:08:27Z</time>
      </trkpt>
      <trkpt lat="47.556" lon="-0.23059">
        <ele>59.2</ele>
        <time>2017-09-16T10:08:32Z</time>
      </trkpt>
      <trkpt lat="47.55596" lon="-0.23061">
        <ele>59.3</ele>
        <time>2017-09-16T10:08:37Z</time>
      </trkpt>
      <trkpt lat="47.55595" lon="-0.23064">
        <ele>59.5</ele>
        <time>2017-09-16T10:08:42Z</time>
      </trkpt>
      <trkpt lat="47.55595" lon="-0.23066">
        <ele>59.6</ele>
        <time>2017-09-16T10:08:47Z</time>
      </trkpt>
      <trkpt lat="47.55594" lon="-0.2307">
        <ele>59.8</ele>
        <time>2017-09-16T10:08:52Z</time>
      </trkpt>
      <trkpt lat="47.55592" lon="-0.23073">
        <ele>60.1</ele>
        <time>2017-09-16T10:08:57Z</time>
      </trkpt>
      <trkpt lat="47.5559" lon="-0.23076">
        <ele>60.3</ele>
        <time>2017-09-16T10:09:02Z</time>
      </trkpt>
      <trkpt lat="47.55587" lon="-0.23079">
        <ele>60.6</ele>
        <time>2017-09-16T10:09:07Z</time>
      </trkpt>
      <trkpt lat="47.55586" lon="-0.23079">
        <ele>60.6</ele>
        <time>2017-09-16T10:09:12Z</time>
      </trkpt>
      <trkpt lat="47.55584" lon="-0.23083">
        <ele>60.9</ele>
        <time>2017-09-16T10:09:17Z</time>
      </trkpt>
      <trkpt lat="47.55584" lon="-0.23083">
        <ele>61</ele>
        <time>2017-09-16T10:09:22Z</time>
      </trkpt>
      <trkpt lat="47.55583" lon="-0.23084">
        <ele>61.1</ele>
        <time>2017-09-16T10:09:27Z</time>
      </trkpt>
      <trkpt lat="47.55582" lon="-0.23084">
        <ele>61.1</ele>
        <time>2017-09-16T10:09:32Z</time>
      </trkpt>
      <trkpt lat="47.55579" lon="-0.23089">
        <ele>61.5</ele>
        <time>2017-09-16T10:09:37Z</time>
      </trkpt>
      <trkpt lat="47.55577" lon="-0.23093">
        <ele>61.8</ele>
        <time>2017-09-16T10:09:42Z</time>
      </trkpt>
      <trkpt lat="47.55575" lon="-0.23098">
        <ele>62.1</ele>
        <time>2017-09-16T10:09:47Z</time>
      </trkpt>
      <trkpt lat="47.55573" lon="-0.23102">
        <ele>62.5</ele>
        <time>2017-09-16T10:09:52Z</time>
      </trkpt>
      <trkpt lat="47.55571" lon="-0.23108">
        <ele>62.8</ele>
        <time>2017-09-16T10:09:57Z</time>
      </trkpt>
      <trkpt lat="47.55569" lon="-0.23111">
        <ele>63</ele>
        <time>2017-09-16T10:10:02Z</time>
      </trkpt>
      <trkpt lat="47.55566" lon="-0.23115">
        <ele>63.5</ele>
        <time>2017-09-16T10:10:07Z</time>
      </trkpt>
      <trkpt lat="47.55565" lon="-0.23116">
        <ele>63.5</ele>
        <time>2017-09-16T10:10:12Z</time>
      </trkpt>
      <trkpt lat="47.55565" lon="-0.23116">
        <ele>63.5</ele>
        <time>2017-09-16T10:10:17Z</time>
      </trkpt>
      <trkpt lat="47.55564" lon="-0.23118">
        <ele>63.7</ele>
        <time>2017-09-16T10:10:22Z</time>
      </trkpt>
      <trkpt lat="47.55563" lon="-0.23121">
        <ele>63.9</ele>
        <time>2017-09-16T10:10:27Z</time>
      </trkpt>
      <trkpt lat="47.55562" lon="-0.23125">
        <ele>64.2</ele>
        <time>2017-09-16T10:10:32Z</time>
      </trkpt>
      <trkpt lat="47.5556" lon="-0.23129">
        <ele>64.4</ele>
        <time>2017-09-16T10:10:37Z</time>
      </trkpt>
      <trkpt lat="47.55558" lon="-0.23133">
        <ele>64.7</ele>
        <time>2017-09-16T10:10:42Z</time>
      </trkpt>
      <trkpt lat="47.55557" lon="-0.23134">
        <ele>64.8</ele>
        <time>2017-09-16T10:10:47Z</time>
      </trkpt>
      <trkpt lat="47.55556" lon="-0.23134">
        <ele>64.8</ele>
        <time>2017-09-16T10:10:52Z</time>
      </trkpt>
      <trkpt lat="47.55556" lon="-0.23133">
        <ele>64.8</ele>
        <time>2017-09-16T10:10:57Z</time>
      </trkpt>
      <trkpt lat="47.55556" lon="-0.23134">
        <ele>64.8</ele>
        <time>2017-09-16T10:11:02Z</time>
      </trkpt>
      <trkpt lat="47.55555" lon="-0.23139">
        <ele>65</ele>
        <time>2017-09-16T10:11:07Z</time>
      </trkpt>
      <trkpt lat="47.55555" lon="-0.23144">
        <ele>65.2</ele>
        <time>2017-09-16T10:11:12Z</time>
      </trkpt>
      <trkpt lat="47.5556" lon="-0.2315">
        <ele>65.2</ele>
        <time>2017-09-16T10:11:17Z</time>
      </trkpt>
      <trkpt lat="47.55564" lon="-0.23154">
        <ele>65.1</ele>
        <time>2017-09-16T10:11:22Z</time>
      </trkpt>
      <trkpt lat="47.55565" lon="-0.23153">
        <ele>65</ele>
        <time>2017-09-16T10:11:27Z</time>
      </trkpt>
      <trkpt lat="47.55565" lon="-0.23153">
        <ele>65</ele>
        <time>2017-09-16T10:11:32Z</time>
      </trkpt>
      <trkpt lat="47.55566" lon="-0.23153">
        <ele>65</ele>
        <time>2017-09-16T10:11:37Z</time>
      </trkpt>
      <trkpt lat="47.55566" lon="-0.23153">
        <ele>65</ele>
        <time>2017-09-16T10:11:42Z</time>
      </trkpt>
      <trkpt lat="47.55566" lon="-0.23153">
        <ele>65</ele>
        <time>2017-09-16T10:11:47Z</time>
      </trkpt>
      <trkpt lat="47.55566" lon="-0.23153">
        <ele>65</ele>
        <time>2017-09-16T10:11:52Z</time>
      </trkpt>
      <trkpt lat="47.55566" lon="-0.23153">
        <ele>65</ele>
        <time>2017-09-16T10:11:57Z</time>
      </trkpt>
      <trkpt lat="47.55566" lon="-0.23153">
        <ele>65</ele>
        <time>2017-09-16T10:12:02Z</time>
      </trkpt>
      <trkpt lat="47.55566" lon="-0.23153">
        <ele>65</ele>
        <time>2017-09-16T10:12:07Z</time>
      </trkpt>
      <trkpt lat="47.55566" lon="-0.23152">
        <ele>64.9</ele>
        <time>2017-09-16T10:12:12Z</time>
      </trkpt>
      <trkpt lat="47.55567" lon="-0.23154">
        <ele>64.9</ele>
        <time>2017-09-16T10:12:17Z</time>
      </trkpt>
      <trkpt lat="47.55567" lon="-0.23155">
        <ele>64.9</ele>
        <time>2017-09-16T10:12:22Z</time>
      </trkpt>
      <trkpt lat="47.55567" lon="-0.23155">
        <ele>64.9</ele>
        <time>2017-09-16T10:12:27Z</time>
      </trkpt>
      <trkpt lat="47.55567" lon="-0.23155">
        <ele>64.9</ele>
        <time>2017-09-16T10:12:32Z</time>
      </trkpt>
      <trkpt lat="47.55567" lon="-0.23155">
        <ele>64.9</ele>
        <time>2017-09-16T10:12:37Z</time>
      </trkpt>
      <trkpt lat="47.55567" lon="-0.23155">
        <ele>64.9</ele>
        <time>2017-09-16T10:12:42Z</time>
      </trkpt>
      <trkpt lat="47.55567" lon="-0.23155">
        <ele>64.9</ele>
        <time>2017-09-16T10:12:47Z</time>
      </trkpt>
      <trkpt lat="47.55567" lon="-0.23155">
        <ele>64.9</ele>
        <time>2017-09-16T10:12:52Z</time>
      </trkpt>
      <trkpt lat="47.55567" lon="-0.23155">
        <ele>64.9</ele>
        <time>2017-09-16T10:12:57Z</time>
      </trkpt>
      <trkpt lat="47.55569" lon="-0.23157">
        <ele>64.8</ele>
        <time>2017-09-16T10:13:02Z</time>
      </trkpt>
      <trkpt lat="47.55572" lon="-0.23162">
        <ele>64.7</ele>
        <time>2017-09-16T10:13:07Z</time>
      </trkpt>
      <trkpt lat="47.55575" lon="-0.23166">
        <ele>64.6</ele>
        <time>2017-09-16T10:13:12Z</time>
      </trkpt>
      <trkpt lat="47.55577" lon="-0.23168">
        <ele>64.5</ele>
        <time>2017-09-16T10:13:17Z</time>
      </trkpt>
      <trkpt lat="47.55581" lon="-0.23172">
        <ele>64.4</ele>
        <time>2017-09-16T10:13:22Z</time>
      </trkpt>
      <trkpt lat="47.55584" lon="-0.23176">
        <ele>64.3</ele>
        <time>2017-09-16T10:13:27Z</time>
      </trkpt>
      <trkpt lat="47.55587" lon="-0.23179">
        <ele>64.3</ele>
        <time>2017-09-16T10:13:32Z</time>
      </trkpt>
      <trkpt lat="47.55588" lon="-0.23182">
        <ele>64.4</ele>
        <time>2017-09-16T10:13:37Z</time>
      </trkpt>
      <trkpt lat="47.55588" lon="-0.23182">
        <ele>64.4</ele>
        <time>2017-09-16T10:13:42Z</time>
      </trkpt>
      <trkpt lat="47.55588" lon="-0.23182">
        <ele>64.4</ele>
        <time>2017-09-16T10:13:47Z</time>
      </trkpt>
      <trkpt lat="47.55589" lon="-0.23184">
        <ele>64.4</ele>
        <time>2017-09-16T10:13:52Z</time>
      </trkpt>
      <trkpt lat="47.55592" lon="-0.23188">
        <ele>64.4</ele>
        <time>2017-09-16T10:13:57Z</time>
      </trkpt>
      <trkpt lat="47.55595" lon="-0.2319">
        <ele>64.4</ele>
        <time>2017-09-16T10:14:02Z</time>
      </trkpt>
      <trkpt lat="47.55599" lon="-0.23194">
        <ele>64.4</ele>
        <time>2017-09-16T10:14:07Z</time>
      </trkpt>
      <trkpt lat="47.55603" lon="-0.23196">
        <ele>64.3</ele>
        <time>2017-09-16T10:14:12Z</time>
      </trkpt>
      <trkpt lat="47.55606" lon="-0.23198">
        <ele>64.3</ele>
        <time>2017-09-16T10:14:17Z</time>
      </trkpt>
      <trkpt lat="47.55609" lon="-0.23201">
        <ele>64.3</ele>
        <time>2017-09-16T10:14:22Z</time>
      </trkpt>
      <trkpt lat="47.55611" lon="-0.23201">
        <ele>64.2</ele>
        <time>2017-09-16T10:14:27Z</time>
      </trkpt>
      <trkpt lat="47.5561" lon="-0.23201">
        <ele>64.3</ele>
        <time>2017-09-16T10:14:32Z</time>
      </trkpt>
      <trkpt lat="47.55612" lon="-0.23198">
        <ele>64.1</ele>
        <time>2017-09-16T10:14:37Z</time>
      </trkpt>
      <trkpt lat="47.55613" lon="-0.23198">
        <ele>64.1</ele>
        <time>2017-09-16T10:14:42Z</time>
      </trkpt>
      <trkpt lat="47.55613" lon="-0.23202">
        <ele>64.2</ele>
        <time>2017-09-16T10:14:47Z</time>
      </trkpt>
      <trkpt lat="47.5561" lon="-0.23206">
        <ele>64.4</ele>
        <time>2017-09-16T10:14:52Z</time>
      </trkpt>
      <trkpt lat="47.55608" lon="-0.2321">
        <ele>64.6</ele>
        <time>2017-09-16T10:14:57Z</time>
      </trkpt>
      <trkpt lat="47.55608" lon="-0.23211">
        <ele>64.6</ele>
        <time>2017-09-16T10:15:02Z</time>
      </trkpt>
      <trkpt lat="47.55606" lon="-0.23212">
        <ele>64.7</ele>
        <time>2017-09-16T10:15:07Z</time>
      </trkpt>
      <trkpt lat="47.55605" lon="-0.23215">
        <ele>64.8</ele>
        <time>2017-09-16T10:15:12Z</time>
      </trkpt>
      <trkpt lat="47.55601" lon="-0.2322">
        <ele>64.9</ele>
        <time>2017-09-16T10:15:17Z</time>
      </trkpt>
      <trkpt lat="47.55597" lon="-0.23224">
        <ele>65.1</ele>
        <time>2017-09-16T10:15:22Z</time>
      </trkpt>
      <trkpt lat="47.55594" lon="-0.23227">
        <ele>65.3</ele>
        <time>2017-09-16T10:15:27Z</time>
      </trkpt>
      <trkpt lat="47.55591" lon="-0.23231">
        <ele>65.5</ele>
        <time>2017-09-16T10:15:32Z</time>
      </trkpt>
      <trkpt lat="47.55589" lon="-0.23234">
        <ele>65.8</ele>
        <time>2017-09-16T10:15:37Z</time>
      </trkpt>
      <trkpt lat="47.55588" lon="-0.23236">
        <ele>65.9</ele>
        <time>2017-09-16T10:15:42Z</time>
      </trkpt>
      <trkpt lat="47.55589" lon="-0.23235">
        <ele>65.8</ele>
        <time>2017-09-16T10:15:47Z</time>
      </trkpt>
      <trkpt lat="47.55589" lon="-0.23235">
        <ele>65.8</ele>
        <time>2017-09-16T10:15:52Z</time>
      </trkpt>
      <trkpt lat="47.55589" lon="-0.23235">
        <ele>65.8</ele>
        <time>2017-09-16T10:15:57Z</time>
      </trkpt>
      <trkpt lat="47.55589" lon="-0.23235">
        <ele>65.8</ele>
        <time>2017-09-16T10:16:02Z</time>
      </trkpt>
      <trkpt lat="47.55588" lon="-0.23235">
        <ele>65.8</ele>
        <time>2017-09-16T10:16:07Z</time>
      </trkpt>
      <trkpt lat="47.55588" lon="-0.23237">
        <ele>66</ele>
        <time>2017-09-16T10:16:12Z</time>
      </trkpt>
      <trkpt lat="47.55586" lon="-0.2324">
        <ele>66.2</ele>
        <time>2017-09-16T10:16:17Z</time>
      </trkpt>
      <trkpt lat="47.55588" lon="-0.23247">
        <ele>66.6</ele>
        <time>2017-09-16T10:16:22Z</time>
      </trkpt>
      <trkpt lat="47.55591" lon="-0.23254">
        <ele>66.8</ele>
        <time>2017-09-16T10:16:27Z</time>
      </trkpt>
      <trkpt lat="47.55594" lon="-0.23261">
        <ele>66.8</ele>
        <time>2017-09-16T10:16:32Z</time>
      </trkpt>
      <trkpt lat="47.55597" lon="-0.23267">
        <ele>66.8</ele>
        <time>2017-09-16T10:16:37Z</time>
      </trkpt>
      <trkpt lat="47.55601" lon="-0.23275">
        <ele>66.9</ele>
        <time>2017-09-16T10:16:42Z</time>
      </trkpt>
      <trkpt lat="47.55604" lon="-0.23281">
        <ele>67.1</ele>
        <time>2017-09-16T10:16:47Z</time>
      </trkpt>
      <trkpt lat="47.55606" lon="-0.2328">
        <ele>67.1</ele>
        <time>2017-09-16T10:16:52Z</time>
      </trkpt>
      <trkpt lat="47.55606" lon="-0.23279">
        <ele>67</ele>
        <time>2017-09-16T10:16:57Z</time>
      </trkpt>
      <trkpt lat="47.55606" lon="-0.23279">
        <ele>67</ele>
        <time>2017-09-16T10:17:02Z</time>
      </trkpt>
      <trkpt lat="47.55606" lon="-0.23279">
        <ele>67</ele>
        <time>2017-09-16T10:17:07Z</time>
      </trkpt>
      <trkpt lat="47.55606" lon="-0.23279">
        <ele>67</ele>
        <time>2017-09-16T10:17:12Z</time>
      </trkpt>
      <trkpt lat="47.55605" lon="-0.23279">
        <ele>67.1</ele>
        <time>2017-09-16T10:17:17Z</time>
      </trkpt>
      <trkpt lat="47.55607" lon="-0.23281">
        <ele>67.1</ele>
        <time>2017-09-16T10:17:22Z</time>
      </trkpt>
      <trkpt lat="47.55607" lon="-0.23279">
        <ele>67</ele>
        <time>2017-09-16T10:17:27Z</time>
      </trkpt>
      <trkpt lat="47.55609" lon="-0.23279">
        <ele>67</ele>
        <time>2017-09-16T10:17:32Z</time>
      </trkpt>
      <trkpt lat="47.5561" lon="-0.2328">
        <ele>67.1</ele>
        <time>2017-09-16T10:17:37Z</time>
      </trkpt>
      <trkpt lat="47.55612" lon="-0.2328">
        <ele>67</ele>
        <time>2017-09-16T10:17:42Z</time>
      </trkpt>
      <trkpt lat="47.55613" lon="-0.23279">
        <ele>67</ele>
        <time>2017-09-16T10:17:47Z</time>
      </trkpt>
      <trkpt lat="47.55613" lon="-0.23279">
        <ele>67</ele>
        <time>2017-09-16T10:17:52Z</time>
      </trkpt>
      <trkpt lat="47.55613" lon="-0.2328">
        <ele>67</ele>
        <time>2017-09-16T10:17:57Z</time>
      </trkpt>
      <trkpt lat="47.55613" lon="-0.23281">
        <ele>67</ele>
        <time>2017-09-16T10:18:02Z</time>
      </trkpt>
      <trkpt lat="47.55607" lon="-0.23286">
        <ele>67.3</ele>
        <time>2017-09-16T10:18:07Z</time>
      </trkpt>
      <trkpt lat="47.55605" lon="-0.23288">
        <ele>67.4</ele>
        <time>2017-09-16T10:18:12Z</time>
      </trkpt>
      <trkpt lat="47.55603" lon="-0.23291">
        <ele>67.5</ele>
        <time>2017-09-16T10:18:17Z</time>
      </trkpt>
      <trkpt lat="47.55603" lon="-0.23291">
        <ele>67.5</ele>
        <time>2017-09-16T10:18:22Z</time>
      </trkpt>
      <trkpt lat="47.55603" lon="-0.23289">
        <ele>67.4</ele>
        <time>2017-09-16T10:18:27Z</time>
      </trkpt>
      <trkpt lat="47.55603" lon="-0.23288">
        <ele>67.4</ele>
        <time>2017-09-16T10:18:32Z</time>
      </trkpt>
      <trkpt lat="47.55602" lon="-0.23289">
        <ele>67.4</ele>
        <time>2017-09-16T10:18:37Z</time>
      </trkpt>
      <trkpt lat="47.55602" lon="-0.23289">
        <ele>67.4</ele>
        <time>2017-09-16T10:18:42Z</time>
      </trkpt>
      <trkpt lat="47.55602" lon="-0.23289">
        <ele>67.4</ele>
        <time>2017-09-16T10:18:47Z</time>
      </trkpt>
      <trkpt lat="47.55602" lon="-0.23289">
        <ele>67.4</ele>
        <time>2017-09-16T10:18:52Z</time>
      </trkpt>
      <trkpt lat="47.55602" lon="-0.23289">
        <ele>67.4</ele>
        <time>2017-09-16T10:18:57Z</time>
      </trkpt>
      <trkpt lat="47.55602" lon="-0.23289">
        <ele>67.4</ele>
        <time>2017-09-16T10:19:02Z</time>
      </trkpt>
      <trkpt lat="47.55602" lon="-0.23289">
        <ele>67.4</ele>
        <time>2017-09-16T10:19:07Z</time>
      </trkpt>
      <trkpt lat="47.55602" lon="-0.23289">
        <ele>67.4</ele>
        <time>2017-09-16T10:19:12Z</time>
      </trkpt>
      <trkpt lat="47.55602" lon="-0.23289">
        <ele>67.4</ele>
        <time>2017-09-16T10:19:17Z</time>
      </trkpt>
      <trkpt lat="47.55602" lon="-0.23289">
        <ele>67.4</ele>
        <time>2017-09-16T10:19:22Z</time>
      </trkpt>
      <trkpt lat="47.55602" lon="-0.23289">
        <ele>67.4</ele>
        <time>2017-09-16T10:19:27Z</time>
      </trkpt>
      <trkpt lat="47.55602" lon="-0.23289">
        <ele>67.4</ele>
        <time>2017-09-16T10:19:32Z</time>
      </trkpt>
      <trkpt lat="47.55602" lon="-0.23289">
        <ele>67.4</ele>
        <time>2017-09-16T10:19:37Z</time>
      </trkpt>
      <trkpt lat="47.55602" lon="-0.23289">
        <ele>67.4</ele>
        <time>2017-09-16T10:19:42Z</time>
      </trkpt>
      <trkpt lat="47.55602" lon="-0.23289">
        <ele>67.4</ele>
        <time>2017-09-16T10:19:47Z</time>
      </trkpt>
      <trkpt lat="47.55602" lon="-0.23289">
        <ele>67.4</ele>
        <time>2017-09-16T10:19:52Z</time>
      </trkpt>
      <trkpt lat="47.55602" lon="-0.23289">
        <ele>67.4</ele>
        <time>2017-09-16T10:19:57Z</time>
      </trkpt>
      <trkpt lat="47.55602" lon="-0.23289">
        <ele>67.4</ele>
        <time>2017-09-16T10:20:02Z</time>
      </trkpt>
      <trkpt lat="47.55602" lon="-0.23289">
        <ele>67.4</ele>
        <time>2017-09-16T10:20:07Z</time>
      </trkpt>
      <trkpt lat="47.55602" lon="-0.23289">
        <ele>67.4</ele>
        <time>2017-09-16T10:20:12Z</time>
      </trkpt>
      <trkpt lat="47.55602" lon="-0.23289">
        <ele>67.4</ele>
        <time>2017-09-16T10:20:17Z</time>
      </trkpt>
      <trkpt lat="47.55602" lon="-0.23289">
        <ele>67.4</ele>
        <time>2017-09-16T10:20:22Z</time>
      </trkpt>
      <trkpt lat="47.55602" lon="-0.23289">
        <ele>67.4</ele>
        <time>2017-09-16T10:20:27Z</time>
      </trkpt>
      <trkpt lat="47.55602" lon="-0.23289">
        <ele>67.4</ele>
        <time>2017-09-16T10:20:32Z</time>
      </trkpt>
      <trkpt lat="47.55602" lon="-0.23289">
        <ele>67.4</ele>
        <time>2017-09-16T10:20:37Z</time>
      </trkpt>
      <trkpt lat="47.55602" lon="-0.23289">
        <ele>67.4</ele>
        <time>2017-09-16T10:20:42Z</time>
      </trkpt>
      <trkpt lat="47.55602" lon="-0.23289">
        <ele>67.4</ele>
        <time>2017-09-16T10:20:47Z</time>
      </trkpt>
      <trkpt lat="47.55602" lon="-0.23289">
        <ele>67.4</ele>
        <time>2017-09-16T10:20:52Z</time>
      </trkpt>
      <trkpt lat="47.55602" lon="-0.23289">
        <ele>67.4</ele>
        <time>2017-09-16T10:20:57Z</time>
      </trkpt>
      <trkpt lat="47.55602" lon="-0.23289">
        <ele>67.4</ele>
        <time>2017-09-16T10:21:02Z</time>
      </trkpt>
      <trkpt lat="47.55603" lon="-0.23289">
        <ele>67.4</ele>
        <time>2017-09-16T10:21:07Z</time>
      </trkpt>
      <trkpt lat="47.55603" lon="-0.23289">
        <ele>67.4</ele>
        <time>2017-09-16T10:21:12Z</time>
      </trkpt>
      <trkpt lat="47.55603" lon="-0.23288">
        <ele>67.4</ele>
        <time>2017-09-16T10:21:17Z</time>
      </trkpt>
      <trkpt lat="47.55603" lon="-0.23288">
        <ele>67.4</ele>
        <time>2017-09-16T10:21:22Z</time>
      </trkpt>
      <trkpt lat="47.55603" lon="-0.23288">
        <ele>67.4</ele>
        <time>2017-09-16T10:21:27Z</time>
      </trkpt>
      <trkpt lat="47.55603" lon="-0.23288">
        <ele>67.4</ele>
        <time>2017-09-16T10:21:32Z</time>
      </trkpt>
      <trkpt lat="47.55603" lon="-0.23288">
        <ele>67.4</ele>
        <time>2017-09-16T10:21:37Z</time>
      </trkpt>
      <trkpt lat="47.55603" lon="-0.23288">
        <ele>67.4</ele>
        <time>2017-09-16T10:21:42Z</time>
      </trkpt>
      <trkpt lat="47.55603" lon="-0.23288">
        <ele>67.4</ele>
        <time>2017-09-16T10:21:47Z</time>
      </trkpt>
      <trkpt lat="47.55603" lon="-0.23288">
        <ele>67.4</ele>
        <time>2017-09-16T10:21:52Z</time>
      </trkpt>
      <trkpt lat="47.55603" lon="-0.23288">
        <ele>67.4</ele>
        <time>2017-09-16T10:21:57Z</time>
      </trkpt>
      <trkpt lat="47.55603" lon="-0.23288">
        <ele>67.4</ele>
        <time>2017-09-16T10:22:02Z</time>
      </trkpt>
      <trkpt lat="47.55603" lon="-0.23288">
        <ele>67.4</ele>
        <time>2017-09-16T10:22:07Z</time>
      </trkpt>
      <trkpt lat="47.55603" lon="-0.23288">
        <ele>67.4</ele>
        <time>2017-09-16T10:22:12Z</time>
      </trkpt>
      <trkpt lat="47.55603" lon="-0.23288">
        <ele>67.4</ele>
        <time>2017-09-16T10:22:17Z</time>
      </trkpt>
      <trkpt lat="47.55603" lon="-0.23288">
        <ele>67.4</ele>
        <time>2017-09-16T10:22:22Z</time>
      </trkpt>
      <trkpt lat="47.55603" lon="-0.23288">
        <ele>67.4</ele>
        <time>2017-09-16T10:22:27Z</time>
      </trkpt>
      <trkpt lat="47.55603" lon="-0.23288">
        <ele>67.4</ele>
        <time>2017-09-16T10:22:32Z</time>
      </trkpt>
      <trkpt lat="47.55603" lon="-0.23288">
        <ele>67.4</ele>
        <time>2017-09-16T10:22:37Z</time>
      </trkpt>
      <trkpt lat="47.55603" lon="-0.23288">
        <ele>67.4</ele>
        <time>2017-09-16T10:22:42Z</time>
      </trkpt>
      <trkpt lat="47.55603" lon="-0.23288">
        <ele>67.4</ele>
        <time>2017-09-16T10:22:47Z</time>
      </trkpt>
      <trkpt lat="47.55603" lon="-0.23288">
        <ele>67.4</ele>
        <time>2017-09-16T10:22:52Z</time>
      </trkpt>
      <trkpt lat="47.55603" lon="-0.23288">
        <ele>67.4</ele>
        <time>2017-09-16T10:22:57Z</time>
      </trkpt>
      <trkpt lat="47.55603" lon="-0.23288">
        <ele>67.4</ele>
        <time>2017-09-16T10:23:02Z</time>
      </trkpt>
      <trkpt lat="47.55603" lon="-0.23288">
        <ele>67.4</ele>
        <time>2017-09-16T10:23:07Z</time>
      </trkpt>
      <trkpt lat="47.55603" lon="-0.23288">
        <ele>67.4</ele>
        <time>2017-09-16T10:23:12Z</time>
      </trkpt>
      <trkpt lat="47.55603" lon="-0.23288">
        <ele>67.4</ele>
        <time>2017-09-16T10:23:17Z</time>
      </trkpt>
      <trkpt lat="47.55603" lon="-0.23288">
        <ele>67.4</ele>
        <time>2017-09-16T10:23:22Z</time>
      </trkpt>
      <trkpt lat="47.55603" lon="-0.23288">
        <ele>67.4</ele>
        <time>2017-09-16T10:23:27Z</time>
      </trkpt>
      <trkpt lat="47.55603" lon="-0.23288">
        <ele>67.4</ele>
        <time>2017-09-16T10:23:32Z</time>
      </trkpt>
      <trkpt lat="47.55603" lon="-0.23288">
        <ele>67.4</ele>
        <time>2017-09-16T10:23:37Z</time>
      </trkpt>
      <trkpt lat="47.55603" lon="-0.23288">
        <ele>67.4</ele>
        <time>2017-09-16T10:23:42Z</time>
      </trkpt>
      <trkpt lat="47.55603" lon="-0.23288">
        <ele>67.4</ele>
        <time>2017-09-16T10:23:47Z</time>
      </trkpt>
      <trkpt lat="47.55603" lon="-0.23288">
        <ele>67.4</ele>
        <time>2017-09-16T10:23:52Z</time>
      </trkpt>
      <trkpt lat="47.55603" lon="-0.23288">
        <ele>67.4</ele>
        <time>2017-09-16T10:23:57Z</time>
      </trkpt>
      <trkpt lat="47.55603" lon="-0.23288">
        <ele>67.4</ele>
        <time>2017-09-16T10:24:02Z</time>
      </trkpt>
      <trkpt lat="47.55603" lon="-0.23288">
        <ele>67.4</ele>
        <time>2017-09-16T10:24:07Z</time>
      </trkpt>
      <trkpt lat="47.55603" lon="-0.23288">
        <ele>67.4</ele>
        <time>2017-09-16T10:24:12Z</time>
      </trkpt>
      <trkpt lat="47.55603" lon="-0.23288">
        <ele>67.4</ele>
        <time>2017-09-16T10:24:17Z</time>
      </trkpt>
      <trkpt lat="47.55603" lon="-0.23288">
        <ele>67.4</ele>
        <time>2017-09-16T10:24:22Z</time>
      </trkpt>
      <trkpt lat="47.55603" lon="-0.23288">
        <ele>67.4</ele>
        <time>2017-09-16T10:24:27Z</time>
      </trkpt>
      <trkpt lat="47.55603" lon="-0.23288">
        <ele>67.4</ele>
        <time>2017-09-16T10:24:32Z</time>
      </trkpt>
      <trkpt lat="47.55603" lon="-0.23288">
        <ele>67.4</ele>
        <time>2017-09-16T10:24:37Z</time>
      </trkpt>
      <trkpt lat="47.55603" lon="-0.23288">
        <ele>67.4</ele>
        <time>2017-09-16T10:24:42Z</time>
      </trkpt>
      <trkpt lat="47.55603" lon="-0.23288">
        <ele>67.4</ele>
        <time>2017-09-16T10:24:47Z</time>
      </trkpt>
      <trkpt lat="47.55603" lon="-0.23288">
        <ele>67.4</ele>
        <time>2017-09-16T10:24:52Z</time>
      </trkpt>
      <trkpt lat="47.55603" lon="-0.23288">
        <ele>67.4</ele>
        <time>2017-09-16T10:24:57Z</time>
      </trkpt>
      <trkpt lat="47.55603" lon="-0.23288">
        <ele>67.4</ele>
        <time>2017-09-16T10:25:02Z</time>
      </trkpt>
      <trkpt lat="47.55604" lon="-0.23288">
        <ele>67.4</ele>
        <time>2017-09-16T10:25:07Z</time>
      </trkpt>
      <trkpt lat="47.55604" lon="-0.23288">
        <ele>67.4</ele>
        <time>2017-09-16T10:25:12Z</time>
      </trkpt>
      <trkpt lat="47.55604" lon="-0.23288">
        <ele>67.4</ele>
        <time>2017-09-16T10:25:17Z</time>
      </trkpt>
      <trkpt lat="47.55604" lon="-0.23288">
        <ele>67.4</ele>
        <time>2017-09-16T10:25:22Z</time>
      </trkpt>
      <trkpt lat="47.55604" lon="-0.23288">
        <ele>67.4</ele>
        <time>2017-09-16T10:25:27Z</time>
      </trkpt>
      <trkpt lat="47.55604" lon="-0.23288">
        <ele>67.4</ele>
        <time>2017-09-16T10:25:32Z</time>
      </trkpt>
      <trkpt lat="47.55604" lon="-0.23288">
        <ele>67.4</ele>
        <time>2017-09-16T10:25:37Z</time>
      </trkpt>
      <trkpt lat="47.55604" lon="-0.23287">
        <ele>67.3</ele>
        <time>2017-09-16T10:25:42Z</time>
      </trkpt>
      <trkpt lat="47.55604" lon="-0.23287">
        <ele>67.3</ele>
        <time>2017-09-16T10:25:47Z</time>
      </trkpt>
      <trkpt lat="47.55604" lon="-0.23287">
        <ele>67.3</ele>
        <time>2017-09-16T10:25:52Z</time>
      </trkpt>
      <trkpt lat="47.55604" lon="-0.23287">
        <ele>67.3</ele>
        <time>2017-09-16T10:25:57Z</time>
      </trkpt>
      <trkpt lat="47.55604" lon="-0.23287">
        <ele>67.3</ele>
        <time>2017-09-16T10:26:02Z</time>
      </trkpt>
      <trkpt lat="47.55604" lon="-0.23287">
        <ele>67.3</ele>
        <time>2017-09-16T10:26:07Z</time>
      </trkpt>
      <trkpt lat="47.55604" lon="-0.23287">
        <ele>67.3</ele>
        <time>2017-09-16T10:26:12Z</time>
      </trkpt>
      <trkpt lat="47.55604" lon="-0.23287">
        <ele>67.3</ele>
        <time>2017-09-16T10:26:17Z</time>
      </trkpt>
      <trkpt lat="47.55604" lon="-0.23287">
        <ele>67.3</ele>
        <time>2017-09-16T10:26:22Z</time>
      </trkpt>
      <trkpt lat="47.55604" lon="-0.23287">
        <ele>67.3</ele>
        <time>2017-09-16T10:26:27Z</time>
      </trkpt>
      <trkpt lat="47.55604" lon="-0.23287">
        <ele>67.3</ele>
        <time>2017-09-16T10:26:32Z</time>
      </trkpt>
      <trkpt lat="47.55604" lon="-0.23287">
        <ele>67.3</ele>
        <time>2017-09-16T10:26:37Z</time>
      </trkpt>
      <trkpt lat="47.55604" lon="-0.23287">
        <ele>67.3</ele>
        <time>2017-09-16T10:26:42Z</time>
      </trkpt>
      <trkpt lat="47.55604" lon="-0.23287">
        <ele>67.3</ele>
        <time>2017-09-16T10:26:47Z</time>
      </trkpt>
      <trkpt lat="47.55604" lon="-0.23287">
        <ele>67.3</ele>
        <time>2017-09-16T10:26:52Z</time>
      </trkpt>
      <trkpt lat="47.55604" lon="-0.23287">
        <ele>67.3</ele>
        <time>2017-09-16T10:26:57Z</time>
      </trkpt>
      <trkpt lat="47.55604" lon="-0.23287">
        <ele>67.3</ele>
        <time>2017-09-16T10:27:02Z</time>
      </trkpt>
      <trkpt lat="47.55604" lon="-0.23286">
        <ele>67.3</ele>
        <time>2017-09-16T10:27:07Z</time>
      </trkpt>
      <trkpt lat="47.55604" lon="-0.23286">
        <ele>67.3</ele>
        <time>2017-09-16T10:27:12Z</time>
      </trkpt>
      <trkpt lat="47.55604" lon="-0.23285">
        <ele>67.3</ele>
        <time>2017-09-16T10:27:17Z</time>
      </trkpt>
      <trkpt lat="47.55604" lon="-0.23285">
        <ele>67.3</ele>
        <time>2017-09-16T10:27:22Z</time>
      </trkpt>
      <trkpt lat="47.55604" lon="-0.23285">
        <ele>67.2</ele>
        <time>2017-09-16T10:27:27Z</time>
      </trkpt>
      <trkpt lat="47.55604" lon="-0.23285">
        <ele>67.2</ele>
        <time>2017-09-16T10:27:32Z</time>
      </trkpt>
      <trkpt lat="47.55604" lon="-0.23285">
        <ele>67.2</ele>
        <time>2017-09-16T10:27:37Z</time>
      </trkpt>
      <trkpt lat="47.55604" lon="-0.23285">
        <ele>67.2</ele>
        <time>2017-09-16T10:27:42Z</time>
      </trkpt>
      <trkpt lat="47.55604" lon="-0.23285">
        <ele>67.2</ele>
        <time>2017-09-16T10:27:47Z</time>
      </trkpt>
      <trkpt lat="47.55604" lon="-0.23285">
        <ele>67.3</ele>
        <time>2017-09-16T10:27:52Z</time>
      </trkpt>
      <trkpt lat="47.55604" lon="-0.23285">
        <ele>67.2</ele>
        <time>2017-09-16T10:27:57Z</time>
      </trkpt>
      <trkpt lat="47.55604" lon="-0.23285">
        <ele>67.2</ele>
        <time>2017-09-16T10:28:02Z</time>
      </trkpt>
      <trkpt lat="47.55604" lon="-0.23285">
        <ele>67.3</ele>
        <time>2017-09-16T10:28:07Z</time>
      </trkpt>
      <trkpt lat="47.55604" lon="-0.23285">
        <ele>67.3</ele>
        <time>2017-09-16T10:28:12Z</time>
      </trkpt>
      <trkpt lat="47.55604" lon="-0.23285">
        <ele>67.3</ele>
        <time>2017-09-16T10:28:17Z</time>
      </trkpt>
      <trkpt lat="47.55604" lon="-0.23285">
        <ele>67.3</ele>
        <time>2017-09-16T10:28:22Z</time>
      </trkpt>
      <trkpt lat="47.55604" lon="-0.23285">
        <ele>67.3</ele>
        <time>2017-09-16T10:28:27Z</time>
      </trkpt>
      <trkpt lat="47.55604" lon="-0.23285">
        <ele>67.3</ele>
        <time>2017-09-16T10:28:32Z</time>
      </trkpt>
      <trkpt lat="47.55604" lon="-0.23285">
        <ele>67.3</ele>
        <time>2017-09-16T10:28:37Z</time>
      </trkpt>
      <trkpt lat="47.55604" lon="-0.23285">
        <ele>67.3</ele>
        <time>2017-09-16T10:28:42Z</time>
      </trkpt>
      <trkpt lat="47.55604" lon="-0.23285">
        <ele>67.3</ele>
        <time>2017-09-16T10:28:47Z</time>
      </trkpt>
      <trkpt lat="47.55604" lon="-0.23285">
        <ele>67.3</ele>
        <time>2017-09-16T10:28:52Z</time>
      </trkpt>
      <trkpt lat="47.55604" lon="-0.23285">
        <ele>67.3</ele>
        <time>2017-09-16T10:28:57Z</time>
      </trkpt>
      <trkpt lat="47.55604" lon="-0.23285">
        <ele>67.3</ele>
        <time>2017-09-16T10:29:02Z</time>
      </trkpt>
      <trkpt lat="47.55604" lon="-0.23285">
        <ele>67.3</ele>
        <time>2017-09-16T10:29:07Z</time>
      </trkpt>
      <trkpt lat="47.55604" lon="-0.23285">
        <ele>67.3</ele>
        <time>2017-09-16T10:29:12Z</time>
      </trkpt>
      <trkpt lat="47.55604" lon="-0.23285">
        <ele>67.3</ele>
        <time>2017-09-16T10:29:17Z</time>
      </trkpt>
      <trkpt lat="47.55604" lon="-0.23285">
        <ele>67.3</ele>
        <time>2017-09-16T10:29:22Z</time>
      </trkpt>
      <trkpt lat="47.55604" lon="-0.23285">
        <ele>67.3</ele>
        <time>2017-09-16T10:29:27Z</time>
      </trkpt>
      <trkpt lat="47.55604" lon="-0.23285">
        <ele>67.3</ele>
        <time>2017-09-16T10:29:32Z</time>
      </trkpt>
      <trkpt lat="47.55604" lon="-0.23285">
        <ele>67.3</ele>
        <time>2017-09-16T10:29:37Z</time>
      </trkpt>
      <trkpt lat="47.55604" lon="-0.23285">
        <ele>67.3</ele>
        <time>2017-09-16T10:29:42Z</time>
      </trkpt>
      <trkpt lat="47.55604" lon="-0.23285">
        <ele>67.3</ele>
        <time>2017-09-16T10:29:47Z</time>
      </trkpt>
      <trkpt lat="47.55604" lon="-0.23285">
        <ele>67.3</ele>
        <time>2017-09-16T10:29:52Z</time>
      </trkpt>
      <trkpt lat="47.55604" lon="-0.23285">
        <ele>67.3</ele>
        <time>2017-09-16T10:29:57Z</time>
      </trkpt>
      <trkpt lat="47.55604" lon="-0.23285">
        <ele>67.3</ele>
        <time>2017-09-16T10:30:02Z</time>
      </trkpt>
      <trkpt lat="47.55604" lon="-0.23285">
        <ele>67.3</ele>
        <time>2017-09-16T10:30:07Z</time>
      </trkpt>
      <trkpt lat="47.55604" lon="-0.23285">
        <ele>67.3</ele>
        <time>2017-09-16T10:30:12Z</time>
      </trkpt>
      <trkpt lat="47.55604" lon="-0.23285">
        <ele>67.3</ele>
        <time>2017-09-16T10:30:17Z</time>
      </trkpt>
      <trkpt lat="47.55604" lon="-0.23285">
        <ele>67.3</ele>
        <time>2017-09-16T10:30:22Z</time>
      </trkpt>
      <trkpt lat="47.55604" lon="-0.23285">
        <ele>67.3</ele>
        <time>2017-09-16T10:30:27Z</time>
      </trkpt>
      <trkpt lat="47.55604" lon="-0.23285">
        <ele>67.3</ele>
        <time>2017-09-16T10:30:32Z</time>
      </trkpt>
      <trkpt lat="47.55604" lon="-0.23285">
        <ele>67.3</ele>
        <time>2017-09-16T10:30:37Z</time>
      </trkpt>
      <trkpt lat="47.55604" lon="-0.23285">
        <ele>67.3</ele>
        <time>2017-09-16T10:30:42Z</time>
      </trkpt>
      <trkpt lat="47.55604" lon="-0.23286">
        <ele>67.3</ele>
        <time>2017-09-16T10:30:47Z</time>
      </trkpt>
      <trkpt lat="47.55604" lon="-0.23285">
        <ele>67.3</ele>
        <time>2017-09-16T10:30:52Z</time>
      </trkpt>
      <trkpt lat="47.55604" lon="-0.23286">
        <ele>67.3</ele>
        <time>2017-09-16T10:30:57Z</time>
      </trkpt>
      <trkpt lat="47.55604" lon="-0.23286">
        <ele>67.3</ele>
        <time>2017-09-16T10:31:02Z</time>
      </trkpt>
      <trkpt lat="47.55604" lon="-0.23285">
        <ele>67.3</ele>
        <time>2017-09-16T10:31:07Z</time>
      </trkpt>
      <trkpt lat="47.55604" lon="-0.23286">
        <ele>67.3</ele>
        <time>2017-09-16T10:31:12Z</time>
      </trkpt>
      <trkpt lat="47.55604" lon="-0.23285">
        <ele>67.3</ele>
        <time>2017-09-16T10:31:17Z</time>
      </trkpt>
      <trkpt lat="47.55604" lon="-0.23285">
        <ele>67.3</ele>
        <time>2017-09-16T10:31:22Z</time>
      </trkpt>
      <trkpt lat="47.55604" lon="-0.23285">
        <ele>67.3</ele>
        <time>2017-09-16T10:31:27Z</time>
      </trkpt>
      <trkpt lat="47.55604" lon="-0.23285">
        <ele>67.3</ele>
        <time>2017-09-16T10:31:32Z</time>
      </trkpt>
      <trkpt lat="47.55604" lon="-0.23285">
        <ele>67.3</ele>
        <time>2017-09-16T10:31:37Z</time>
      </trkpt>
      <trkpt lat="47.55604" lon="-0.23285">
        <ele>67.3</ele>
        <time>2017-09-16T10:31:42Z</time>
      </trkpt>
      <trkpt lat="47.55604" lon="-0.23285">
        <ele>67.3</ele>
        <time>2017-09-16T10:31:47Z</time>
      </trkpt>
      <trkpt lat="47.55604" lon="-0.23285">
        <ele>67.3</ele>
        <time>2017-09-16T10:31:52Z</time>
      </trkpt>
      <trkpt lat="47.55604" lon="-0.23285">
        <ele>67.3</ele>
        <time>2017-09-16T10:31:57Z</time>
      </trkpt>
      <trkpt lat="47.55604" lon="-0.23285">
        <ele>67.3</ele>
        <time>2017-09-16T10:32:02Z</time>
      </trkpt>
      <trkpt lat="47.55604" lon="-0.23285">
        <ele>67.3</ele>
        <time>2017-09-16T10:32:07Z</time>
      </trkpt>
      <trkpt lat="47.55604" lon="-0.23285">
        <ele>67.3</ele>
        <time>2017-09-16T10:32:12Z</time>
      </trkpt>
      <trkpt lat="47.55604" lon="-0.23286">
        <ele>67.3</ele>
        <time>2017-09-16T10:32:17Z</time>
      </trkpt>
      <trkpt lat="47.55604" lon="-0.23285">
        <ele>67.3</ele>
        <time>2017-09-16T10:32:22Z</time>
      </trkpt>
      <trkpt lat="47.55604" lon="-0.23286">
        <ele>67.3</ele>
        <time>2017-09-16T10:32:27Z</time>
      </trkpt>
      <trkpt lat="47.55604" lon="-0.23286">
        <ele>67.3</ele>
        <time>2017-09-16T10:32:32Z</time>
      </trkpt>
      <trkpt lat="47.55604" lon="-0.23286">
        <ele>67.3</ele>
        <time>2017-09-16T10:32:37Z</time>
      </trkpt>
      <trkpt lat="47.55604" lon="-0.23286">
        <ele>67.3</ele>
        <time>2017-09-16T10:32:42Z</time>
      </trkpt>
      <trkpt lat="47.55604" lon="-0.23286">
        <ele>67.3</ele>
        <time>2017-09-16T10:32:47Z</time>
      </trkpt>
      <trkpt lat="47.55603" lon="-0.23286">
        <ele>67.3</ele>
        <time>2017-09-16T10:32:52Z</time>
      </trkpt>
      <trkpt lat="47.55603" lon="-0.23286">
        <ele>67.3</ele>
        <time>2017-09-16T10:32:57Z</time>
      </trkpt>
      <trkpt lat="47.55603" lon="-0.23286">
        <ele>67.3</ele>
        <time>2017-09-16T10:33:02Z</time>
      </trkpt>
      <trkpt lat="47.55603" lon="-0.23286">
        <ele>67.3</ele>
        <time>2017-09-16T10:33:07Z</time>
      </trkpt>
      <trkpt lat="47.55603" lon="-0.23286">
        <ele>67.3</ele>
        <time>2017-09-16T10:33:12Z</time>
      </trkpt>
      <trkpt lat="47.55603" lon="-0.23286">
        <ele>67.3</ele>
        <time>2017-09-16T10:33:17Z</time>
      </trkpt>
      <trkpt lat="47.55603" lon="-0.23286">
        <ele>67.3</ele>
        <time>2017-09-16T10:33:22Z</time>
      </trkpt>
      <trkpt lat="47.55603" lon="-0.23286">
        <ele>67.3</ele>
        <time>2017-09-16T10:33:27Z</time>
      </trkpt>
      <trkpt lat="47.55603" lon="-0.23286">
        <ele>67.3</ele>
        <time>2017-09-16T10:33:32Z</time>
      </trkpt>
      <trkpt lat="47.55603" lon="-0.23286">
        <ele>67.3</ele>
        <time>2017-09-16T10:33:37Z</time>
      </trkpt>
      <trkpt lat="47.55603" lon="-0.23286">
        <ele>67.3</ele>
        <time>2017-09-16T10:33:42Z</time>
      </trkpt>
      <trkpt lat="47.55603" lon="-0.23286">
        <ele>67.3</ele>
        <time>2017-09-16T10:33:47Z</time>
      </trkpt>
      <trkpt lat="47.55603" lon="-0.23286">
        <ele>67.3</ele>
        <time>2017-09-16T10:33:52Z</time>
      </trkpt>
      <trkpt lat="47.55603" lon="-0.23286">
        <ele>67.3</ele>
        <time>2017-09-16T10:33:57Z</time>
      </trkpt>
      <trkpt lat="47.55603" lon="-0.23286">
        <ele>67.3</ele>
        <time>2017-09-16T10:34:02Z</time>
      </trkpt>
      <trkpt lat="47.55603" lon="-0.23286">
        <ele>67.3</ele>
        <time>2017-09-16T10:34:07Z</time>
      </trkpt>
      <trkpt lat="47.55603" lon="-0.23285">
        <ele>67.3</ele>
        <time>2017-09-16T10:34:12Z</time>
      </trkpt>
      <trkpt lat="47.55603" lon="-0.23285">
        <ele>67.3</ele>
        <time>2017-09-16T10:34:17Z</time>
      </trkpt>
      <trkpt lat="47.55603" lon="-0.23285">
        <ele>67.3</ele>
        <time>2017-09-16T10:34:22Z</time>
      </trkpt>
      <trkpt lat="47.55603" lon="-0.23285">
        <ele>67.3</ele>
        <time>2017-09-16T10:34:27Z</time>
      </trkpt>
      <trkpt lat="47.55603" lon="-0.23285">
        <ele>67.3</ele>
        <time>2017-09-16T10:34:32Z</time>
      </trkpt>
      <trkpt lat="47.55603" lon="-0.23285">
        <ele>67.3</ele>
        <time>2017-09-16T10:34:37Z</time>
      </trkpt>
      <trkpt lat="47.55603" lon="-0.23285">
        <ele>67.3</ele>
        <time>2017-09-16T10:34:42Z</time>
      </trkpt>
      <trkpt lat="47.55603" lon="-0.23285">
        <ele>67.3</ele>
        <time>2017-09-16T10:34:47Z</time>
      </trkpt>
      <trkpt lat="47.55603" lon="-0.23285">
        <ele>67.3</ele>
        <time>2017-09-16T10:34:52Z</time>
      </trkpt>
      <trkpt lat="47.55603" lon="-0.23285">
        <ele>67.3</ele>
        <time>2017-09-16T10:34:57Z</time>
      </trkpt>
      <trkpt lat="47.55603" lon="-0.23285">
        <ele>67.3</ele>
        <time>2017-09-16T10:35:02Z</time>
      </trkpt>
      <trkpt lat="47.55603" lon="-0.23285">
        <ele>67.3</ele>
        <time>2017-09-16T10:35:07Z</time>
      </trkpt>
      <trkpt lat="47.55603" lon="-0.23285">
        <ele>67.3</ele>
        <time>2017-09-16T10:35:12Z</time>
      </trkpt>
      <trkpt lat="47.55603" lon="-0.23285">
        <ele>67.2</ele>
        <time>2017-09-16T10:35:17Z</time>
      </trkpt>
      <trkpt lat="47.55603" lon="-0.23285">
        <ele>67.2</ele>
        <time>2017-09-16T10:35:22Z</time>
      </trkpt>
      <trkpt lat="47.55603" lon="-0.23285">
        <ele>67.2</ele>
        <time>2017-09-16T10:35:27Z</time>
      </trkpt>
      <trkpt lat="47.55603" lon="-0.23284">
        <ele>67.2</ele>
        <time>2017-09-16T10:35:32Z</time>
      </trkpt>
      <trkpt lat="47.55603" lon="-0.23284">
        <ele>67.2</ele>
        <time>2017-09-16T10:35:37Z</time>
      </trkpt>
      <trkpt lat="47.55603" lon="-0.23284">
        <ele>67.2</ele>
        <time>2017-09-16T10:35:42Z</time>
      </trkpt>
      <trkpt lat="47.55603" lon="-0.23284">
        <ele>67.2</ele>
        <time>2017-09-16T10:35:47Z</time>
      </trkpt>
      <trkpt lat="47.55603" lon="-0.23284">
        <ele>67.2</ele>
        <time>2017-09-16T10:35:52Z</time>
      </trkpt>
      <trkpt lat="47.55603" lon="-0.23284">
        <ele>67.2</ele>
        <time>2017-09-16T10:35:57Z</time>
      </trkpt>
      <trkpt lat="47.55603" lon="-0.23284">
        <ele>67.2</ele>
        <time>2017-09-16T10:36:02Z</time>
      </trkpt>
      <trkpt lat="47.55603" lon="-0.23284">
        <ele>67.2</ele>
        <time>2017-09-16T10:36:07Z</time>
      </trkpt>
      <trkpt lat="47.55603" lon="-0.23284">
        <ele>67.2</ele>
        <time>2017-09-16T10:36:12Z</time>
      </trkpt>
      <trkpt lat="47.55603" lon="-0.23284">
        <ele>67.2</ele>
        <time>2017-09-16T10:36:17Z</time>
      </trkpt>
      <trkpt lat="47.55603" lon="-0.23284">
        <ele>67.2</ele>
        <time>2017-09-16T10:36:22Z</time>
      </trkpt>
      <trkpt lat="47.55603" lon="-0.23284">
        <ele>67.2</ele>
        <time>2017-09-16T10:36:27Z</time>
      </trkpt>
      <trkpt lat="47.55603" lon="-0.23284">
        <ele>67.2</ele>
        <time>2017-09-16T10:36:32Z</time>
      </trkpt>
      <trkpt lat="47.55603" lon="-0.23284">
        <ele>67.2</ele>
        <time>2017-09-16T10:36:37Z</time>
      </trkpt>
      <trkpt lat="47.55603" lon="-0.23284">
        <ele>67.2</ele>
        <time>2017-09-16T10:36:42Z</time>
      </trkpt>
      <trkpt lat="47.55603" lon="-0.23284">
        <ele>67.2</ele>
        <time>2017-09-16T10:36:47Z</time>
      </trkpt>
      <trkpt lat="47.55603" lon="-0.23284">
        <ele>67.2</ele>
        <time>2017-09-16T10:36:52Z</time>
      </trkpt>
      <trkpt lat="47.55603" lon="-0.23284">
        <ele>67.2</ele>
        <time>2017-09-16T10:36:57Z</time>
      </trkpt>
      <trkpt lat="47.55603" lon="-0.23284">
        <ele>67.2</ele>
        <time>2017-09-16T10:37:02Z</time>
      </trkpt>
      <trkpt lat="47.55603" lon="-0.23284">
        <ele>67.2</ele>
        <time>2017-09-16T10:37:07Z</time>
      </trkpt>
      <trkpt lat="47.55603" lon="-0.23284">
        <ele>67.2</ele>
        <time>2017-09-16T10:37:12Z</time>
      </trkpt>
      <trkpt lat="47.55603" lon="-0.23284">
        <ele>67.2</ele>
        <time>2017-09-16T10:37:17Z</time>
      </trkpt>
      <trkpt lat="47.55603" lon="-0.23284">
        <ele>67.2</ele>
        <time>2017-09-16T10:37:22Z</time>
      </trkpt>
      <trkpt lat="47.55603" lon="-0.23284">
        <ele>67.2</ele>
        <time>2017-09-16T10:37:27Z</time>
      </trkpt>
      <trkpt lat="47.55603" lon="-0.23284">
        <ele>67.2</ele>
        <time>2017-09-16T10:37:32Z</time>
      </trkpt>
      <trkpt lat="47.55603" lon="-0.23284">
        <ele>67.2</ele>
        <time>2017-09-16T10:37:37Z</time>
      </trkpt>
      <trkpt lat="47.55598" lon="-0.23284">
        <ele>67.2</ele>
        <time>2017-09-16T10:37:42Z</time>
      </trkpt>
      <trkpt lat="47.55598" lon="-0.23284">
        <ele>67.2</ele>
        <time>2017-09-16T10:37:47Z</time>
      </trkpt>
      <trkpt lat="47.55598" lon="-0.23284">
        <ele>67.2</ele>
        <time>2017-09-16T10:37:52Z</time>
      </trkpt>
      <trkpt lat="47.55598" lon="-0.23284">
        <ele>67.2</ele>
        <time>2017-09-16T10:37:57Z</time>
      </trkpt>
      <trkpt lat="47.55598" lon="-0.23283">
        <ele>67.2</ele>
        <time>2017-09-16T10:38:02Z</time>
      </trkpt>
      <trkpt lat="47.55598" lon="-0.23283">
        <ele>67.2</ele>
        <time>2017-09-16T10:38:07Z</time>
      </trkpt>
      <trkpt lat="47.55597" lon="-0.2328">
        <ele>67.1</ele>
        <time>2017-09-16T10:38:12Z</time>
      </trkpt>
      <trkpt lat="47.55597" lon="-0.23272">
        <ele>66.9</ele>
        <time>2017-09-16T10:38:17Z</time>
      </trkpt>
      <trkpt lat="47.55595" lon="-0.23263">
        <ele>66.8</ele>
        <time>2017-09-16T10:38:22Z</time>
      </trkpt>
      <trkpt lat="47.55591" lon="-0.23256">
        <ele>66.8</ele>
        <time>2017-09-16T10:38:27Z</time>
      </trkpt>
      <trkpt lat="47.55588" lon="-0.23249">
        <ele>66.8</ele>
        <time>2017-09-16T10:38:32Z</time>
      </trkpt>
      <trkpt lat="47.55583" lon="-0.23243">
        <ele>66.5</ele>
        <time>2017-09-16T10:38:37Z</time>
      </trkpt>
      <trkpt lat="47.55586" lon="-0.23241">
        <ele>66.3</ele>
        <time>2017-09-16T10:38:42Z</time>
      </trkpt>
      <trkpt lat="47.55585" lon="-0.23242">
        <ele>66.4</ele>
        <time>2017-09-16T10:38:47Z</time>
      </trkpt>
      <trkpt lat="47.55583" lon="-0.23242">
        <ele>66.4</ele>
        <time>2017-09-16T10:38:52Z</time>
      </trkpt>
      <trkpt lat="47.5558" lon="-0.23242">
        <ele>66.5</ele>
        <time>2017-09-16T10:38:57Z</time>
      </trkpt>
      <trkpt lat="47.55575" lon="-0.23247">
        <ele>66.9</ele>
        <time>2017-09-16T10:39:02Z</time>
      </trkpt>
      <trkpt lat="47.55572" lon="-0.23254">
        <ele>67.1</ele>
        <time>2017-09-16T10:39:07Z</time>
      </trkpt>
      <trkpt lat="47.55569" lon="-0.2326">
        <ele>67.2</ele>
        <time>2017-09-16T10:39:12Z</time>
      </trkpt>
      <trkpt lat="47.55563" lon="-0.23266">
        <ele>67.4</ele>
        <time>2017-09-16T10:39:17Z</time>
      </trkpt>
      <trkpt lat="47.55559" lon="-0.23272">
        <ele>67.7</ele>
        <time>2017-09-16T10:39:22Z</time>
      </trkpt>
      <trkpt lat="47.55555" lon="-0.23278">
        <ele>68</ele>
        <time>2017-09-16T10:39:27Z</time>
      </trkpt>
      <trkpt lat="47.5555" lon="-0.23283">
        <ele>68.4</ele>
        <time>2017-09-16T10:39:32Z</time>
      </trkpt>
      <trkpt lat="47.55546" lon="-0.23288">
        <ele>68.7</ele>
        <time>2017-09-16T10:39:37Z</time>
      </trkpt>
      <trkpt lat="47.55541" lon="-0.23294">
        <ele>69.1</ele>
        <time>2017-09-16T10:39:42Z</time>
      </trkpt>
      <trkpt lat="47.55537" lon="-0.23299">
        <ele>69.4</ele>
        <time>2017-09-16T10:39:47Z</time>
      </trkpt>
      <trkpt lat="47.55532" lon="-0.23303">
        <ele>69.7</ele>
        <time>2017-09-16T10:39:52Z</time>
      </trkpt>
      <trkpt lat="47.55527" lon="-0.23307">
        <ele>70.1</ele>
        <time>2017-09-16T10:39:57Z</time>
      </trkpt>
      <trkpt lat="47.55523" lon="-0.23313">
        <ele>70.4</ele>
        <time>2017-09-16T10:40:02Z</time>
      </trkpt>
      <trkpt lat="47.55521" lon="-0.23324">
        <ele>70.9</ele>
        <time>2017-09-16T10:40:07Z</time>
      </trkpt>
      <trkpt lat="47.5552" lon="-0.23327">
        <ele>71</ele>
        <time>2017-09-16T10:40:12Z</time>
      </trkpt>
      <trkpt lat="47.55519" lon="-0.23325">
        <ele>71</ele>
        <time>2017-09-16T10:40:17Z</time>
      </trkpt>
      <trkpt lat="47.55519" lon="-0.23325">
        <ele>71</ele>
        <time>2017-09-16T10:40:22Z</time>
      </trkpt>
      <trkpt lat="47.55519" lon="-0.23322">
        <ele>70.9</ele>
        <time>2017-09-16T10:40:27Z</time>
      </trkpt>
      <trkpt lat="47.55522" lon="-0.23321">
        <ele>70.8</ele>
        <time>2017-09-16T10:40:32Z</time>
      </trkpt>
      <trkpt lat="47.55523" lon="-0.23322">
        <ele>70.8</ele>
        <time>2017-09-16T10:40:37Z</time>
      </trkpt>
      <trkpt lat="47.55523" lon="-0.2332">
        <ele>70.7</ele>
        <time>2017-09-16T10:40:42Z</time>
      </trkpt>
      <trkpt lat="47.55523" lon="-0.23321">
        <ele>70.7</ele>
        <time>2017-09-16T10:40:47Z</time>
      </trkpt>
      <trkpt lat="47.55523" lon="-0.23322">
        <ele>70.7</ele>
        <time>2017-09-16T10:40:52Z</time>
      </trkpt>
      <trkpt lat="47.55525" lon="-0.23322">
        <ele>70.7</ele>
        <time>2017-09-16T10:40:57Z</time>
      </trkpt>
      <trkpt lat="47.55529" lon="-0.23321">
        <ele>70.5</ele>
        <time>2017-09-16T10:41:02Z</time>
      </trkpt>
      <trkpt lat="47.5553" lon="-0.23321">
        <ele>70.5</ele>
        <time>2017-09-16T10:41:07Z</time>
      </trkpt>
      <trkpt lat="47.55528" lon="-0.23322">
        <ele>70.6</ele>
        <time>2017-09-16T10:41:12Z</time>
      </trkpt>
      <trkpt lat="47.55523" lon="-0.23315">
        <ele>70.5</ele>
        <time>2017-09-16T10:41:17Z</time>
      </trkpt>
      <trkpt lat="47.55521" lon="-0.23307">
        <ele>70.3</ele>
        <time>2017-09-16T10:41:22Z</time>
      </trkpt>
      <trkpt lat="47.55518" lon="-0.23304">
        <ele>70.3</ele>
        <time>2017-09-16T10:41:27Z</time>
      </trkpt>
      <trkpt lat="47.55518" lon="-0.23302">
        <ele>70.2</ele>
        <time>2017-09-16T10:41:32Z</time>
      </trkpt>
      <trkpt lat="47.55518" lon="-0.23301">
        <ele>70.2</ele>
        <time>2017-09-16T10:41:37Z</time>
      </trkpt>
      <trkpt lat="47.55518" lon="-0.233">
        <ele>70.2</ele>
        <time>2017-09-16T10:41:42Z</time>
      </trkpt>
      <trkpt lat="47.55517" lon="-0.23304">
        <ele>70.3</ele>
        <time>2017-09-16T10:41:47Z</time>
      </trkpt>
      <trkpt lat="47.55523" lon="-0.23302">
        <ele>70.1</ele>
        <time>2017-09-16T10:41:52Z</time>
      </trkpt>
      <trkpt lat="47.55525" lon="-0.23301">
        <ele>69.9</ele>
        <time>2017-09-16T10:41:57Z</time>
      </trkpt>
      <trkpt lat="47.55525" lon="-0.23301">
        <ele>69.9</ele>
        <time>2017-09-16T10:42:02Z</time>
      </trkpt>
      <trkpt lat="47.55521" lon="-0.23297">
        <ele>69.9</ele>
        <time>2017-09-16T10:42:07Z</time>
      </trkpt>
      <trkpt lat="47.55517" lon="-0.23304">
        <ele>70.3</ele>
        <time>2017-09-16T10:42:12Z</time>
      </trkpt>
      <trkpt lat="47.55517" lon="-0.23319">
        <ele>70.9</ele>
        <time>2017-09-16T10:42:17Z</time>
      </trkpt>
      <trkpt lat="47.55518" lon="-0.23334">
        <ele>71.4</ele>
        <time>2017-09-16T10:42:22Z</time>
      </trkpt>
      <trkpt lat="47.55523" lon="-0.23338">
        <ele>71.4</ele>
        <time>2017-09-16T10:42:27Z</time>
      </trkpt>
      <trkpt lat="47.55526" lon="-0.23343">
        <ele>71.4</ele>
        <time>2017-09-16T10:42:32Z</time>
      </trkpt>
      <trkpt lat="47.55527" lon="-0.23349">
        <ele>71.6</ele>
        <time>2017-09-16T10:42:37Z</time>
      </trkpt>
      <trkpt lat="47.55527" lon="-0.23346">
        <ele>71.5</ele>
        <time>2017-09-16T10:42:42Z</time>
      </trkpt>
      <trkpt lat="47.55522" lon="-0.23347">
        <ele>71.8</ele>
        <time>2017-09-16T10:42:47Z</time>
      </trkpt>
      <trkpt lat="47.55523" lon="-0.23348">
        <ele>71.8</ele>
        <time>2017-09-16T10:42:52Z</time>
      </trkpt>
      <trkpt lat="47.55522" lon="-0.23351">
        <ele>72</ele>
        <time>2017-09-16T10:42:57Z</time>
      </trkpt>
      <trkpt lat="47.55518" lon="-0.23351">
        <ele>72.2</ele>
        <time>2017-09-16T10:43:02Z</time>
      </trkpt>
      <trkpt lat="47.55508" lon="-0.23347">
        <ele>72.6</ele>
        <time>2017-09-16T10:43:07Z</time>
      </trkpt>
      <trkpt lat="47.55501" lon="-0.23343">
        <ele>72.7</ele>
        <time>2017-09-16T10:43:12Z</time>
      </trkpt>
      <trkpt lat="47.55491" lon="-0.2334">
        <ele>72.9</ele>
        <time>2017-09-16T10:43:17Z</time>
      </trkpt>
      <trkpt lat="47.55489" lon="-0.23343">
        <ele>73.3</ele>
        <time>2017-09-16T10:43:22Z</time>
      </trkpt>
      <trkpt lat="47.55482" lon="-0.23346">
        <ele>73.8</ele>
        <time>2017-09-16T10:43:27Z</time>
      </trkpt>
      <trkpt lat="47.55494" lon="-0.23355">
        <ele>74</ele>
        <time>2017-09-16T10:43:32Z</time>
      </trkpt>
      <trkpt lat="47.55504" lon="-0.23361">
        <ele>73.8</ele>
        <time>2017-09-16T10:43:37Z</time>
      </trkpt>
      <trkpt lat="47.55513" lon="-0.23364">
        <ele>73.3</ele>
        <time>2017-09-16T10:43:42Z</time>
      </trkpt>
      <trkpt lat="47.5552" lon="-0.23367">
        <ele>72.8</ele>
        <time>2017-09-16T10:43:47Z</time>
      </trkpt>
      <trkpt lat="47.55537" lon="-0.23366">
        <ele>71.8</ele>
        <time>2017-09-16T10:43:52Z</time>
      </trkpt>
      <trkpt lat="47.55544" lon="-0.23365">
        <ele>71.6</ele>
        <time>2017-09-16T10:43:57Z</time>
      </trkpt>
      <trkpt lat="47.55548" lon="-0.23366">
        <ele>71.4</ele>
        <time>2017-09-16T10:44:02Z</time>
      </trkpt>
      <trkpt lat="47.55551" lon="-0.23371">
        <ele>71.5</ele>
        <time>2017-09-16T10:44:07Z</time>
      </trkpt>
      <trkpt lat="47.55552" lon="-0.23376">
        <ele>71.6</ele>
        <time>2017-09-16T10:44:12Z</time>
      </trkpt>
      <trkpt lat="47.55559" lon="-0.23392">
        <ele>72</ele>
        <time>2017-09-16T10:44:17Z</time>
      </trkpt>
      <trkpt lat="47.55561" lon="-0.23393">
        <ele>71.9</ele>
        <time>2017-09-16T10:44:22Z</time>
      </trkpt>
      <trkpt lat="47.55556" lon="-0.23403">
        <ele>72.5</ele>
        <time>2017-09-16T10:44:27Z</time>
      </trkpt>
      <trkpt lat="47.55564" lon="-0.23419">
        <ele>72.5</ele>
        <time>2017-09-16T10:44:32Z</time>
      </trkpt>
      <trkpt lat="47.55572" lon="-0.23436">
        <ele>72.8</ele>
        <time>2017-09-16T10:44:37Z</time>
      </trkpt>
      <trkpt lat="47.55579" lon="-0.23459">
        <ele>72.6</ele>
        <time>2017-09-16T10:44:42Z</time>
      </trkpt>
      <trkpt lat="47.55579" lon="-0.23467">
        <ele>72.6</ele>
        <time>2017-09-16T10:44:47Z</time>
      </trkpt>
      <trkpt lat="47.55568" lon="-0.23466">
        <ele>74.1</ele>
        <time>2017-09-16T10:44:52Z</time>
      </trkpt>
      <trkpt lat="47.55565" lon="-0.23462">
        <ele>74.4</ele>
        <time>2017-09-16T10:44:57Z</time>
      </trkpt>
      <trkpt lat="47.55557" lon="-0.23457">
        <ele>75.3</ele>
        <time>2017-09-16T10:45:02Z</time>
      </trkpt>
      <trkpt lat="47.5555" lon="-0.23452">
        <ele>75.9</ele>
        <time>2017-09-16T10:45:07Z</time>
      </trkpt>
      <trkpt lat="47.55544" lon="-0.23452">
        <ele>76.5</ele>
        <time>2017-09-16T10:45:12Z</time>
      </trkpt>
    </trkseg>
  </trk>
</gpx>